<gpx xmlns="http://www.topografix.com/GPX/1/1" xmlns:xsi="http://www.w3.org/2001/XMLSchema-instance" version="1.1" xsi:schemaLocation="http://www.topografix.com/GPX/1/1 http://www.topografix.com/GPX/1/1/gpx.xsd" creator="MotionXGPSFull 24.1 Build 5049R64">
<trk>
<name>NG 31-8-16</name>
<desc>31 Aug 2016  8:26 am</desc>
<trkseg>
<trkpt lat="-27.3589078" lon="152.9698972">
<ele>31.662</ele>
<time>2016-08-30T22:26:42.000Z</time>
</trkpt>
<trkpt lat="-27.3589078" lon="152.9698972">
<ele>31.654</ele>
<time>2016-08-30T22:30:02.719Z</time>
</trkpt>
<trkpt lat="-27.3588149" lon="152.9697073">
<ele>31.647</ele>
<time>2016-08-30T22:30:16.156Z</time>
</trkpt>
<trkpt lat="-27.3587665" lon="152.9696209">
<ele>31.792</ele>
<time>2016-08-30T22:30:20.142Z</time>
</trkpt>
<trkpt lat="-27.3588422" lon="152.9695268">
<ele>32.203</ele>
<time>2016-08-30T22:30:24.193Z</time>
</trkpt>
<trkpt lat="-27.3589358" lon="152.9694348">
<ele>32.709</ele>
<time>2016-08-30T22:30:27.725Z</time>
</trkpt>
<trkpt lat="-27.3590125" lon="152.9693281">
<ele>33.145</ele>
<time>2016-08-30T22:30:30.893Z</time>
</trkpt>
<trkpt lat="-27.3590580" lon="152.9692111">
<ele>33.542</ele>
<time>2016-08-30T22:30:33.869Z</time>
</trkpt>
<trkpt lat="-27.3590860" lon="152.9691057">
<ele>33.991</ele>
<time>2016-08-30T22:30:36.473Z</time>
</trkpt>
<trkpt lat="-27.3591224" lon="152.9690021">
<ele>34.623</ele>
<time>2016-08-30T22:30:38.882Z</time>
</trkpt>
<trkpt lat="-27.3592001" lon="152.9689047">
<ele>35.465</ele>
<time>2016-08-30T22:30:41.021Z</time>
</trkpt>
<trkpt lat="-27.3593325" lon="152.9688950">
<ele>36.451</ele>
<time>2016-08-30T22:30:43.024Z</time>
</trkpt>
<trkpt lat="-27.3594461" lon="152.9688973">
<ele>37.386</ele>
<time>2016-08-30T22:30:44.937Z</time>
</trkpt>
<trkpt lat="-27.3595765" lon="152.9689060">
<ele>37.977</ele>
<time>2016-08-30T22:30:47.362Z</time>
</trkpt>
<trkpt lat="-27.3597118" lon="152.9689125">
<ele>38.159</ele>
<time>2016-08-30T22:30:50.050Z</time>
</trkpt>
<trkpt lat="-27.3598187" lon="152.9689063">
<ele>38.155</ele>
<time>2016-08-30T22:30:52.063Z</time>
</trkpt>
<trkpt lat="-27.3599169" lon="152.9689037">
<ele>38.164</ele>
<time>2016-08-30T22:30:54.033Z</time>
</trkpt>
<trkpt lat="-27.3600161" lon="152.9689168">
<ele>38.233</ele>
<time>2016-08-30T22:30:56.352Z</time>
</trkpt>
<trkpt lat="-27.3601222" lon="152.9688952">
<ele>38.212</ele>
<time>2016-08-30T22:30:59.999Z</time>
</trkpt>
<trkpt lat="-27.3601222" lon="152.9688952">
<ele>38.008</ele>
<time>2016-08-30T22:31:02.999Z</time>
</trkpt>
<trkpt lat="-27.3601222" lon="152.9688952">
<ele>37.810</ele>
<time>2016-08-30T22:31:12.289Z</time>
</trkpt>
<trkpt lat="-27.3602864" lon="152.9688076">
<ele>37.823</ele>
<time>2016-08-30T22:31:15.942Z</time>
</trkpt>
<trkpt lat="-27.3604937" lon="152.9686732">
<ele>38.096</ele>
<time>2016-08-30T22:31:18.270Z</time>
</trkpt>
<trkpt lat="-27.3607675" lon="152.9685123">
<ele>38.633</ele>
<time>2016-08-30T22:31:21.211Z</time>
</trkpt>
<trkpt lat="-27.3609938" lon="152.9683519">
<ele>39.251</ele>
<time>2016-08-30T22:31:24.129Z</time>
</trkpt>
<trkpt lat="-27.3611951" lon="152.9684530">
<ele>39.463</ele>
<time>2016-08-30T22:31:26.547Z</time>
</trkpt>
<trkpt lat="-27.3613503" lon="152.9686471">
<ele>39.082</ele>
<time>2016-08-30T22:31:28.593Z</time>
</trkpt>
<trkpt lat="-27.3615915" lon="152.9689486">
<ele>38.481</ele>
<time>2016-08-30T22:31:31.541Z</time>
</trkpt>
<trkpt lat="-27.3617560" lon="152.9691543">
<ele>38.058</ele>
<time>2016-08-30T22:31:33.459Z</time>
</trkpt>
<trkpt lat="-27.3619283" lon="152.9693720">
<ele>37.912</ele>
<time>2016-08-30T22:31:35.430Z</time>
</trkpt>
<trkpt lat="-27.3621873" lon="152.9696998">
<ele>37.996</ele>
<time>2016-08-30T22:31:38.399Z</time>
</trkpt>
<trkpt lat="-27.3623547" lon="152.9699116">
<ele>38.284</ele>
<time>2016-08-30T22:31:40.356Z</time>
</trkpt>
<trkpt lat="-27.3625183" lon="152.9701241">
<ele>38.770</ele>
<time>2016-08-30T22:31:42.295Z</time>
</trkpt>
<trkpt lat="-27.3626953" lon="152.9703380">
<ele>39.338</ele>
<time>2016-08-30T22:31:44.302Z</time>
</trkpt>
<trkpt lat="-27.3628627" lon="152.9705346">
<ele>39.869</ele>
<time>2016-08-30T22:31:46.176Z</time>
</trkpt>
<trkpt lat="-27.3631361" lon="152.9708066">
<ele>40.284</ele>
<time>2016-08-30T22:31:48.986Z</time>
</trkpt>
<trkpt lat="-27.3634692" lon="152.9710549">
<ele>40.678</ele>
<time>2016-08-30T22:31:51.999Z</time>
</trkpt>
<trkpt lat="-27.3637007" lon="152.9711943">
<ele>41.284</ele>
<time>2016-08-30T22:31:53.985Z</time>
</trkpt>
<trkpt lat="-27.3639659" lon="152.9713541">
<ele>42.075</ele>
<time>2016-08-30T22:31:56.298Z</time>
</trkpt>
<trkpt lat="-27.3642526" lon="152.9715036">
<ele>43.095</ele>
<time>2016-08-30T22:31:58.862Z</time>
</trkpt>
<trkpt lat="-27.3644494" lon="152.9716137">
<ele>44.589</ele>
<time>2016-08-30T22:32:00.799Z</time>
</trkpt>
<trkpt lat="-27.3647192" lon="152.9717888">
<ele>46.516</ele>
<time>2016-08-30T22:32:03.792Z</time>
</trkpt>
<trkpt lat="-27.3649384" lon="152.9719636">
<ele>49.019</ele>
<time>2016-08-30T22:32:06.750Z</time>
</trkpt>
<trkpt lat="-27.3650189" lon="152.9720225">
<ele>52.333</ele>
<time>2016-08-30T22:32:07.999Z</time>
</trkpt>
<trkpt lat="-27.3650189" lon="152.9720225">
<ele>55.592</ele>
<time>2016-08-30T22:32:12.999Z</time>
</trkpt>
<trkpt lat="-27.3650189" lon="152.9720225">
<ele>57.269</ele>
<time>2016-08-30T22:32:13.099Z</time>
</trkpt>
<trkpt lat="-27.3651851" lon="152.9721433">
<ele>57.094</ele>
<time>2016-08-30T22:32:21.848Z</time>
</trkpt>
<trkpt lat="-27.3653110" lon="152.9721733">
<ele>56.979</ele>
<time>2016-08-30T22:32:23.626Z</time>
</trkpt>
<trkpt lat="-27.3655193" lon="152.9718380">
<ele>58.623</ele>
<time>2016-08-30T22:32:27.389Z</time>
</trkpt>
<trkpt lat="-27.3656461" lon="152.9715962">
<ele>61.392</ele>
<time>2016-08-30T22:32:29.377Z</time>
</trkpt>
<trkpt lat="-27.3657723" lon="152.9713384">
<ele>64.035</ele>
<time>2016-08-30T22:32:31.356Z</time>
</trkpt>
<trkpt lat="-27.3659893" lon="152.9709683">
<ele>66.345</ele>
<time>2016-08-30T22:32:34.240Z</time>
</trkpt>
<trkpt lat="-27.3662677" lon="152.9706127">
<ele>68.558</ele>
<time>2016-08-30T22:32:37.180Z</time>
</trkpt>
<trkpt lat="-27.3664829" lon="152.9703896">
<ele>70.918</ele>
<time>2016-08-30T22:32:39.129Z</time>
</trkpt>
<trkpt lat="-27.3667207" lon="152.9701720">
<ele>73.242</ele>
<time>2016-08-30T22:32:41.139Z</time>
</trkpt>
<trkpt lat="-27.3669646" lon="152.9699684">
<ele>75.059</ele>
<time>2016-08-30T22:32:43.139Z</time>
</trkpt>
<trkpt lat="-27.3672169" lon="152.9697858">
<ele>76.140</ele>
<time>2016-08-30T22:32:45.150Z</time>
</trkpt>
<trkpt lat="-27.3674944" lon="152.9696522">
<ele>76.571</ele>
<time>2016-08-30T22:32:47.233Z</time>
</trkpt>
<trkpt lat="-27.3677674" lon="152.9695407">
<ele>76.544</ele>
<time>2016-08-30T22:32:49.217Z</time>
</trkpt>
<trkpt lat="-27.3681831" lon="152.9693679">
<ele>76.363</ele>
<time>2016-08-30T22:32:52.113Z</time>
</trkpt>
<trkpt lat="-27.3686060" lon="152.9691295">
<ele>76.464</ele>
<time>2016-08-30T22:32:55.075Z</time>
</trkpt>
<trkpt lat="-27.3688729" lon="152.9689108">
<ele>77.452</ele>
<time>2016-08-30T22:32:57.060Z</time>
</trkpt>
<trkpt lat="-27.3691238" lon="152.9686491">
<ele>79.276</ele>
<time>2016-08-30T22:32:59.036Z</time>
</trkpt>
<trkpt lat="-27.3694766" lon="152.9682318">
<ele>80.968</ele>
<time>2016-08-30T22:33:01.874Z</time>
</trkpt>
<trkpt lat="-27.3697503" lon="152.9679342">
<ele>81.974</ele>
<time>2016-08-30T22:33:03.771Z</time>
</trkpt>
<trkpt lat="-27.3702682" lon="152.9675301">
<ele>82.746</ele>
<time>2016-08-30T22:33:06.795Z</time>
</trkpt>
<trkpt lat="-27.3708291" lon="152.9671807">
<ele>83.569</ele>
<time>2016-08-30T22:33:09.826Z</time>
</trkpt>
<trkpt lat="-27.3711901" lon="152.9669608">
<ele>84.186</ele>
<time>2016-08-30T22:33:11.825Z</time>
</trkpt>
<trkpt lat="-27.3715307" lon="152.9667404">
<ele>84.051</ele>
<time>2016-08-30T22:33:13.809Z</time>
</trkpt>
<trkpt lat="-27.3719565" lon="152.9663025">
<ele>83.036</ele>
<time>2016-08-30T22:33:16.786Z</time>
</trkpt>
<trkpt lat="-27.3721226" lon="152.9659245">
<ele>81.858</ele>
<time>2016-08-30T22:33:18.798Z</time>
</trkpt>
<trkpt lat="-27.3722851" lon="152.9653381">
<ele>81.248</ele>
<time>2016-08-30T22:33:21.778Z</time>
</trkpt>
<trkpt lat="-27.3724496" lon="152.9647659">
<ele>81.211</ele>
<time>2016-08-30T22:33:24.742Z</time>
</trkpt>
<trkpt lat="-27.3727461" lon="152.9642708">
<ele>81.566</ele>
<time>2016-08-30T22:33:27.660Z</time>
</trkpt>
<trkpt lat="-27.3730389" lon="152.9639977">
<ele>82.280</ele>
<time>2016-08-30T22:33:29.668Z</time>
</trkpt>
<trkpt lat="-27.3733192" lon="152.9636929">
<ele>83.582</ele>
<time>2016-08-30T22:33:31.698Z</time>
</trkpt>
<trkpt lat="-27.3735930" lon="152.9631286">
<ele>85.314</ele>
<time>2016-08-30T22:33:34.600Z</time>
</trkpt>
<trkpt lat="-27.3736780" lon="152.9626755">
<ele>86.695</ele>
<time>2016-08-30T22:33:36.585Z</time>
</trkpt>
<trkpt lat="-27.3737085" lon="152.9622015">
<ele>87.358</ele>
<time>2016-08-30T22:33:38.599Z</time>
</trkpt>
<trkpt lat="-27.3737455" lon="152.9615043">
<ele>88.022</ele>
<time>2016-08-30T22:33:41.584Z</time>
</trkpt>
<trkpt lat="-27.3737628" lon="152.9610447">
<ele>89.310</ele>
<time>2016-08-30T22:33:43.548Z</time>
</trkpt>
<trkpt lat="-27.3737950" lon="152.9603372">
<ele>90.878</ele>
<time>2016-08-30T22:33:46.539Z</time>
</trkpt>
<trkpt lat="-27.3738154" lon="152.9598732">
<ele>92.205</ele>
<time>2016-08-30T22:33:48.474Z</time>
</trkpt>
<trkpt lat="-27.3738372" lon="152.9593930">
<ele>93.195</ele>
<time>2016-08-30T22:33:50.446Z</time>
</trkpt>
<trkpt lat="-27.3738550" lon="152.9589027">
<ele>93.895</ele>
<time>2016-08-30T22:33:52.438Z</time>
</trkpt>
<trkpt lat="-27.3738862" lon="152.9581690">
<ele>94.544</ele>
<time>2016-08-30T22:33:55.460Z</time>
</trkpt>
<trkpt lat="-27.3739597" lon="152.9577118">
<ele>95.361</ele>
<time>2016-08-30T22:33:57.479Z</time>
</trkpt>
<trkpt lat="-27.3742254" lon="152.9571166">
<ele>96.246</ele>
<time>2016-08-30T22:34:00.494Z</time>
</trkpt>
<trkpt lat="-27.3745131" lon="152.9565972">
<ele>97.093</ele>
<time>2016-08-30T22:34:03.362Z</time>
</trkpt>
<trkpt lat="-27.3746759" lon="152.9562062">
<ele>97.978</ele>
<time>2016-08-30T22:34:05.356Z</time>
</trkpt>
<trkpt lat="-27.3747908" lon="152.9557797">
<ele>99.056</ele>
<time>2016-08-30T22:34:07.339Z</time>
</trkpt>
<trkpt lat="-27.3748540" lon="152.9553387">
<ele>100.376</ele>
<time>2016-08-30T22:34:09.259Z</time>
</trkpt>
<trkpt lat="-27.3748588" lon="152.9548516">
<ele>101.806</ele>
<time>2016-08-30T22:34:11.318Z</time>
</trkpt>
<trkpt lat="-27.3748437" lon="152.9541417">
<ele>102.986</ele>
<time>2016-08-30T22:34:14.321Z</time>
</trkpt>
<trkpt lat="-27.3748538" lon="152.9536926">
<ele>103.611</ele>
<time>2016-08-30T22:34:16.269Z</time>
</trkpt>
<trkpt lat="-27.3750155" lon="152.9530395">
<ele>103.707</ele>
<time>2016-08-30T22:34:19.214Z</time>
</trkpt>
<trkpt lat="-27.3753699" lon="152.9524703">
<ele>103.538</ele>
<time>2016-08-30T22:34:22.155Z</time>
</trkpt>
<trkpt lat="-27.3757965" lon="152.9519042">
<ele>103.373</ele>
<time>2016-08-30T22:34:25.204Z</time>
</trkpt>
<trkpt lat="-27.3762379" lon="152.9513819">
<ele>103.335</ele>
<time>2016-08-30T22:34:28.164Z</time>
</trkpt>
<trkpt lat="-27.3767428" lon="152.9509393">
<ele>103.374</ele>
<time>2016-08-30T22:34:31.149Z</time>
</trkpt>
<trkpt lat="-27.3772537" lon="152.9505095">
<ele>103.473</ele>
<time>2016-08-30T22:34:34.117Z</time>
</trkpt>
<trkpt lat="-27.3776103" lon="152.9502379">
<ele>103.973</ele>
<time>2016-08-30T22:34:36.128Z</time>
</trkpt>
<trkpt lat="-27.3781592" lon="152.9499091">
<ele>104.993</ele>
<time>2016-08-30T22:34:39.064Z</time>
</trkpt>
<trkpt lat="-27.3787357" lon="152.9496537">
<ele>105.953</ele>
<time>2016-08-30T22:34:42.024Z</time>
</trkpt>
<trkpt lat="-27.3791386" lon="152.9494820">
<ele>106.302</ele>
<time>2016-08-30T22:34:44.108Z</time>
</trkpt>
<trkpt lat="-27.3796190" lon="152.9490803">
<ele>105.880</ele>
<time>2016-08-30T22:34:47.065Z</time>
</trkpt>
<trkpt lat="-27.3800484" lon="152.9486295">
<ele>104.898</ele>
<time>2016-08-30T22:34:50.177Z</time>
</trkpt>
<trkpt lat="-27.3802835" lon="152.9483965">
<ele>103.775</ele>
<time>2016-08-30T22:34:52.219Z</time>
</trkpt>
<trkpt lat="-27.3806478" lon="152.9482501">
<ele>102.569</ele>
<time>2016-08-30T22:34:55.290Z</time>
</trkpt>
<trkpt lat="-27.3808293" lon="152.9482592">
<ele>101.373</ele>
<time>2016-08-30T22:34:57.190Z</time>
</trkpt>
<trkpt lat="-27.3810726" lon="152.9483372">
<ele>100.641</ele>
<time>2016-08-30T22:35:00.233Z</time>
</trkpt>
<trkpt lat="-27.3812055" lon="152.9483770">
<ele>100.717</ele>
<time>2016-08-30T22:35:02.417Z</time>
</trkpt>
<trkpt lat="-27.3813067" lon="152.9484377">
<ele>101.547</ele>
<time>2016-08-30T22:35:04.766Z</time>
</trkpt>
<trkpt lat="-27.3814161" lon="152.9484459">
<ele>102.581</ele>
<time>2016-08-30T22:35:08.034Z</time>
</trkpt>
<trkpt lat="-27.3815241" lon="152.9483998">
<ele>103.287</ele>
<time>2016-08-30T22:35:11.216Z</time>
</trkpt>
<trkpt lat="-27.3815858" lon="152.9482003">
<ele>103.787</ele>
<time>2016-08-30T22:35:13.695Z</time>
</trkpt>
<trkpt lat="-27.3816302" lon="152.9477219">
<ele>104.514</ele>
<time>2016-08-30T22:35:17.271Z</time>
</trkpt>
<trkpt lat="-27.3816536" lon="152.9474290">
<ele>105.455</ele>
<time>2016-08-30T22:35:19.250Z</time>
</trkpt>
<trkpt lat="-27.3816842" lon="152.9470100">
<ele>106.159</ele>
<time>2016-08-30T22:35:22.129Z</time>
</trkpt>
<trkpt lat="-27.3817211" lon="152.9467123">
<ele>106.186</ele>
<time>2016-08-30T22:35:24.077Z</time>
</trkpt>
<trkpt lat="-27.3818077" lon="152.9462149">
<ele>105.568</ele>
<time>2016-08-30T22:35:27.124Z</time>
</trkpt>
<trkpt lat="-27.3818566" lon="152.9458649">
<ele>104.860</ele>
<time>2016-08-30T22:35:29.065Z</time>
</trkpt>
<trkpt lat="-27.3819426" lon="152.9452866">
<ele>104.314</ele>
<time>2016-08-30T22:35:32.160Z</time>
</trkpt>
<trkpt lat="-27.3819919" lon="152.9449048">
<ele>103.610</ele>
<time>2016-08-30T22:35:34.219Z</time>
</trkpt>
<trkpt lat="-27.3820218" lon="152.9445530">
<ele>102.766</ele>
<time>2016-08-30T22:35:36.183Z</time>
</trkpt>
<trkpt lat="-27.3820582" lon="152.9442163">
<ele>102.164</ele>
<time>2016-08-30T22:35:38.111Z</time>
</trkpt>
<trkpt lat="-27.3821639" lon="152.9437100">
<ele>102.116</ele>
<time>2016-08-30T22:35:41.066Z</time>
</trkpt>
<trkpt lat="-27.3822734" lon="152.9433792">
<ele>102.701</ele>
<time>2016-08-30T22:35:43.064Z</time>
</trkpt>
<trkpt lat="-27.3824720" lon="152.9429142">
<ele>103.595</ele>
<time>2016-08-30T22:35:46.000Z</time>
</trkpt>
<trkpt lat="-27.3826972" lon="152.9424478">
<ele>104.364</ele>
<time>2016-08-30T22:35:49.047Z</time>
</trkpt>
<trkpt lat="-27.3828343" lon="152.9421458">
<ele>105.157</ele>
<time>2016-08-30T22:35:51.007Z</time>
</trkpt>
<trkpt lat="-27.3829686" lon="152.9418536">
<ele>106.286</ele>
<time>2016-08-30T22:35:52.894Z</time>
</trkpt>
<trkpt lat="-27.3830760" lon="152.9415476">
<ele>107.529</ele>
<time>2016-08-30T22:35:54.749Z</time>
</trkpt>
<trkpt lat="-27.3831936" lon="152.9410073">
<ele>108.714</ele>
<time>2016-08-30T22:35:57.829Z</time>
</trkpt>
<trkpt lat="-27.3832733" lon="152.9404661">
<ele>110.029</ele>
<time>2016-08-30T22:36:00.805Z</time>
</trkpt>
<trkpt lat="-27.3832768" lon="152.9398942">
<ele>111.272</ele>
<time>2016-08-30T22:36:03.855Z</time>
</trkpt>
<trkpt lat="-27.3831843" lon="152.9393471">
<ele>111.946</ele>
<time>2016-08-30T22:36:06.838Z</time>
</trkpt>
<trkpt lat="-27.3830996" lon="152.9390043">
<ele>111.472</ele>
<time>2016-08-30T22:36:08.784Z</time>
</trkpt>
<trkpt lat="-27.3830102" lon="152.9386643">
<ele>109.696</ele>
<time>2016-08-30T22:36:10.762Z</time>
</trkpt>
<trkpt lat="-27.3827436" lon="152.9382396">
<ele>107.589</ele>
<time>2016-08-30T22:36:13.702Z</time>
</trkpt>
<trkpt lat="-27.3825216" lon="152.9379974">
<ele>106.336</ele>
<time>2016-08-30T22:36:15.697Z</time>
</trkpt>
<trkpt lat="-27.3822089" lon="152.9376320">
<ele>106.123</ele>
<time>2016-08-30T22:36:18.682Z</time>
</trkpt>
<trkpt lat="-27.3820018" lon="152.9373976">
<ele>106.476</ele>
<time>2016-08-30T22:36:20.655Z</time>
</trkpt>
<trkpt lat="-27.3815972" lon="152.9371505">
<ele>106.610</ele>
<time>2016-08-30T22:36:23.622Z</time>
</trkpt>
<trkpt lat="-27.3810687" lon="152.9371668">
<ele>105.906</ele>
<time>2016-08-30T22:36:26.726Z</time>
</trkpt>
<trkpt lat="-27.3807075" lon="152.9371509">
<ele>104.328</ele>
<time>2016-08-30T22:36:28.712Z</time>
</trkpt>
<trkpt lat="-27.3803293" lon="152.9372019">
<ele>102.336</ele>
<time>2016-08-30T22:36:30.714Z</time>
</trkpt>
<trkpt lat="-27.3797719" lon="152.9374392">
<ele>100.602</ele>
<time>2016-08-30T22:36:33.732Z</time>
</trkpt>
<trkpt lat="-27.3792949" lon="152.9378379">
<ele>99.339</ele>
<time>2016-08-30T22:36:36.707Z</time>
</trkpt>
<trkpt lat="-27.3788817" lon="152.9383080">
<ele>98.021</ele>
<time>2016-08-30T22:36:39.686Z</time>
</trkpt>
<trkpt lat="-27.3785236" lon="152.9387985">
<ele>96.258</ele>
<time>2016-08-30T22:36:42.616Z</time>
</trkpt>
<trkpt lat="-27.3781641" lon="152.9392896">
<ele>94.343</ele>
<time>2016-08-30T22:36:45.603Z</time>
</trkpt>
<trkpt lat="-27.3779202" lon="152.9396367">
<ele>92.702</ele>
<time>2016-08-30T22:36:47.641Z</time>
</trkpt>
<trkpt lat="-27.3775500" lon="152.9401578">
<ele>91.502</ele>
<time>2016-08-30T22:36:50.672Z</time>
</trkpt>
<trkpt lat="-27.3772052" lon="152.9406690">
<ele>90.723</ele>
<time>2016-08-30T22:36:53.629Z</time>
</trkpt>
<trkpt lat="-27.3768864" lon="152.9411859">
<ele>90.099</ele>
<time>2016-08-30T22:36:56.619Z</time>
</trkpt>
<trkpt lat="-27.3767032" lon="152.9415153">
<ele>89.310</ele>
<time>2016-08-30T22:36:58.570Z</time>
</trkpt>
<trkpt lat="-27.3763242" lon="152.9418616">
<ele>88.371</ele>
<time>2016-08-30T22:37:01.477Z</time>
</trkpt>
<trkpt lat="-27.3759751" lon="152.9419270">
<ele>87.533</ele>
<time>2016-08-30T22:37:03.527Z</time>
</trkpt>
<trkpt lat="-27.3755892" lon="152.9419072">
<ele>87.385</ele>
<time>2016-08-30T22:37:05.592Z</time>
</trkpt>
<trkpt lat="-27.3752240" lon="152.9418732">
<ele>88.287</ele>
<time>2016-08-30T22:37:07.518Z</time>
</trkpt>
<trkpt lat="-27.3747028" lon="152.9418274">
<ele>89.600</ele>
<time>2016-08-30T22:37:10.339Z</time>
</trkpt>
<trkpt lat="-27.3743331" lon="152.9417855">
<ele>90.211</ele>
<time>2016-08-30T22:37:12.366Z</time>
</trkpt>
<trkpt lat="-27.3737702" lon="152.9416428">
<ele>89.829</ele>
<time>2016-08-30T22:37:15.453Z</time>
</trkpt>
<trkpt lat="-27.3732402" lon="152.9413567">
<ele>89.241</ele>
<time>2016-08-30T22:37:18.528Z</time>
</trkpt>
<trkpt lat="-27.3729271" lon="152.9410679">
<ele>89.144</ele>
<time>2016-08-30T22:37:20.600Z</time>
</trkpt>
<trkpt lat="-27.3726762" lon="152.9407125">
<ele>89.099</ele>
<time>2016-08-30T22:37:22.641Z</time>
</trkpt>
<trkpt lat="-27.3724553" lon="152.9403146">
<ele>88.390</ele>
<time>2016-08-30T22:37:24.782Z</time>
</trkpt>
<trkpt lat="-27.3720079" lon="152.9400342">
<ele>86.908</ele>
<time>2016-08-30T22:37:27.523Z</time>
</trkpt>
<trkpt lat="-27.3714497" lon="152.9400108">
<ele>84.821</ele>
<time>2016-08-30T22:37:30.601Z</time>
</trkpt>
<trkpt lat="-27.3709485" lon="152.9399932">
<ele>82.573</ele>
<time>2016-08-30T22:37:33.411Z</time>
</trkpt>
<trkpt lat="-27.3706275" lon="152.9398931">
<ele>80.512</ele>
<time>2016-08-30T22:37:35.364Z</time>
</trkpt>
<trkpt lat="-27.3702557" lon="152.9393867">
<ele>78.529</ele>
<time>2016-08-30T22:37:38.611Z</time>
</trkpt>
<trkpt lat="-27.3701853" lon="152.9386100">
<ele>76.608</ele>
<time>2016-08-30T22:37:42.064Z</time>
</trkpt>
<trkpt lat="-27.3700072" lon="152.9379656">
<ele>74.922</ele>
<time>2016-08-30T22:37:45.027Z</time>
</trkpt>
<trkpt lat="-27.3699170" lon="152.9375553">
<ele>73.063</ele>
<time>2016-08-30T22:37:47.075Z</time>
</trkpt>
<trkpt lat="-27.3696376" lon="152.9370991">
<ele>70.363</ele>
<time>2016-08-30T22:37:49.914Z</time>
</trkpt>
<trkpt lat="-27.3692074" lon="152.9367656">
<ele>66.371</ele>
<time>2016-08-30T22:37:52.863Z</time>
</trkpt>
<trkpt lat="-27.3688429" lon="152.9365496">
<ele>61.550</ele>
<time>2016-08-30T22:37:54.928Z</time>
</trkpt>
<trkpt lat="-27.3682258" lon="152.9362051">
<ele>57.071</ele>
<time>2016-08-30T22:37:58.147Z</time>
</trkpt>
<trkpt lat="-27.3678851" lon="152.9358911">
<ele>52.868</ele>
<time>2016-08-30T22:38:00.174Z</time>
</trkpt>
<trkpt lat="-27.3675735" lon="152.9352348">
<ele>48.555</ele>
<time>2016-08-30T22:38:03.286Z</time>
</trkpt>
<trkpt lat="-27.3674105" lon="152.9348073">
<ele>46.513</ele>
<time>2016-08-30T22:38:05.344Z</time>
</trkpt>
<trkpt lat="-27.3673012" lon="152.9344089">
<ele>48.871</ele>
<time>2016-08-30T22:38:07.217Z</time>
</trkpt>
<trkpt lat="-27.3672636" lon="152.9337242">
<ele>54.058</ele>
<time>2016-08-30T22:38:10.229Z</time>
</trkpt>
<trkpt lat="-27.3672916" lon="152.9332508">
<ele>59.631</ele>
<time>2016-08-30T22:38:12.284Z</time>
</trkpt>
<trkpt lat="-27.3673252" lon="152.9328132">
<ele>64.121</ele>
<time>2016-08-30T22:38:14.336Z</time>
</trkpt>
<trkpt lat="-27.3673211" lon="152.9322381">
<ele>66.209</ele>
<time>2016-08-30T22:38:17.218Z</time>
</trkpt>
<trkpt lat="-27.3672120" lon="152.9318869">
<ele>65.256</ele>
<time>2016-08-30T22:38:19.073Z</time>
</trkpt>
<trkpt lat="-27.3668520" lon="152.9313702">
<ele>61.912</ele>
<time>2016-08-30T22:38:22.112Z</time>
</trkpt>
<trkpt lat="-27.3665673" lon="152.9310154">
<ele>57.981</ele>
<time>2016-08-30T22:38:24.164Z</time>
</trkpt>
<trkpt lat="-27.3662882" lon="152.9306789">
<ele>55.057</ele>
<time>2016-08-30T22:38:26.196Z</time>
</trkpt>
<trkpt lat="-27.3659475" lon="152.9301932">
<ele>52.709</ele>
<time>2016-08-30T22:38:29.046Z</time>
</trkpt>
<trkpt lat="-27.3658846" lon="152.9297700">
<ele>48.788</ele>
<time>2016-08-30T22:38:31.028Z</time>
</trkpt>
<trkpt lat="-27.3658638" lon="152.9293023">
<ele>43.206</ele>
<time>2016-08-30T22:38:33.015Z</time>
</trkpt>
<trkpt lat="-27.3657545" lon="152.9285303">
<ele>39.178</ele>
<time>2016-08-30T22:38:36.130Z</time>
</trkpt>
<trkpt lat="-27.3656673" lon="152.9278014">
<ele>40.184</ele>
<time>2016-08-30T22:38:39.085Z</time>
</trkpt>
<trkpt lat="-27.3656712" lon="152.9271101">
<ele>46.094</ele>
<time>2016-08-30T22:38:42.053Z</time>
</trkpt>
<trkpt lat="-27.3655128" lon="152.9264833">
<ele>53.461</ele>
<time>2016-08-30T22:38:45.084Z</time>
</trkpt>
<trkpt lat="-27.3652992" lon="152.9259818">
<ele>59.447</ele>
<time>2016-08-30T22:38:47.997Z</time>
</trkpt>
<trkpt lat="-27.3651494" lon="152.9257371">
<ele>63.713</ele>
<time>2016-08-30T22:38:49.824Z</time>
</trkpt>
<trkpt lat="-27.3648993" lon="152.9254074">
<ele>66.480</ele>
<time>2016-08-30T22:38:52.735Z</time>
</trkpt>
<trkpt lat="-27.3645954" lon="152.9251591">
<ele>68.282</ele>
<time>2016-08-30T22:38:55.715Z</time>
</trkpt>
<trkpt lat="-27.3642411" lon="152.9249987">
<ele>69.936</ele>
<time>2016-08-30T22:38:58.732Z</time>
</trkpt>
<trkpt lat="-27.3639860" lon="152.9249842">
<ele>71.985</ele>
<time>2016-08-30T22:39:00.714Z</time>
</trkpt>
<trkpt lat="-27.3637368" lon="152.9250189">
<ele>74.547</ele>
<time>2016-08-30T22:39:02.607Z</time>
</trkpt>
<trkpt lat="-27.3633380" lon="152.9251813">
<ele>77.419</ele>
<time>2016-08-30T22:39:05.707Z</time>
</trkpt>
<trkpt lat="-27.3631052" lon="152.9253401">
<ele>79.938</ele>
<time>2016-08-30T22:39:07.661Z</time>
</trkpt>
<trkpt lat="-27.3628491" lon="152.9257212">
<ele>81.312</ele>
<time>2016-08-30T22:39:10.621Z</time>
</trkpt>
<trkpt lat="-27.3626510" lon="152.9262176">
<ele>81.252</ele>
<time>2016-08-30T22:39:13.811Z</time>
</trkpt>
<trkpt lat="-27.3625240" lon="152.9266828">
<ele>80.248</ele>
<time>2016-08-30T22:39:16.771Z</time>
</trkpt>
<trkpt lat="-27.3624577" lon="152.9269659">
<ele>79.153</ele>
<time>2016-08-30T22:39:18.710Z</time>
</trkpt>
<trkpt lat="-27.3623815" lon="152.9272446">
<ele>78.555</ele>
<time>2016-08-30T22:39:20.659Z</time>
</trkpt>
<trkpt lat="-27.3622293" lon="152.9276725">
<ele>78.863</ele>
<time>2016-08-30T22:39:23.735Z</time>
</trkpt>
<trkpt lat="-27.3620387" lon="152.9280452">
<ele>80.710</ele>
<time>2016-08-30T22:39:26.591Z</time>
</trkpt>
<trkpt lat="-27.3617533" lon="152.9283949">
<ele>84.306</ele>
<time>2016-08-30T22:39:29.631Z</time>
</trkpt>
<trkpt lat="-27.3614994" lon="152.9285777">
<ele>88.893</ele>
<time>2016-08-30T22:39:31.755Z</time>
</trkpt>
<trkpt lat="-27.3612351" lon="152.9286581">
<ele>93.104</ele>
<time>2016-08-30T22:39:33.667Z</time>
</trkpt>
<trkpt lat="-27.3607804" lon="152.9285902">
<ele>95.835</ele>
<time>2016-08-30T22:39:36.741Z</time>
</trkpt>
<trkpt lat="-27.3604837" lon="152.9283426">
<ele>97.078</ele>
<time>2016-08-30T22:39:39.016Z</time>
</trkpt>
<trkpt lat="-27.3602067" lon="152.9280134">
<ele>97.514</ele>
<time>2016-08-30T22:39:41.383Z</time>
</trkpt>
<trkpt lat="-27.3599719" lon="152.9277681">
<ele>97.511</ele>
<time>2016-08-30T22:39:43.273Z</time>
</trkpt>
<trkpt lat="-27.3597483" lon="152.9275198">
<ele>96.827</ele>
<time>2016-08-30T22:39:45.201Z</time>
</trkpt>
<trkpt lat="-27.3595198" lon="152.9272754">
<ele>95.187</ele>
<time>2016-08-30T22:39:47.251Z</time>
</trkpt>
<trkpt lat="-27.3592412" lon="152.9271443">
<ele>92.878</ele>
<time>2016-08-30T22:39:49.258Z</time>
</trkpt>
<trkpt lat="-27.3589334" lon="152.9271054">
<ele>90.532</ele>
<time>2016-08-30T22:39:51.210Z</time>
</trkpt>
<trkpt lat="-27.3585898" lon="152.9271181">
<ele>88.499</ele>
<time>2016-08-30T22:39:53.277Z</time>
</trkpt>
<trkpt lat="-27.3580879" lon="152.9271228">
<ele>86.733</ele>
<time>2016-08-30T22:39:56.224Z</time>
</trkpt>
<trkpt lat="-27.3577289" lon="152.9270163">
<ele>84.776</ele>
<time>2016-08-30T22:39:58.460Z</time>
</trkpt>
<trkpt lat="-27.3572951" lon="152.9268138">
<ele>82.258</ele>
<time>2016-08-30T22:40:01.368Z</time>
</trkpt>
<trkpt lat="-27.3570259" lon="152.9266392">
<ele>79.202</ele>
<time>2016-08-30T22:40:03.316Z</time>
</trkpt>
<trkpt lat="-27.3566950" lon="152.9265305">
<ele>75.734</ele>
<time>2016-08-30T22:40:05.381Z</time>
</trkpt>
<trkpt lat="-27.3563408" lon="152.9265294">
<ele>72.175</ele>
<time>2016-08-30T22:40:07.347Z</time>
</trkpt>
<trkpt lat="-27.3559600" lon="152.9265642">
<ele>69.349</ele>
<time>2016-08-30T22:40:09.292Z</time>
</trkpt>
<trkpt lat="-27.3553356" lon="152.9265686">
<ele>67.466</ele>
<time>2016-08-30T22:40:12.317Z</time>
</trkpt>
<trkpt lat="-27.3546940" lon="152.9264916">
<ele>65.622</ele>
<time>2016-08-30T22:40:15.425Z</time>
</trkpt>
<trkpt lat="-27.3543164" lon="152.9264311">
<ele>63.244</ele>
<time>2016-08-30T22:40:17.389Z</time>
</trkpt>
<trkpt lat="-27.3539396" lon="152.9263442">
<ele>60.920</ele>
<time>2016-08-30T22:40:19.471Z</time>
</trkpt>
<trkpt lat="-27.3535958" lon="152.9262894">
<ele>59.391</ele>
<time>2016-08-30T22:40:21.453Z</time>
</trkpt>
<trkpt lat="-27.3530804" lon="152.9261932">
<ele>58.805</ele>
<time>2016-08-30T22:40:24.574Z</time>
</trkpt>
<trkpt lat="-27.3526237" lon="152.9260475">
<ele>58.785</ele>
<time>2016-08-30T22:40:27.568Z</time>
</trkpt>
<trkpt lat="-27.3521990" lon="152.9258662">
<ele>58.679</ele>
<time>2016-08-30T22:40:30.514Z</time>
</trkpt>
<trkpt lat="-27.3519516" lon="152.9256716">
<ele>57.998</ele>
<time>2016-08-30T22:40:32.444Z</time>
</trkpt>
<trkpt lat="-27.3517144" lon="152.9252275">
<ele>56.975</ele>
<time>2016-08-30T22:40:35.274Z</time>
</trkpt>
<trkpt lat="-27.3516335" lon="152.9248426">
<ele>56.148</ele>
<time>2016-08-30T22:40:37.285Z</time>
</trkpt>
<trkpt lat="-27.3515107" lon="152.9242422">
<ele>55.634</ele>
<time>2016-08-30T22:40:40.332Z</time>
</trkpt>
<trkpt lat="-27.3512798" lon="152.9236765">
<ele>55.279</ele>
<time>2016-08-30T22:40:43.411Z</time>
</trkpt>
<trkpt lat="-27.3511014" lon="152.9233478">
<ele>54.984</ele>
<time>2016-08-30T22:40:45.522Z</time>
</trkpt>
<trkpt lat="-27.3508885" lon="152.9229371">
<ele>54.708</ele>
<time>2016-08-30T22:40:48.434Z</time>
</trkpt>
<trkpt lat="-27.3507702" lon="152.9226944">
<ele>54.469</ele>
<time>2016-08-30T22:40:50.360Z</time>
</trkpt>
<trkpt lat="-27.3506404" lon="152.9224569">
<ele>54.270</ele>
<time>2016-08-30T22:40:52.317Z</time>
</trkpt>
<trkpt lat="-27.3504531" lon="152.9220753">
<ele>53.897</ele>
<time>2016-08-30T22:40:55.311Z</time>
</trkpt>
<trkpt lat="-27.3503489" lon="152.9218023">
<ele>52.814</ele>
<time>2016-08-30T22:40:57.252Z</time>
</trkpt>
<trkpt lat="-27.3503276" lon="152.9213169">
<ele>50.715</ele>
<time>2016-08-30T22:41:00.358Z</time>
</trkpt>
<trkpt lat="-27.3504045" lon="152.9208498">
<ele>47.913</ele>
<time>2016-08-30T22:41:03.485Z</time>
</trkpt>
<trkpt lat="-27.3504611" lon="152.9205763">
<ele>44.640</ele>
<time>2016-08-30T22:41:05.456Z</time>
</trkpt>
<trkpt lat="-27.3505108" lon="152.9201931">
<ele>40.838</ele>
<time>2016-08-30T22:41:08.438Z</time>
</trkpt>
<trkpt lat="-27.3504888" lon="152.9199533">
<ele>36.749</ele>
<time>2016-08-30T22:41:10.583Z</time>
</trkpt>
<trkpt lat="-27.3504228" lon="152.9196627">
<ele>33.102</ele>
<time>2016-08-30T22:41:13.709Z</time>
</trkpt>
<trkpt lat="-27.3503940" lon="152.9195105">
<ele>30.375</ele>
<time>2016-08-30T22:41:15.826Z</time>
</trkpt>
<trkpt lat="-27.3503690" lon="152.9193971">
<ele>28.421</ele>
<time>2016-08-30T22:41:17.770Z</time>
</trkpt>
<trkpt lat="-27.3503407" lon="152.9192992">
<ele>26.990</ele>
<time>2016-08-30T22:41:19.739Z</time>
</trkpt>
<trkpt lat="-27.3502940" lon="152.9191655">
<ele>25.996</ele>
<time>2016-08-30T22:41:22.524Z</time>
</trkpt>
<trkpt lat="-27.3502665" lon="152.9190037">
<ele>25.278</ele>
<time>2016-08-30T22:41:25.641Z</time>
</trkpt>
<trkpt lat="-27.3502645" lon="152.9188439">
<ele>24.677</ele>
<time>2016-08-30T22:41:28.586Z</time>
</trkpt>
<trkpt lat="-27.3503277" lon="152.9187000">
<ele>23.972</ele>
<time>2016-08-30T22:41:31.543Z</time>
</trkpt>
<trkpt lat="-27.3504425" lon="152.9186004">
<ele>22.881</ele>
<time>2016-08-30T22:41:34.673Z</time>
</trkpt>
<trkpt lat="-27.3505676" lon="152.9185830">
<ele>21.345</ele>
<time>2016-08-30T22:41:37.337Z</time>
</trkpt>
<trkpt lat="-27.3507339" lon="152.9185785">
<ele>19.820</ele>
<time>2016-08-30T22:41:40.417Z</time>
</trkpt>
<trkpt lat="-27.3508490" lon="152.9185599">
<ele>19.087</ele>
<time>2016-08-30T22:41:42.295Z</time>
</trkpt>
<trkpt lat="-27.3510091" lon="152.9184428">
<ele>19.495</ele>
<time>2016-08-30T22:41:45.325Z</time>
</trkpt>
<trkpt lat="-27.3511004" lon="152.9183466">
<ele>20.813</ele>
<time>2016-08-30T22:41:47.501Z</time>
</trkpt>
<trkpt lat="-27.3511853" lon="152.9182088">
<ele>22.531</ele>
<time>2016-08-30T22:41:50.369Z</time>
</trkpt>
<trkpt lat="-27.3512315" lon="152.9181139">
<ele>24.111</ele>
<time>2016-08-30T22:41:52.431Z</time>
</trkpt>
<trkpt lat="-27.3512743" lon="152.9179902">
<ele>25.308</ele>
<time>2016-08-30T22:41:55.112Z</time>
</trkpt>
<trkpt lat="-27.3512438" lon="152.9178826">
<ele>26.257</ele>
<time>2016-08-30T22:41:57.494Z</time>
</trkpt>
<trkpt lat="-27.3511693" lon="152.9177274">
<ele>27.000</ele>
<time>2016-08-30T22:42:00.781Z</time>
</trkpt>
<trkpt lat="-27.3511151" lon="152.9176150">
<ele>27.383</ele>
<time>2016-08-30T22:42:02.716Z</time>
</trkpt>
<trkpt lat="-27.3510090" lon="152.9174130">
<ele>27.387</ele>
<time>2016-08-30T22:42:05.835Z</time>
</trkpt>
<trkpt lat="-27.3508884" lon="152.9172896">
<ele>27.291</ele>
<time>2016-08-30T22:42:07.944Z</time>
</trkpt>
<trkpt lat="-27.3507442" lon="152.9171930">
<ele>27.310</ele>
<time>2016-08-30T22:42:09.901Z</time>
</trkpt>
<trkpt lat="-27.3504746" lon="152.9171428">
<ele>27.340</ele>
<time>2016-08-30T22:42:12.775Z</time>
</trkpt>
<trkpt lat="-27.3501443" lon="152.9171744">
<ele>27.244</ele>
<time>2016-08-30T22:42:15.747Z</time>
</trkpt>
<trkpt lat="-27.3497520" lon="152.9172288">
<ele>27.517</ele>
<time>2016-08-30T22:42:18.902Z</time>
</trkpt>
<trkpt lat="-27.3493991" lon="152.9171359">
<ele>29.244</ele>
<time>2016-08-30T22:42:21.810Z</time>
</trkpt>
<trkpt lat="-27.3491897" lon="152.9169955">
<ele>32.616</ele>
<time>2016-08-30T22:42:23.815Z</time>
</trkpt>
<trkpt lat="-27.3490121" lon="152.9167864">
<ele>36.236</ele>
<time>2016-08-30T22:42:25.840Z</time>
</trkpt>
<trkpt lat="-27.3488803" lon="152.9163662">
<ele>38.618</ele>
<time>2016-08-30T22:42:28.762Z</time>
</trkpt>
<trkpt lat="-27.3488825" lon="152.9160185">
<ele>39.247</ele>
<time>2016-08-30T22:42:30.845Z</time>
</trkpt>
<trkpt lat="-27.3489361" lon="152.9155165">
<ele>38.570</ele>
<time>2016-08-30T22:42:33.817Z</time>
</trkpt>
<trkpt lat="-27.3489832" lon="152.9151987">
<ele>37.948</ele>
<time>2016-08-30T22:42:35.743Z</time>
</trkpt>
<trkpt lat="-27.3490289" lon="152.9148651">
<ele>38.264</ele>
<time>2016-08-30T22:42:37.743Z</time>
</trkpt>
<trkpt lat="-27.3490468" lon="152.9145181">
<ele>38.929</ele>
<time>2016-08-30T22:42:39.767Z</time>
</trkpt>
<trkpt lat="-27.3489362" lon="152.9140068">
<ele>39.214</ele>
<time>2016-08-30T22:42:42.783Z</time>
</trkpt>
<trkpt lat="-27.3486852" lon="152.9135589">
<ele>39.684</ele>
<time>2016-08-30T22:42:45.748Z</time>
</trkpt>
<trkpt lat="-27.3483079" lon="152.9131591">
<ele>40.910</ele>
<time>2016-08-30T22:42:48.846Z</time>
</trkpt>
<trkpt lat="-27.3480579" lon="152.9128903">
<ele>42.036</ele>
<time>2016-08-30T22:42:50.878Z</time>
</trkpt>
<trkpt lat="-27.3478311" lon="152.9126326">
<ele>41.908</ele>
<time>2016-08-30T22:42:52.828Z</time>
</trkpt>
<trkpt lat="-27.3475592" lon="152.9121914">
<ele>40.756</ele>
<time>2016-08-30T22:42:55.764Z</time>
</trkpt>
<trkpt lat="-27.3473996" lon="152.9116765">
<ele>40.096</ele>
<time>2016-08-30T22:42:58.790Z</time>
</trkpt>
<trkpt lat="-27.3471420" lon="152.9112636">
<ele>41.361</ele>
<time>2016-08-30T22:43:01.738Z</time>
</trkpt>
<trkpt lat="-27.3469400" lon="152.9110477">
<ele>44.915</ele>
<time>2016-08-30T22:43:03.693Z</time>
</trkpt>
<trkpt lat="-27.3466693" lon="152.9108980">
<ele>50.043</ele>
<time>2016-08-30T22:43:05.816Z</time>
</trkpt>
<trkpt lat="-27.3462809" lon="152.9106668">
<ele>55.031</ele>
<time>2016-08-30T22:43:08.894Z</time>
</trkpt>
<trkpt lat="-27.3460337" lon="152.9105389">
<ele>58.209</ele>
<time>2016-08-30T22:43:10.828Z</time>
</trkpt>
<trkpt lat="-27.3457716" lon="152.9104640">
<ele>58.743</ele>
<time>2016-08-30T22:43:12.730Z</time>
</trkpt>
<trkpt lat="-27.3454621" lon="152.9104365">
<ele>56.457</ele>
<time>2016-08-30T22:43:14.825Z</time>
</trkpt>
<trkpt lat="-27.3450135" lon="152.9105709">
<ele>52.090</ele>
<time>2016-08-30T22:43:17.938Z</time>
</trkpt>
<trkpt lat="-27.3448140" lon="152.9107162">
<ele>46.942</ele>
<time>2016-08-30T22:43:19.833Z</time>
</trkpt>
<trkpt lat="-27.3445685" lon="152.9107775">
<ele>41.813</ele>
<time>2016-08-30T22:43:22.358Z</time>
</trkpt>
<trkpt lat="-27.3444357" lon="152.9105960">
<ele>37.431</ele>
<time>2016-08-30T22:43:25.261Z</time>
</trkpt>
<trkpt lat="-27.3444657" lon="152.9103659">
<ele>34.724</ele>
<time>2016-08-30T22:43:27.535Z</time>
</trkpt>
<trkpt lat="-27.3445598" lon="152.9099468">
<ele>34.451</ele>
<time>2016-08-30T22:43:30.677Z</time>
</trkpt>
<trkpt lat="-27.3446683" lon="152.9096573">
<ele>37.287</ele>
<time>2016-08-30T22:43:32.711Z</time>
</trkpt>
<trkpt lat="-27.3447624" lon="152.9093810">
<ele>42.857</ele>
<time>2016-08-30T22:43:34.662Z</time>
</trkpt>
<trkpt lat="-27.3448390" lon="152.9089494">
<ele>49.173</ele>
<time>2016-08-30T22:43:37.752Z</time>
</trkpt>
<trkpt lat="-27.3448917" lon="152.9087253">
<ele>54.824</ele>
<time>2016-08-30T22:43:39.849Z</time>
</trkpt>
<trkpt lat="-27.3449543" lon="152.9085610">
<ele>59.239</ele>
<time>2016-08-30T22:43:41.999Z</time>
</trkpt>
<trkpt lat="-27.3449543" lon="152.9085610">
<ele>61.709</ele>
<time>2016-08-30T22:43:45.999Z</time>
</trkpt>
<trkpt lat="-27.3449543" lon="152.9085610">
<ele>62.326</ele>
<time>2016-08-30T22:43:48.598Z</time>
</trkpt>
<trkpt lat="-27.3448855" lon="152.9083735">
<ele>62.099</ele>
<time>2016-08-30T22:43:55.583Z</time>
</trkpt>
<trkpt lat="-27.3447549" lon="152.9084700">
<ele>61.982</ele>
<time>2016-08-30T22:43:57.228Z</time>
</trkpt>
<trkpt lat="-27.3445648" lon="152.9086933">
<ele>62.518</ele>
<time>2016-08-30T22:43:59.397Z</time>
</trkpt>
<trkpt lat="-27.3442981" lon="152.9090134">
<ele>63.552</ele>
<time>2016-08-30T22:44:02.145Z</time>
</trkpt>
<trkpt lat="-27.3438337" lon="152.9095688">
<ele>64.500</ele>
<time>2016-08-30T22:44:06.378Z</time>
</trkpt>
<trkpt lat="-27.3434808" lon="152.9102971">
<ele>64.560</ele>
<time>2016-08-30T22:44:09.889Z</time>
</trkpt>
<trkpt lat="-27.3433226" lon="152.9108434">
<ele>62.851</ele>
<time>2016-08-30T22:44:12.023Z</time>
</trkpt>
<trkpt lat="-27.3432701" lon="152.9113931">
<ele>59.247</ele>
<time>2016-08-30T22:44:14.103Z</time>
</trkpt>
<trkpt lat="-27.3433364" lon="152.9121847">
<ele>54.469</ele>
<time>2016-08-30T22:44:17.212Z</time>
</trkpt>
<trkpt lat="-27.3433844" lon="152.9126941">
<ele>49.942</ele>
<time>2016-08-30T22:44:19.355Z</time>
</trkpt>
<trkpt lat="-27.3434368" lon="152.9131930">
<ele>47.318</ele>
<time>2016-08-30T22:44:21.582Z</time>
</trkpt>
<trkpt lat="-27.3435338" lon="152.9138647">
<ele>47.399</ele>
<time>2016-08-30T22:44:24.734Z</time>
</trkpt>
<trkpt lat="-27.3434846" lon="152.9144935">
<ele>49.891</ele>
<time>2016-08-30T22:44:27.662Z</time>
</trkpt>
<trkpt lat="-27.3433361" lon="152.9149064">
<ele>53.996</ele>
<time>2016-08-30T22:44:29.674Z</time>
</trkpt>
<trkpt lat="-27.3429813" lon="152.9154212">
<ele>58.715</ele>
<time>2016-08-30T22:44:32.529Z</time>
</trkpt>
<trkpt lat="-27.3426564" lon="152.9156839">
<ele>63.372</ele>
<time>2016-08-30T22:44:34.446Z</time>
</trkpt>
<trkpt lat="-27.3420730" lon="152.9159444">
<ele>67.185</ele>
<time>2016-08-30T22:44:37.386Z</time>
</trkpt>
<trkpt lat="-27.3414452" lon="152.9159333">
<ele>68.747</ele>
<time>2016-08-30T22:44:40.272Z</time>
</trkpt>
<trkpt lat="-27.3407921" lon="152.9157315">
<ele>67.794</ele>
<time>2016-08-30T22:44:43.429Z</time>
</trkpt>
<trkpt lat="-27.3403762" lon="152.9155943">
<ele>66.739</ele>
<time>2016-08-30T22:44:45.480Z</time>
</trkpt>
<trkpt lat="-27.3399737" lon="152.9154640">
<ele>67.757</ele>
<time>2016-08-30T22:44:47.475Z</time>
</trkpt>
<trkpt lat="-27.3395703" lon="152.9153341">
<ele>70.341</ele>
<time>2016-08-30T22:44:49.480Z</time>
</trkpt>
<trkpt lat="-27.3389458" lon="152.9151437">
<ele>72.979</ele>
<time>2016-08-30T22:44:52.617Z</time>
</trkpt>
<trkpt lat="-27.3385494" lon="152.9150191">
<ele>76.493</ele>
<time>2016-08-30T22:44:54.640Z</time>
</trkpt>
<trkpt lat="-27.3381479" lon="152.9149209">
<ele>81.697</ele>
<time>2016-08-30T22:44:56.666Z</time>
</trkpt>
<trkpt lat="-27.3375487" lon="152.9148961">
<ele>86.321</ele>
<time>2016-08-30T22:44:59.579Z</time>
</trkpt>
<trkpt lat="-27.3371436" lon="152.9149944">
<ele>88.305</ele>
<time>2016-08-30T22:45:01.526Z</time>
</trkpt>
<trkpt lat="-27.3366035" lon="152.9153221">
<ele>88.480</ele>
<time>2016-08-30T22:45:04.384Z</time>
</trkpt>
<trkpt lat="-27.3361184" lon="152.9158349">
<ele>88.207</ele>
<time>2016-08-30T22:45:07.619Z</time>
</trkpt>
<trkpt lat="-27.3358439" lon="152.9161944">
<ele>88.450</ele>
<time>2016-08-30T22:45:09.751Z</time>
</trkpt>
<trkpt lat="-27.3355710" lon="152.9165292">
<ele>89.334</ele>
<time>2016-08-30T22:45:11.786Z</time>
</trkpt>
<trkpt lat="-27.3350696" lon="152.9168893">
<ele>90.447</ele>
<time>2016-08-30T22:45:14.742Z</time>
</trkpt>
<trkpt lat="-27.3344738" lon="152.9169851">
<ele>92.143</ele>
<time>2016-08-30T22:45:17.788Z</time>
</trkpt>
<trkpt lat="-27.3338659" lon="152.9168496">
<ele>95.784</ele>
<time>2016-08-30T22:45:21.729Z</time>
</trkpt>
<trkpt lat="-27.3335154" lon="152.9167846">
<ele>101.883</ele>
<time>2016-08-30T22:45:24.819Z</time>
</trkpt>
<trkpt lat="-27.3332167" lon="152.9168297">
<ele>108.386</ele>
<time>2016-08-30T22:45:27.656Z</time>
</trkpt>
<trkpt lat="-27.3329779" lon="152.9169385">
<ele>112.497</ele>
<time>2016-08-30T22:45:29.849Z</time>
</trkpt>
<trkpt lat="-27.3327027" lon="152.9170846">
<ele>113.709</ele>
<time>2016-08-30T22:45:32.050Z</time>
</trkpt>
<trkpt lat="-27.3324970" lon="152.9170731">
<ele>113.423</ele>
<time>2016-08-30T22:45:33.363Z</time>
</trkpt>
<trkpt lat="-27.3322682" lon="152.9170745">
<ele>113.014</ele>
<time>2016-08-30T22:45:34.697Z</time>
</trkpt>
<trkpt lat="-27.3319695" lon="152.9170131">
<ele>113.563</ele>
<time>2016-08-30T22:45:36.341Z</time>
</trkpt>
<trkpt lat="-27.3316363" lon="152.9168613">
<ele>115.555</ele>
<time>2016-08-30T22:45:38.221Z</time>
</trkpt>
<trkpt lat="-27.3313041" lon="152.9165582">
<ele>118.458</ele>
<time>2016-08-30T22:45:40.469Z</time>
</trkpt>
<trkpt lat="-27.3310131" lon="152.9162133">
<ele>121.060</ele>
<time>2016-08-30T22:45:42.905Z</time>
</trkpt>
<trkpt lat="-27.3306915" lon="152.9157051">
<ele>122.486</ele>
<time>2016-08-30T22:45:46.280Z</time>
</trkpt>
<trkpt lat="-27.3304678" lon="152.9154700">
<ele>122.712</ele>
<time>2016-08-30T22:45:47.965Z</time>
</trkpt>
<trkpt lat="-27.3302396" lon="152.9152454">
<ele>122.212</ele>
<time>2016-08-30T22:45:49.573Z</time>
</trkpt>
<trkpt lat="-27.3299010" lon="152.9154153">
<ele>121.510</ele>
<time>2016-08-30T22:45:51.431Z</time>
</trkpt>
<trkpt lat="-27.3293171" lon="152.9154073">
<ele>121.148</ele>
<time>2016-08-30T22:45:54.545Z</time>
</trkpt>
<trkpt lat="-27.3289179" lon="152.9152693">
<ele>121.295</ele>
<time>2016-08-30T22:45:56.899Z</time>
</trkpt>
<trkpt lat="-27.3285702" lon="152.9150942">
<ele>121.614</ele>
<time>2016-08-30T22:45:59.008Z</time>
</trkpt>
<trkpt lat="-27.3282612" lon="152.9149122">
<ele>121.676</ele>
<time>2016-08-30T22:46:00.856Z</time>
</trkpt>
<trkpt lat="-27.3278794" lon="152.9144364">
<ele>121.409</ele>
<time>2016-08-30T22:46:03.847Z</time>
</trkpt>
<trkpt lat="-27.3275870" lon="152.9141216">
<ele>121.078</ele>
<time>2016-08-30T22:46:06.083Z</time>
</trkpt>
<trkpt lat="-27.3271276" lon="152.9137683">
<ele>120.579</ele>
<time>2016-08-30T22:46:09.541Z</time>
</trkpt>
<trkpt lat="-27.3267763" lon="152.9136329">
<ele>119.695</ele>
<time>2016-08-30T22:46:12.003Z</time>
</trkpt>
<trkpt lat="-27.3264815" lon="152.9134779">
<ele>119.083</ele>
<time>2016-08-30T22:46:14.155Z</time>
</trkpt>
<trkpt lat="-27.3261732" lon="152.9131184">
<ele>119.368</ele>
<time>2016-08-30T22:46:16.762Z</time>
</trkpt>
<trkpt lat="-27.3258863" lon="152.9127047">
<ele>120.098</ele>
<time>2016-08-30T22:46:19.215Z</time>
</trkpt>
<trkpt lat="-27.3255803" lon="152.9125874">
<ele>120.607</ele>
<time>2016-08-30T22:46:20.849Z</time>
</trkpt>
<trkpt lat="-27.3250018" lon="152.9124920">
<ele>120.753</ele>
<time>2016-08-30T22:46:23.938Z</time>
</trkpt>
<trkpt lat="-27.3245997" lon="152.9124451">
<ele>121.497</ele>
<time>2016-08-30T22:46:26.225Z</time>
</trkpt>
<trkpt lat="-27.3240283" lon="152.9123267">
<ele>123.487</ele>
<time>2016-08-30T22:46:29.663Z</time>
</trkpt>
<trkpt lat="-27.3235623" lon="152.9120970">
<ele>125.422</ele>
<time>2016-08-30T22:46:32.515Z</time>
</trkpt>
<trkpt lat="-27.3233557" lon="152.9118271">
<ele>125.557</ele>
<time>2016-08-30T22:46:34.257Z</time>
</trkpt>
<trkpt lat="-27.3232645" lon="152.9112460">
<ele>124.016</ele>
<time>2016-08-30T22:46:37.278Z</time>
</trkpt>
<trkpt lat="-27.3232624" lon="152.9106094">
<ele>122.167</ele>
<time>2016-08-30T22:46:40.450Z</time>
</trkpt>
<trkpt lat="-27.3231955" lon="152.9102487">
<ele>120.649</ele>
<time>2016-08-30T22:46:42.223Z</time>
</trkpt>
<trkpt lat="-27.3228712" lon="152.9097800">
<ele>119.020</ele>
<time>2016-08-30T22:46:45.075Z</time>
</trkpt>
<trkpt lat="-27.3225503" lon="152.9092568">
<ele>117.362</ele>
<time>2016-08-30T22:46:48.150Z</time>
</trkpt>
<trkpt lat="-27.3223539" lon="152.9089082">
<ele>115.947</ele>
<time>2016-08-30T22:46:50.209Z</time>
</trkpt>
<trkpt lat="-27.3221062" lon="152.9085918">
<ele>114.725</ele>
<time>2016-08-30T22:46:52.379Z</time>
</trkpt>
<trkpt lat="-27.3218995" lon="152.9080279">
<ele>114.005</ele>
<time>2016-08-30T22:46:55.717Z</time>
</trkpt>
<trkpt lat="-27.3217594" lon="152.9074843">
<ele>114.299</ele>
<time>2016-08-30T22:46:58.694Z</time>
</trkpt>
<trkpt lat="-27.3216033" lon="152.9071562">
<ele>115.340</ele>
<time>2016-08-30T22:47:00.366Z</time>
</trkpt>
<trkpt lat="-27.3212150" lon="152.9068218">
<ele>115.959</ele>
<time>2016-08-30T22:47:02.828Z</time>
</trkpt>
<trkpt lat="-27.3208315" lon="152.9067592">
<ele>115.481</ele>
<time>2016-08-30T22:47:05.008Z</time>
</trkpt>
<trkpt lat="-27.3203961" lon="152.9067779">
<ele>114.911</ele>
<time>2016-08-30T22:47:07.943Z</time>
</trkpt>
<trkpt lat="-27.3198325" lon="152.9067261">
<ele>115.759</ele>
<time>2016-08-30T22:47:12.032Z</time>
</trkpt>
<trkpt lat="-27.3195086" lon="152.9064481">
<ele>118.098</ele>
<time>2016-08-30T22:47:14.760Z</time>
</trkpt>
<trkpt lat="-27.3193529" lon="152.9061934">
<ele>120.531</ele>
<time>2016-08-30T22:47:16.417Z</time>
</trkpt>
<trkpt lat="-27.3191876" lon="152.9059646">
<ele>122.317</ele>
<time>2016-08-30T22:47:17.906Z</time>
</trkpt>
<trkpt lat="-27.3189398" lon="152.9055499">
<ele>123.759</ele>
<time>2016-08-30T22:47:20.515Z</time>
</trkpt>
<trkpt lat="-27.3188939" lon="152.9051484">
<ele>124.710</ele>
<time>2016-08-30T22:47:22.988Z</time>
</trkpt>
<trkpt lat="-27.3188338" lon="152.9045308">
<ele>124.836</ele>
<time>2016-08-30T22:47:27.099Z</time>
</trkpt>
<trkpt lat="-27.3187851" lon="152.9041842">
<ele>124.418</ele>
<time>2016-08-30T22:47:29.214Z</time>
</trkpt>
<trkpt lat="-27.3186877" lon="152.9039116">
<ele>123.714</ele>
<time>2016-08-30T22:47:30.855Z</time>
</trkpt>
<trkpt lat="-27.3183449" lon="152.9036625">
<ele>122.880</ele>
<time>2016-08-30T22:47:33.568Z</time>
</trkpt>
<trkpt lat="-27.3178416" lon="152.9037715">
<ele>122.001</ele>
<time>2016-08-30T22:47:37.046Z</time>
</trkpt>
<trkpt lat="-27.3175256" lon="152.9037955">
<ele>121.136</ele>
<time>2016-08-30T22:47:39.085Z</time>
</trkpt>
<trkpt lat="-27.3171051" lon="152.9036784">
<ele>120.578</ele>
<time>2016-08-30T22:47:41.649Z</time>
</trkpt>
<trkpt lat="-27.3170353" lon="152.9032920">
<ele>120.581</ele>
<time>2016-08-30T22:47:43.660Z</time>
</trkpt>
<trkpt lat="-27.3169086" lon="152.9027310">
<ele>120.892</ele>
<time>2016-08-30T22:47:46.345Z</time>
</trkpt>
<trkpt lat="-27.3168032" lon="152.9023875">
<ele>121.014</ele>
<time>2016-08-30T22:47:47.951Z</time>
</trkpt>
<trkpt lat="-27.3166138" lon="152.9020528">
<ele>120.693</ele>
<time>2016-08-30T22:47:49.705Z</time>
</trkpt>
<trkpt lat="-27.3162597" lon="152.9018105">
<ele>120.141</ele>
<time>2016-08-30T22:47:51.834Z</time>
</trkpt>
<trkpt lat="-27.3158412" lon="152.9016676">
<ele>119.698</ele>
<time>2016-08-30T22:47:54.121Z</time>
</trkpt>
<trkpt lat="-27.3152972" lon="152.9015825">
<ele>120.462</ele>
<time>2016-08-30T22:47:57.253Z</time>
</trkpt>
<trkpt lat="-27.3147168" lon="152.9016529">
<ele>123.063</ele>
<time>2016-08-30T22:48:01.798Z</time>
</trkpt>
<trkpt lat="-27.3141777" lon="152.9017819">
<ele>125.943</ele>
<time>2016-08-30T22:48:06.723Z</time>
</trkpt>
<trkpt lat="-27.3137956" lon="152.9019483">
<ele>126.967</ele>
<time>2016-08-30T22:48:09.480Z</time>
</trkpt>
<trkpt lat="-27.3136000" lon="152.9019702">
<ele>125.955</ele>
<time>2016-08-30T22:48:10.622Z</time>
</trkpt>
<trkpt lat="-27.3133979" lon="152.9017540">
<ele>124.310</ele>
<time>2016-08-30T22:48:12.219Z</time>
</trkpt>
<trkpt lat="-27.3132614" lon="152.9015187">
<ele>123.573</ele>
<time>2016-08-30T22:48:13.642Z</time>
</trkpt>
<trkpt lat="-27.3128902" lon="152.9012019">
<ele>124.116</ele>
<time>2016-08-30T22:48:16.487Z</time>
</trkpt>
<trkpt lat="-27.3125783" lon="152.9009870">
<ele>125.448</ele>
<time>2016-08-30T22:48:18.784Z</time>
</trkpt>
<trkpt lat="-27.3121791" lon="152.9006111">
<ele>127.165</ele>
<time>2016-08-30T22:48:21.931Z</time>
</trkpt>
<trkpt lat="-27.3119914" lon="152.9001447">
<ele>129.037</ele>
<time>2016-08-30T22:48:24.766Z</time>
</trkpt>
<trkpt lat="-27.3119441" lon="152.8998078">
<ele>130.998</ele>
<time>2016-08-30T22:48:26.798Z</time>
</trkpt>
<trkpt lat="-27.3118624" lon="152.8994246">
<ele>133.240</ele>
<time>2016-08-30T22:48:29.037Z</time>
</trkpt>
<trkpt lat="-27.3117448" lon="152.8990699">
<ele>135.334</ele>
<time>2016-08-30T22:48:31.102Z</time>
</trkpt>
<trkpt lat="-27.3116133" lon="152.8987698">
<ele>136.440</ele>
<time>2016-08-30T22:48:32.983Z</time>
</trkpt>
<trkpt lat="-27.3113682" lon="152.8985854">
<ele>136.557</ele>
<time>2016-08-30T22:48:34.870Z</time>
</trkpt>
<trkpt lat="-27.3110426" lon="152.8984793">
<ele>136.289</ele>
<time>2016-08-30T22:48:36.935Z</time>
</trkpt>
<trkpt lat="-27.3105895" lon="152.8983238">
<ele>136.100</ele>
<time>2016-08-30T22:48:39.690Z</time>
</trkpt>
<trkpt lat="-27.3103679" lon="152.8981252">
<ele>135.961</ele>
<time>2016-08-30T22:48:41.291Z</time>
</trkpt>
<trkpt lat="-27.3103026" lon="152.8976918">
<ele>135.729</ele>
<time>2016-08-30T22:48:43.565Z</time>
</trkpt>
<trkpt lat="-27.3101169" lon="152.8971202">
<ele>135.709</ele>
<time>2016-08-30T22:48:46.906Z</time>
</trkpt>
<trkpt lat="-27.3097539" lon="152.8966548">
<ele>136.298</ele>
<time>2016-08-30T22:48:50.092Z</time>
</trkpt>
<trkpt lat="-27.3093442" lon="152.8963905">
<ele>137.227</ele>
<time>2016-08-30T22:48:52.566Z</time>
</trkpt>
<trkpt lat="-27.3090561" lon="152.8963897">
<ele>137.724</ele>
<time>2016-08-30T22:48:53.964Z</time>
</trkpt>
<trkpt lat="-27.3086927" lon="152.8964543">
<ele>137.489</ele>
<time>2016-08-30T22:48:55.619Z</time>
</trkpt>
<trkpt lat="-27.3081160" lon="152.8964144">
<ele>136.897</ele>
<time>2016-08-30T22:48:58.169Z</time>
</trkpt>
<trkpt lat="-27.3076947" lon="152.8963201">
<ele>136.378</ele>
<time>2016-08-30T22:49:00.027Z</time>
</trkpt>
<trkpt lat="-27.3070077" lon="152.8961626">
<ele>136.020</ele>
<time>2016-08-30T22:49:03.281Z</time>
</trkpt>
<trkpt lat="-27.3063148" lon="152.8959001">
<ele>135.885</ele>
<time>2016-08-30T22:49:07.100Z</time>
</trkpt>
<trkpt lat="-27.3059102" lon="152.8957348">
<ele>136.724</ele>
<time>2016-08-30T22:49:09.439Z</time>
</trkpt>
<trkpt lat="-27.3055501" lon="152.8955837">
<ele>139.661</ele>
<time>2016-08-30T22:49:11.625Z</time>
</trkpt>
<trkpt lat="-27.3050835" lon="152.8953129">
<ele>144.470</ele>
<time>2016-08-30T22:49:15.093Z</time>
</trkpt>
<trkpt lat="-27.3046311" lon="152.8949708">
<ele>150.411</ele>
<time>2016-08-30T22:49:18.940Z</time>
</trkpt>
<trkpt lat="-27.3043860" lon="152.8947501">
<ele>157.319</ele>
<time>2016-08-30T22:49:21.032Z</time>
</trkpt>
<trkpt lat="-27.3041470" lon="152.8946111">
<ele>164.080</ele>
<time>2016-08-30T22:49:22.765Z</time>
</trkpt>
<trkpt lat="-27.3039179" lon="152.8942255">
<ele>169.116</ele>
<time>2016-08-30T22:49:25.382Z</time>
</trkpt>
<trkpt lat="-27.3036429" lon="152.8938223">
<ele>172.854</ele>
<time>2016-08-30T22:49:28.147Z</time>
</trkpt>
<trkpt lat="-27.3033942" lon="152.8935770">
<ele>177.306</ele>
<time>2016-08-30T22:49:30.089Z</time>
</trkpt>
<trkpt lat="-27.3032052" lon="152.8933241">
<ele>183.203</ele>
<time>2016-08-30T22:49:31.773Z</time>
</trkpt>
<trkpt lat="-27.3029430" lon="152.8928541">
<ele>188.650</ele>
<time>2016-08-30T22:49:34.518Z</time>
</trkpt>
<trkpt lat="-27.3027811" lon="152.8925170">
<ele>191.617</ele>
<time>2016-08-30T22:49:36.323Z</time>
</trkpt>
<trkpt lat="-27.3026717" lon="152.8921563">
<ele>192.241</ele>
<time>2016-08-30T22:49:38.088Z</time>
</trkpt>
<trkpt lat="-27.3025733" lon="152.8915574">
<ele>191.833</ele>
<time>2016-08-30T22:49:40.869Z</time>
</trkpt>
<trkpt lat="-27.3025271" lon="152.8909303">
<ele>191.525</ele>
<time>2016-08-30T22:49:43.675Z</time>
</trkpt>
<trkpt lat="-27.3024607" lon="152.8905062">
<ele>191.762</ele>
<time>2016-08-30T22:49:45.567Z</time>
</trkpt>
<trkpt lat="-27.3023722" lon="152.8900746">
<ele>192.314</ele>
<time>2016-08-30T22:49:47.528Z</time>
</trkpt>
<trkpt lat="-27.3022946" lon="152.8894052">
<ele>192.810</ele>
<time>2016-08-30T22:49:50.706Z</time>
</trkpt>
<trkpt lat="-27.3022713" lon="152.8887212">
<ele>192.969</ele>
<time>2016-08-30T22:49:54.172Z</time>
</trkpt>
<trkpt lat="-27.3022837" lon="152.8883060">
<ele>192.314</ele>
<time>2016-08-30T22:49:56.431Z</time>
</trkpt>
<trkpt lat="-27.3024839" lon="152.8877355">
<ele>190.675</ele>
<time>2016-08-30T22:49:59.598Z</time>
</trkpt>
<trkpt lat="-27.3026718" lon="152.8874205">
<ele>188.737</ele>
<time>2016-08-30T22:50:01.514Z</time>
</trkpt>
<trkpt lat="-27.3031022" lon="152.8871376">
<ele>187.289</ele>
<time>2016-08-30T22:50:04.494Z</time>
</trkpt>
<trkpt lat="-27.3035861" lon="152.8868554">
<ele>186.483</ele>
<time>2016-08-30T22:50:08.153Z</time>
</trkpt>
<trkpt lat="-27.3040165" lon="152.8864978">
<ele>187.676</ele>
<time>2016-08-30T22:50:12.182Z</time>
</trkpt>
<trkpt lat="-27.3042921" lon="152.8864173">
<ele>192.454</ele>
<time>2016-08-30T22:50:15.015Z</time>
</trkpt>
<trkpt lat="-27.3045838" lon="152.8863924">
<ele>199.377</ele>
<time>2016-08-30T22:50:18.113Z</time>
</trkpt>
<trkpt lat="-27.3049909" lon="152.8862523">
<ele>205.876</ele>
<time>2016-08-30T22:50:21.623Z</time>
</trkpt>
<trkpt lat="-27.3052283" lon="152.8862392">
<ele>211.629</ele>
<time>2016-08-30T22:50:23.244Z</time>
</trkpt>
<trkpt lat="-27.3054504" lon="152.8860832">
<ele>216.743</ele>
<time>2016-08-30T22:50:24.973Z</time>
</trkpt>
<trkpt lat="-27.3054445" lon="152.8858728">
<ele>220.421</ele>
<time>2016-08-30T22:50:26.195Z</time>
</trkpt>
<trkpt lat="-27.3052475" lon="152.8855314">
<ele>222.441</ele>
<time>2016-08-30T22:50:28.530Z</time>
</trkpt>
<trkpt lat="-27.3051143" lon="152.8852336">
<ele>223.875</ele>
<time>2016-08-30T22:50:30.422Z</time>
</trkpt>
<trkpt lat="-27.3049890" lon="152.8849190">
<ele>225.834</ele>
<time>2016-08-30T22:50:32.393Z</time>
</trkpt>
<trkpt lat="-27.3048565" lon="152.8844194">
<ele>228.157</ele>
<time>2016-08-30T22:50:35.261Z</time>
</trkpt>
<trkpt lat="-27.3049517" lon="152.8840447">
<ele>229.513</ele>
<time>2016-08-30T22:50:37.180Z</time>
</trkpt>
<trkpt lat="-27.3050350" lon="152.8837053">
<ele>229.007</ele>
<time>2016-08-30T22:50:38.852Z</time>
</trkpt>
<trkpt lat="-27.3050378" lon="152.8833683">
<ele>226.905</ele>
<time>2016-08-30T22:50:40.392Z</time>
</trkpt>
<trkpt lat="-27.3049149" lon="152.8830248">
<ele>223.769</ele>
<time>2016-08-30T22:50:42.059Z</time>
</trkpt>
<trkpt lat="-27.3047313" lon="152.8824184">
<ele>220.144</ele>
<time>2016-08-30T22:50:44.840Z</time>
</trkpt>
<trkpt lat="-27.3046533" lon="152.8819832">
<ele>215.605</ele>
<time>2016-08-30T22:50:46.698Z</time>
</trkpt>
<trkpt lat="-27.3044978" lon="152.8815704">
<ele>209.264</ele>
<time>2016-08-30T22:50:48.569Z</time>
</trkpt>
<trkpt lat="-27.3040935" lon="152.8809949">
<ele>202.633</ele>
<time>2016-08-30T22:50:51.805Z</time>
</trkpt>
<trkpt lat="-27.3037426" lon="152.8806710">
<ele>198.801</ele>
<time>2016-08-30T22:50:54.320Z</time>
</trkpt>
<trkpt lat="-27.3034694" lon="152.8803157">
<ele>198.528</ele>
<time>2016-08-30T22:50:56.777Z</time>
</trkpt>
<trkpt lat="-27.3030517" lon="152.8798668">
<ele>200.427</ele>
<time>2016-08-30T22:51:00.267Z</time>
</trkpt>
<trkpt lat="-27.3026801" lon="152.8794371">
<ele>202.968</ele>
<time>2016-08-30T22:51:03.718Z</time>
</trkpt>
<trkpt lat="-27.3025522" lon="152.8791043">
<ele>205.094</ele>
<time>2016-08-30T22:51:05.986Z</time>
</trkpt>
<trkpt lat="-27.3025279" lon="152.8787169">
<ele>206.300</ele>
<time>2016-08-30T22:51:08.349Z</time>
</trkpt>
<trkpt lat="-27.3026524" lon="152.8783639">
<ele>207.081</ele>
<time>2016-08-30T22:51:10.677Z</time>
</trkpt>
<trkpt lat="-27.3027822" lon="152.8779042">
<ele>208.699</ele>
<time>2016-08-30T22:51:13.478Z</time>
</trkpt>
<trkpt lat="-27.3027829" lon="152.8775754">
<ele>211.694</ele>
<time>2016-08-30T22:51:15.245Z</time>
</trkpt>
<trkpt lat="-27.3027255" lon="152.8772502">
<ele>215.205</ele>
<time>2016-08-30T22:51:17.022Z</time>
</trkpt>
<trkpt lat="-27.3024787" lon="152.8768808">
<ele>218.446</ele>
<time>2016-08-30T22:51:19.500Z</time>
</trkpt>
<trkpt lat="-27.3021858" lon="152.8766736">
<ele>221.329</ele>
<time>2016-08-30T22:51:21.598Z</time>
</trkpt>
<trkpt lat="-27.3017144" lon="152.8764575">
<ele>223.581</ele>
<time>2016-08-30T22:51:24.550Z</time>
</trkpt>
<trkpt lat="-27.3013582" lon="152.8760672">
<ele>224.806</ele>
<time>2016-08-30T22:51:27.143Z</time>
</trkpt>
<trkpt lat="-27.3012054" lon="152.8757279">
<ele>225.066</ele>
<time>2016-08-30T22:51:28.854Z</time>
</trkpt>
<trkpt lat="-27.3010171" lon="152.8754172">
<ele>224.476</ele>
<time>2016-08-30T22:51:30.520Z</time>
</trkpt>
<trkpt lat="-27.3007365" lon="152.8751269">
<ele>222.676</ele>
<time>2016-08-30T22:51:32.445Z</time>
</trkpt>
<trkpt lat="-27.3002985" lon="152.8746543">
<ele>219.253</ele>
<time>2016-08-30T22:51:35.531Z</time>
</trkpt>
<trkpt lat="-27.2999432" lon="152.8741202">
<ele>214.549</ele>
<time>2016-08-30T22:51:38.531Z</time>
</trkpt>
<trkpt lat="-27.2997257" lon="152.8737567">
<ele>209.704</ele>
<time>2016-08-30T22:51:40.493Z</time>
</trkpt>
<trkpt lat="-27.2993680" lon="152.8732262">
<ele>206.060</ele>
<time>2016-08-30T22:51:43.569Z</time>
</trkpt>
<trkpt lat="-27.2989878" lon="152.8727259">
<ele>204.027</ele>
<time>2016-08-30T22:51:46.933Z</time>
</trkpt>
<trkpt lat="-27.2985582" lon="152.8722439">
<ele>202.614</ele>
<time>2016-08-30T22:51:51.051Z</time>
</trkpt>
<trkpt lat="-27.2981905" lon="152.8718266">
<ele>201.085</ele>
<time>2016-08-30T22:51:54.658Z</time>
</trkpt>
<trkpt lat="-27.2979678" lon="152.8715828">
<ele>199.890</ele>
<time>2016-08-30T22:51:56.768Z</time>
</trkpt>
<trkpt lat="-27.2977758" lon="152.8713340">
<ele>199.380</ele>
<time>2016-08-30T22:51:58.594Z</time>
</trkpt>
<trkpt lat="-27.2976158" lon="152.8708998">
<ele>199.174</ele>
<time>2016-08-30T22:52:01.045Z</time>
</trkpt>
<trkpt lat="-27.2975795" lon="152.8705761">
<ele>198.882</ele>
<time>2016-08-30T22:52:02.613Z</time>
</trkpt>
<trkpt lat="-27.2973867" lon="152.8701384">
<ele>198.399</ele>
<time>2016-08-30T22:52:04.891Z</time>
</trkpt>
<trkpt lat="-27.2970098" lon="152.8697519">
<ele>197.731</ele>
<time>2016-08-30T22:52:07.576Z</time>
</trkpt>
<trkpt lat="-27.2966861" lon="152.8695152">
<ele>196.616</ele>
<time>2016-08-30T22:52:09.748Z</time>
</trkpt>
<trkpt lat="-27.2963581" lon="152.8692852">
<ele>194.712</ele>
<time>2016-08-30T22:52:12.096Z</time>
</trkpt>
<trkpt lat="-27.2958710" lon="152.8689581">
<ele>191.820</ele>
<time>2016-08-30T22:52:15.809Z</time>
</trkpt>
<trkpt lat="-27.2955254" lon="152.8687997">
<ele>187.683</ele>
<time>2016-08-30T22:52:18.348Z</time>
</trkpt>
<trkpt lat="-27.2951136" lon="152.8686063">
<ele>182.335</ele>
<time>2016-08-30T22:52:21.257Z</time>
</trkpt>
<trkpt lat="-27.2948059" lon="152.8682207">
<ele>175.874</ele>
<time>2016-08-30T22:52:23.912Z</time>
</trkpt>
<trkpt lat="-27.2944555" lon="152.8679703">
<ele>168.585</ele>
<time>2016-08-30T22:52:26.080Z</time>
</trkpt>
<trkpt lat="-27.2941411" lon="152.8679106">
<ele>161.815</ele>
<time>2016-08-30T22:52:27.700Z</time>
</trkpt>
<trkpt lat="-27.2938071" lon="152.8678583">
<ele>157.172</ele>
<time>2016-08-30T22:52:29.343Z</time>
</trkpt>
<trkpt lat="-27.2934385" lon="152.8677977">
<ele>154.902</ele>
<time>2016-08-30T22:52:31.081Z</time>
</trkpt>
<trkpt lat="-27.2928718" lon="152.8676875">
<ele>153.837</ele>
<time>2016-08-30T22:52:33.740Z</time>
</trkpt>
<trkpt lat="-27.2924599" lon="152.8676478">
<ele>151.478</ele>
<time>2016-08-30T22:52:35.651Z</time>
</trkpt>
<trkpt lat="-27.2918086" lon="152.8677151">
<ele>146.127</ele>
<time>2016-08-30T22:52:38.661Z</time>
</trkpt>
<trkpt lat="-27.2911810" lon="152.8679176">
<ele>138.346</ele>
<time>2016-08-30T22:52:41.555Z</time>
</trkpt>
<trkpt lat="-27.2907682" lon="152.8680005">
<ele>130.594</ele>
<time>2016-08-30T22:52:43.477Z</time>
</trkpt>
<trkpt lat="-27.2900683" lon="152.8679497">
<ele>125.531</ele>
<time>2016-08-30T22:52:46.847Z</time>
</trkpt>
<trkpt lat="-27.2896397" lon="152.8678193">
<ele>124.068</ele>
<time>2016-08-30T22:52:49.113Z</time>
</trkpt>
<trkpt lat="-27.2890632" lon="152.8675191">
<ele>124.836</ele>
<time>2016-08-30T22:52:52.596Z</time>
</trkpt>
<trkpt lat="-27.2885470" lon="152.8671835">
<ele>126.046</ele>
<time>2016-08-30T22:52:56.026Z</time>
</trkpt>
<trkpt lat="-27.2882250" lon="152.8669588">
<ele>125.967</ele>
<time>2016-08-30T22:52:58.472Z</time>
</trkpt>
<trkpt lat="-27.2877461" lon="152.8667237">
<ele>123.597</ele>
<time>2016-08-30T22:53:03.481Z</time>
</trkpt>
<trkpt lat="-27.2874030" lon="152.8666174">
<ele>118.794</ele>
<time>2016-08-30T22:53:09.228Z</time>
</trkpt>
<trkpt lat="-27.2869688" lon="152.8665463">
<ele>112.313</ele>
<time>2016-08-30T22:53:13.667Z</time>
</trkpt>
<trkpt lat="-27.2867470" lon="152.8665757">
<ele>104.955</ele>
<time>2016-08-30T22:53:15.238Z</time>
</trkpt>
<trkpt lat="-27.2865063" lon="152.8666206">
<ele>97.474</ele>
<time>2016-08-30T22:53:16.727Z</time>
</trkpt>
<trkpt lat="-27.2863840" lon="152.8665885">
<ele>90.769</ele>
<time>2016-08-30T22:53:17.449Z</time>
</trkpt>
<trkpt lat="-27.2863309" lon="152.8664190">
<ele>85.656</ele>
<time>2016-08-30T22:53:18.337Z</time>
</trkpt>
<trkpt lat="-27.2864287" lon="152.8662810">
<ele>82.148</ele>
<time>2016-08-30T22:53:19.209Z</time>
</trkpt>
<trkpt lat="-27.2866428" lon="152.8659810">
<ele>80.080</ele>
<time>2016-08-30T22:53:21.029Z</time>
</trkpt>
<trkpt lat="-27.2867771" lon="152.8656750">
<ele>79.477</ele>
<time>2016-08-30T22:53:22.538Z</time>
</trkpt>
<trkpt lat="-27.2869145" lon="152.8652903">
<ele>80.369</ele>
<time>2016-08-30T22:53:24.262Z</time>
</trkpt>
<trkpt lat="-27.2870121" lon="152.8645999">
<ele>81.967</ele>
<time>2016-08-30T22:53:27.099Z</time>
</trkpt>
<trkpt lat="-27.2869800" lon="152.8641197">
<ele>82.614</ele>
<time>2016-08-30T22:53:29.074Z</time>
</trkpt>
<trkpt lat="-27.2869146" lon="152.8633889">
<ele>81.344</ele>
<time>2016-08-30T22:53:32.042Z</time>
</trkpt>
<trkpt lat="-27.2868764" lon="152.8629111">
<ele>79.080</ele>
<time>2016-08-30T22:53:33.872Z</time>
</trkpt>
<trkpt lat="-27.2868364" lon="152.8621962">
<ele>77.147</ele>
<time>2016-08-30T22:53:36.583Z</time>
</trkpt>
<trkpt lat="-27.2868254" lon="152.8616892">
<ele>75.563</ele>
<time>2016-08-30T22:53:38.526Z</time>
</trkpt>
<trkpt lat="-27.2868173" lon="152.8611517">
<ele>73.784</ele>
<time>2016-08-30T22:53:40.595Z</time>
</trkpt>
<trkpt lat="-27.2868617" lon="152.8603756">
<ele>71.663</ele>
<time>2016-08-30T22:53:43.586Z</time>
</trkpt>
<trkpt lat="-27.2869728" lon="152.8596158">
<ele>68.982</ele>
<time>2016-08-30T22:53:46.499Z</time>
</trkpt>
<trkpt lat="-27.2871137" lon="152.8588592">
<ele>65.612</ele>
<time>2016-08-30T22:53:49.436Z</time>
</trkpt>
<trkpt lat="-27.2873697" lon="152.8581217">
<ele>61.684</ele>
<time>2016-08-30T22:53:52.721Z</time>
</trkpt>
<trkpt lat="-27.2875687" lon="152.8576297">
<ele>57.832</ele>
<time>2016-08-30T22:53:55.175Z</time>
</trkpt>
<trkpt lat="-27.2878520" lon="152.8569431">
<ele>55.178</ele>
<time>2016-08-30T22:53:58.672Z</time>
</trkpt>
<trkpt lat="-27.2881383" lon="152.8564070">
<ele>54.222</ele>
<time>2016-08-30T22:54:01.482Z</time>
</trkpt>
<trkpt lat="-27.2885657" lon="152.8559559">
<ele>54.392</ele>
<time>2016-08-30T22:54:04.486Z</time>
</trkpt>
<trkpt lat="-27.2888619" lon="152.8556681">
<ele>55.012</ele>
<time>2016-08-30T22:54:06.564Z</time>
</trkpt>
<trkpt lat="-27.2892421" lon="152.8551526">
<ele>55.485</ele>
<time>2016-08-30T22:54:09.803Z</time>
</trkpt>
<trkpt lat="-27.2894664" lon="152.8548079">
<ele>55.598</ele>
<time>2016-08-30T22:54:11.908Z</time>
</trkpt>
<trkpt lat="-27.2898106" lon="152.8543303">
<ele>55.513</ele>
<time>2016-08-30T22:54:15.166Z</time>
</trkpt>
<trkpt lat="-27.2900834" lon="152.8540527">
<ele>54.978</ele>
<time>2016-08-30T22:54:17.510Z</time>
</trkpt>
<trkpt lat="-27.2905193" lon="152.8536975">
<ele>53.174</ele>
<time>2016-08-30T22:54:21.012Z</time>
</trkpt>
<trkpt lat="-27.2909162" lon="152.8533983">
<ele>49.809</ele>
<time>2016-08-30T22:54:24.213Z</time>
</trkpt>
<trkpt lat="-27.2913046" lon="152.8531138">
<ele>45.933</ele>
<time>2016-08-30T22:54:27.656Z</time>
</trkpt>
<trkpt lat="-27.2915568" lon="152.8529187">
<ele>42.995</ele>
<time>2016-08-30T22:54:30.243Z</time>
</trkpt>
<trkpt lat="-27.2918076" lon="152.8527306">
<ele>41.497</ele>
<time>2016-08-30T22:54:33.008Z</time>
</trkpt>
<trkpt lat="-27.2920532" lon="152.8525588">
<ele>40.925</ele>
<time>2016-08-30T22:54:35.968Z</time>
</trkpt>
<trkpt lat="-27.2924012" lon="152.8523481">
<ele>40.641</ele>
<time>2016-08-30T22:54:40.371Z</time>
</trkpt>
<trkpt lat="-27.2926226" lon="152.8522380">
<ele>40.198</ele>
<time>2016-08-30T22:54:43.017Z</time>
</trkpt>
<trkpt lat="-27.2929210" lon="152.8520879">
<ele>39.383</ele>
<time>2016-08-30T22:54:46.505Z</time>
</trkpt>
<trkpt lat="-27.2931921" lon="152.8519717">
<ele>38.370</ele>
<time>2016-08-30T22:54:49.465Z</time>
</trkpt>
<trkpt lat="-27.2933534" lon="152.8518992">
<ele>37.582</ele>
<time>2016-08-30T22:54:51.111Z</time>
</trkpt>
<trkpt lat="-27.2935226" lon="152.8518389">
<ele>37.224</ele>
<time>2016-08-30T22:54:52.742Z</time>
</trkpt>
<trkpt lat="-27.2937837" lon="152.8517389">
<ele>37.200</ele>
<time>2016-08-30T22:54:55.236Z</time>
</trkpt>
<trkpt lat="-27.2939652" lon="152.8516807">
<ele>37.337</ele>
<time>2016-08-30T22:54:56.954Z</time>
</trkpt>
<trkpt lat="-27.2942465" lon="152.8516168">
<ele>37.501</ele>
<time>2016-08-30T22:54:59.556Z</time>
</trkpt>
<trkpt lat="-27.2945402" lon="152.8515642">
<ele>37.676</ele>
<time>2016-08-30T22:55:02.136Z</time>
</trkpt>
<trkpt lat="-27.2948868" lon="152.8515000">
<ele>38.039</ele>
<time>2016-08-30T22:55:04.940Z</time>
</trkpt>
<trkpt lat="-27.2952067" lon="152.8514413">
<ele>38.918</ele>
<time>2016-08-30T22:55:07.292Z</time>
</trkpt>
<trkpt lat="-27.2955286" lon="152.8513804">
<ele>40.604</ele>
<time>2016-08-30T22:55:09.528Z</time>
</trkpt>
<trkpt lat="-27.2958688" lon="152.8512864">
<ele>43.349</ele>
<time>2016-08-30T22:55:11.852Z</time>
</trkpt>
<trkpt lat="-27.2962185" lon="152.8510803">
<ele>47.180</ele>
<time>2016-08-30T22:55:14.416Z</time>
</trkpt>
<trkpt lat="-27.2964073" lon="152.8508560">
<ele>51.351</ele>
<time>2016-08-30T22:55:16.174Z</time>
</trkpt>
<trkpt lat="-27.2966438" lon="152.8504314">
<ele>54.681</ele>
<time>2016-08-30T22:55:18.889Z</time>
</trkpt>
<trkpt lat="-27.2967689" lon="152.8499250">
<ele>56.644</ele>
<time>2016-08-30T22:55:21.537Z</time>
</trkpt>
<trkpt lat="-27.2968955" lon="152.8494190">
<ele>57.490</ele>
<time>2016-08-30T22:55:24.104Z</time>
</trkpt>
<trkpt lat="-27.2970294" lon="152.8490908">
<ele>57.682</ele>
<time>2016-08-30T22:55:25.839Z</time>
</trkpt>
<trkpt lat="-27.2971894" lon="152.8487451">
<ele>57.396</ele>
<time>2016-08-30T22:55:27.698Z</time>
</trkpt>
<trkpt lat="-27.2974280" lon="152.8481971">
<ele>56.433</ele>
<time>2016-08-30T22:55:30.460Z</time>
</trkpt>
<trkpt lat="-27.2975994" lon="152.8478379">
<ele>54.643</ele>
<time>2016-08-30T22:55:32.261Z</time>
</trkpt>
<trkpt lat="-27.2979704" lon="152.8473560">
<ele>52.244</ele>
<time>2016-08-30T22:55:35.197Z</time>
</trkpt>
<trkpt lat="-27.2983198" lon="152.8471200">
<ele>49.792</ele>
<time>2016-08-30T22:55:37.549Z</time>
</trkpt>
<trkpt lat="-27.2987000" lon="152.8469515">
<ele>47.864</ele>
<time>2016-08-30T22:55:40.338Z</time>
</trkpt>
<trkpt lat="-27.2992280" lon="152.8467176">
<ele>46.668</ele>
<time>2016-08-30T22:55:45.025Z</time>
</trkpt>
<trkpt lat="-27.2995435" lon="152.8465639">
<ele>45.749</ele>
<time>2016-08-30T22:55:48.191Z</time>
</trkpt>
<trkpt lat="-27.2997763" lon="152.8463645">
<ele>44.413</ele>
<time>2016-08-30T22:55:50.918Z</time>
</trkpt>
<trkpt lat="-27.3000011" lon="152.8460376">
<ele>42.633</ele>
<time>2016-08-30T22:55:54.304Z</time>
</trkpt>
<trkpt lat="-27.3001141" lon="152.8458230">
<ele>40.945</ele>
<time>2016-08-30T22:55:56.348Z</time>
</trkpt>
<trkpt lat="-27.3002934" lon="152.8455094">
<ele>39.576</ele>
<time>2016-08-30T22:55:59.440Z</time>
</trkpt>
<trkpt lat="-27.3003995" lon="152.8453111">
<ele>38.457</ele>
<time>2016-08-30T22:56:01.404Z</time>
</trkpt>
<trkpt lat="-27.3005710" lon="152.8450083">
<ele>37.606</ele>
<time>2016-08-30T22:56:04.592Z</time>
</trkpt>
<trkpt lat="-27.3007434" lon="152.8447248">
<ele>37.073</ele>
<time>2016-08-30T22:56:08.490Z</time>
</trkpt>
<trkpt lat="-27.3008781" lon="152.8445353">
<ele>36.750</ele>
<time>2016-08-30T22:56:12.554Z</time>
</trkpt>
<trkpt lat="-27.3010928" lon="152.8442697">
<ele>36.534</ele>
<time>2016-08-30T22:56:17.663Z</time>
</trkpt>
<trkpt lat="-27.3013063" lon="152.8440270">
<ele>36.448</ele>
<time>2016-08-30T22:56:19.975Z</time>
</trkpt>
<trkpt lat="-27.3014312" lon="152.8438785">
<ele>36.556</ele>
<time>2016-08-30T22:56:21.244Z</time>
</trkpt>
<trkpt lat="-27.3015695" lon="152.8436994">
<ele>36.925</ele>
<time>2016-08-30T22:56:22.543Z</time>
</trkpt>
<trkpt lat="-27.3016309" lon="152.8435880">
<ele>37.530</ele>
<time>2016-08-30T22:56:23.260Z</time>
</trkpt>
<trkpt lat="-27.3016683" lon="152.8434395">
<ele>38.289</ele>
<time>2016-08-30T22:56:24.097Z</time>
</trkpt>
<trkpt lat="-27.3015570" lon="152.8433531">
<ele>39.367</ele>
<time>2016-08-30T22:56:24.867Z</time>
</trkpt>
<trkpt lat="-27.3013170" lon="152.8433774">
<ele>40.901</ele>
<time>2016-08-30T22:56:26.218Z</time>
</trkpt>
<trkpt lat="-27.3007368" lon="152.8434298">
<ele>42.658</ele>
<time>2016-08-30T22:56:29.184Z</time>
</trkpt>
<trkpt lat="-27.3001373" lon="152.8434028">
<ele>44.504</ele>
<time>2016-08-30T22:56:32.121Z</time>
</trkpt>
<trkpt lat="-27.2997369" lon="152.8433275">
<ele>46.237</ele>
<time>2016-08-30T22:56:33.980Z</time>
</trkpt>
<trkpt lat="-27.2993403" lon="152.8432343">
<ele>47.293</ele>
<time>2016-08-30T22:56:35.774Z</time>
</trkpt>
<trkpt lat="-27.2989621" lon="152.8431457">
<ele>47.196</ele>
<time>2016-08-30T22:56:37.447Z</time>
</trkpt>
<trkpt lat="-27.2985462" lon="152.8430346">
<ele>46.213</ele>
<time>2016-08-30T22:56:39.309Z</time>
</trkpt>
<trkpt lat="-27.2978704" lon="152.8428843">
<ele>45.343</ele>
<time>2016-08-30T22:56:42.312Z</time>
</trkpt>
<trkpt lat="-27.2971840" lon="152.8427283">
<ele>45.231</ele>
<time>2016-08-30T22:56:45.333Z</time>
</trkpt>
<trkpt lat="-27.2967449" lon="152.8426305">
<ele>45.333</ele>
<time>2016-08-30T22:56:47.242Z</time>
</trkpt>
<trkpt lat="-27.2960637" lon="152.8424807">
<ele>45.063</ele>
<time>2016-08-30T22:56:50.196Z</time>
</trkpt>
<trkpt lat="-27.2956133" lon="152.8423839">
<ele>44.624</ele>
<time>2016-08-30T22:56:52.152Z</time>
</trkpt>
<trkpt lat="-27.2949286" lon="152.8422461">
<ele>44.371</ele>
<time>2016-08-30T22:56:55.107Z</time>
</trkpt>
<trkpt lat="-27.2944643" lon="152.8421568">
<ele>44.098</ele>
<time>2016-08-30T22:56:57.096Z</time>
</trkpt>
<trkpt lat="-27.2937572" lon="152.8421002">
<ele>43.676</ele>
<time>2016-08-30T22:57:00.061Z</time>
</trkpt>
<trkpt lat="-27.2930518" lon="152.8420868">
<ele>43.356</ele>
<time>2016-08-30T22:57:02.951Z</time>
</trkpt>
<trkpt lat="-27.2923401" lon="152.8421239">
<ele>43.289</ele>
<time>2016-08-30T22:57:05.841Z</time>
</trkpt>
<trkpt lat="-27.2918584" lon="152.8421821">
<ele>43.330</ele>
<time>2016-08-30T22:57:07.799Z</time>
</trkpt>
<trkpt lat="-27.2911342" lon="152.8423391">
<ele>43.432</ele>
<time>2016-08-30T22:57:10.766Z</time>
</trkpt>
<trkpt lat="-27.2904160" lon="152.8425125">
<ele>43.524</ele>
<time>2016-08-30T22:57:13.709Z</time>
</trkpt>
<trkpt lat="-27.2899381" lon="152.8426337">
<ele>43.483</ele>
<time>2016-08-30T22:57:15.672Z</time>
</trkpt>
<trkpt lat="-27.2892112" lon="152.8428188">
<ele>43.319</ele>
<time>2016-08-30T22:57:18.638Z</time>
</trkpt>
<trkpt lat="-27.2887224" lon="152.8429388">
<ele>43.292</ele>
<time>2016-08-30T22:57:20.591Z</time>
</trkpt>
<trkpt lat="-27.2882329" lon="152.8430660">
<ele>43.506</ele>
<time>2016-08-30T22:57:22.511Z</time>
</trkpt>
<trkpt lat="-27.2877441" lon="152.8431895">
<ele>43.865</ele>
<time>2016-08-30T22:57:24.414Z</time>
</trkpt>
<trkpt lat="-27.2869920" lon="152.8433671">
<ele>44.417</ele>
<time>2016-08-30T22:57:27.324Z</time>
</trkpt>
<trkpt lat="-27.2862210" lon="152.8435996">
<ele>45.197</ele>
<time>2016-08-30T22:57:30.328Z</time>
</trkpt>
<trkpt lat="-27.2857220" lon="152.8437848">
<ele>45.901</ele>
<time>2016-08-30T22:57:32.300Z</time>
</trkpt>
<trkpt lat="-27.2852327" lon="152.8440025">
<ele>46.137</ele>
<time>2016-08-30T22:57:34.278Z</time>
</trkpt>
<trkpt lat="-27.2847446" lon="152.8442480">
<ele>45.877</ele>
<time>2016-08-30T22:57:36.291Z</time>
</trkpt>
<trkpt lat="-27.2840354" lon="152.8446369">
<ele>45.356</ele>
<time>2016-08-30T22:57:39.269Z</time>
</trkpt>
<trkpt lat="-27.2833232" lon="152.8450269">
<ele>44.643</ele>
<time>2016-08-30T22:57:42.222Z</time>
</trkpt>
<trkpt lat="-27.2826152" lon="152.8454096">
<ele>43.824</ele>
<time>2016-08-30T22:57:45.107Z</time>
</trkpt>
<trkpt lat="-27.2821286" lon="152.8456657">
<ele>43.348</ele>
<time>2016-08-30T22:57:47.101Z</time>
</trkpt>
<trkpt lat="-27.2816414" lon="152.8459258">
<ele>43.734</ele>
<time>2016-08-30T22:57:49.113Z</time>
</trkpt>
<trkpt lat="-27.2811471" lon="152.8461912">
<ele>44.951</ele>
<time>2016-08-30T22:57:51.170Z</time>
</trkpt>
<trkpt lat="-27.2804241" lon="152.8465855">
<ele>46.305</ele>
<time>2016-08-30T22:57:54.207Z</time>
</trkpt>
<trkpt lat="-27.2799473" lon="152.8468513">
<ele>47.288</ele>
<time>2016-08-30T22:57:56.238Z</time>
</trkpt>
<trkpt lat="-27.2792356" lon="152.8472496">
<ele>47.920</ele>
<time>2016-08-30T22:57:59.318Z</time>
</trkpt>
<trkpt lat="-27.2785351" lon="152.8476153">
<ele>48.459</ele>
<time>2016-08-30T22:58:02.347Z</time>
</trkpt>
<trkpt lat="-27.2778351" lon="152.8479727">
<ele>49.201</ele>
<time>2016-08-30T22:58:05.377Z</time>
</trkpt>
<trkpt lat="-27.2773693" lon="152.8481925">
<ele>50.073</ele>
<time>2016-08-30T22:58:07.364Z</time>
</trkpt>
<trkpt lat="-27.2766727" lon="152.8485096">
<ele>50.665</ele>
<time>2016-08-30T22:58:10.312Z</time>
</trkpt>
<trkpt lat="-27.2761901" lon="152.8486792">
<ele>50.818</ele>
<time>2016-08-30T22:58:12.288Z</time>
</trkpt>
<trkpt lat="-27.2756923" lon="152.8488447">
<ele>50.674</ele>
<time>2016-08-30T22:58:14.313Z</time>
</trkpt>
<trkpt lat="-27.2752009" lon="152.8489913">
<ele>50.383</ele>
<time>2016-08-30T22:58:16.296Z</time>
</trkpt>
<trkpt lat="-27.2744492" lon="152.8492132">
<ele>50.008</ele>
<time>2016-08-30T22:58:19.342Z</time>
</trkpt>
<trkpt lat="-27.2736843" lon="152.8494007">
<ele>49.266</ele>
<time>2016-08-30T22:58:22.439Z</time>
</trkpt>
<trkpt lat="-27.2731913" lon="152.8495154">
<ele>47.861</ele>
<time>2016-08-30T22:58:24.443Z</time>
</trkpt>
<trkpt lat="-27.2726902" lon="152.8496096">
<ele>46.154</ele>
<time>2016-08-30T22:58:26.464Z</time>
</trkpt>
<trkpt lat="-27.2721893" lon="152.8497061">
<ele>44.791</ele>
<time>2016-08-30T22:58:28.473Z</time>
</trkpt>
<trkpt lat="-27.2717019" lon="152.8498044">
<ele>44.020</ele>
<time>2016-08-30T22:58:30.394Z</time>
</trkpt>
<trkpt lat="-27.2709590" lon="152.8499486">
<ele>43.867</ele>
<time>2016-08-30T22:58:33.287Z</time>
</trkpt>
<trkpt lat="-27.2704493" lon="152.8500347">
<ele>44.371</ele>
<time>2016-08-30T22:58:35.259Z</time>
</trkpt>
<trkpt lat="-27.2696736" lon="152.8501753">
<ele>45.492</ele>
<time>2016-08-30T22:58:38.333Z</time>
</trkpt>
<trkpt lat="-27.2688903" lon="152.8503139">
<ele>46.939</ele>
<time>2016-08-30T22:58:41.486Z</time>
</trkpt>
<trkpt lat="-27.2681501" lon="152.8504511">
<ele>48.301</ele>
<time>2016-08-30T22:58:44.484Z</time>
</trkpt>
<trkpt lat="-27.2676625" lon="152.8505477">
<ele>49.373</ele>
<time>2016-08-30T22:58:46.471Z</time>
</trkpt>
<trkpt lat="-27.2669242" lon="152.8506778">
<ele>50.233</ele>
<time>2016-08-30T22:58:49.469Z</time>
</trkpt>
<trkpt lat="-27.2664376" lon="152.8507711">
<ele>51.088</ele>
<time>2016-08-30T22:58:51.442Z</time>
</trkpt>
<trkpt lat="-27.2659399" lon="152.8508571">
<ele>51.947</ele>
<time>2016-08-30T22:58:53.455Z</time>
</trkpt>
<trkpt lat="-27.2651994" lon="152.8509912">
<ele>52.658</ele>
<time>2016-08-30T22:58:56.470Z</time>
</trkpt>
<trkpt lat="-27.2644474" lon="152.8511277">
<ele>53.115</ele>
<time>2016-08-30T22:58:59.558Z</time>
</trkpt>
<trkpt lat="-27.2639496" lon="152.8512240">
<ele>52.875</ele>
<time>2016-08-30T22:59:01.585Z</time>
</trkpt>
<trkpt lat="-27.2632261" lon="152.8513620">
<ele>51.441</ele>
<time>2016-08-30T22:59:04.447Z</time>
</trkpt>
<trkpt lat="-27.2625039" lon="152.8514962">
<ele>48.895</ele>
<time>2016-08-30T22:59:07.280Z</time>
</trkpt>
<trkpt lat="-27.2619884" lon="152.8515876">
<ele>45.657</ele>
<time>2016-08-30T22:59:09.278Z</time>
</trkpt>
<trkpt lat="-27.2614804" lon="152.8516668">
<ele>42.600</ele>
<time>2016-08-30T22:59:11.236Z</time>
</trkpt>
<trkpt lat="-27.2609636" lon="152.8517019">
<ele>40.583</ele>
<time>2016-08-30T22:59:13.220Z</time>
</trkpt>
<trkpt lat="-27.2601807" lon="152.8517069">
<ele>39.565</ele>
<time>2016-08-30T22:59:16.284Z</time>
</trkpt>
<trkpt lat="-27.2596521" lon="152.8516480">
<ele>39.263</ele>
<time>2016-08-30T22:59:18.420Z</time>
</trkpt>
<trkpt lat="-27.2591433" lon="152.8515647">
<ele>39.513</ele>
<time>2016-08-30T22:59:20.559Z</time>
</trkpt>
<trkpt lat="-27.2584188" lon="152.8513579">
<ele>40.119</ele>
<time>2016-08-30T22:59:23.728Z</time>
</trkpt>
<trkpt lat="-27.2579671" lon="152.8511931">
<ele>40.903</ele>
<time>2016-08-30T22:59:25.794Z</time>
</trkpt>
<trkpt lat="-27.2573050" lon="152.8509130">
<ele>41.653</ele>
<time>2016-08-30T22:59:28.908Z</time>
</trkpt>
<trkpt lat="-27.2568909" lon="152.8506754">
<ele>42.205</ele>
<time>2016-08-30T22:59:30.970Z</time>
</trkpt>
<trkpt lat="-27.2562998" lon="152.8503121">
<ele>42.497</ele>
<time>2016-08-30T22:59:33.989Z</time>
</trkpt>
<trkpt lat="-27.2557458" lon="152.8498842">
<ele>42.448</ele>
<time>2016-08-30T22:59:37.081Z</time>
</trkpt>
<trkpt lat="-27.2553807" lon="152.8495760">
<ele>42.069</ele>
<time>2016-08-30T22:59:39.196Z</time>
</trkpt>
<trkpt lat="-27.2550466" lon="152.8492548">
<ele>41.574</ele>
<time>2016-08-30T22:59:41.214Z</time>
</trkpt>
<trkpt lat="-27.2545929" lon="152.8487553">
<ele>41.041</ele>
<time>2016-08-30T22:59:44.087Z</time>
</trkpt>
<trkpt lat="-27.2543146" lon="152.8483963">
<ele>40.188</ele>
<time>2016-08-30T22:59:45.969Z</time>
</trkpt>
<trkpt lat="-27.2539050" lon="152.8478257">
<ele>38.932</ele>
<time>2016-08-30T22:59:48.815Z</time>
</trkpt>
<trkpt lat="-27.2534821" lon="152.8472360">
<ele>37.613</ele>
<time>2016-08-30T22:59:51.691Z</time>
</trkpt>
<trkpt lat="-27.2530426" lon="152.8466297">
<ele>36.633</ele>
<time>2016-08-30T22:59:54.594Z</time>
</trkpt>
<trkpt lat="-27.2525979" lon="152.8460182">
<ele>36.515</ele>
<time>2016-08-30T22:59:57.523Z</time>
</trkpt>
<trkpt lat="-27.2522951" lon="152.8455925">
<ele>37.605</ele>
<time>2016-08-30T22:59:59.549Z</time>
</trkpt>
<trkpt lat="-27.2518301" lon="152.8449674">
<ele>39.286</ele>
<time>2016-08-30T23:00:02.583Z</time>
</trkpt>
<trkpt lat="-27.2515369" lon="152.8445474">
<ele>40.378</ele>
<time>2016-08-30T23:00:04.591Z</time>
</trkpt>
<trkpt lat="-27.2512743" lon="152.8441005">
<ele>40.494</ele>
<time>2016-08-30T23:00:06.648Z</time>
</trkpt>
<trkpt lat="-27.2510346" lon="152.8436468">
<ele>40.309</ele>
<time>2016-08-30T23:00:08.748Z</time>
</trkpt>
<trkpt lat="-27.2507368" lon="152.8429358">
<ele>40.451</ele>
<time>2016-08-30T23:00:11.989Z</time>
</trkpt>
<trkpt lat="-27.2505810" lon="152.8424694">
<ele>40.969</ele>
<time>2016-08-30T23:00:14.172Z</time>
</trkpt>
<trkpt lat="-27.2504010" lon="152.8417575">
<ele>41.841</ele>
<time>2016-08-30T23:00:17.637Z</time>
</trkpt>
<trkpt lat="-27.2502897" lon="152.8410701">
<ele>43.530</ele>
<time>2016-08-30T23:00:21.127Z</time>
</trkpt>
<trkpt lat="-27.2501900" lon="152.8404507">
<ele>46.220</ele>
<time>2016-08-30T23:00:24.459Z</time>
</trkpt>
<trkpt lat="-27.2501112" lon="152.8400580">
<ele>49.008</ele>
<time>2016-08-30T23:00:26.726Z</time>
</trkpt>
<trkpt lat="-27.2499826" lon="152.8394914">
<ele>50.785</ele>
<time>2016-08-30T23:00:30.305Z</time>
</trkpt>
<trkpt lat="-27.2497987" lon="152.8389880">
<ele>51.316</ele>
<time>2016-08-30T23:00:34.049Z</time>
</trkpt>
<trkpt lat="-27.2496585" lon="152.8386677">
<ele>50.786</ele>
<time>2016-08-30T23:00:36.888Z</time>
</trkpt>
<trkpt lat="-27.2495356" lon="152.8383642">
<ele>49.439</ele>
<time>2016-08-30T23:00:39.919Z</time>
</trkpt>
<trkpt lat="-27.2494197" lon="152.8380914">
<ele>47.533</ele>
<time>2016-08-30T23:00:42.646Z</time>
</trkpt>
<trkpt lat="-27.2492168" lon="152.8377210">
<ele>45.150</ele>
<time>2016-08-30T23:00:45.647Z</time>
</trkpt>
<trkpt lat="-27.2490727" lon="152.8375103">
<ele>42.423</ele>
<time>2016-08-30T23:00:47.099Z</time>
</trkpt>
<trkpt lat="-27.2488884" lon="152.8372354">
<ele>39.818</ele>
<time>2016-08-30T23:00:48.874Z</time>
</trkpt>
<trkpt lat="-27.2489387" lon="152.8369394">
<ele>37.715</ele>
<time>2016-08-30T23:00:50.237Z</time>
</trkpt>
<trkpt lat="-27.2489925" lon="152.8366928">
<ele>36.283</ele>
<time>2016-08-30T23:00:51.367Z</time>
</trkpt>
<trkpt lat="-27.2489834" lon="152.8362089">
<ele>35.719</ele>
<time>2016-08-30T23:00:53.501Z</time>
</trkpt>
<trkpt lat="-27.2489685" lon="152.8355749">
<ele>36.129</ele>
<time>2016-08-30T23:00:56.400Z</time>
</trkpt>
<trkpt lat="-27.2489627" lon="152.8351181">
<ele>37.528</ele>
<time>2016-08-30T23:00:58.626Z</time>
</trkpt>
<trkpt lat="-27.2489117" lon="152.8344449">
<ele>39.653</ele>
<time>2016-08-30T23:01:02.186Z</time>
</trkpt>
<trkpt lat="-27.2488473" lon="152.8340190">
<ele>41.729</ele>
<time>2016-08-30T23:01:04.557Z</time>
</trkpt>
<trkpt lat="-27.2488114" lon="152.8336136">
<ele>43.022</ele>
<time>2016-08-30T23:01:06.743Z</time>
</trkpt>
<trkpt lat="-27.2487773" lon="152.8332317">
<ele>43.337</ele>
<time>2016-08-30T23:01:08.786Z</time>
</trkpt>
<trkpt lat="-27.2488624" lon="152.8327109">
<ele>42.821</ele>
<time>2016-08-30T23:01:11.596Z</time>
</trkpt>
<trkpt lat="-27.2490554" lon="152.8323892">
<ele>41.882</ele>
<time>2016-08-30T23:01:13.670Z</time>
</trkpt>
<trkpt lat="-27.2493277" lon="152.8319058">
<ele>41.038</ele>
<time>2016-08-30T23:01:16.857Z</time>
</trkpt>
<trkpt lat="-27.2494714" lon="152.8315798">
<ele>40.548</ele>
<time>2016-08-30T23:01:19.089Z</time>
</trkpt>
<trkpt lat="-27.2496307" lon="152.8310375">
<ele>40.374</ele>
<time>2016-08-30T23:01:23.036Z</time>
</trkpt>
<trkpt lat="-27.2497089" lon="152.8306986">
<ele>40.405</ele>
<time>2016-08-30T23:01:25.874Z</time>
</trkpt>
<trkpt lat="-27.2497584" lon="152.8303635">
<ele>40.519</ele>
<time>2016-08-30T23:01:28.754Z</time>
</trkpt>
<trkpt lat="-27.2497699" lon="152.8299003">
<ele>40.580</ele>
<time>2016-08-30T23:01:32.626Z</time>
</trkpt>
<trkpt lat="-27.2496973" lon="152.8295214">
<ele>40.520</ele>
<time>2016-08-30T23:01:35.439Z</time>
</trkpt>
<trkpt lat="-27.2495764" lon="152.8293220">
<ele>40.463</ele>
<time>2016-08-30T23:01:36.915Z</time>
</trkpt>
<trkpt lat="-27.2494152" lon="152.8291779">
<ele>40.537</ele>
<time>2016-08-30T23:01:38.291Z</time>
</trkpt>
<trkpt lat="-27.2491399" lon="152.8290565">
<ele>40.667</ele>
<time>2016-08-30T23:01:40.083Z</time>
</trkpt>
<trkpt lat="-27.2489545" lon="152.8289286">
<ele>40.636</ele>
<time>2016-08-30T23:01:41.378Z</time>
</trkpt>
<trkpt lat="-27.2487472" lon="152.8285795">
<ele>40.383</ele>
<time>2016-08-30T23:01:43.609Z</time>
</trkpt>
<trkpt lat="-27.2486445" lon="152.8280491">
<ele>40.397</ele>
<time>2016-08-30T23:01:46.548Z</time>
</trkpt>
<trkpt lat="-27.2486715" lon="152.8276564">
<ele>41.380</ele>
<time>2016-08-30T23:01:48.791Z</time>
</trkpt>
<trkpt lat="-27.2486857" lon="152.8272982">
<ele>43.104</ele>
<time>2016-08-30T23:01:50.979Z</time>
</trkpt>
<trkpt lat="-27.2487519" lon="152.8269202">
<ele>44.524</ele>
<time>2016-08-30T23:01:53.495Z</time>
</trkpt>
<trkpt lat="-27.2487875" lon="152.8263862">
<ele>45.081</ele>
<time>2016-08-30T23:01:57.188Z</time>
</trkpt>
<trkpt lat="-27.2488209" lon="152.8260648">
<ele>45.017</ele>
<time>2016-08-30T23:01:59.403Z</time>
</trkpt>
<trkpt lat="-27.2488485" lon="152.8257535">
<ele>44.742</ele>
<time>2016-08-30T23:02:01.403Z</time>
</trkpt>
<trkpt lat="-27.2489047" lon="152.8254564">
<ele>44.493</ele>
<time>2016-08-30T23:02:03.271Z</time>
</trkpt>
<trkpt lat="-27.2490033" lon="152.8251901">
<ele>44.325</ele>
<time>2016-08-30T23:02:04.896Z</time>
</trkpt>
<trkpt lat="-27.2491718" lon="152.8248058">
<ele>44.234</ele>
<time>2016-08-30T23:02:07.291Z</time>
</trkpt>
<trkpt lat="-27.2492918" lon="152.8245565">
<ele>44.399</ele>
<time>2016-08-30T23:02:08.872Z</time>
</trkpt>
<trkpt lat="-27.2493920" lon="152.8240664">
<ele>45.048</ele>
<time>2016-08-30T23:02:11.680Z</time>
</trkpt>
<trkpt lat="-27.2494071" lon="152.8234952">
<ele>46.356</ele>
<time>2016-08-30T23:02:14.762Z</time>
</trkpt>
<trkpt lat="-27.2493466" lon="152.8231620">
<ele>49.373</ele>
<time>2016-08-30T23:02:16.713Z</time>
</trkpt>
<trkpt lat="-27.2491225" lon="152.8227000">
<ele>54.569</ele>
<time>2016-08-30T23:02:20.214Z</time>
</trkpt>
<trkpt lat="-27.2487218" lon="152.8223038">
<ele>60.832</ele>
<time>2016-08-30T23:02:24.566Z</time>
</trkpt>
<trkpt lat="-27.2484903" lon="152.8220524">
<ele>67.526</ele>
<time>2016-08-30T23:02:27.189Z</time>
</trkpt>
<trkpt lat="-27.2482654" lon="152.8217270">
<ele>74.261</ele>
<time>2016-08-30T23:02:30.024Z</time>
</trkpt>
<trkpt lat="-27.2480434" lon="152.8214084">
<ele>79.495</ele>
<time>2016-08-30T23:02:32.456Z</time>
</trkpt>
<trkpt lat="-27.2479040" lon="152.8211825">
<ele>82.217</ele>
<time>2016-08-30T23:02:33.903Z</time>
</trkpt>
<trkpt lat="-27.2476962" lon="152.8208249">
<ele>82.855</ele>
<time>2016-08-30T23:02:36.173Z</time>
</trkpt>
<trkpt lat="-27.2475165" lon="152.8206384">
<ele>82.386</ele>
<time>2016-08-30T23:02:37.667Z</time>
</trkpt>
<trkpt lat="-27.2470387" lon="152.8205538">
<ele>81.615</ele>
<time>2016-08-30T23:02:40.839Z</time>
</trkpt>
<trkpt lat="-27.2466694" lon="152.8205717">
<ele>81.326</ele>
<time>2016-08-30T23:02:43.550Z</time>
</trkpt>
<trkpt lat="-27.2462257" lon="152.8207750">
<ele>81.898</ele>
<time>2016-08-30T23:02:47.051Z</time>
</trkpt>
<trkpt lat="-27.2459947" lon="152.8210273">
<ele>83.082</ele>
<time>2016-08-30T23:02:49.011Z</time>
</trkpt>
<trkpt lat="-27.2456712" lon="152.8213486">
<ele>84.669</ele>
<time>2016-08-30T23:02:51.619Z</time>
</trkpt>
<trkpt lat="-27.2454307" lon="152.8213990">
<ele>86.787</ele>
<time>2016-08-30T23:02:53.095Z</time>
</trkpt>
<trkpt lat="-27.2449917" lon="152.8212875">
<ele>89.167</ele>
<time>2016-08-30T23:02:56.003Z</time>
</trkpt>
<trkpt lat="-27.2444984" lon="152.8211277">
<ele>91.165</ele>
<time>2016-08-30T23:02:59.206Z</time>
</trkpt>
<trkpt lat="-27.2440513" lon="152.8209139">
<ele>92.454</ele>
<time>2016-08-30T23:03:01.803Z</time>
</trkpt>
<trkpt lat="-27.2436145" lon="152.8208264">
<ele>93.252</ele>
<time>2016-08-30T23:03:04.049Z</time>
</trkpt>
<trkpt lat="-27.2432131" lon="152.8211445">
<ele>93.921</ele>
<time>2016-08-30T23:03:06.605Z</time>
</trkpt>
<trkpt lat="-27.2429588" lon="152.8214768">
<ele>95.028</ele>
<time>2016-08-30T23:03:08.782Z</time>
</trkpt>
<trkpt lat="-27.2427039" lon="152.8218096">
<ele>96.927</ele>
<time>2016-08-30T23:03:11.174Z</time>
</trkpt>
<trkpt lat="-27.2423050" lon="152.8222839">
<ele>99.079</ele>
<time>2016-08-30T23:03:14.757Z</time>
</trkpt>
<trkpt lat="-27.2419453" lon="152.8227018">
<ele>100.808</ele>
<time>2016-08-30T23:03:17.791Z</time>
</trkpt>
<trkpt lat="-27.2416901" lon="152.8229019">
<ele>102.035</ele>
<time>2016-08-30T23:03:19.646Z</time>
</trkpt>
<trkpt lat="-27.2412040" lon="152.8229765">
<ele>102.728</ele>
<time>2016-08-30T23:03:22.921Z</time>
</trkpt>
<trkpt lat="-27.2408508" lon="152.8229565">
<ele>103.174</ele>
<time>2016-08-30T23:03:25.853Z</time>
</trkpt>
<trkpt lat="-27.2403446" lon="152.8229181">
<ele>104.200</ele>
<time>2016-08-30T23:03:32.935Z</time>
</trkpt>
<trkpt lat="-27.2400421" lon="152.8229109">
<ele>105.824</ele>
<time>2016-08-30T23:03:35.942Z</time>
</trkpt>
<trkpt lat="-27.2396491" lon="152.8230234">
<ele>107.045</ele>
<time>2016-08-30T23:03:38.716Z</time>
</trkpt>
<trkpt lat="-27.2393715" lon="152.8231391">
<ele>107.294</ele>
<time>2016-08-30T23:03:40.472Z</time>
</trkpt>
<trkpt lat="-27.2392550" lon="152.8231578">
<ele>106.635</ele>
<time>2016-08-30T23:03:41.156Z</time>
</trkpt>
<trkpt lat="-27.2392104" lon="152.8230241">
<ele>105.302</ele>
<time>2016-08-30T23:03:41.851Z</time>
</trkpt>
<trkpt lat="-27.2392652" lon="152.8226741">
<ele>103.962</ele>
<time>2016-08-30T23:03:43.579Z</time>
</trkpt>
<trkpt lat="-27.2391449" lon="152.8221799">
<ele>103.587</ele>
<time>2016-08-30T23:03:46.026Z</time>
</trkpt>
<trkpt lat="-27.2389202" lon="152.8216304">
<ele>104.640</ele>
<time>2016-08-30T23:03:49.010Z</time>
</trkpt>
<trkpt lat="-27.2387924" lon="152.8210190">
<ele>106.564</ele>
<time>2016-08-30T23:03:52.130Z</time>
</trkpt>
<trkpt lat="-27.2387502" lon="152.8206060">
<ele>108.382</ele>
<time>2016-08-30T23:03:54.087Z</time>
</trkpt>
<trkpt lat="-27.2387189" lon="152.8202182">
<ele>109.705</ele>
<time>2016-08-30T23:03:55.867Z</time>
</trkpt>
<trkpt lat="-27.2388243" lon="152.8196162">
<ele>110.637</ele>
<time>2016-08-30T23:03:58.378Z</time>
</trkpt>
<trkpt lat="-27.2389074" lon="152.8192140">
<ele>111.551</ele>
<time>2016-08-30T23:04:00.012Z</time>
</trkpt>
<trkpt lat="-27.2389904" lon="152.8185475">
<ele>112.605</ele>
<time>2016-08-30T23:04:02.756Z</time>
</trkpt>
<trkpt lat="-27.2392530" lon="152.8178411">
<ele>113.392</ele>
<time>2016-08-30T23:04:06.883Z</time>
</trkpt>
<trkpt lat="-27.2394560" lon="152.8173853">
<ele>113.528</ele>
<time>2016-08-30T23:04:10.066Z</time>
</trkpt>
<trkpt lat="-27.2396434" lon="152.8169937">
<ele>113.195</ele>
<time>2016-08-30T23:04:12.562Z</time>
</trkpt>
<trkpt lat="-27.2397847" lon="152.8165313">
<ele>112.808</ele>
<time>2016-08-30T23:04:15.405Z</time>
</trkpt>
<trkpt lat="-27.2397394" lon="152.8162400">
<ele>112.754</ele>
<time>2016-08-30T23:04:17.085Z</time>
</trkpt>
<trkpt lat="-27.2395941" lon="152.8159357">
<ele>113.456</ele>
<time>2016-08-30T23:04:19.013Z</time>
</trkpt>
<trkpt lat="-27.2392612" lon="152.8155287">
<ele>115.172</ele>
<time>2016-08-30T23:04:21.553Z</time>
</trkpt>
<trkpt lat="-27.2389613" lon="152.8151922">
<ele>117.413</ele>
<time>2016-08-30T23:04:23.716Z</time>
</trkpt>
<trkpt lat="-27.2387607" lon="152.8146737">
<ele>119.343</ele>
<time>2016-08-30T23:04:26.550Z</time>
</trkpt>
<trkpt lat="-27.2386326" lon="152.8142306">
<ele>120.708</ele>
<time>2016-08-30T23:04:29.567Z</time>
</trkpt>
<trkpt lat="-27.2384749" lon="152.8138201">
<ele>121.754</ele>
<time>2016-08-30T23:04:33.067Z</time>
</trkpt>
<trkpt lat="-27.2382633" lon="152.8132794">
<ele>122.819</ele>
<time>2016-08-30T23:04:37.481Z</time>
</trkpt>
<trkpt lat="-27.2381439" lon="152.8129874">
<ele>123.945</ele>
<time>2016-08-30T23:04:39.693Z</time>
</trkpt>
<trkpt lat="-27.2379609" lon="152.8126942">
<ele>124.575</ele>
<time>2016-08-30T23:04:41.740Z</time>
</trkpt>
<trkpt lat="-27.2376446" lon="152.8125875">
<ele>123.863</ele>
<time>2016-08-30T23:04:43.533Z</time>
</trkpt>
<trkpt lat="-27.2373850" lon="152.8125904">
<ele>121.977</ele>
<time>2016-08-30T23:04:44.800Z</time>
</trkpt>
<trkpt lat="-27.2370541" lon="152.8127538">
<ele>119.993</ele>
<time>2016-08-30T23:04:46.472Z</time>
</trkpt>
<trkpt lat="-27.2368368" lon="152.8129905">
<ele>118.587</ele>
<time>2016-08-30T23:04:47.888Z</time>
</trkpt>
<trkpt lat="-27.2364134" lon="152.8135085">
<ele>117.782</ele>
<time>2016-08-30T23:04:51.120Z</time>
</trkpt>
<trkpt lat="-27.2361050" lon="152.8138775">
<ele>117.439</ele>
<time>2016-08-30T23:04:54.073Z</time>
</trkpt>
<trkpt lat="-27.2356193" lon="152.8143266">
<ele>116.564</ele>
<time>2016-08-30T23:04:58.019Z</time>
</trkpt>
<trkpt lat="-27.2353432" lon="152.8145165">
<ele>113.361</ele>
<time>2016-08-30T23:04:59.914Z</time>
</trkpt>
<trkpt lat="-27.2350851" lon="152.8146307">
<ele>107.513</ele>
<time>2016-08-30T23:05:01.475Z</time>
</trkpt>
<trkpt lat="-27.2345874" lon="152.8145767">
<ele>101.215</ele>
<time>2016-08-30T23:05:04.209Z</time>
</trkpt>
<trkpt lat="-27.2340757" lon="152.8145039">
<ele>96.634</ele>
<time>2016-08-30T23:05:07.153Z</time>
</trkpt>
<trkpt lat="-27.2337247" lon="152.8145066">
<ele>94.018</ele>
<time>2016-08-30T23:05:09.356Z</time>
</trkpt>
<trkpt lat="-27.2333545" lon="152.8145959">
<ele>92.718</ele>
<time>2016-08-30T23:05:11.903Z</time>
</trkpt>
<trkpt lat="-27.2330152" lon="152.8146978">
<ele>92.264</ele>
<time>2016-08-30T23:05:14.412Z</time>
</trkpt>
<trkpt lat="-27.2327148" lon="152.8148418">
<ele>92.309</ele>
<time>2016-08-30T23:05:16.808Z</time>
</trkpt>
<trkpt lat="-27.2323007" lon="152.8150325">
<ele>92.369</ele>
<time>2016-08-30T23:05:19.973Z</time>
</trkpt>
<trkpt lat="-27.2318660" lon="152.8150767">
<ele>92.141</ele>
<time>2016-08-30T23:05:22.686Z</time>
</trkpt>
<trkpt lat="-27.2316099" lon="152.8150549">
<ele>91.688</ele>
<time>2016-08-30T23:05:24.167Z</time>
</trkpt>
<trkpt lat="-27.2312009" lon="152.8150132">
<ele>90.994</ele>
<time>2016-08-30T23:05:26.466Z</time>
</trkpt>
<trkpt lat="-27.2308851" lon="152.8150552">
<ele>89.598</ele>
<time>2016-08-30T23:05:28.172Z</time>
</trkpt>
<trkpt lat="-27.2303768" lon="152.8151442">
<ele>87.352</ele>
<time>2016-08-30T23:05:30.896Z</time>
</trkpt>
<trkpt lat="-27.2298486" lon="152.8152472">
<ele>84.842</ele>
<time>2016-08-30T23:05:33.769Z</time>
</trkpt>
<trkpt lat="-27.2294628" lon="152.8152934">
<ele>82.397</ele>
<time>2016-08-30T23:05:35.928Z</time>
</trkpt>
<trkpt lat="-27.2290925" lon="152.8153707">
<ele>80.078</ele>
<time>2016-08-30T23:05:38.094Z</time>
</trkpt>
<trkpt lat="-27.2285363" lon="152.8154370">
<ele>78.413</ele>
<time>2016-08-30T23:05:41.549Z</time>
</trkpt>
<trkpt lat="-27.2281805" lon="152.8154852">
<ele>78.011</ele>
<time>2016-08-30T23:05:43.857Z</time>
</trkpt>
<trkpt lat="-27.2276945" lon="152.8155806">
<ele>78.898</ele>
<time>2016-08-30T23:05:46.898Z</time>
</trkpt>
<trkpt lat="-27.2272448" lon="152.8157315">
<ele>80.360</ele>
<time>2016-08-30T23:05:49.633Z</time>
</trkpt>
<trkpt lat="-27.2267952" lon="152.8157987">
<ele>81.300</ele>
<time>2016-08-30T23:05:52.264Z</time>
</trkpt>
<trkpt lat="-27.2264716" lon="152.8157023">
<ele>80.835</ele>
<time>2016-08-30T23:05:54.201Z</time>
</trkpt>
<trkpt lat="-27.2259902" lon="152.8154320">
<ele>78.757</ele>
<time>2016-08-30T23:05:57.120Z</time>
</trkpt>
<trkpt lat="-27.2255274" lon="152.8151862">
<ele>75.711</ele>
<time>2016-08-30T23:05:59.729Z</time>
</trkpt>
<trkpt lat="-27.2251951" lon="152.8150461">
<ele>72.543</ele>
<time>2016-08-30T23:06:01.517Z</time>
</trkpt>
<trkpt lat="-27.2246438" lon="152.8148563">
<ele>69.624</ele>
<time>2016-08-30T23:06:04.542Z</time>
</trkpt>
<trkpt lat="-27.2242681" lon="152.8147305">
<ele>66.503</ele>
<time>2016-08-30T23:06:06.798Z</time>
</trkpt>
<trkpt lat="-27.2236565" lon="152.8145758">
<ele>62.825</ele>
<time>2016-08-30T23:06:11.141Z</time>
</trkpt>
<trkpt lat="-27.2233027" lon="152.8145015">
<ele>59.191</ele>
<time>2016-08-30T23:06:13.891Z</time>
</trkpt>
<trkpt lat="-27.2228089" lon="152.8144150">
<ele>56.132</ele>
<time>2016-08-30T23:06:17.610Z</time>
</trkpt>
<trkpt lat="-27.2225398" lon="152.8143427">
<ele>53.325</ele>
<time>2016-08-30T23:06:19.607Z</time>
</trkpt>
<trkpt lat="-27.2223141" lon="152.8142119">
<ele>50.718</ele>
<time>2016-08-30T23:06:21.431Z</time>
</trkpt>
<trkpt lat="-27.2220420" lon="152.8138844">
<ele>48.886</ele>
<time>2016-08-30T23:06:24.321Z</time>
</trkpt>
<trkpt lat="-27.2217885" lon="152.8135152">
<ele>48.990</ele>
<time>2016-08-30T23:06:27.458Z</time>
</trkpt>
<trkpt lat="-27.2215072" lon="152.8131639">
<ele>51.975</ele>
<time>2016-08-30T23:06:31.027Z</time>
</trkpt>
<trkpt lat="-27.2213422" lon="152.8129293">
<ele>57.761</ele>
<time>2016-08-30T23:06:33.601Z</time>
</trkpt>
<trkpt lat="-27.2210467" lon="152.8126024">
<ele>64.286</ele>
<time>2016-08-30T23:06:38.237Z</time>
</trkpt>
<trkpt lat="-27.2206910" lon="152.8124638">
<ele>67.885</ele>
<time>2016-08-30T23:06:43.118Z</time>
</trkpt>
<trkpt lat="-27.2204563" lon="152.8124894">
<ele>66.340</ele>
<time>2016-08-30T23:06:46.590Z</time>
</trkpt>
<trkpt lat="-27.2201758" lon="152.8123914">
<ele>61.349</ele>
<time>2016-08-30T23:06:50.403Z</time>
</trkpt>
<trkpt lat="-27.2199817" lon="152.8121717">
<ele>55.999</ele>
<time>2016-08-30T23:06:52.876Z</time>
</trkpt>
<trkpt lat="-27.2198453" lon="152.8120460">
<ele>51.681</ele>
<time>2016-08-30T23:06:54.224Z</time>
</trkpt>
<trkpt lat="-27.2197163" lon="152.8119450">
<ele>48.210</ele>
<time>2016-08-30T23:06:55.345Z</time>
</trkpt>
<trkpt lat="-27.2195026" lon="152.8118380">
<ele>45.312</ele>
<time>2016-08-30T23:06:56.798Z</time>
</trkpt>
<trkpt lat="-27.2194227" lon="152.8117334">
<ele>43.017</ele>
<time>2016-08-30T23:06:57.506Z</time>
</trkpt>
<trkpt lat="-27.2193472" lon="152.8115343">
<ele>41.522</ele>
<time>2016-08-30T23:06:58.585Z</time>
</trkpt>
<trkpt lat="-27.2193122" lon="152.8113448">
<ele>41.165</ele>
<time>2016-08-30T23:06:59.550Z</time>
</trkpt>
<trkpt lat="-27.2192726" lon="152.8110939">
<ele>42.121</ele>
<time>2016-08-30T23:07:00.776Z</time>
</trkpt>
<trkpt lat="-27.2192123" lon="152.8106188">
<ele>43.900</ele>
<time>2016-08-30T23:07:03.040Z</time>
</trkpt>
<trkpt lat="-27.2191976" lon="152.8102379">
<ele>46.132</ele>
<time>2016-08-30T23:07:05.013Z</time>
</trkpt>
<trkpt lat="-27.2192755" lon="152.8095901">
<ele>49.041</ele>
<time>2016-08-30T23:07:09.490Z</time>
</trkpt>
<trkpt lat="-27.2192472" lon="152.8089379">
<ele>52.757</ele>
<time>2016-08-30T23:07:18.270Z</time>
</trkpt>
<trkpt lat="-27.2191577" lon="152.8083931">
<ele>58.012</ele>
<time>2016-08-30T23:07:23.487Z</time>
</trkpt>
<trkpt lat="-27.2191026" lon="152.8081418">
<ele>65.296</ele>
<time>2016-08-30T23:07:25.209Z</time>
</trkpt>
<trkpt lat="-27.2190223" lon="152.8078840">
<ele>72.698</ele>
<time>2016-08-30T23:07:26.884Z</time>
</trkpt>
<trkpt lat="-27.2189397" lon="152.8076969">
<ele>77.725</ele>
<time>2016-08-30T23:07:28.076Z</time>
</trkpt>
<trkpt lat="-27.2188433" lon="152.8075995">
<ele>80.040</ele>
<time>2016-08-30T23:07:28.848Z</time>
</trkpt>
<trkpt lat="-27.2186193" lon="152.8076650">
<ele>80.853</ele>
<time>2016-08-30T23:07:30.228Z</time>
</trkpt>
<trkpt lat="-27.2182969" lon="152.8077752">
<ele>81.677</ele>
<time>2016-08-30T23:07:32.185Z</time>
</trkpt>
<trkpt lat="-27.2178902" lon="152.8079038">
<ele>83.063</ele>
<time>2016-08-30T23:07:34.606Z</time>
</trkpt>
<trkpt lat="-27.2175681" lon="152.8079731">
<ele>83.849</ele>
<time>2016-08-30T23:07:36.517Z</time>
</trkpt>
<trkpt lat="-27.2170691" lon="152.8080818">
<ele>82.630</ele>
<time>2016-08-30T23:07:39.603Z</time>
</trkpt>
<trkpt lat="-27.2167157" lon="152.8081584">
<ele>79.813</ele>
<time>2016-08-30T23:07:41.698Z</time>
</trkpt>
<trkpt lat="-27.2162110" lon="152.8082362">
<ele>76.924</ele>
<time>2016-08-30T23:07:44.306Z</time>
</trkpt>
<trkpt lat="-27.2158926" lon="152.8082864">
<ele>74.976</ele>
<time>2016-08-30T23:07:45.865Z</time>
</trkpt>
<trkpt lat="-27.2154689" lon="152.8085357">
<ele>73.668</ele>
<time>2016-08-30T23:07:48.177Z</time>
</trkpt>
<trkpt lat="-27.2151299" lon="152.8087930">
<ele>71.899</ele>
<time>2016-08-30T23:07:50.210Z</time>
</trkpt>
<trkpt lat="-27.2147580" lon="152.8090344">
<ele>69.411</ele>
<time>2016-08-30T23:07:52.452Z</time>
</trkpt>
<trkpt lat="-27.2142314" lon="152.8093838">
<ele>66.678</ele>
<time>2016-08-30T23:07:55.633Z</time>
</trkpt>
<trkpt lat="-27.2138940" lon="152.8096100">
<ele>63.799</ele>
<time>2016-08-30T23:07:57.590Z</time>
</trkpt>
<trkpt lat="-27.2134532" lon="152.8099416">
<ele>60.702</ele>
<time>2016-08-30T23:08:00.247Z</time>
</trkpt>
<trkpt lat="-27.2130135" lon="152.8104178">
<ele>57.373</ele>
<time>2016-08-30T23:08:03.583Z</time>
</trkpt>
<trkpt lat="-27.2126423" lon="152.8109447">
<ele>54.029</ele>
<time>2016-08-30T23:08:07.891Z</time>
</trkpt>
<trkpt lat="-27.2123591" lon="152.8115033">
<ele>51.171</ele>
<time>2016-08-30T23:08:13.100Z</time>
</trkpt>
<trkpt lat="-27.2121365" lon="152.8119800">
<ele>48.753</ele>
<time>2016-08-30T23:08:17.327Z</time>
</trkpt>
<trkpt lat="-27.2119689" lon="152.8121462">
<ele>46.089</ele>
<time>2016-08-30T23:08:19.414Z</time>
</trkpt>
<trkpt lat="-27.2116720" lon="152.8121525">
<ele>43.057</ele>
<time>2016-08-30T23:08:22.280Z</time>
</trkpt>
<trkpt lat="-27.2114588" lon="152.8120338">
<ele>40.606</ele>
<time>2016-08-30T23:08:24.466Z</time>
</trkpt>
<trkpt lat="-27.2112391" lon="152.8119197">
<ele>39.365</ele>
<time>2016-08-30T23:08:26.478Z</time>
</trkpt>
<trkpt lat="-27.2111274" lon="152.8118866">
<ele>38.966</ele>
<time>2016-08-30T23:08:27.407Z</time>
</trkpt>
<trkpt lat="-27.2107004" lon="152.8118980">
<ele>38.891</ele>
<time>2016-08-30T23:08:30.713Z</time>
</trkpt>
<trkpt lat="-27.2104214" lon="152.8117436">
<ele>38.619</ele>
<time>2016-08-30T23:08:33.664Z</time>
</trkpt>
<trkpt lat="-27.2102366" lon="152.8114277">
<ele>37.925</ele>
<time>2016-08-30T23:08:38.257Z</time>
</trkpt>
<trkpt lat="-27.2101540" lon="152.8110003">
<ele>37.876</ele>
<time>2016-08-30T23:08:41.271Z</time>
</trkpt>
<trkpt lat="-27.2101666" lon="152.8105460">
<ele>39.996</ele>
<time>2016-08-30T23:08:43.626Z</time>
</trkpt>
<trkpt lat="-27.2100983" lon="152.8102762">
<ele>44.154</ele>
<time>2016-08-30T23:08:44.930Z</time>
</trkpt>
<trkpt lat="-27.2099823" lon="152.8102980">
<ele>48.542</ele>
<time>2016-08-30T23:08:45.545Z</time>
</trkpt>
<trkpt lat="-27.2098666" lon="152.8104451">
<ele>51.741</ele>
<time>2016-08-30T23:08:46.453Z</time>
</trkpt>
<trkpt lat="-27.2097451" lon="152.8107197">
<ele>53.866</ele>
<time>2016-08-30T23:08:47.865Z</time>
</trkpt>
<trkpt lat="-27.2095246" lon="152.8112758">
<ele>55.914</ele>
<time>2016-08-30T23:08:50.822Z</time>
</trkpt>
<trkpt lat="-27.2092628" lon="152.8119203">
<ele>58.873</ele>
<time>2016-08-30T23:08:54.688Z</time>
</trkpt>
<trkpt lat="-27.2090523" lon="152.8125090">
<ele>63.449</ele>
<time>2016-08-30T23:08:58.274Z</time>
</trkpt>
<trkpt lat="-27.2088445" lon="152.8130348">
<ele>68.854</ele>
<time>2016-08-30T23:09:01.446Z</time>
</trkpt>
<trkpt lat="-27.2087423" lon="152.8133535">
<ele>73.218</ele>
<time>2016-08-30T23:09:03.281Z</time>
</trkpt>
<trkpt lat="-27.2086973" lon="152.8138750">
<ele>75.961</ele>
<time>2016-08-30T23:09:05.995Z</time>
</trkpt>
<trkpt lat="-27.2087294" lon="152.8142494">
<ele>78.294</ele>
<time>2016-08-30T23:09:07.829Z</time>
</trkpt>
<trkpt lat="-27.2086869" lon="152.8147795">
<ele>81.079</ele>
<time>2016-08-30T23:09:10.298Z</time>
</trkpt>
<trkpt lat="-27.2084416" lon="152.8152915">
<ele>83.746</ele>
<time>2016-08-30T23:09:12.963Z</time>
</trkpt>
<trkpt lat="-27.2080169" lon="152.8157175">
<ele>85.465</ele>
<time>2016-08-30T23:09:15.876Z</time>
</trkpt>
<trkpt lat="-27.2077351" lon="152.8159997">
<ele>86.293</ele>
<time>2016-08-30T23:09:17.798Z</time>
</trkpt>
<trkpt lat="-27.2073144" lon="152.8164551">
<ele>86.477</ele>
<time>2016-08-30T23:09:20.700Z</time>
</trkpt>
<trkpt lat="-27.2068333" lon="152.8168317">
<ele>85.785</ele>
<time>2016-08-30T23:09:23.611Z</time>
</trkpt>
<trkpt lat="-27.2065094" lon="152.8170751">
<ele>83.810</ele>
<time>2016-08-30T23:09:25.560Z</time>
</trkpt>
<trkpt lat="-27.2062458" lon="152.8174277">
<ele>80.878</ele>
<time>2016-08-30T23:09:27.627Z</time>
</trkpt>
<trkpt lat="-27.2059182" lon="152.8179828">
<ele>78.204</ele>
<time>2016-08-30T23:09:30.657Z</time>
</trkpt>
<trkpt lat="-27.2056986" lon="152.8183717">
<ele>76.554</ele>
<time>2016-08-30T23:09:32.760Z</time>
</trkpt>
<trkpt lat="-27.2053858" lon="152.8189326">
<ele>75.726</ele>
<time>2016-08-30T23:09:35.784Z</time>
</trkpt>
<trkpt lat="-27.2051613" lon="152.8193020">
<ele>75.121</ele>
<time>2016-08-30T23:09:37.816Z</time>
</trkpt>
<trkpt lat="-27.2048387" lon="152.8198293">
<ele>74.282</ele>
<time>2016-08-30T23:09:40.635Z</time>
</trkpt>
<trkpt lat="-27.2046185" lon="152.8201812">
<ele>72.521</ele>
<time>2016-08-30T23:09:42.490Z</time>
</trkpt>
<trkpt lat="-27.2043088" lon="152.8207371">
<ele>69.248</ele>
<time>2016-08-30T23:09:45.459Z</time>
</trkpt>
<trkpt lat="-27.2040839" lon="152.8211162">
<ele>64.182</ele>
<time>2016-08-30T23:09:47.809Z</time>
</trkpt>
<trkpt lat="-27.2038387" lon="152.8215089">
<ele>57.891</ele>
<time>2016-08-30T23:09:50.660Z</time>
</trkpt>
<trkpt lat="-27.2034619" lon="152.8220052">
<ele>52.358</ele>
<time>2016-08-30T23:09:54.809Z</time>
</trkpt>
<trkpt lat="-27.2031522" lon="152.8223870">
<ele>48.800</ele>
<time>2016-08-30T23:09:58.376Z</time>
</trkpt>
<trkpt lat="-27.2029548" lon="152.8226245">
<ele>45.966</ele>
<time>2016-08-30T23:10:00.833Z</time>
</trkpt>
<trkpt lat="-27.2027567" lon="152.8228627">
<ele>43.055</ele>
<time>2016-08-30T23:10:03.559Z</time>
</trkpt>
<trkpt lat="-27.2024954" lon="152.8232036">
<ele>40.816</ele>
<time>2016-08-30T23:10:08.334Z</time>
</trkpt>
<trkpt lat="-27.2022673" lon="152.8235619">
<ele>39.605</ele>
<time>2016-08-30T23:10:16.489Z</time>
</trkpt>
<trkpt lat="-27.2021189" lon="152.8237521">
<ele>38.927</ele>
<time>2016-08-30T23:10:20.425Z</time>
</trkpt>
<trkpt lat="-27.2019163" lon="152.8240296">
<ele>38.334</ele>
<time>2016-08-30T23:10:23.378Z</time>
</trkpt>
<trkpt lat="-27.2017467" lon="152.8242413">
<ele>37.677</ele>
<time>2016-08-30T23:10:25.409Z</time>
</trkpt>
<trkpt lat="-27.2016112" lon="152.8244009">
<ele>36.925</ele>
<time>2016-08-30T23:10:26.864Z</time>
</trkpt>
<trkpt lat="-27.2015206" lon="152.8245371">
<ele>36.139</ele>
<time>2016-08-30T23:10:28.037Z</time>
</trkpt>
<trkpt lat="-27.2014303" lon="152.8245981">
<ele>35.387</ele>
<time>2016-08-30T23:10:28.858Z</time>
</trkpt>
<trkpt lat="-27.2012859" lon="152.8245815">
<ele>34.735</ele>
<time>2016-08-30T23:10:30.052Z</time>
</trkpt>
<trkpt lat="-27.2011511" lon="152.8244585">
<ele>34.526</ele>
<time>2016-08-30T23:10:31.507Z</time>
</trkpt>
<trkpt lat="-27.2009763" lon="152.8242882">
<ele>35.051</ele>
<time>2016-08-30T23:10:33.496Z</time>
</trkpt>
<trkpt lat="-27.2006605" lon="152.8239939">
<ele>36.207</ele>
<time>2016-08-30T23:10:37.101Z</time>
</trkpt>
<trkpt lat="-27.2004713" lon="152.8237929">
<ele>37.645</ele>
<time>2016-08-30T23:10:39.431Z</time>
</trkpt>
<trkpt lat="-27.2002633" lon="152.8236367">
<ele>38.915</ele>
<time>2016-08-30T23:10:41.686Z</time>
</trkpt>
<trkpt lat="-27.2000437" lon="152.8235487">
<ele>39.701</ele>
<time>2016-08-30T23:10:43.815Z</time>
</trkpt>
<trkpt lat="-27.1998180" lon="152.8234879">
<ele>40.166</ele>
<time>2016-08-30T23:10:45.943Z</time>
</trkpt>
<trkpt lat="-27.1995919" lon="152.8234369">
<ele>40.729</ele>
<time>2016-08-30T23:10:48.079Z</time>
</trkpt>
<trkpt lat="-27.1993830" lon="152.8233923">
<ele>41.579</ele>
<time>2016-08-30T23:10:50.135Z</time>
</trkpt>
<trkpt lat="-27.1990581" lon="152.8233232">
<ele>42.569</ele>
<time>2016-08-30T23:10:53.586Z</time>
</trkpt>
<trkpt lat="-27.1988410" lon="152.8232825">
<ele>43.426</ele>
<time>2016-08-30T23:10:56.061Z</time>
</trkpt>
<trkpt lat="-27.1985318" lon="152.8232068">
<ele>43.804</ele>
<time>2016-08-30T23:11:00.026Z</time>
</trkpt>
<trkpt lat="-27.1983183" lon="152.8231525">
<ele>43.644</ele>
<time>2016-08-30T23:11:03.107Z</time>
</trkpt>
<trkpt lat="-27.1981000" lon="152.8231099">
<ele>43.419</ele>
<time>2016-08-30T23:11:05.793Z</time>
</trkpt>
<trkpt lat="-27.1979157" lon="152.8230587">
<ele>43.614</ele>
<time>2016-08-30T23:11:07.714Z</time>
</trkpt>
<trkpt lat="-27.1976573" lon="152.8229352">
<ele>44.280</ele>
<time>2016-08-30T23:11:10.389Z</time>
</trkpt>
<trkpt lat="-27.1974175" lon="152.8227973">
<ele>45.086</ele>
<time>2016-08-30T23:11:12.822Z</time>
</trkpt>
<trkpt lat="-27.1972867" lon="152.8227120">
<ele>45.578</ele>
<time>2016-08-30T23:11:14.155Z</time>
</trkpt>
<trkpt lat="-27.1971641" lon="152.8227009">
<ele>45.436</ele>
<time>2016-08-30T23:11:15.239Z</time>
</trkpt>
<trkpt lat="-27.1970080" lon="152.8228993">
<ele>44.738</ele>
<time>2016-08-30T23:11:17.308Z</time>
</trkpt>
<trkpt lat="-27.1969074" lon="152.8230823">
<ele>43.877</ele>
<time>2016-08-30T23:11:18.968Z</time>
</trkpt>
<trkpt lat="-27.1967540" lon="152.8233829">
<ele>43.083</ele>
<time>2016-08-30T23:11:21.720Z</time>
</trkpt>
<trkpt lat="-27.1965740" lon="152.8237029">
<ele>42.387</ele>
<time>2016-08-30T23:11:24.949Z</time>
</trkpt>
<trkpt lat="-27.1963889" lon="152.8240297">
<ele>41.815</ele>
<time>2016-08-30T23:11:28.583Z</time>
</trkpt>
<trkpt lat="-27.1962876" lon="152.8242463">
<ele>41.476</ele>
<time>2016-08-30T23:11:30.944Z</time>
</trkpt>
<trkpt lat="-27.1961050" lon="152.8245755">
<ele>41.537</ele>
<time>2016-08-30T23:11:34.429Z</time>
</trkpt>
<trkpt lat="-27.1960029" lon="152.8249135">
<ele>41.933</ele>
<time>2016-08-30T23:11:37.111Z</time>
</trkpt>
<trkpt lat="-27.1959826" lon="152.8251309">
<ele>42.332</ele>
<time>2016-08-30T23:11:38.519Z</time>
</trkpt>
<trkpt lat="-27.1959603" lon="152.8254445">
<ele>42.545</ele>
<time>2016-08-30T23:11:40.397Z</time>
</trkpt>
<trkpt lat="-27.1958953" lon="152.8257467">
<ele>42.578</ele>
<time>2016-08-30T23:11:42.174Z</time>
</trkpt>
<trkpt lat="-27.1957516" lon="152.8258889">
<ele>42.591</ele>
<time>2016-08-30T23:11:43.389Z</time>
</trkpt>
<trkpt lat="-27.1954150" lon="152.8259842">
<ele>42.746</ele>
<time>2016-08-30T23:11:45.540Z</time>
</trkpt>
<trkpt lat="-27.1951192" lon="152.8260474">
<ele>43.366</ele>
<time>2016-08-30T23:11:47.401Z</time>
</trkpt>
<trkpt lat="-27.1948243" lon="152.8261144">
<ele>44.658</ele>
<time>2016-08-30T23:11:49.290Z</time>
</trkpt>
<trkpt lat="-27.1943556" lon="152.8262395">
<ele>46.228</ele>
<time>2016-08-30T23:11:52.387Z</time>
</trkpt>
<trkpt lat="-27.1940383" lon="152.8263255">
<ele>47.511</ele>
<time>2016-08-30T23:11:54.552Z</time>
</trkpt>
<trkpt lat="-27.1937283" lon="152.8264304">
<ele>48.358</ele>
<time>2016-08-30T23:11:56.722Z</time>
</trkpt>
<trkpt lat="-27.1932579" lon="152.8265547">
<ele>48.803</ele>
<time>2016-08-30T23:11:59.984Z</time>
</trkpt>
<trkpt lat="-27.1929441" lon="152.8266154">
<ele>48.966</ele>
<time>2016-08-30T23:12:02.184Z</time>
</trkpt>
<trkpt lat="-27.1925082" lon="152.8266026">
<ele>49.000</ele>
<time>2016-08-30T23:12:05.274Z</time>
</trkpt>
<trkpt lat="-27.1922179" lon="152.8265883">
<ele>48.999</ele>
<time>2016-08-30T23:12:07.280Z</time>
</trkpt>
<trkpt lat="-27.1917829" lon="152.8265572">
<ele>48.926</ele>
<time>2016-08-30T23:12:10.257Z</time>
</trkpt>
<trkpt lat="-27.1914994" lon="152.8265445">
<ele>48.755</ele>
<time>2016-08-30T23:12:12.201Z</time>
</trkpt>
<trkpt lat="-27.1912262" lon="152.8265230">
<ele>48.606</ele>
<time>2016-08-30T23:12:14.111Z</time>
</trkpt>
<trkpt lat="-27.1909386" lon="152.8264941">
<ele>48.603</ele>
<time>2016-08-30T23:12:16.115Z</time>
</trkpt>
<trkpt lat="-27.1904992" lon="152.8264608">
<ele>48.775</ele>
<time>2016-08-30T23:12:19.142Z</time>
</trkpt>
<trkpt lat="-27.1900645" lon="152.8264186">
<ele>49.179</ele>
<time>2016-08-30T23:12:22.109Z</time>
</trkpt>
<trkpt lat="-27.1897817" lon="152.8263862">
<ele>49.760</ele>
<time>2016-08-30T23:12:24.024Z</time>
</trkpt>
<trkpt lat="-27.1894959" lon="152.8263638">
<ele>50.287</ele>
<time>2016-08-30T23:12:25.888Z</time>
</trkpt>
<trkpt lat="-27.1892010" lon="152.8263421">
<ele>50.643</ele>
<time>2016-08-30T23:12:27.690Z</time>
</trkpt>
<trkpt lat="-27.1887593" lon="152.8263824">
<ele>50.868</ele>
<time>2016-08-30T23:12:30.189Z</time>
</trkpt>
<trkpt lat="-27.1883367" lon="152.8265640">
<ele>51.067</ele>
<time>2016-08-30T23:12:32.644Z</time>
</trkpt>
<trkpt lat="-27.1880902" lon="152.8267822">
<ele>51.335</ele>
<time>2016-08-30T23:12:34.324Z</time>
</trkpt>
<trkpt lat="-27.1878513" lon="152.8270454">
<ele>51.604</ele>
<time>2016-08-30T23:12:36.117Z</time>
</trkpt>
<trkpt lat="-27.1874581" lon="152.8274664">
<ele>51.885</ele>
<time>2016-08-30T23:12:39.036Z</time>
</trkpt>
<trkpt lat="-27.1869911" lon="152.8278081">
<ele>52.359</ele>
<time>2016-08-30T23:12:42.095Z</time>
</trkpt>
<trkpt lat="-27.1865208" lon="152.8281350">
<ele>52.937</ele>
<time>2016-08-30T23:12:45.251Z</time>
</trkpt>
<trkpt lat="-27.1862025" lon="152.8283536">
<ele>53.209</ele>
<time>2016-08-30T23:12:47.449Z</time>
</trkpt>
<trkpt lat="-27.1857492" lon="152.8286797">
<ele>53.007</ele>
<time>2016-08-30T23:12:50.553Z</time>
</trkpt>
<trkpt lat="-27.1852633" lon="152.8288943">
<ele>52.611</ele>
<time>2016-08-30T23:12:53.460Z</time>
</trkpt>
<trkpt lat="-27.1849305" lon="152.8288811">
<ele>52.421</ele>
<time>2016-08-30T23:12:55.288Z</time>
</trkpt>
<trkpt lat="-27.1846186" lon="152.8287284">
<ele>52.816</ele>
<time>2016-08-30T23:12:57.123Z</time>
</trkpt>
<trkpt lat="-27.1841645" lon="152.8283736">
<ele>53.929</ele>
<time>2016-08-30T23:13:00.060Z</time>
</trkpt>
<trkpt lat="-27.1838510" lon="152.8281584">
<ele>55.738</ele>
<time>2016-08-30T23:13:01.995Z</time>
</trkpt>
<trkpt lat="-27.1835131" lon="152.8280137">
<ele>58.088</ele>
<time>2016-08-30T23:13:03.856Z</time>
</trkpt>
<trkpt lat="-27.1829647" lon="152.8278564">
<ele>60.404</ele>
<time>2016-08-30T23:13:06.666Z</time>
</trkpt>
<trkpt lat="-27.1825943" lon="152.8277561">
<ele>62.442</ele>
<time>2016-08-30T23:13:08.487Z</time>
</trkpt>
<trkpt lat="-27.1822288" lon="152.8276657">
<ele>64.530</ele>
<time>2016-08-30T23:13:10.267Z</time>
</trkpt>
<trkpt lat="-27.1816289" lon="152.8275564">
<ele>66.595</ele>
<time>2016-08-30T23:13:13.061Z</time>
</trkpt>
<trkpt lat="-27.1812020" lon="152.8275371">
<ele>68.584</ele>
<time>2016-08-30T23:13:14.906Z</time>
</trkpt>
<trkpt lat="-27.1805850" lon="152.8274563">
<ele>70.807</ele>
<time>2016-08-30T23:13:17.648Z</time>
</trkpt>
<trkpt lat="-27.1801393" lon="152.8273532">
<ele>73.226</ele>
<time>2016-08-30T23:13:19.863Z</time>
</trkpt>
<trkpt lat="-27.1794456" lon="152.8271881">
<ele>75.684</ele>
<time>2016-08-30T23:13:23.521Z</time>
</trkpt>
<trkpt lat="-27.1790326" lon="152.8270796">
<ele>78.162</ele>
<time>2016-08-30T23:13:25.762Z</time>
</trkpt>
<trkpt lat="-27.1784727" lon="152.8269404">
<ele>80.231</ele>
<time>2016-08-30T23:13:28.765Z</time>
</trkpt>
<trkpt lat="-27.1779226" lon="152.8268054">
<ele>81.275</ele>
<time>2016-08-30T23:13:31.719Z</time>
</trkpt>
<trkpt lat="-27.1775528" lon="152.8267042">
<ele>81.137</ele>
<time>2016-08-30T23:13:33.724Z</time>
</trkpt>
<trkpt lat="-27.1769928" lon="152.8265463">
<ele>80.161</ele>
<time>2016-08-30T23:13:36.780Z</time>
</trkpt>
<trkpt lat="-27.1764434" lon="152.8264098">
<ele>79.038</ele>
<time>2016-08-30T23:13:39.724Z</time>
</trkpt>
<trkpt lat="-27.1760638" lon="152.8263180">
<ele>78.354</ele>
<time>2016-08-30T23:13:41.728Z</time>
</trkpt>
<trkpt lat="-27.1755226" lon="152.8261491">
<ele>78.110</ele>
<time>2016-08-30T23:13:44.661Z</time>
</trkpt>
<trkpt lat="-27.1750588" lon="152.8257610">
<ele>78.030</ele>
<time>2016-08-30T23:13:47.722Z</time>
</trkpt>
<trkpt lat="-27.1746448" lon="152.8253046">
<ele>78.391</ele>
<time>2016-08-30T23:13:50.740Z</time>
</trkpt>
<trkpt lat="-27.1743197" lon="152.8250914">
<ele>79.955</ele>
<time>2016-08-30T23:13:52.716Z</time>
</trkpt>
<trkpt lat="-27.1737533" lon="152.8250034">
<ele>82.606</ele>
<time>2016-08-30T23:13:55.764Z</time>
</trkpt>
<trkpt lat="-27.1733555" lon="152.8249710">
<ele>85.795</ele>
<time>2016-08-30T23:13:57.904Z</time>
</trkpt>
<trkpt lat="-27.1729850" lon="152.8249436">
<ele>89.245</ele>
<time>2016-08-30T23:13:59.869Z</time>
</trkpt>
<trkpt lat="-27.1724398" lon="152.8250256">
<ele>92.246</ele>
<time>2016-08-30T23:14:02.769Z</time>
</trkpt>
<trkpt lat="-27.1718855" lon="152.8251314">
<ele>94.387</ele>
<time>2016-08-30T23:14:05.881Z</time>
</trkpt>
<trkpt lat="-27.1715045" lon="152.8250934">
<ele>96.533</ele>
<time>2016-08-30T23:14:08.039Z</time>
</trkpt>
<trkpt lat="-27.1709442" lon="152.8250205">
<ele>99.386</ele>
<time>2016-08-30T23:14:11.177Z</time>
</trkpt>
<trkpt lat="-27.1704378" lon="152.8251512">
<ele>102.640</ele>
<time>2016-08-30T23:14:14.224Z</time>
</trkpt>
<trkpt lat="-27.1699891" lon="152.8254859">
<ele>105.744</ele>
<time>2016-08-30T23:14:17.594Z</time>
</trkpt>
<trkpt lat="-27.1696936" lon="152.8257155">
<ele>108.464</ele>
<time>2016-08-30T23:14:19.909Z</time>
</trkpt>
<trkpt lat="-27.1694058" lon="152.8261567">
<ele>110.615</ele>
<time>2016-08-30T23:14:23.172Z</time>
</trkpt>
<trkpt lat="-27.1693254" lon="152.8266938">
<ele>112.013</ele>
<time>2016-08-30T23:14:26.061Z</time>
</trkpt>
<trkpt lat="-27.1690362" lon="152.8270806">
<ele>113.131</ele>
<time>2016-08-30T23:14:28.442Z</time>
</trkpt>
<trkpt lat="-27.1685614" lon="152.8270928">
<ele>114.921</ele>
<time>2016-08-30T23:14:30.896Z</time>
</trkpt>
<trkpt lat="-27.1680655" lon="152.8267963">
<ele>117.401</ele>
<time>2016-08-30T23:14:33.639Z</time>
</trkpt>
<trkpt lat="-27.1677195" lon="152.8266129">
<ele>120.465</ele>
<time>2016-08-30T23:14:35.377Z</time>
</trkpt>
<trkpt lat="-27.1673573" lon="152.8265152">
<ele>124.167</ele>
<time>2016-08-30T23:14:37.045Z</time>
</trkpt>
<trkpt lat="-27.1667417" lon="152.8266006">
<ele>127.587</ele>
<time>2016-08-30T23:14:39.979Z</time>
</trkpt>
<trkpt lat="-27.1663010" lon="152.8267268">
<ele>130.500</ele>
<time>2016-08-30T23:14:42.374Z</time>
</trkpt>
<trkpt lat="-27.1656618" lon="152.8269480">
<ele>133.974</ele>
<time>2016-08-30T23:14:46.215Z</time>
</trkpt>
<trkpt lat="-27.1652881" lon="152.8270211">
<ele>137.861</ele>
<time>2016-08-30T23:14:48.795Z</time>
</trkpt>
<trkpt lat="-27.1647444" lon="152.8269824">
<ele>140.907</ele>
<time>2016-08-30T23:14:53.041Z</time>
</trkpt>
<trkpt lat="-27.1643974" lon="152.8268643">
<ele>142.845</ele>
<time>2016-08-30T23:14:55.413Z</time>
</trkpt>
<trkpt lat="-27.1640239" lon="152.8266286">
<ele>144.251</ele>
<time>2016-08-30T23:14:57.971Z</time>
</trkpt>
<trkpt lat="-27.1639332" lon="152.8263805">
<ele>145.319</ele>
<time>2016-08-30T23:14:59.400Z</time>
</trkpt>
<trkpt lat="-27.1640595" lon="152.8259488">
<ele>145.969</ele>
<time>2016-08-30T23:15:01.916Z</time>
</trkpt>
<trkpt lat="-27.1641764" lon="152.8256054">
<ele>146.934</ele>
<time>2016-08-30T23:15:03.876Z</time>
</trkpt>
<trkpt lat="-27.1643645" lon="152.8250633">
<ele>149.277</ele>
<time>2016-08-30T23:15:06.681Z</time>
</trkpt>
<trkpt lat="-27.1644113" lon="152.8247092">
<ele>153.039</ele>
<time>2016-08-30T23:15:08.209Z</time>
</trkpt>
<trkpt lat="-27.1641954" lon="152.8242504">
<ele>156.965</ele>
<time>2016-08-30T23:15:10.447Z</time>
</trkpt>
<trkpt lat="-27.1637983" lon="152.8237998">
<ele>160.142</ele>
<time>2016-08-30T23:15:13.502Z</time>
</trkpt>
<trkpt lat="-27.1634477" lon="152.8234698">
<ele>163.489</ele>
<time>2016-08-30T23:15:16.431Z</time>
</trkpt>
<trkpt lat="-27.1629697" lon="152.8231265">
<ele>168.346</ele>
<time>2016-08-30T23:15:20.403Z</time>
</trkpt>
<trkpt lat="-27.1626317" lon="152.8230300">
<ele>173.730</ele>
<time>2016-08-30T23:15:22.949Z</time>
</trkpt>
<trkpt lat="-27.1623333" lon="152.8230271">
<ele>177.442</ele>
<time>2016-08-30T23:15:25.206Z</time>
</trkpt>
<trkpt lat="-27.1619532" lon="152.8232058">
<ele>178.859</ele>
<time>2016-08-30T23:15:29.450Z</time>
</trkpt>
<trkpt lat="-27.1617112" lon="152.8233637">
<ele>179.212</ele>
<time>2016-08-30T23:15:33.885Z</time>
</trkpt>
<trkpt lat="-27.1615001" lon="152.8235548">
<ele>179.895</ele>
<time>2016-08-30T23:15:37.837Z</time>
</trkpt>
<trkpt lat="-27.1612735" lon="152.8239224">
<ele>181.225</ele>
<time>2016-08-30T23:15:42.324Z</time>
</trkpt>
<trkpt lat="-27.1611564" lon="152.8240868">
<ele>182.739</ele>
<time>2016-08-30T23:15:44.129Z</time>
</trkpt>
<trkpt lat="-27.1610462" lon="152.8241739">
<ele>184.050</ele>
<time>2016-08-30T23:15:45.281Z</time>
</trkpt>
<trkpt lat="-27.1609874" lon="152.8242758">
<ele>184.970</ele>
<time>2016-08-30T23:15:46.196Z</time>
</trkpt>
<trkpt lat="-27.1610546" lon="152.8244934">
<ele>185.657</ele>
<time>2016-08-30T23:15:47.868Z</time>
</trkpt>
<trkpt lat="-27.1612828" lon="152.8245103">
<ele>186.582</ele>
<time>2016-08-30T23:15:49.651Z</time>
</trkpt>
<trkpt lat="-27.1614187" lon="152.8244088">
<ele>188.182</ele>
<time>2016-08-30T23:15:50.919Z</time>
</trkpt>
<trkpt lat="-27.1615470" lon="152.8242596">
<ele>190.546</ele>
<time>2016-08-30T23:15:52.315Z</time>
</trkpt>
<trkpt lat="-27.1618165" lon="152.8240466">
<ele>193.499</ele>
<time>2016-08-30T23:15:55.118Z</time>
</trkpt>
<trkpt lat="-27.1620673" lon="152.8239759">
<ele>196.985</ele>
<time>2016-08-30T23:15:57.703Z</time>
</trkpt>
<trkpt lat="-27.1623077" lon="152.8240005">
<ele>201.019</ele>
<time>2016-08-30T23:15:59.777Z</time>
</trkpt>
<trkpt lat="-27.1626273" lon="152.8242374">
<ele>205.271</ele>
<time>2016-08-30T23:16:02.281Z</time>
</trkpt>
<trkpt lat="-27.1627796" lon="152.8244893">
<ele>209.584</ele>
<time>2016-08-30T23:16:03.810Z</time>
</trkpt>
<trkpt lat="-27.1628323" lon="152.8246988">
<ele>213.908</ele>
<time>2016-08-30T23:16:04.903Z</time>
</trkpt>
<trkpt lat="-27.1627349" lon="152.8248724">
<ele>217.535</ele>
<time>2016-08-30T23:16:05.921Z</time>
</trkpt>
<trkpt lat="-27.1624109" lon="152.8251388">
<ele>220.065</ele>
<time>2016-08-30T23:16:08.236Z</time>
</trkpt>
<trkpt lat="-27.1621587" lon="152.8253910">
<ele>222.835</ele>
<time>2016-08-30T23:16:10.247Z</time>
</trkpt>
<trkpt lat="-27.1618288" lon="152.8259163">
<ele>227.416</ele>
<time>2016-08-30T23:16:13.740Z</time>
</trkpt>
<trkpt lat="-27.1616075" lon="152.8261982">
<ele>233.937</ele>
<time>2016-08-30T23:16:15.997Z</time>
</trkpt>
<trkpt lat="-27.1611637" lon="152.8264265">
<ele>240.905</ele>
<time>2016-08-30T23:16:19.614Z</time>
</trkpt>
<trkpt lat="-27.1608488" lon="152.8265612">
<ele>246.992</ele>
<time>2016-08-30T23:16:22.349Z</time>
</trkpt>
<trkpt lat="-27.1605851" lon="152.8267353">
<ele>252.531</ele>
<time>2016-08-30T23:16:24.770Z</time>
</trkpt>
<trkpt lat="-27.1601813" lon="152.8268704">
<ele>257.798</ele>
<time>2016-08-30T23:16:27.936Z</time>
</trkpt>
<trkpt lat="-27.1598653" lon="152.8270554">
<ele>262.245</ele>
<time>2016-08-30T23:16:30.860Z</time>
</trkpt>
<trkpt lat="-27.1597518" lon="152.8273021">
<ele>265.888</ele>
<time>2016-08-30T23:16:33.140Z</time>
</trkpt>
<trkpt lat="-27.1597345" lon="152.8277338">
<ele>269.016</ele>
<time>2016-08-30T23:16:36.952Z</time>
</trkpt>
<trkpt lat="-27.1598166" lon="152.8280363">
<ele>272.527</ele>
<time>2016-08-30T23:16:39.337Z</time>
</trkpt>
<trkpt lat="-27.1599487" lon="152.8282751">
<ele>277.477</ele>
<time>2016-08-30T23:16:41.237Z</time>
</trkpt>
<trkpt lat="-27.1601481" lon="152.8285612">
<ele>282.973</ele>
<time>2016-08-30T23:16:43.767Z</time>
</trkpt>
<trkpt lat="-27.1600764" lon="152.8287918">
<ele>287.456</ele>
<time>2016-08-30T23:16:45.833Z</time>
</trkpt>
<trkpt lat="-27.1598295" lon="152.8289898">
<ele>290.877</ele>
<time>2016-08-30T23:16:48.773Z</time>
</trkpt>
<trkpt lat="-27.1596051" lon="152.8290565">
<ele>294.321</ele>
<time>2016-08-30T23:16:50.848Z</time>
</trkpt>
<trkpt lat="-27.1592300" lon="152.8292604">
<ele>298.221</ele>
<time>2016-08-30T23:16:54.264Z</time>
</trkpt>
<trkpt lat="-27.1590628" lon="152.8294297">
<ele>302.575</ele>
<time>2016-08-30T23:16:56.535Z</time>
</trkpt>
<trkpt lat="-27.1588109" lon="152.8294735">
<ele>307.197</ele>
<time>2016-08-30T23:16:59.122Z</time>
</trkpt>
<trkpt lat="-27.1585190" lon="152.8292609">
<ele>311.524</ele>
<time>2016-08-30T23:17:01.838Z</time>
</trkpt>
<trkpt lat="-27.1583219" lon="152.8290695">
<ele>315.487</ele>
<time>2016-08-30T23:17:03.592Z</time>
</trkpt>
<trkpt lat="-27.1581210" lon="152.8289208">
<ele>319.289</ele>
<time>2016-08-30T23:17:05.009Z</time>
</trkpt>
<trkpt lat="-27.1579476" lon="152.8289235">
<ele>322.421</ele>
<time>2016-08-30T23:17:05.981Z</time>
</trkpt>
<trkpt lat="-27.1578188" lon="152.8290835">
<ele>324.646</ele>
<time>2016-08-30T23:17:07.058Z</time>
</trkpt>
<trkpt lat="-27.1576997" lon="152.8293254">
<ele>326.362</ele>
<time>2016-08-30T23:17:08.528Z</time>
</trkpt>
<trkpt lat="-27.1576450" lon="152.8298103">
<ele>328.056</ele>
<time>2016-08-30T23:17:11.595Z</time>
</trkpt>
<trkpt lat="-27.1577240" lon="152.8302091">
<ele>330.379</ele>
<time>2016-08-30T23:17:14.692Z</time>
</trkpt>
<trkpt lat="-27.1579057" lon="152.8307815">
<ele>333.847</ele>
<time>2016-08-30T23:17:18.345Z</time>
</trkpt>
<trkpt lat="-27.1578570" lon="152.8311930">
<ele>338.083</ele>
<time>2016-08-30T23:17:20.350Z</time>
</trkpt>
<trkpt lat="-27.1577538" lon="152.8314147">
<ele>341.676</ele>
<time>2016-08-30T23:17:21.508Z</time>
</trkpt>
<trkpt lat="-27.1575257" lon="152.8315524">
<ele>343.471</ele>
<time>2016-08-30T23:17:22.787Z</time>
</trkpt>
<trkpt lat="-27.1570510" lon="152.8316698">
<ele>343.609</ele>
<time>2016-08-30T23:17:25.187Z</time>
</trkpt>
<trkpt lat="-27.1564681" lon="152.8315683">
<ele>343.519</ele>
<time>2016-08-30T23:17:28.338Z</time>
</trkpt>
<trkpt lat="-27.1558738" lon="152.8313462">
<ele>344.738</ele>
<time>2016-08-30T23:17:32.515Z</time>
</trkpt>
<trkpt lat="-27.1555000" lon="152.8311950">
<ele>347.740</ele>
<time>2016-08-30T23:17:35.130Z</time>
</trkpt>
<trkpt lat="-27.1551838" lon="152.8310552">
<ele>351.633</ele>
<time>2016-08-30T23:17:37.258Z</time>
</trkpt>
<trkpt lat="-27.1547794" lon="152.8309863">
<ele>355.080</ele>
<time>2016-08-30T23:17:39.619Z</time>
</trkpt>
<trkpt lat="-27.1543331" lon="152.8311337">
<ele>357.293</ele>
<time>2016-08-30T23:17:42.173Z</time>
</trkpt>
<trkpt lat="-27.1538633" lon="152.8311285">
<ele>358.626</ele>
<time>2016-08-30T23:17:44.740Z</time>
</trkpt>
<trkpt lat="-27.1535334" lon="152.8309633">
<ele>359.874</ele>
<time>2016-08-30T23:17:46.663Z</time>
</trkpt>
<trkpt lat="-27.1530312" lon="152.8306961">
<ele>361.310</ele>
<time>2016-08-30T23:17:49.449Z</time>
</trkpt>
<trkpt lat="-27.1527265" lon="152.8304999">
<ele>362.842</ele>
<time>2016-08-30T23:17:51.175Z</time>
</trkpt>
<trkpt lat="-27.1522587" lon="152.8300965">
<ele>364.410</ele>
<time>2016-08-30T23:17:54.028Z</time>
</trkpt>
<trkpt lat="-27.1519353" lon="152.8298165">
<ele>365.678</ele>
<time>2016-08-30T23:17:55.861Z</time>
</trkpt>
<trkpt lat="-27.1514738" lon="152.8293852">
<ele>365.821</ele>
<time>2016-08-30T23:17:58.533Z</time>
</trkpt>
<trkpt lat="-27.1512247" lon="152.8289915">
<ele>364.450</ele>
<time>2016-08-30T23:18:00.676Z</time>
</trkpt>
<trkpt lat="-27.1509690" lon="152.8285530">
<ele>362.565</ele>
<time>2016-08-30T23:18:03.393Z</time>
</trkpt>
<trkpt lat="-27.1506088" lon="152.8279145">
<ele>361.965</ele>
<time>2016-08-30T23:18:08.559Z</time>
</trkpt>
<trkpt lat="-27.1504200" lon="152.8273464">
<ele>363.870</ele>
<time>2016-08-30T23:18:12.559Z</time>
</trkpt>
<trkpt lat="-27.1504210" lon="152.8268818">
<ele>367.935</ele>
<time>2016-08-30T23:18:15.038Z</time>
</trkpt>
<trkpt lat="-27.1503301" lon="152.8266559">
<ele>372.495</ele>
<time>2016-08-30T23:18:16.145Z</time>
</trkpt>
<trkpt lat="-27.1500059" lon="152.8264797">
<ele>375.943</ele>
<time>2016-08-30T23:18:17.877Z</time>
</trkpt>
<trkpt lat="-27.1497294" lon="152.8263911">
<ele>377.533</ele>
<time>2016-08-30T23:18:19.204Z</time>
</trkpt>
<trkpt lat="-27.1492059" lon="152.8262120">
<ele>377.571</ele>
<time>2016-08-30T23:18:21.674Z</time>
</trkpt>
<trkpt lat="-27.1488414" lon="152.8259876">
<ele>376.338</ele>
<time>2016-08-30T23:18:23.467Z</time>
</trkpt>
<trkpt lat="-27.1483068" lon="152.8255327">
<ele>373.508</ele>
<time>2016-08-30T23:18:26.326Z</time>
</trkpt>
<trkpt lat="-27.1479795" lon="152.8252399">
<ele>369.578</ele>
<time>2016-08-30T23:18:28.203Z</time>
</trkpt>
<trkpt lat="-27.1473211" lon="152.8249034">
<ele>366.225</ele>
<time>2016-08-30T23:18:31.778Z</time>
</trkpt>
<trkpt lat="-27.1468842" lon="152.8247338">
<ele>365.683</ele>
<time>2016-08-30T23:18:34.507Z</time>
</trkpt>
<trkpt lat="-27.1462980" lon="152.8244912">
<ele>368.883</ele>
<time>2016-08-30T23:18:38.340Z</time>
</trkpt>
<trkpt lat="-27.1459979" lon="152.8242967">
<ele>374.479</ele>
<time>2016-08-30T23:18:40.501Z</time>
</trkpt>
<trkpt lat="-27.1457311" lon="152.8238490">
<ele>380.584</ele>
<time>2016-08-30T23:18:43.392Z</time>
</trkpt>
<trkpt lat="-27.1455456" lon="152.8235300">
<ele>386.472</ele>
<time>2016-08-30T23:18:45.200Z</time>
</trkpt>
<trkpt lat="-27.1453294" lon="152.8230694">
<ele>392.198</ele>
<time>2016-08-30T23:18:47.512Z</time>
</trkpt>
<trkpt lat="-27.1452702" lon="152.8225117">
<ele>397.967</ele>
<time>2016-08-30T23:18:49.885Z</time>
</trkpt>
<trkpt lat="-27.1452348" lon="152.8218535">
<ele>403.924</ele>
<time>2016-08-30T23:18:52.798Z</time>
</trkpt>
<trkpt lat="-27.1452076" lon="152.8213742">
<ele>409.964</ele>
<time>2016-08-30T23:18:55.077Z</time>
</trkpt>
<trkpt lat="-27.1451740" lon="152.8209015">
<ele>415.177</ele>
<time>2016-08-30T23:18:57.491Z</time>
</trkpt>
<trkpt lat="-27.1451223" lon="152.8204598">
<ele>418.935</ele>
<time>2016-08-30T23:18:59.703Z</time>
</trkpt>
<trkpt lat="-27.1449448" lon="152.8198882">
<ele>421.409</ele>
<time>2016-08-30T23:19:02.501Z</time>
</trkpt>
<trkpt lat="-27.1447285" lon="152.8195918">
<ele>422.795</ele>
<time>2016-08-30T23:19:04.174Z</time>
</trkpt>
<trkpt lat="-27.1443704" lon="152.8191200">
<ele>423.303</ele>
<time>2016-08-30T23:19:06.843Z</time>
</trkpt>
<trkpt lat="-27.1441328" lon="152.8187585">
<ele>423.301</ele>
<time>2016-08-30T23:19:08.843Z</time>
</trkpt>
<trkpt lat="-27.1438293" lon="152.8181562">
<ele>423.007</ele>
<time>2016-08-30T23:19:12.107Z</time>
</trkpt>
<trkpt lat="-27.1435995" lon="152.8177722">
<ele>421.927</ele>
<time>2016-08-30T23:19:14.715Z</time>
</trkpt>
<trkpt lat="-27.1432069" lon="152.8172814">
<ele>419.912</ele>
<time>2016-08-30T23:19:19.010Z</time>
</trkpt>
<trkpt lat="-27.1429782" lon="152.8169912">
<ele>418.166</ele>
<time>2016-08-30T23:19:21.120Z</time>
</trkpt>
<trkpt lat="-27.1426814" lon="152.8166252">
<ele>417.714</ele>
<time>2016-08-30T23:19:23.493Z</time>
</trkpt>
<trkpt lat="-27.1424998" lon="152.8164341">
<ele>418.435</ele>
<time>2016-08-30T23:19:24.682Z</time>
</trkpt>
<trkpt lat="-27.1422503" lon="152.8162925">
<ele>419.948</ele>
<time>2016-08-30T23:19:25.970Z</time>
</trkpt>
<trkpt lat="-27.1417532" lon="152.8160953">
<ele>421.607</ele>
<time>2016-08-30T23:19:28.341Z</time>
</trkpt>
<trkpt lat="-27.1413528" lon="152.8159386">
<ele>422.638</ele>
<time>2016-08-30T23:19:30.209Z</time>
</trkpt>
<trkpt lat="-27.1407153" lon="152.8156968">
<ele>422.633</ele>
<time>2016-08-30T23:19:33.231Z</time>
</trkpt>
<trkpt lat="-27.1400918" lon="152.8154292">
<ele>421.414</ele>
<time>2016-08-30T23:19:36.773Z</time>
</trkpt>
<trkpt lat="-27.1396498" lon="152.8152417">
<ele>419.426</ele>
<time>2016-08-30T23:19:39.992Z</time>
</trkpt>
<trkpt lat="-27.1391090" lon="152.8150198">
<ele>419.067</ele>
<time>2016-08-30T23:19:47.116Z</time>
</trkpt>
<trkpt lat="-27.1387041" lon="152.8148036">
<ele>421.767</ele>
<time>2016-08-30T23:19:51.963Z</time>
</trkpt>
<trkpt lat="-27.1385168" lon="152.8146150">
<ele>425.988</ele>
<time>2016-08-30T23:19:53.830Z</time>
</trkpt>
<trkpt lat="-27.1383496" lon="152.8144254">
<ele>430.108</ele>
<time>2016-08-30T23:19:55.434Z</time>
</trkpt>
<trkpt lat="-27.1382407" lon="152.8143379">
<ele>433.770</ele>
<time>2016-08-30T23:19:56.329Z</time>
</trkpt>
<trkpt lat="-27.1381470" lon="152.8142506">
<ele>436.728</ele>
<time>2016-08-30T23:19:57.138Z</time>
</trkpt>
<trkpt lat="-27.1380678" lon="152.8140749">
<ele>439.132</ele>
<time>2016-08-30T23:19:58.265Z</time>
</trkpt>
<trkpt lat="-27.1379940" lon="152.8136916">
<ele>441.159</ele>
<time>2016-08-30T23:20:00.459Z</time>
</trkpt>
<trkpt lat="-27.1379362" lon="152.8133629">
<ele>442.930</ele>
<time>2016-08-30T23:20:02.184Z</time>
</trkpt>
<trkpt lat="-27.1378468" lon="152.8128710">
<ele>444.615</ele>
<time>2016-08-30T23:20:04.532Z</time>
</trkpt>
<trkpt lat="-27.1377734" lon="152.8123524">
<ele>446.115</ele>
<time>2016-08-30T23:20:06.682Z</time>
</trkpt>
<trkpt lat="-27.1376828" lon="152.8117555">
<ele>446.945</ele>
<time>2016-08-30T23:20:09.024Z</time>
</trkpt>
<trkpt lat="-27.1376073" lon="152.8112961">
<ele>446.120</ele>
<time>2016-08-30T23:20:10.773Z</time>
</trkpt>
<trkpt lat="-27.1374904" lon="152.8104996">
<ele>442.620</ele>
<time>2016-08-30T23:20:14.195Z</time>
</trkpt>
<trkpt lat="-27.1374186" lon="152.8099670">
<ele>436.813</ele>
<time>2016-08-30T23:20:17.238Z</time>
</trkpt>
<trkpt lat="-27.1373493" lon="152.8094607">
<ele>429.952</ele>
<time>2016-08-30T23:20:23.129Z</time>
</trkpt>
<trkpt lat="-27.1372219" lon="152.8088861">
<ele>422.706</ele>
<time>2016-08-30T23:20:30.663Z</time>
</trkpt>
<trkpt lat="-27.1371741" lon="152.8086016">
<ele>415.812</ele>
<time>2016-08-30T23:20:32.324Z</time>
</trkpt>
<trkpt lat="-27.1371511" lon="152.8084031">
<ele>410.435</ele>
<time>2016-08-30T23:20:33.412Z</time>
</trkpt>
<trkpt lat="-27.1371407" lon="152.8082312">
<ele>407.102</ele>
<time>2016-08-30T23:20:34.308Z</time>
</trkpt>
<trkpt lat="-27.1370641" lon="152.8081084">
<ele>405.248</ele>
<time>2016-08-30T23:20:35.029Z</time>
</trkpt>
<trkpt lat="-27.1368608" lon="152.8080901">
<ele>404.165</ele>
<time>2016-08-30T23:20:36.130Z</time>
</trkpt>
<trkpt lat="-27.1365965" lon="152.8080880">
<ele>403.917</ele>
<time>2016-08-30T23:20:37.558Z</time>
</trkpt>
<trkpt lat="-27.1360594" lon="152.8079755">
<ele>404.520</ele>
<time>2016-08-30T23:20:40.528Z</time>
</trkpt>
<trkpt lat="-27.1354918" lon="152.8078471">
<ele>405.258</ele>
<time>2016-08-30T23:20:43.751Z</time>
</trkpt>
<trkpt lat="-27.1351360" lon="152.8077517">
<ele>405.193</ele>
<time>2016-08-30T23:20:45.814Z</time>
</trkpt>
<trkpt lat="-27.1347951" lon="152.8076551">
<ele>403.697</ele>
<time>2016-08-30T23:20:47.796Z</time>
</trkpt>
<trkpt lat="-27.1342944" lon="152.8074296">
<ele>401.241</ele>
<time>2016-08-30T23:20:50.923Z</time>
</trkpt>
<trkpt lat="-27.1339868" lon="152.8072132">
<ele>398.762</ele>
<time>2016-08-30T23:20:53.101Z</time>
</trkpt>
<trkpt lat="-27.1335276" lon="152.8068893">
<ele>396.245</ele>
<time>2016-08-30T23:20:56.391Z</time>
</trkpt>
<trkpt lat="-27.1330632" lon="152.8067552">
<ele>393.331</ele>
<time>2016-08-30T23:20:59.480Z</time>
</trkpt>
<trkpt lat="-27.1327279" lon="152.8067864">
<ele>390.396</ele>
<time>2016-08-30T23:21:01.946Z</time>
</trkpt>
<trkpt lat="-27.1322386" lon="152.8068521">
<ele>388.107</ele>
<time>2016-08-30T23:21:05.962Z</time>
</trkpt>
<trkpt lat="-27.1319543" lon="152.8069241">
<ele>386.829</ele>
<time>2016-08-30T23:21:08.003Z</time>
</trkpt>
<trkpt lat="-27.1316010" lon="152.8070804">
<ele>386.395</ele>
<time>2016-08-30T23:21:10.259Z</time>
</trkpt>
<trkpt lat="-27.1313566" lon="152.8070357">
<ele>386.528</ele>
<time>2016-08-30T23:21:11.704Z</time>
</trkpt>
<trkpt lat="-27.1311402" lon="152.8068825">
<ele>387.018</ele>
<time>2016-08-30T23:21:13.168Z</time>
</trkpt>
<trkpt lat="-27.1309473" lon="152.8066278">
<ele>387.832</ele>
<time>2016-08-30T23:21:14.924Z</time>
</trkpt>
<trkpt lat="-27.1307240" lon="152.8060745">
<ele>388.833</ele>
<time>2016-08-30T23:21:18.174Z</time>
</trkpt>
<trkpt lat="-27.1305401" lon="152.8055383">
<ele>389.553</ele>
<time>2016-08-30T23:21:21.146Z</time>
</trkpt>
<trkpt lat="-27.1303185" lon="152.8052550">
<ele>389.687</ele>
<time>2016-08-30T23:21:23.096Z</time>
</trkpt>
<trkpt lat="-27.1300295" lon="152.8050404">
<ele>389.507</ele>
<time>2016-08-30T23:21:25.147Z</time>
</trkpt>
<trkpt lat="-27.1295655" lon="152.8047386">
<ele>389.588</ele>
<time>2016-08-30T23:21:28.409Z</time>
</trkpt>
<trkpt lat="-27.1292439" lon="152.8042959">
<ele>390.414</ele>
<time>2016-08-30T23:21:31.458Z</time>
</trkpt>
<trkpt lat="-27.1290718" lon="152.8039834">
<ele>392.256</ele>
<time>2016-08-30T23:21:33.372Z</time>
</trkpt>
<trkpt lat="-27.1287940" lon="152.8035284">
<ele>394.794</ele>
<time>2016-08-30T23:21:36.212Z</time>
</trkpt>
<trkpt lat="-27.1285783" lon="152.8032338">
<ele>397.301</ele>
<time>2016-08-30T23:21:38.164Z</time>
</trkpt>
<trkpt lat="-27.1282895" lon="152.8030113">
<ele>399.605</ele>
<time>2016-08-30T23:21:40.168Z</time>
</trkpt>
<trkpt lat="-27.1278365" lon="152.8027547">
<ele>401.792</ele>
<time>2016-08-30T23:21:43.095Z</time>
</trkpt>
<trkpt lat="-27.1275292" lon="152.8025863">
<ele>403.435</ele>
<time>2016-08-30T23:21:45.115Z</time>
</trkpt>
<trkpt lat="-27.1270587" lon="152.8023231">
<ele>404.417</ele>
<time>2016-08-30T23:21:48.280Z</time>
</trkpt>
<trkpt lat="-27.1266149" lon="152.8020112">
<ele>405.488</ele>
<time>2016-08-30T23:21:51.409Z</time>
</trkpt>
<trkpt lat="-27.1263023" lon="152.8015671">
<ele>407.408</ele>
<time>2016-08-30T23:21:54.377Z</time>
</trkpt>
<trkpt lat="-27.1262014" lon="152.8010138">
<ele>410.060</ele>
<time>2016-08-30T23:21:57.401Z</time>
</trkpt>
<trkpt lat="-27.1263107" lon="152.8004479">
<ele>412.897</ele>
<time>2016-08-30T23:22:00.864Z</time>
</trkpt>
<trkpt lat="-27.1263459" lon="152.8000803">
<ele>415.700</ele>
<time>2016-08-30T23:22:03.403Z</time>
</trkpt>
<trkpt lat="-27.1263132" lon="152.7997081">
<ele>418.350</ele>
<time>2016-08-30T23:22:06.187Z</time>
</trkpt>
<trkpt lat="-27.1262247" lon="152.7992265">
<ele>420.730</ele>
<time>2016-08-30T23:22:09.598Z</time>
</trkpt>
<trkpt lat="-27.1260240" lon="152.7988818">
<ele>422.755</ele>
<time>2016-08-30T23:22:12.022Z</time>
</trkpt>
<trkpt lat="-27.1256621" lon="152.7988197">
<ele>424.171</ele>
<time>2016-08-30T23:22:14.301Z</time>
</trkpt>
<trkpt lat="-27.1253820" lon="152.7985422">
<ele>425.033</ele>
<time>2016-08-30T23:22:16.648Z</time>
</trkpt>
<trkpt lat="-27.1252190" lon="152.7982301">
<ele>426.131</ele>
<time>2016-08-30T23:22:18.736Z</time>
</trkpt>
<trkpt lat="-27.1249771" lon="152.7977446">
<ele>427.895</ele>
<time>2016-08-30T23:22:22.031Z</time>
</trkpt>
<trkpt lat="-27.1247983" lon="152.7974520">
<ele>429.921</ele>
<time>2016-08-30T23:22:24.231Z</time>
</trkpt>
<trkpt lat="-27.1245670" lon="152.7972195">
<ele>431.600</ele>
<time>2016-08-30T23:22:26.486Z</time>
</trkpt>
<trkpt lat="-27.1241482" lon="152.7970169">
<ele>432.628</ele>
<time>2016-08-30T23:22:29.898Z</time>
</trkpt>
<trkpt lat="-27.1239098" lon="152.7968297">
<ele>433.080</ele>
<time>2016-08-30T23:22:32.140Z</time>
</trkpt>
<trkpt lat="-27.1237774" lon="152.7965495">
<ele>433.373</ele>
<time>2016-08-30T23:22:34.243Z</time>
</trkpt>
<trkpt lat="-27.1237838" lon="152.7962300">
<ele>433.865</ele>
<time>2016-08-30T23:22:36.250Z</time>
</trkpt>
<trkpt lat="-27.1239901" lon="152.7958416">
<ele>434.535</ele>
<time>2016-08-30T23:22:38.872Z</time>
</trkpt>
<trkpt lat="-27.1239819" lon="152.7955454">
<ele>435.060</ele>
<time>2016-08-30T23:22:40.529Z</time>
</trkpt>
<trkpt lat="-27.1237258" lon="152.7951452">
<ele>435.297</ele>
<time>2016-08-30T23:22:43.189Z</time>
</trkpt>
<trkpt lat="-27.1235419" lon="152.7948622">
<ele>435.777</ele>
<time>2016-08-30T23:22:45.060Z</time>
</trkpt>
<trkpt lat="-27.1232689" lon="152.7944136">
<ele>437.228</ele>
<time>2016-08-30T23:22:47.962Z</time>
</trkpt>
<trkpt lat="-27.1229541" lon="152.7939659">
<ele>439.504</ele>
<time>2016-08-30T23:22:50.953Z</time>
</trkpt>
<trkpt lat="-27.1226268" lon="152.7935543">
<ele>441.646</ele>
<time>2016-08-30T23:22:53.861Z</time>
</trkpt>
<trkpt lat="-27.1223787" lon="152.7932988">
<ele>443.128</ele>
<time>2016-08-30T23:22:55.885Z</time>
</trkpt>
<trkpt lat="-27.1221063" lon="152.7930629">
<ele>444.252</ele>
<time>2016-08-30T23:22:57.979Z</time>
</trkpt>
<trkpt lat="-27.1218164" lon="152.7928686">
<ele>445.615</ele>
<time>2016-08-30T23:23:00.061Z</time>
</trkpt>
<trkpt lat="-27.1215123" lon="152.7927255">
<ele>447.290</ele>
<time>2016-08-30T23:23:02.128Z</time>
</trkpt>
<trkpt lat="-27.1210475" lon="152.7925286">
<ele>448.806</ele>
<time>2016-08-30T23:23:05.258Z</time>
</trkpt>
<trkpt lat="-27.1206527" lon="152.7922494">
<ele>449.879</ele>
<time>2016-08-30T23:23:08.228Z</time>
</trkpt>
<trkpt lat="-27.1204026" lon="152.7920196">
<ele>450.764</ele>
<time>2016-08-30T23:23:10.250Z</time>
</trkpt>
<trkpt lat="-27.1200960" lon="152.7916158">
<ele>451.706</ele>
<time>2016-08-30T23:23:13.202Z</time>
</trkpt>
<trkpt lat="-27.1199370" lon="152.7913135">
<ele>452.886</ele>
<time>2016-08-30T23:23:15.148Z</time>
</trkpt>
<trkpt lat="-27.1198372" lon="152.7909717">
<ele>454.207</ele>
<time>2016-08-30T23:23:17.139Z</time>
</trkpt>
<trkpt lat="-27.1197409" lon="152.7906175">
<ele>455.174</ele>
<time>2016-08-30T23:23:19.193Z</time>
</trkpt>
<trkpt lat="-27.1196224" lon="152.7902922">
<ele>455.521</ele>
<time>2016-08-30T23:23:21.212Z</time>
</trkpt>
<trkpt lat="-27.1193104" lon="152.7898566">
<ele>455.457</ele>
<time>2016-08-30T23:23:24.486Z</time>
</trkpt>
<trkpt lat="-27.1190001" lon="152.7894540">
<ele>454.999</ele>
<time>2016-08-30T23:23:27.543Z</time>
</trkpt>
<trkpt lat="-27.1187213" lon="152.7890358">
<ele>454.126</ele>
<time>2016-08-30T23:23:30.438Z</time>
</trkpt>
<trkpt lat="-27.1183457" lon="152.7887791">
<ele>453.258</ele>
<time>2016-08-30T23:23:33.143Z</time>
</trkpt>
<trkpt lat="-27.1180337" lon="152.7886685">
<ele>453.406</ele>
<time>2016-08-30T23:23:35.170Z</time>
</trkpt>
<trkpt lat="-27.1175799" lon="152.7884627">
<ele>455.147</ele>
<time>2016-08-30T23:23:38.250Z</time>
</trkpt>
<trkpt lat="-27.1172952" lon="152.7883095">
<ele>457.796</ele>
<time>2016-08-30T23:23:40.229Z</time>
</trkpt>
<trkpt lat="-27.1170401" lon="152.7880706">
<ele>460.324</ele>
<time>2016-08-30T23:23:42.121Z</time>
</trkpt>
<trkpt lat="-27.1167250" lon="152.7876584">
<ele>462.533</ele>
<time>2016-08-30T23:23:44.598Z</time>
</trkpt>
<trkpt lat="-27.1165538" lon="152.7873782">
<ele>464.635</ele>
<time>2016-08-30T23:23:45.941Z</time>
</trkpt>
<trkpt lat="-27.1164123" lon="152.7870421">
<ele>466.670</ele>
<time>2016-08-30T23:23:47.260Z</time>
</trkpt>
<trkpt lat="-27.1162732" lon="152.7864005">
<ele>468.431</ele>
<time>2016-08-30T23:23:49.556Z</time>
</trkpt>
<trkpt lat="-27.1162352" lon="152.7858492">
<ele>470.309</ele>
<time>2016-08-30T23:23:51.368Z</time>
</trkpt>
<trkpt lat="-27.1162323" lon="152.7849121">
<ele>472.564</ele>
<time>2016-08-30T23:23:54.339Z</time>
</trkpt>
<trkpt lat="-27.1162339" lon="152.7842826">
<ele>472.582</ele>
<time>2016-08-30T23:23:56.380Z</time>
</trkpt>
<trkpt lat="-27.1162160" lon="152.7836410">
<ele>468.175</ele>
<time>2016-08-30T23:23:58.676Z</time>
</trkpt>
<trkpt lat="-27.1161397" lon="152.7827164">
<ele>461.854</ele>
<time>2016-08-30T23:24:02.321Z</time>
</trkpt>
<trkpt lat="-27.1161359" lon="152.7821772">
<ele>457.278</ele>
<time>2016-08-30T23:24:04.415Z</time>
</trkpt>
<trkpt lat="-27.1161971" lon="152.7816814">
<ele>455.771</ele>
<time>2016-08-30T23:24:06.256Z</time>
</trkpt>
<trkpt lat="-27.1163519" lon="152.7812101">
<ele>456.872</ele>
<time>2016-08-30T23:24:08.053Z</time>
</trkpt>
<trkpt lat="-27.1167727" lon="152.7805790">
<ele>458.764</ele>
<time>2016-08-30T23:24:10.690Z</time>
</trkpt>
<trkpt lat="-27.1173445" lon="152.7800171">
<ele>460.431</ele>
<time>2016-08-30T23:24:13.506Z</time>
</trkpt>
<trkpt lat="-27.1179624" lon="152.7794338">
<ele>463.064</ele>
<time>2016-08-30T23:24:16.630Z</time>
</trkpt>
<trkpt lat="-27.1185606" lon="152.7788156">
<ele>467.211</ele>
<time>2016-08-30T23:24:19.971Z</time>
</trkpt>
<trkpt lat="-27.1189333" lon="152.7784236">
<ele>471.027</ele>
<time>2016-08-30T23:24:22.034Z</time>
</trkpt>
<trkpt lat="-27.1193866" lon="152.7778129">
<ele>472.528</ele>
<time>2016-08-30T23:24:24.873Z</time>
</trkpt>
<trkpt lat="-27.1196135" lon="152.7773291">
<ele>471.840</ele>
<time>2016-08-30T23:24:26.952Z</time>
</trkpt>
<trkpt lat="-27.1198177" lon="152.7767945">
<ele>470.517</ele>
<time>2016-08-30T23:24:29.176Z</time>
</trkpt>
<trkpt lat="-27.1200193" lon="152.7763024">
<ele>470.000</ele>
<time>2016-08-30T23:24:31.199Z</time>
</trkpt>
<trkpt lat="-27.1204011" lon="152.7757029">
<ele>470.502</ele>
<time>2016-08-30T23:24:33.639Z</time>
</trkpt>
<trkpt lat="-27.1209597" lon="152.7751555">
<ele>471.410</ele>
<time>2016-08-30T23:24:36.248Z</time>
</trkpt>
<trkpt lat="-27.1213807" lon="152.7747639">
<ele>472.529</ele>
<time>2016-08-30T23:24:38.124Z</time>
</trkpt>
<trkpt lat="-27.1220175" lon="152.7741141">
<ele>474.291</ele>
<time>2016-08-30T23:24:41.174Z</time>
</trkpt>
<trkpt lat="-27.1226039" lon="152.7733969">
<ele>476.332</ele>
<time>2016-08-30T23:24:44.474Z</time>
</trkpt>
<trkpt lat="-27.1231090" lon="152.7727131">
<ele>477.485</ele>
<time>2016-08-30T23:24:47.676Z</time>
</trkpt>
<trkpt lat="-27.1236750" lon="152.7721671">
<ele>476.778</ele>
<time>2016-08-30T23:24:51.101Z</time>
</trkpt>
<trkpt lat="-27.1241134" lon="152.7718988">
<ele>474.595</ele>
<time>2016-08-30T23:24:53.501Z</time>
</trkpt>
<trkpt lat="-27.1244980" lon="152.7716526">
<ele>472.450</ele>
<time>2016-08-30T23:24:55.511Z</time>
</trkpt>
<trkpt lat="-27.1248930" lon="152.7711753">
<ele>471.079</ele>
<time>2016-08-30T23:24:58.200Z</time>
</trkpt>
<trkpt lat="-27.1250410" lon="152.7707188">
<ele>470.214</ele>
<time>2016-08-30T23:25:00.416Z</time>
</trkpt>
<trkpt lat="-27.1251728" lon="152.7702194">
<ele>469.803</ele>
<time>2016-08-30T23:25:02.853Z</time>
</trkpt>
<trkpt lat="-27.1253559" lon="152.7698080">
<ele>469.798</ele>
<time>2016-08-30T23:25:04.944Z</time>
</trkpt>
<trkpt lat="-27.1257649" lon="152.7694055">
<ele>469.198</ele>
<time>2016-08-30T23:25:07.756Z</time>
</trkpt>
<trkpt lat="-27.1261186" lon="152.7692373">
<ele>466.957</ele>
<time>2016-08-30T23:25:09.790Z</time>
</trkpt>
<trkpt lat="-27.1267641" lon="152.7691383">
<ele>463.868</ele>
<time>2016-08-30T23:25:13.282Z</time>
</trkpt>
<trkpt lat="-27.1272392" lon="152.7688572">
<ele>461.640</ele>
<time>2016-08-30T23:25:16.067Z</time>
</trkpt>
<trkpt lat="-27.1274729" lon="152.7685120">
<ele>460.772</ele>
<time>2016-08-30T23:25:17.930Z</time>
</trkpt>
<trkpt lat="-27.1275633" lon="152.7679146">
<ele>461.032</ele>
<time>2016-08-30T23:25:20.377Z</time>
</trkpt>
<trkpt lat="-27.1274646" lon="152.7674741">
<ele>462.541</ele>
<time>2016-08-30T23:25:22.123Z</time>
</trkpt>
<trkpt lat="-27.1271027" lon="152.7668943">
<ele>465.384</ele>
<time>2016-08-30T23:25:24.693Z</time>
</trkpt>
<trkpt lat="-27.1265248" lon="152.7664125">
<ele>469.263</ele>
<time>2016-08-30T23:25:27.752Z</time>
</trkpt>
<trkpt lat="-27.1261022" lon="152.7661343">
<ele>474.769</ele>
<time>2016-08-30T23:25:30.040Z</time>
</trkpt>
<trkpt lat="-27.1256714" lon="152.7659336">
<ele>481.522</ele>
<time>2016-08-30T23:25:32.254Z</time>
</trkpt>
<trkpt lat="-27.1252652" lon="152.7657555">
<ele>486.745</ele>
<time>2016-08-30T23:25:34.254Z</time>
</trkpt>
<trkpt lat="-27.1247816" lon="152.7653331">
<ele>488.863</ele>
<time>2016-08-30T23:25:36.937Z</time>
</trkpt>
<trkpt lat="-27.1245558" lon="152.7649154">
<ele>489.103</ele>
<time>2016-08-30T23:25:38.765Z</time>
</trkpt>
<trkpt lat="-27.1242552" lon="152.7642131">
<ele>489.063</ele>
<time>2016-08-30T23:25:41.632Z</time>
</trkpt>
<trkpt lat="-27.1240877" lon="152.7634014">
<ele>489.725</ele>
<time>2016-08-30T23:25:44.791Z</time>
</trkpt>
<trkpt lat="-27.1239752" lon="152.7626085">
<ele>491.083</ele>
<time>2016-08-30T23:25:47.996Z</time>
</trkpt>
<trkpt lat="-27.1238822" lon="152.7618403">
<ele>492.533</ele>
<time>2016-08-30T23:25:51.221Z</time>
</trkpt>
<trkpt lat="-27.1238156" lon="152.7613514">
<ele>493.878</ele>
<time>2016-08-30T23:25:53.261Z</time>
</trkpt>
<trkpt lat="-27.1236911" lon="152.7606353">
<ele>495.203</ele>
<time>2016-08-30T23:25:56.225Z</time>
</trkpt>
<trkpt lat="-27.1235680" lon="152.7601809">
<ele>496.249</ele>
<time>2016-08-30T23:25:58.136Z</time>
</trkpt>
<trkpt lat="-27.1232748" lon="152.7595092">
<ele>496.721</ele>
<time>2016-08-30T23:26:01.219Z</time>
</trkpt>
<trkpt lat="-27.1230941" lon="152.7590531">
<ele>496.734</ele>
<time>2016-08-30T23:26:03.342Z</time>
</trkpt>
<trkpt lat="-27.1229207" lon="152.7585960">
<ele>496.765</ele>
<time>2016-08-30T23:26:05.469Z</time>
</trkpt>
<trkpt lat="-27.1226921" lon="152.7579422">
<ele>497.115</ele>
<time>2016-08-30T23:26:08.268Z</time>
</trkpt>
<trkpt lat="-27.1222570" lon="152.7574152">
<ele>497.257</ele>
<time>2016-08-30T23:26:10.904Z</time>
</trkpt>
<trkpt lat="-27.1219153" lon="152.7570886">
<ele>496.487</ele>
<time>2016-08-30T23:26:12.653Z</time>
</trkpt>
<trkpt lat="-27.1213224" lon="152.7566198">
<ele>495.139</ele>
<time>2016-08-30T23:26:15.524Z</time>
</trkpt>
<trkpt lat="-27.1208624" lon="152.7563180">
<ele>494.347</ele>
<time>2016-08-30T23:26:17.834Z</time>
</trkpt>
<trkpt lat="-27.1202068" lon="152.7558713">
<ele>494.658</ele>
<time>2016-08-30T23:26:21.403Z</time>
</trkpt>
<trkpt lat="-27.1198266" lon="152.7555985">
<ele>495.747</ele>
<time>2016-08-30T23:26:23.484Z</time>
</trkpt>
<trkpt lat="-27.1193209" lon="152.7552316">
<ele>497.134</ele>
<time>2016-08-30T23:26:26.144Z</time>
</trkpt>
<trkpt lat="-27.1189315" lon="152.7550333">
<ele>498.369</ele>
<time>2016-08-30T23:26:28.040Z</time>
</trkpt>
<trkpt lat="-27.1184996" lon="152.7548428">
<ele>499.389</ele>
<time>2016-08-30T23:26:30.178Z</time>
</trkpt>
<trkpt lat="-27.1178187" lon="152.7546189">
<ele>500.761</ele>
<time>2016-08-30T23:26:33.565Z</time>
</trkpt>
<trkpt lat="-27.1174087" lon="152.7544694">
<ele>502.817</ele>
<time>2016-08-30T23:26:35.587Z</time>
</trkpt>
<trkpt lat="-27.1170453" lon="152.7543213">
<ele>504.996</ele>
<time>2016-08-30T23:26:37.383Z</time>
</trkpt>
<trkpt lat="-27.1165221" lon="152.7539349">
<ele>506.619</ele>
<time>2016-08-30T23:26:40.322Z</time>
</trkpt>
<trkpt lat="-27.1162132" lon="152.7535811">
<ele>508.002</ele>
<time>2016-08-30T23:26:42.385Z</time>
</trkpt>
<trkpt lat="-27.1159312" lon="152.7532281">
<ele>509.651</ele>
<time>2016-08-30T23:26:44.343Z</time>
</trkpt>
<trkpt lat="-27.1155033" lon="152.7527203">
<ele>511.213</ele>
<time>2016-08-30T23:26:47.140Z</time>
</trkpt>
<trkpt lat="-27.1149497" lon="152.7523019">
<ele>512.219</ele>
<time>2016-08-30T23:26:50.056Z</time>
</trkpt>
<trkpt lat="-27.1143079" lon="152.7520018">
<ele>512.854</ele>
<time>2016-08-30T23:26:52.952Z</time>
</trkpt>
<trkpt lat="-27.1136676" lon="152.7517118">
<ele>513.533</ele>
<time>2016-08-30T23:26:55.721Z</time>
</trkpt>
<trkpt lat="-27.1129766" lon="152.7513818">
<ele>514.294</ele>
<time>2016-08-30T23:26:58.792Z</time>
</trkpt>
<trkpt lat="-27.1125021" lon="152.7511732">
<ele>514.833</ele>
<time>2016-08-30T23:27:00.857Z</time>
</trkpt>
<trkpt lat="-27.1120578" lon="152.7509757">
<ele>515.061</ele>
<time>2016-08-30T23:27:02.774Z</time>
</trkpt>
<trkpt lat="-27.1116077" lon="152.7507838">
<ele>514.763</ele>
<time>2016-08-30T23:27:04.691Z</time>
</trkpt>
<trkpt lat="-27.1108663" lon="152.7505608">
<ele>513.779</ele>
<time>2016-08-30T23:27:07.814Z</time>
</trkpt>
<trkpt lat="-27.1103667" lon="152.7504759">
<ele>512.618</ele>
<time>2016-08-30T23:27:09.888Z</time>
</trkpt>
<trkpt lat="-27.1098873" lon="152.7504358">
<ele>511.918</ele>
<time>2016-08-30T23:27:11.850Z</time>
</trkpt>
<trkpt lat="-27.1094053" lon="152.7504359">
<ele>511.713</ele>
<time>2016-08-30T23:27:13.802Z</time>
</trkpt>
<trkpt lat="-27.1086750" lon="152.7505589">
<ele>511.887</ele>
<time>2016-08-30T23:27:16.778Z</time>
</trkpt>
<trkpt lat="-27.1081866" lon="152.7506544">
<ele>512.443</ele>
<time>2016-08-30T23:27:18.749Z</time>
</trkpt>
<trkpt lat="-27.1074696" lon="152.7508124">
<ele>513.178</ele>
<time>2016-08-30T23:27:21.589Z</time>
</trkpt>
<trkpt lat="-27.1067168" lon="152.7509721">
<ele>513.502</ele>
<time>2016-08-30T23:27:24.563Z</time>
</trkpt>
<trkpt lat="-27.1062052" lon="152.7510775">
<ele>513.169</ele>
<time>2016-08-30T23:27:26.604Z</time>
</trkpt>
<trkpt lat="-27.1057009" lon="152.7511883">
<ele>512.628</ele>
<time>2016-08-30T23:27:28.613Z</time>
</trkpt>
<trkpt lat="-27.1052024" lon="152.7512924">
<ele>512.167</ele>
<time>2016-08-30T23:27:30.572Z</time>
</trkpt>
<trkpt lat="-27.1044478" lon="152.7514098">
<ele>511.490</ele>
<time>2016-08-30T23:27:33.415Z</time>
</trkpt>
<trkpt lat="-27.1036577" lon="152.7513338">
<ele>510.573</ele>
<time>2016-08-30T23:27:36.382Z</time>
</trkpt>
<trkpt lat="-27.1030789" lon="152.7511749">
<ele>509.950</ele>
<time>2016-08-30T23:27:38.660Z</time>
</trkpt>
<trkpt lat="-27.1025571" lon="152.7510272">
<ele>509.899</ele>
<time>2016-08-30T23:27:40.730Z</time>
</trkpt>
<trkpt lat="-27.1018619" lon="152.7507092">
<ele>509.504</ele>
<time>2016-08-30T23:27:43.595Z</time>
</trkpt>
<trkpt lat="-27.1012788" lon="152.7501311">
<ele>507.073</ele>
<time>2016-08-30T23:27:46.610Z</time>
</trkpt>
<trkpt lat="-27.1009479" lon="152.7496914">
<ele>502.689</ele>
<time>2016-08-30T23:27:48.609Z</time>
</trkpt>
<trkpt lat="-27.1004026" lon="152.7491038">
<ele>498.730</ele>
<time>2016-08-30T23:27:51.542Z</time>
</trkpt>
<trkpt lat="-27.0999759" lon="152.7487883">
<ele>496.938</ele>
<time>2016-08-30T23:27:53.511Z</time>
</trkpt>
<trkpt lat="-27.0995049" lon="152.7485386">
<ele>497.293</ele>
<time>2016-08-30T23:27:55.478Z</time>
</trkpt>
<trkpt lat="-27.0987658" lon="152.7482966">
<ele>498.828</ele>
<time>2016-08-30T23:27:58.305Z</time>
</trkpt>
<trkpt lat="-27.0979592" lon="152.7482360">
<ele>500.212</ele>
<time>2016-08-30T23:28:01.319Z</time>
</trkpt>
<trkpt lat="-27.0974042" lon="152.7482925">
<ele>500.678</ele>
<time>2016-08-30T23:28:03.515Z</time>
</trkpt>
<trkpt lat="-27.0966263" lon="152.7484345">
<ele>500.311</ele>
<time>2016-08-30T23:28:06.737Z</time>
</trkpt>
<trkpt lat="-27.0958833" lon="152.7485702">
<ele>499.424</ele>
<time>2016-08-30T23:28:09.913Z</time>
</trkpt>
<trkpt lat="-27.0951781" lon="152.7487072">
<ele>498.421</ele>
<time>2016-08-30T23:28:13.018Z</time>
</trkpt>
<trkpt lat="-27.0947089" lon="152.7487484">
<ele>498.490</ele>
<time>2016-08-30T23:28:15.045Z</time>
</trkpt>
<trkpt lat="-27.0942723" lon="152.7486702">
<ele>500.400</ele>
<time>2016-08-30T23:28:16.909Z</time>
</trkpt>
<trkpt lat="-27.0936265" lon="152.7483969">
<ele>503.451</ele>
<time>2016-08-30T23:28:19.795Z</time>
</trkpt>
<trkpt lat="-27.0932358" lon="152.7481034">
<ele>507.056</ele>
<time>2016-08-30T23:28:21.792Z</time>
</trkpt>
<trkpt lat="-27.0926548" lon="152.7476053">
<ele>510.876</ele>
<time>2016-08-30T23:28:24.952Z</time>
</trkpt>
<trkpt lat="-27.0922822" lon="152.7472902">
<ele>514.248</ele>
<time>2016-08-30T23:28:26.959Z</time>
</trkpt>
<trkpt lat="-27.0916812" lon="152.7469173">
<ele>517.058</ele>
<time>2016-08-30T23:28:29.895Z</time>
</trkpt>
<trkpt lat="-27.0912183" lon="152.7467781">
<ele>519.255</ele>
<time>2016-08-30T23:28:31.933Z</time>
</trkpt>
<trkpt lat="-27.0905086" lon="152.7467276">
<ele>520.962</ele>
<time>2016-08-30T23:28:34.900Z</time>
</trkpt>
<trkpt lat="-27.0900342" lon="152.7467985">
<ele>523.205</ele>
<time>2016-08-30T23:28:36.844Z</time>
</trkpt>
<trkpt lat="-27.0895944" lon="152.7469799">
<ele>526.403</ele>
<time>2016-08-30T23:28:38.706Z</time>
</trkpt>
<trkpt lat="-27.0889791" lon="152.7474236">
<ele>529.647</ele>
<time>2016-08-30T23:28:41.519Z</time>
</trkpt>
<trkpt lat="-27.0884885" lon="152.7480918">
<ele>532.306</ele>
<time>2016-08-30T23:28:44.398Z</time>
</trkpt>
<trkpt lat="-27.0881672" lon="152.7488976">
<ele>534.409</ele>
<time>2016-08-30T23:28:47.314Z</time>
</trkpt>
<trkpt lat="-27.0880189" lon="152.7494693">
<ele>535.792</ele>
<time>2016-08-30T23:28:49.304Z</time>
</trkpt>
<trkpt lat="-27.0878715" lon="152.7500556">
<ele>536.231</ele>
<time>2016-08-30T23:28:51.366Z</time>
</trkpt>
<trkpt lat="-27.0876626" lon="152.7508960">
<ele>535.466</ele>
<time>2016-08-30T23:28:54.325Z</time>
</trkpt>
<trkpt lat="-27.0875178" lon="152.7514631">
<ele>532.550</ele>
<time>2016-08-30T23:28:56.324Z</time>
</trkpt>
<trkpt lat="-27.0873701" lon="152.7520203">
<ele>527.388</ele>
<time>2016-08-30T23:28:58.271Z</time>
</trkpt>
<trkpt lat="-27.0871725" lon="152.7528575">
<ele>521.439</ele>
<time>2016-08-30T23:29:01.079Z</time>
</trkpt>
<trkpt lat="-27.0870156" lon="152.7534264">
<ele>515.812</ele>
<time>2016-08-30T23:29:02.954Z</time>
</trkpt>
<trkpt lat="-27.0866723" lon="152.7542793">
<ele>510.706</ele>
<time>2016-08-30T23:29:05.918Z</time>
</trkpt>
<trkpt lat="-27.0863901" lon="152.7548321">
<ele>506.077</ele>
<time>2016-08-30T23:29:07.988Z</time>
</trkpt>
<trkpt lat="-27.0861389" lon="152.7553945">
<ele>501.892</ele>
<time>2016-08-30T23:29:10.076Z</time>
</trkpt>
<trkpt lat="-27.0859523" lon="152.7559826">
<ele>498.429</ele>
<time>2016-08-30T23:29:12.227Z</time>
</trkpt>
<trkpt lat="-27.0857548" lon="152.7568315">
<ele>495.845</ele>
<time>2016-08-30T23:29:15.205Z</time>
</trkpt>
<trkpt lat="-27.0855633" lon="152.7573507">
<ele>494.015</ele>
<time>2016-08-30T23:29:17.077Z</time>
</trkpt>
<trkpt lat="-27.0851126" lon="152.7580860">
<ele>492.883</ele>
<time>2016-08-30T23:29:20.100Z</time>
</trkpt>
<trkpt lat="-27.0845762" lon="152.7587739">
<ele>492.283</ele>
<time>2016-08-30T23:29:23.483Z</time>
</trkpt>
<trkpt lat="-27.0842351" lon="152.7592129">
<ele>491.354</ele>
<time>2016-08-30T23:29:25.956Z</time>
</trkpt>
<trkpt lat="-27.0837618" lon="152.7597919">
<ele>489.210</ele>
<time>2016-08-30T23:29:29.717Z</time>
</trkpt>
<trkpt lat="-27.0834415" lon="152.7600798">
<ele>485.964</ele>
<time>2016-08-30T23:29:32.103Z</time>
</trkpt>
<trkpt lat="-27.0830843" lon="152.7602539">
<ele>482.363</ele>
<time>2016-08-30T23:29:34.354Z</time>
</trkpt>
<trkpt lat="-27.0827500" lon="152.7603995">
<ele>479.185</ele>
<time>2016-08-30T23:29:36.218Z</time>
</trkpt>
<trkpt lat="-27.0824210" lon="152.7607916">
<ele>476.757</ele>
<time>2016-08-30T23:29:38.545Z</time>
</trkpt>
<trkpt lat="-27.0823301" lon="152.7611720">
<ele>475.015</ele>
<time>2016-08-30T23:29:40.206Z</time>
</trkpt>
<trkpt lat="-27.0823937" lon="152.7618618">
<ele>474.253</ele>
<time>2016-08-30T23:29:43.103Z</time>
</trkpt>
<trkpt lat="-27.0824427" lon="152.7623514">
<ele>475.049</ele>
<time>2016-08-30T23:29:45.113Z</time>
</trkpt>
<trkpt lat="-27.0823257" lon="152.7630271">
<ele>477.141</ele>
<time>2016-08-30T23:29:47.820Z</time>
</trkpt>
<trkpt lat="-27.0819577" lon="152.7636595">
<ele>479.274</ele>
<time>2016-08-30T23:29:50.853Z</time>
</trkpt>
<trkpt lat="-27.0816508" lon="152.7640520">
<ele>481.443</ele>
<time>2016-08-30T23:29:52.923Z</time>
</trkpt>
<trkpt lat="-27.0812969" lon="152.7646258">
<ele>484.320</ele>
<time>2016-08-30T23:29:55.585Z</time>
</trkpt>
<trkpt lat="-27.0810955" lon="152.7653765">
<ele>487.056</ele>
<time>2016-08-30T23:29:58.676Z</time>
</trkpt>
<trkpt lat="-27.0810498" lon="152.7658927">
<ele>488.488</ele>
<time>2016-08-30T23:30:00.847Z</time>
</trkpt>
<trkpt lat="-27.0810238" lon="152.7666572">
<ele>488.574</ele>
<time>2016-08-30T23:30:04.568Z</time>
</trkpt>
<trkpt lat="-27.0809845" lon="152.7673452">
<ele>487.587</ele>
<time>2016-08-30T23:30:08.316Z</time>
</trkpt>
<trkpt lat="-27.0809615" lon="152.7677490">
<ele>485.934</ele>
<time>2016-08-30T23:30:10.605Z</time>
</trkpt>
<trkpt lat="-27.0809507" lon="152.7682805">
<ele>484.312</ele>
<time>2016-08-30T23:30:13.828Z</time>
</trkpt>
<trkpt lat="-27.0809180" lon="152.7688010">
<ele>483.361</ele>
<time>2016-08-30T23:30:17.746Z</time>
</trkpt>
<trkpt lat="-27.0808934" lon="152.7691487">
<ele>482.880</ele>
<time>2016-08-30T23:30:21.790Z</time>
</trkpt>
<trkpt lat="-27.0808737" lon="152.7694700">
<ele>482.224</ele>
<time>2016-08-30T23:30:25.081Z</time>
</trkpt>
<trkpt lat="-27.0807546" lon="152.7698485">
<ele>481.031</ele>
<time>2016-08-30T23:30:28.032Z</time>
</trkpt>
<trkpt lat="-27.0806553" lon="152.7700293">
<ele>479.254</ele>
<time>2016-08-30T23:30:29.436Z</time>
</trkpt>
<trkpt lat="-27.0805600" lon="152.7701272">
<ele>477.193</ele>
<time>2016-08-30T23:30:30.315Z</time>
</trkpt>
<trkpt lat="-27.0803338" lon="152.7701643">
<ele>475.550</ele>
<time>2016-08-30T23:30:31.870Z</time>
</trkpt>
<trkpt lat="-27.0801359" lon="152.7702531">
<ele>474.930</ele>
<time>2016-08-30T23:30:33.101Z</time>
</trkpt>
<trkpt lat="-27.0798981" lon="152.7703512">
<ele>475.215</ele>
<time>2016-08-30T23:30:34.525Z</time>
</trkpt>
<trkpt lat="-27.0796308" lon="152.7703896">
<ele>475.731</ele>
<time>2016-08-30T23:30:35.888Z</time>
</trkpt>
<trkpt lat="-27.0791758" lon="152.7702071">
<ele>475.775</ele>
<time>2016-08-30T23:30:38.219Z</time>
</trkpt>
<trkpt lat="-27.0788074" lon="152.7700032">
<ele>475.108</ele>
<time>2016-08-30T23:30:40.023Z</time>
</trkpt>
<trkpt lat="-27.0782280" lon="152.7697286">
<ele>473.888</ele>
<time>2016-08-30T23:30:42.647Z</time>
</trkpt>
<trkpt lat="-27.0777806" lon="152.7696467">
<ele>471.740</ele>
<time>2016-08-30T23:30:44.549Z</time>
</trkpt>
<trkpt lat="-27.0772795" lon="152.7696080">
<ele>468.689</ele>
<time>2016-08-30T23:30:46.726Z</time>
</trkpt>
<trkpt lat="-27.0765598" lon="152.7695631">
<ele>466.219</ele>
<time>2016-08-30T23:30:49.804Z</time>
</trkpt>
<trkpt lat="-27.0761234" lon="152.7695579">
<ele>465.309</ele>
<time>2016-08-30T23:30:51.674Z</time>
</trkpt>
<trkpt lat="-27.0754305" lon="152.7696729">
<ele>465.393</ele>
<time>2016-08-30T23:30:55.001Z</time>
</trkpt>
<trkpt lat="-27.0749493" lon="152.7697621">
<ele>465.851</ele>
<time>2016-08-30T23:30:57.642Z</time>
</trkpt>
<trkpt lat="-27.0743400" lon="152.7698190">
<ele>466.376</ele>
<time>2016-08-30T23:31:01.118Z</time>
</trkpt>
<trkpt lat="-27.0739975" lon="152.7697196">
<ele>465.336</ele>
<time>2016-08-30T23:31:03.307Z</time>
</trkpt>
<trkpt lat="-27.0735262" lon="152.7693789">
<ele>461.709</ele>
<time>2016-08-30T23:31:07.101Z</time>
</trkpt>
<trkpt lat="-27.0731084" lon="152.7691234">
<ele>457.576</ele>
<time>2016-08-30T23:31:10.695Z</time>
</trkpt>
<trkpt lat="-27.0728082" lon="152.7691078">
<ele>454.969</ele>
<time>2016-08-30T23:31:13.256Z</time>
</trkpt>
<trkpt lat="-27.0723670" lon="152.7691843">
<ele>453.617</ele>
<time>2016-08-30T23:31:17.608Z</time>
</trkpt>
<trkpt lat="-27.0719772" lon="152.7692435">
<ele>452.992</ele>
<time>2016-08-30T23:31:21.387Z</time>
</trkpt>
<trkpt lat="-27.0716482" lon="152.7693093">
<ele>452.412</ele>
<time>2016-08-30T23:31:24.289Z</time>
</trkpt>
<trkpt lat="-27.0714375" lon="152.7693068">
<ele>451.418</ele>
<time>2016-08-30T23:31:26.011Z</time>
</trkpt>
<trkpt lat="-27.0711671" lon="152.7691802">
<ele>450.345</ele>
<time>2016-08-30T23:31:28.114Z</time>
</trkpt>
<trkpt lat="-27.0710038" lon="152.7690693">
<ele>449.578</ele>
<time>2016-08-30T23:31:29.328Z</time>
</trkpt>
<trkpt lat="-27.0707270" lon="152.7688394">
<ele>448.985</ele>
<time>2016-08-30T23:31:31.378Z</time>
</trkpt>
<trkpt lat="-27.0704006" lon="152.7686174">
<ele>447.999</ele>
<time>2016-08-30T23:31:33.481Z</time>
</trkpt>
<trkpt lat="-27.0701237" lon="152.7685120">
<ele>446.128</ele>
<time>2016-08-30T23:31:35.115Z</time>
</trkpt>
<trkpt lat="-27.0696112" lon="152.7684253">
<ele>443.953</ele>
<time>2016-08-30T23:31:38.107Z</time>
</trkpt>
<trkpt lat="-27.0692369" lon="152.7683713">
<ele>442.780</ele>
<time>2016-08-30T23:31:40.417Z</time>
</trkpt>
<trkpt lat="-27.0686853" lon="152.7682887">
<ele>443.190</ele>
<time>2016-08-30T23:31:43.885Z</time>
</trkpt>
<trkpt lat="-27.0683603" lon="152.7682194">
<ele>445.002</ele>
<time>2016-08-30T23:31:45.986Z</time>
</trkpt>
<trkpt lat="-27.0680584" lon="152.7681379">
<ele>447.674</ele>
<time>2016-08-30T23:31:47.944Z</time>
</trkpt>
<trkpt lat="-27.0676408" lon="152.7678977">
<ele>450.225</ele>
<time>2016-08-30T23:31:50.805Z</time>
</trkpt>
<trkpt lat="-27.0673719" lon="152.7677190">
<ele>451.863</ele>
<time>2016-08-30T23:31:52.661Z</time>
</trkpt>
<trkpt lat="-27.0670809" lon="152.7675950">
<ele>452.665</ele>
<time>2016-08-30T23:31:54.539Z</time>
</trkpt>
<trkpt lat="-27.0666277" lon="152.7673859">
<ele>453.196</ele>
<time>2016-08-30T23:31:57.505Z</time>
</trkpt>
<trkpt lat="-27.0663382" lon="152.7671924">
<ele>453.790</ele>
<time>2016-08-30T23:31:59.407Z</time>
</trkpt>
<trkpt lat="-27.0660438" lon="152.7670012">
<ele>454.051</ele>
<time>2016-08-30T23:32:01.183Z</time>
</trkpt>
<trkpt lat="-27.0655894" lon="152.7668283">
<ele>453.669</ele>
<time>2016-08-30T23:32:03.602Z</time>
</trkpt>
<trkpt lat="-27.0652156" lon="152.7668304">
<ele>453.020</ele>
<time>2016-08-30T23:32:05.480Z</time>
</trkpt>
<trkpt lat="-27.0648172" lon="152.7668609">
<ele>452.390</ele>
<time>2016-08-30T23:32:07.540Z</time>
</trkpt>
<trkpt lat="-27.0644326" lon="152.7668924">
<ele>451.776</ele>
<time>2016-08-30T23:32:09.603Z</time>
</trkpt>
<trkpt lat="-27.0640445" lon="152.7669218">
<ele>451.345</ele>
<time>2016-08-30T23:32:11.749Z</time>
</trkpt>
<trkpt lat="-27.0636686" lon="152.7669507">
<ele>451.287</ele>
<time>2016-08-30T23:32:13.887Z</time>
</trkpt>
<trkpt lat="-27.0631040" lon="152.7670041">
<ele>451.546</ele>
<time>2016-08-30T23:32:17.196Z</time>
</trkpt>
<trkpt lat="-27.0627501" lon="152.7670629">
<ele>451.936</ele>
<time>2016-08-30T23:32:19.390Z</time>
</trkpt>
<trkpt lat="-27.0622349" lon="152.7671746">
<ele>452.290</ele>
<time>2016-08-30T23:32:22.774Z</time>
</trkpt>
<trkpt lat="-27.0619146" lon="152.7672337">
<ele>452.421</ele>
<time>2016-08-30T23:32:25.134Z</time>
</trkpt>
<trkpt lat="-27.0614335" lon="152.7673279">
<ele>452.207</ele>
<time>2016-08-30T23:32:29.579Z</time>
</trkpt>
<trkpt lat="-27.0609883" lon="152.7673598">
<ele>451.789</ele>
<time>2016-08-30T23:32:33.996Z</time>
</trkpt>
<trkpt lat="-27.0605848" lon="152.7673034">
<ele>451.413</ele>
<time>2016-08-30T23:32:37.402Z</time>
</trkpt>
<trkpt lat="-27.0603521" lon="152.7672260">
<ele>451.207</ele>
<time>2016-08-30T23:32:39.419Z</time>
</trkpt>
<trkpt lat="-27.0600761" lon="152.7670937">
<ele>450.920</ele>
<time>2016-08-30T23:32:41.907Z</time>
</trkpt>
<trkpt lat="-27.0598692" lon="152.7669881">
<ele>450.326</ele>
<time>2016-08-30T23:32:43.625Z</time>
</trkpt>
<trkpt lat="-27.0595352" lon="152.7668100">
<ele>449.799</ele>
<time>2016-08-30T23:32:46.265Z</time>
</trkpt>
<trkpt lat="-27.0591944" lon="152.7666811">
<ele>449.906</ele>
<time>2016-08-30T23:32:48.686Z</time>
</trkpt>
<trkpt lat="-27.0589487" lon="152.7666985">
<ele>450.579</ele>
<time>2016-08-30T23:32:50.319Z</time>
</trkpt>
<trkpt lat="-27.0585542" lon="152.7668209">
<ele>451.131</ele>
<time>2016-08-30T23:32:53.056Z</time>
</trkpt>
<trkpt lat="-27.0581143" lon="152.7669812">
<ele>451.096</ele>
<time>2016-08-30T23:32:56.207Z</time>
</trkpt>
<trkpt lat="-27.0577034" lon="152.7671307">
<ele>450.715</ele>
<time>2016-08-30T23:32:59.298Z</time>
</trkpt>
<trkpt lat="-27.0572825" lon="152.7672874">
<ele>450.295</ele>
<time>2016-08-30T23:33:02.263Z</time>
</trkpt>
<trkpt lat="-27.0570106" lon="152.7673955">
<ele>449.705</ele>
<time>2016-08-30T23:33:04.022Z</time>
</trkpt>
<trkpt lat="-27.0567464" lon="152.7674794">
<ele>448.733</ele>
<time>2016-08-30T23:33:05.617Z</time>
</trkpt>
<trkpt lat="-27.0564788" lon="152.7675578">
<ele>447.344</ele>
<time>2016-08-30T23:33:07.130Z</time>
</trkpt>
<trkpt lat="-27.0560211" lon="152.7677039">
<ele>445.761</ele>
<time>2016-08-30T23:33:09.649Z</time>
</trkpt>
<trkpt lat="-27.0555270" lon="152.7679138">
<ele>443.948</ele>
<time>2016-08-30T23:33:12.318Z</time>
</trkpt>
<trkpt lat="-27.0550063" lon="152.7681816">
<ele>441.182</ele>
<time>2016-08-30T23:33:15.194Z</time>
</trkpt>
<trkpt lat="-27.0546360" lon="152.7683586">
<ele>437.232</ele>
<time>2016-08-30T23:33:17.252Z</time>
</trkpt>
<trkpt lat="-27.0540529" lon="152.7685840">
<ele>433.011</ele>
<time>2016-08-30T23:33:20.426Z</time>
</trkpt>
<trkpt lat="-27.0536847" lon="152.7687214">
<ele>429.243</ele>
<time>2016-08-30T23:33:22.382Z</time>
</trkpt>
<trkpt lat="-27.0531352" lon="152.7688673">
<ele>426.019</ele>
<time>2016-08-30T23:33:25.149Z</time>
</trkpt>
<trkpt lat="-27.0527412" lon="152.7688633">
<ele>423.412</ele>
<time>2016-08-30T23:33:27.100Z</time>
</trkpt>
<trkpt lat="-27.0523360" lon="152.7688667">
<ele>421.404</ele>
<time>2016-08-30T23:33:29.187Z</time>
</trkpt>
<trkpt lat="-27.0519174" lon="152.7689451">
<ele>419.934</ele>
<time>2016-08-30T23:33:31.456Z</time>
</trkpt>
<trkpt lat="-27.0513389" lon="152.7691301">
<ele>419.190</ele>
<time>2016-08-30T23:33:34.682Z</time>
</trkpt>
<trkpt lat="-27.0509999" lon="152.7692684">
<ele>419.961</ele>
<time>2016-08-30T23:33:36.752Z</time>
</trkpt>
<trkpt lat="-27.0505347" lon="152.7696299">
<ele>422.596</ele>
<time>2016-08-30T23:33:41.258Z</time>
</trkpt>
<trkpt lat="-27.0502895" lon="152.7699428">
<ele>426.439</ele>
<time>2016-08-30T23:33:45.984Z</time>
</trkpt>
<trkpt lat="-27.0501192" lon="152.7702599">
<ele>430.516</ele>
<time>2016-08-30T23:33:48.977Z</time>
</trkpt>
<trkpt lat="-27.0499788" lon="152.7705252">
<ele>433.791</ele>
<time>2016-08-30T23:33:50.855Z</time>
</trkpt>
<trkpt lat="-27.0498390" lon="152.7707531">
<ele>435.426</ele>
<time>2016-08-30T23:33:52.274Z</time>
</trkpt>
<trkpt lat="-27.0496766" lon="152.7708498">
<ele>435.461</ele>
<time>2016-08-30T23:33:53.282Z</time>
</trkpt>
<trkpt lat="-27.0494890" lon="152.7709217">
<ele>434.546</ele>
<time>2016-08-30T23:33:54.255Z</time>
</trkpt>
<trkpt lat="-27.0490934" lon="152.7710762">
<ele>433.789</ele>
<time>2016-08-30T23:33:56.300Z</time>
</trkpt>
<trkpt lat="-27.0485651" lon="152.7713300">
<ele>434.135</ele>
<time>2016-08-30T23:33:58.982Z</time>
</trkpt>
<trkpt lat="-27.0479652" lon="152.7716481">
<ele>435.554</ele>
<time>2016-08-30T23:34:02.129Z</time>
</trkpt>
<trkpt lat="-27.0475574" lon="152.7718585">
<ele>437.192</ele>
<time>2016-08-30T23:34:04.425Z</time>
</trkpt>
<trkpt lat="-27.0471455" lon="152.7720651">
<ele>438.031</ele>
<time>2016-08-30T23:34:06.817Z</time>
</trkpt>
<trkpt lat="-27.0466371" lon="152.7723640">
<ele>437.143</ele>
<time>2016-08-30T23:34:09.949Z</time>
</trkpt>
<trkpt lat="-27.0462863" lon="152.7728479">
<ele>433.396</ele>
<time>2016-08-30T23:34:13.147Z</time>
</trkpt>
<trkpt lat="-27.0461770" lon="152.7732563">
<ele>427.205</ele>
<time>2016-08-30T23:34:15.334Z</time>
</trkpt>
<trkpt lat="-27.0461462" lon="152.7738397">
<ele>420.853</ele>
<time>2016-08-30T23:34:18.389Z</time>
</trkpt>
<trkpt lat="-27.0462823" lon="152.7741869">
<ele>415.432</ele>
<time>2016-08-30T23:34:20.529Z</time>
</trkpt>
<trkpt lat="-27.0463302" lon="152.7745843">
<ele>410.575</ele>
<time>2016-08-30T23:34:23.088Z</time>
</trkpt>
<trkpt lat="-27.0463233" lon="152.7749861">
<ele>406.439</ele>
<time>2016-08-30T23:34:25.822Z</time>
</trkpt>
<trkpt lat="-27.0462474" lon="152.7754503">
<ele>402.709</ele>
<time>2016-08-30T23:34:29.109Z</time>
</trkpt>
<trkpt lat="-27.0461404" lon="152.7757450">
<ele>398.455</ele>
<time>2016-08-30T23:34:31.322Z</time>
</trkpt>
<trkpt lat="-27.0458528" lon="152.7759856">
<ele>393.574</ele>
<time>2016-08-30T23:34:34.112Z</time>
</trkpt>
<trkpt lat="-27.0455897" lon="152.7762988">
<ele>388.817</ele>
<time>2016-08-30T23:34:36.600Z</time>
</trkpt>
<trkpt lat="-27.0455531" lon="152.7765985">
<ele>384.617</ele>
<time>2016-08-30T23:34:38.181Z</time>
</trkpt>
<trkpt lat="-27.0453379" lon="152.7769382">
<ele>381.031</ele>
<time>2016-08-30T23:34:40.046Z</time>
</trkpt>
<trkpt lat="-27.0451087" lon="152.7771498">
<ele>377.705</ele>
<time>2016-08-30T23:34:41.450Z</time>
</trkpt>
<trkpt lat="-27.0445664" lon="152.7774669">
<ele>374.600</ele>
<time>2016-08-30T23:34:44.248Z</time>
</trkpt>
<trkpt lat="-27.0440640" lon="152.7775261">
<ele>372.363</ele>
<time>2016-08-30T23:34:46.367Z</time>
</trkpt>
<trkpt lat="-27.0434096" lon="152.7776053">
<ele>370.583</ele>
<time>2016-08-30T23:34:49.043Z</time>
</trkpt>
<trkpt lat="-27.0429014" lon="152.7775622">
<ele>367.402</ele>
<time>2016-08-30T23:34:51.102Z</time>
</trkpt>
<trkpt lat="-27.0421686" lon="152.7774943">
<ele>362.613</ele>
<time>2016-08-30T23:34:54.369Z</time>
</trkpt>
<trkpt lat="-27.0414420" lon="152.7774664">
<ele>357.308</ele>
<time>2016-08-30T23:34:57.892Z</time>
</trkpt>
<trkpt lat="-27.0408498" lon="152.7774313">
<ele>351.317</ele>
<time>2016-08-30T23:35:01.492Z</time>
</trkpt>
<trkpt lat="-27.0404705" lon="152.7773633">
<ele>343.477</ele>
<time>2016-08-30T23:35:04.130Z</time>
</trkpt>
<trkpt lat="-27.0400857" lon="152.7773027">
<ele>334.463</ele>
<time>2016-08-30T23:35:06.846Z</time>
</trkpt>
<trkpt lat="-27.0397944" lon="152.7773208">
<ele>326.341</ele>
<time>2016-08-30T23:35:08.855Z</time>
</trkpt>
<trkpt lat="-27.0394000" lon="152.7771840">
<ele>319.653</ele>
<time>2016-08-30T23:35:11.615Z</time>
</trkpt>
<trkpt lat="-27.0389986" lon="152.7770241">
<ele>313.513</ele>
<time>2016-08-30T23:35:14.378Z</time>
</trkpt>
<trkpt lat="-27.0386061" lon="152.7772126">
<ele>307.675</ele>
<time>2016-08-30T23:35:17.198Z</time>
</trkpt>
<trkpt lat="-27.0383225" lon="152.7773246">
<ele>302.355</ele>
<time>2016-08-30T23:35:19.313Z</time>
</trkpt>
<trkpt lat="-27.0378590" lon="152.7772644">
<ele>297.796</ele>
<time>2016-08-30T23:35:22.716Z</time>
</trkpt>
<trkpt lat="-27.0374685" lon="152.7774174">
<ele>293.853</ele>
<time>2016-08-30T23:35:25.882Z</time>
</trkpt>
<trkpt lat="-27.0370453" lon="152.7773785">
<ele>289.668</ele>
<time>2016-08-30T23:35:28.881Z</time>
</trkpt>
<trkpt lat="-27.0366398" lon="152.7773826">
<ele>284.555</ele>
<time>2016-08-30T23:35:31.598Z</time>
</trkpt>
<trkpt lat="-27.0364010" lon="152.7774586">
<ele>278.814</ele>
<time>2016-08-30T23:35:33.372Z</time>
</trkpt>
<trkpt lat="-27.0361027" lon="152.7774137">
<ele>273.419</ele>
<time>2016-08-30T23:35:35.605Z</time>
</trkpt>
<trkpt lat="-27.0358197" lon="152.7772208">
<ele>269.207</ele>
<time>2016-08-30T23:35:38.184Z</time>
</trkpt>
<trkpt lat="-27.0355799" lon="152.7770478">
<ele>266.300</ele>
<time>2016-08-30T23:35:40.471Z</time>
</trkpt>
<trkpt lat="-27.0351892" lon="152.7769517">
<ele>263.710</ele>
<time>2016-08-30T23:35:43.562Z</time>
</trkpt>
<trkpt lat="-27.0349806" lon="152.7767500">
<ele>260.199</ele>
<time>2016-08-30T23:35:45.313Z</time>
</trkpt>
<trkpt lat="-27.0346676" lon="152.7765187">
<ele>256.068</ele>
<time>2016-08-30T23:35:47.536Z</time>
</trkpt>
<trkpt lat="-27.0343038" lon="152.7765659">
<ele>252.169</ele>
<time>2016-08-30T23:35:49.612Z</time>
</trkpt>
<trkpt lat="-27.0340432" lon="152.7767467">
<ele>248.184</ele>
<time>2016-08-30T23:35:51.478Z</time>
</trkpt>
<trkpt lat="-27.0336365" lon="152.7771720">
<ele>244.018</ele>
<time>2016-08-30T23:35:55.281Z</time>
</trkpt>
<trkpt lat="-27.0333540" lon="152.7774405">
<ele>239.982</ele>
<time>2016-08-30T23:35:57.772Z</time>
</trkpt>
<trkpt lat="-27.0329969" lon="152.7776849">
<ele>235.252</ele>
<time>2016-08-30T23:36:00.203Z</time>
</trkpt>
<trkpt lat="-27.0327624" lon="152.7778699">
<ele>229.063</ele>
<time>2016-08-30T23:36:01.737Z</time>
</trkpt>
<trkpt lat="-27.0325453" lon="152.7780413">
<ele>222.233</ele>
<time>2016-08-30T23:36:03.144Z</time>
</trkpt>
<trkpt lat="-27.0322407" lon="152.7781413">
<ele>216.229</ele>
<time>2016-08-30T23:36:04.698Z</time>
</trkpt>
<trkpt lat="-27.0318692" lon="152.7781731">
<ele>211.803</ele>
<time>2016-08-30T23:36:06.477Z</time>
</trkpt>
<trkpt lat="-27.0313145" lon="152.7782306">
<ele>208.845</ele>
<time>2016-08-30T23:36:08.970Z</time>
</trkpt>
<trkpt lat="-27.0307505" lon="152.7785315">
<ele>205.959</ele>
<time>2016-08-30T23:36:11.801Z</time>
</trkpt>
<trkpt lat="-27.0302009" lon="152.7789845">
<ele>201.853</ele>
<time>2016-08-30T23:36:14.956Z</time>
</trkpt>
<trkpt lat="-27.0298241" lon="152.7792016">
<ele>197.112</ele>
<time>2016-08-30T23:36:16.947Z</time>
</trkpt>
<trkpt lat="-27.0291870" lon="152.7793183">
<ele>193.236</ele>
<time>2016-08-30T23:36:20.208Z</time>
</trkpt>
<trkpt lat="-27.0285648" lon="152.7792105">
<ele>191.056</ele>
<time>2016-08-30T23:36:23.770Z</time>
</trkpt>
<trkpt lat="-27.0280022" lon="152.7791950">
<ele>191.317</ele>
<time>2016-08-30T23:36:27.186Z</time>
</trkpt>
<trkpt lat="-27.0274942" lon="152.7793393">
<ele>194.533</ele>
<time>2016-08-30T23:36:30.226Z</time>
</trkpt>
<trkpt lat="-27.0270626" lon="152.7791442">
<ele>199.628</ele>
<time>2016-08-30T23:36:32.983Z</time>
</trkpt>
<trkpt lat="-27.0267161" lon="152.7786980">
<ele>204.799</ele>
<time>2016-08-30T23:36:36.869Z</time>
</trkpt>
<trkpt lat="-27.0262819" lon="152.7783128">
<ele>210.029</ele>
<time>2016-08-30T23:36:41.470Z</time>
</trkpt>
<trkpt lat="-27.0259141" lon="152.7781310">
<ele>215.597</ele>
<time>2016-08-30T23:36:44.447Z</time>
</trkpt>
<trkpt lat="-27.0256321" lon="152.7783113">
<ele>220.136</ele>
<time>2016-08-30T23:36:46.724Z</time>
</trkpt>
<trkpt lat="-27.0256249" lon="152.7785905">
<ele>222.397</ele>
<time>2016-08-30T23:36:48.421Z</time>
</trkpt>
<trkpt lat="-27.0256428" lon="152.7789029">
<ele>222.809</ele>
<time>2016-08-30T23:36:50.262Z</time>
</trkpt>
<trkpt lat="-27.0254208" lon="152.7792748">
<ele>222.485</ele>
<time>2016-08-30T23:36:53.158Z</time>
</trkpt>
<trkpt lat="-27.0249947" lon="152.7794473">
<ele>221.921</ele>
<time>2016-08-30T23:36:56.558Z</time>
</trkpt>
<trkpt lat="-27.0246824" lon="152.7794583">
<ele>220.822</ele>
<time>2016-08-30T23:36:58.627Z</time>
</trkpt>
<trkpt lat="-27.0244131" lon="152.7794462">
<ele>218.969</ele>
<time>2016-08-30T23:37:00.345Z</time>
</trkpt>
<trkpt lat="-27.0241831" lon="152.7795266">
<ele>216.396</ele>
<time>2016-08-30T23:37:01.823Z</time>
</trkpt>
<trkpt lat="-27.0239837" lon="152.7799668">
<ele>213.289</ele>
<time>2016-08-30T23:37:04.476Z</time>
</trkpt>
<trkpt lat="-27.0238435" lon="152.7804932">
<ele>210.200</ele>
<time>2016-08-30T23:37:07.178Z</time>
</trkpt>
<trkpt lat="-27.0234943" lon="152.7808303">
<ele>207.591</ele>
<time>2016-08-30T23:37:09.289Z</time>
</trkpt>
<trkpt lat="-27.0229816" lon="152.7808817">
<ele>205.091</ele>
<time>2016-08-30T23:37:11.427Z</time>
</trkpt>
<trkpt lat="-27.0225680" lon="152.7807309">
<ele>202.516</ele>
<time>2016-08-30T23:37:13.149Z</time>
</trkpt>
<trkpt lat="-27.0220604" lon="152.7805254">
<ele>200.559</ele>
<time>2016-08-30T23:37:15.180Z</time>
</trkpt>
<trkpt lat="-27.0212358" lon="152.7802043">
<ele>199.737</ele>
<time>2016-08-30T23:37:18.565Z</time>
</trkpt>
<trkpt lat="-27.0207231" lon="152.7800035">
<ele>197.005</ele>
<time>2016-08-30T23:37:20.739Z</time>
</trkpt>
<trkpt lat="-27.0202406" lon="152.7798190">
<ele>190.235</ele>
<time>2016-08-30T23:37:22.734Z</time>
</trkpt>
<trkpt lat="-27.0197792" lon="152.7796403">
<ele>183.757</ele>
<time>2016-08-30T23:37:24.569Z</time>
</trkpt>
<trkpt lat="-27.0190602" lon="152.7793851">
<ele>181.754</ele>
<time>2016-08-30T23:37:27.288Z</time>
</trkpt>
<trkpt lat="-27.0182642" lon="152.7791762">
<ele>182.224</ele>
<time>2016-08-30T23:37:30.258Z</time>
</trkpt>
<trkpt lat="-27.0177026" lon="152.7791020">
<ele>182.345</ele>
<time>2016-08-30T23:37:32.325Z</time>
</trkpt>
<trkpt lat="-27.0171670" lon="152.7790268">
<ele>181.463</ele>
<time>2016-08-30T23:37:34.307Z</time>
</trkpt>
<trkpt lat="-27.0163653" lon="152.7789154">
<ele>179.544</ele>
<time>2016-08-30T23:37:37.326Z</time>
</trkpt>
<trkpt lat="-27.0158329" lon="152.7788303">
<ele>176.343</ele>
<time>2016-08-30T23:37:39.357Z</time>
</trkpt>
<trkpt lat="-27.0150514" lon="152.7788239">
<ele>172.249</ele>
<time>2016-08-30T23:37:42.319Z</time>
</trkpt>
<trkpt lat="-27.0145158" lon="152.7788430">
<ele>168.193</ele>
<time>2016-08-30T23:37:44.342Z</time>
</trkpt>
<trkpt lat="-27.0139953" lon="152.7788328">
<ele>164.927</ele>
<time>2016-08-30T23:37:46.287Z</time>
</trkpt>
<trkpt lat="-27.0134766" lon="152.7787562">
<ele>162.836</ele>
<time>2016-08-30T23:37:48.233Z</time>
</trkpt>
<trkpt lat="-27.0129448" lon="152.7786753">
<ele>161.906</ele>
<time>2016-08-30T23:37:50.224Z</time>
</trkpt>
<trkpt lat="-27.0121538" lon="152.7785607">
<ele>161.503</ele>
<time>2016-08-30T23:37:53.222Z</time>
</trkpt>
<trkpt lat="-27.0116142" lon="152.7784698">
<ele>160.955</ele>
<time>2016-08-30T23:37:55.282Z</time>
</trkpt>
<trkpt lat="-27.0110941" lon="152.7783999">
<ele>160.100</ele>
<time>2016-08-30T23:37:57.248Z</time>
</trkpt>
<trkpt lat="-27.0105739" lon="152.7783632">
<ele>158.749</ele>
<time>2016-08-30T23:37:59.201Z</time>
</trkpt>
<trkpt lat="-27.0100394" lon="152.7783734">
<ele>156.837</ele>
<time>2016-08-30T23:38:01.221Z</time>
</trkpt>
<trkpt lat="-27.0092458" lon="152.7784325">
<ele>154.731</ele>
<time>2016-08-30T23:38:04.192Z</time>
</trkpt>
<trkpt lat="-27.0084774" lon="152.7785537">
<ele>152.302</ele>
<time>2016-08-30T23:38:06.989Z</time>
</trkpt>
<trkpt lat="-27.0076783" lon="152.7788013">
<ele>148.981</ele>
<time>2016-08-30T23:38:09.886Z</time>
</trkpt>
<trkpt lat="-27.0068895" lon="152.7791690">
<ele>145.385</ele>
<time>2016-08-30T23:38:12.815Z</time>
</trkpt>
<trkpt lat="-27.0061386" lon="152.7796389">
<ele>142.980</ele>
<time>2016-08-30T23:38:15.726Z</time>
</trkpt>
<trkpt lat="-27.0054290" lon="152.7802383">
<ele>142.101</ele>
<time>2016-08-30T23:38:18.670Z</time>
</trkpt>
<trkpt lat="-27.0047916" lon="152.7809250">
<ele>142.003</ele>
<time>2016-08-30T23:38:21.389Z</time>
</trkpt>
<trkpt lat="-27.0044059" lon="152.7814706">
<ele>142.268</ele>
<time>2016-08-30T23:38:23.228Z</time>
</trkpt>
<trkpt lat="-27.0038422" lon="152.7824066">
<ele>142.789</ele>
<time>2016-08-30T23:38:26.223Z</time>
</trkpt>
<trkpt lat="-27.0032570" lon="152.7833800">
<ele>143.637</ele>
<time>2016-08-30T23:38:29.700Z</time>
</trkpt>
<trkpt lat="-27.0029121" lon="152.7839640">
<ele>144.771</ele>
<time>2016-08-30T23:38:32.006Z</time>
</trkpt>
<trkpt lat="-27.0025925" lon="152.7844942">
<ele>144.965</ele>
<time>2016-08-30T23:38:34.178Z</time>
</trkpt>
<trkpt lat="-27.0023052" lon="152.7849860">
<ele>142.955</ele>
<time>2016-08-30T23:38:36.183Z</time>
</trkpt>
<trkpt lat="-27.0020670" lon="152.7854909">
<ele>139.293</ele>
<time>2016-08-30T23:38:38.173Z</time>
</trkpt>
<trkpt lat="-27.0017930" lon="152.7863156">
<ele>135.656</ele>
<time>2016-08-30T23:38:41.442Z</time>
</trkpt>
<trkpt lat="-27.0016694" lon="152.7868643">
<ele>133.114</ele>
<time>2016-08-30T23:38:43.642Z</time>
</trkpt>
<trkpt lat="-27.0015734" lon="152.7876268">
<ele>131.363</ele>
<time>2016-08-30T23:38:46.704Z</time>
</trkpt>
<trkpt lat="-27.0015353" lon="152.7881371">
<ele>129.691</ele>
<time>2016-08-30T23:38:48.744Z</time>
</trkpt>
<trkpt lat="-27.0015063" lon="152.7886178">
<ele>128.296</ele>
<time>2016-08-30T23:38:50.630Z</time>
</trkpt>
<trkpt lat="-27.0014330" lon="152.7893417">
<ele>127.578</ele>
<time>2016-08-30T23:38:53.492Z</time>
</trkpt>
<trkpt lat="-27.0013639" lon="152.7898541">
<ele>127.492</ele>
<time>2016-08-30T23:38:55.594Z</time>
</trkpt>
<trkpt lat="-27.0013118" lon="152.7903752">
<ele>127.770</ele>
<time>2016-08-30T23:38:57.827Z</time>
</trkpt>
<trkpt lat="-27.0012346" lon="152.7911022">
<ele>128.123</ele>
<time>2016-08-30T23:39:01.013Z</time>
</trkpt>
<trkpt lat="-27.0011555" lon="152.7915536">
<ele>128.330</ele>
<time>2016-08-30T23:39:03.046Z</time>
</trkpt>
<trkpt lat="-27.0010235" lon="152.7919818">
<ele>128.361</ele>
<time>2016-08-30T23:39:05.092Z</time>
</trkpt>
<trkpt lat="-27.0007005" lon="152.7925628">
<ele>128.515</ele>
<time>2016-08-30T23:39:08.229Z</time>
</trkpt>
<trkpt lat="-27.0004496" lon="152.7928914">
<ele>129.314</ele>
<time>2016-08-30T23:39:10.243Z</time>
</trkpt>
<trkpt lat="-27.0001733" lon="152.7931797">
<ele>130.823</ele>
<time>2016-08-30T23:39:12.294Z</time>
</trkpt>
<trkpt lat="-26.9996827" lon="152.7935211">
<ele>132.488</ele>
<time>2016-08-30T23:39:15.556Z</time>
</trkpt>
<trkpt lat="-26.9993232" lon="152.7936613">
<ele>133.807</ele>
<time>2016-08-30T23:39:17.801Z</time>
</trkpt>
<trkpt lat="-26.9988070" lon="152.7937957">
<ele>134.618</ele>
<time>2016-08-30T23:39:21.009Z</time>
</trkpt>
<trkpt lat="-26.9984764" lon="152.7938523">
<ele>134.727</ele>
<time>2016-08-30T23:39:23.151Z</time>
</trkpt>
<trkpt lat="-26.9979815" lon="152.7939231">
<ele>134.180</ele>
<time>2016-08-30T23:39:26.457Z</time>
</trkpt>
<trkpt lat="-26.9976697" lon="152.7939745">
<ele>133.524</ele>
<time>2016-08-30T23:39:28.616Z</time>
</trkpt>
<trkpt lat="-26.9972099" lon="152.7940396">
<ele>133.165</ele>
<time>2016-08-30T23:39:31.785Z</time>
</trkpt>
<trkpt lat="-26.9969301" lon="152.7940781">
<ele>132.910</ele>
<time>2016-08-30T23:39:33.683Z</time>
</trkpt>
<trkpt lat="-26.9966460" lon="152.7941191">
<ele>132.489</ele>
<time>2016-08-30T23:39:35.625Z</time>
</trkpt>
<trkpt lat="-26.9962195" lon="152.7941908">
<ele>131.965</ele>
<time>2016-08-30T23:39:38.682Z</time>
</trkpt>
<trkpt lat="-26.9957741" lon="152.7942656">
<ele>131.570</ele>
<time>2016-08-30T23:39:42.173Z</time>
</trkpt>
<trkpt lat="-26.9953474" lon="152.7943267">
<ele>131.456</ele>
<time>2016-08-30T23:39:46.097Z</time>
</trkpt>
<trkpt lat="-26.9949572" lon="152.7943831">
<ele>131.602</ele>
<time>2016-08-30T23:39:53.619Z</time>
</trkpt>
<trkpt lat="-26.9945962" lon="152.7944367">
<ele>131.747</ele>
<time>2016-08-30T23:40:00.799Z</time>
</trkpt>
<trkpt lat="-26.9943865" lon="152.7944610">
<ele>131.651</ele>
<time>2016-08-30T23:40:03.414Z</time>
</trkpt>
<trkpt lat="-26.9942369" lon="152.7944781">
<ele>131.340</ele>
<time>2016-08-30T23:40:05.210Z</time>
</trkpt>
<trkpt lat="-26.9941139" lon="152.7944958">
<ele>130.899</ele>
<time>2016-08-30T23:40:06.657Z</time>
</trkpt>
<trkpt lat="-26.9940065" lon="152.7945119">
<ele>130.422</ele>
<time>2016-08-30T23:40:07.886Z</time>
</trkpt>
<trkpt lat="-26.9938822" lon="152.7945384">
<ele>130.081</ele>
<time>2016-08-30T23:40:09.230Z</time>
</trkpt>
<trkpt lat="-26.9936518" lon="152.7945794">
<ele>130.131</ele>
<time>2016-08-30T23:40:11.556Z</time>
</trkpt>
<trkpt lat="-26.9933986" lon="152.7946254">
<ele>130.625</ele>
<time>2016-08-30T23:40:13.869Z</time>
</trkpt>
<trkpt lat="-26.9931567" lon="152.7946626">
<ele>131.230</ele>
<time>2016-08-30T23:40:15.980Z</time>
</trkpt>
<trkpt lat="-26.9929652" lon="152.7946988">
<ele>131.530</ele>
<time>2016-08-30T23:40:17.603Z</time>
</trkpt>
<trkpt lat="-26.9926729" lon="152.7947495">
<ele>131.462</ele>
<time>2016-08-30T23:40:20.058Z</time>
</trkpt>
<trkpt lat="-26.9924404" lon="152.7947741">
<ele>131.194</ele>
<time>2016-08-30T23:40:21.992Z</time>
</trkpt>
<trkpt lat="-26.9920645" lon="152.7948077">
<ele>130.796</ele>
<time>2016-08-30T23:40:25.066Z</time>
</trkpt>
<trkpt lat="-26.9918351" lon="152.7948494">
<ele>130.087</ele>
<time>2016-08-30T23:40:26.910Z</time>
</trkpt>
<trkpt lat="-26.9914797" lon="152.7949049">
<ele>128.924</ele>
<time>2016-08-30T23:40:29.657Z</time>
</trkpt>
<trkpt lat="-26.9912421" lon="152.7949404">
<ele>127.367</ele>
<time>2016-08-30T23:40:31.463Z</time>
</trkpt>
<trkpt lat="-26.9908701" lon="152.7950123">
<ele>125.673</ele>
<time>2016-08-30T23:40:34.235Z</time>
</trkpt>
<trkpt lat="-26.9906285" lon="152.7950844">
<ele>124.199</ele>
<time>2016-08-30T23:40:36.047Z</time>
</trkpt>
<trkpt lat="-26.9902405" lon="152.7952367">
<ele>123.230</ele>
<time>2016-08-30T23:40:38.973Z</time>
</trkpt>
<trkpt lat="-26.9899915" lon="152.7953481">
<ele>122.810</ele>
<time>2016-08-30T23:40:40.905Z</time>
</trkpt>
<trkpt lat="-26.9896034" lon="152.7955305">
<ele>122.779</ele>
<time>2016-08-30T23:40:43.917Z</time>
</trkpt>
<trkpt lat="-26.9892460" lon="152.7957689">
<ele>123.150</ele>
<time>2016-08-30T23:40:46.919Z</time>
</trkpt>
<trkpt lat="-26.9890275" lon="152.7959464">
<ele>124.228</ele>
<time>2016-08-30T23:40:49.017Z</time>
</trkpt>
<trkpt lat="-26.9886973" lon="152.7962285">
<ele>125.981</ele>
<time>2016-08-30T23:40:52.511Z</time>
</trkpt>
<trkpt lat="-26.9883629" lon="152.7965194">
<ele>128.118</ele>
<time>2016-08-30T23:40:56.942Z</time>
</trkpt>
<trkpt lat="-26.9881007" lon="152.7967936">
<ele>130.479</ele>
<time>2016-08-30T23:41:02.508Z</time>
</trkpt>
<trkpt lat="-26.9878536" lon="152.7970554">
<ele>132.876</ele>
<time>2016-08-30T23:41:11.019Z</time>
</trkpt>
<trkpt lat="-26.9877211" lon="152.7972077">
<ele>134.996</ele>
<time>2016-08-30T23:41:14.012Z</time>
</trkpt>
<trkpt lat="-26.9876088" lon="152.7973222">
<ele>136.600</ele>
<time>2016-08-30T23:41:15.706Z</time>
</trkpt>
<trkpt lat="-26.9875197" lon="152.7974178">
<ele>137.612</ele>
<time>2016-08-30T23:41:16.766Z</time>
</trkpt>
<trkpt lat="-26.9873945" lon="152.7975666">
<ele>138.146</ele>
<time>2016-08-30T23:41:18.181Z</time>
</trkpt>
<trkpt lat="-26.9873117" lon="152.7976535">
<ele>138.499</ele>
<time>2016-08-30T23:41:18.960Z</time>
</trkpt>
<trkpt lat="-26.9872128" lon="152.7977141">
<ele>138.892</ele>
<time>2016-08-30T23:41:19.733Z</time>
</trkpt>
<trkpt lat="-26.9871211" lon="152.7977309">
<ele>139.276</ele>
<time>2016-08-30T23:41:20.371Z</time>
</trkpt>
<trkpt lat="-26.9870025" lon="152.7976644">
<ele>139.547</ele>
<time>2016-08-30T23:41:21.257Z</time>
</trkpt>
<trkpt lat="-26.9867731" lon="152.7974230">
<ele>139.836</ele>
<time>2016-08-30T23:41:23.224Z</time>
</trkpt>
<trkpt lat="-26.9865782" lon="152.7972072">
<ele>140.624</ele>
<time>2016-08-30T23:41:24.936Z</time>
</trkpt>
<trkpt lat="-26.9861967" lon="152.7968415">
<ele>142.154</ele>
<time>2016-08-30T23:41:28.128Z</time>
</trkpt>
<trkpt lat="-26.9857818" lon="152.7965008">
<ele>144.003</ele>
<time>2016-08-30T23:41:31.491Z</time>
</trkpt>
<trkpt lat="-26.9854033" lon="152.7962175">
<ele>145.553</ele>
<time>2016-08-30T23:41:34.398Z</time>
</trkpt>
<trkpt lat="-26.9851505" lon="152.7960382">
<ele>146.030</ele>
<time>2016-08-30T23:41:36.250Z</time>
</trkpt>
<trkpt lat="-26.9847428" lon="152.7957867">
<ele>145.196</ele>
<time>2016-08-30T23:41:38.998Z</time>
</trkpt>
<trkpt lat="-26.9843191" lon="152.7955610">
<ele>143.923</ele>
<time>2016-08-30T23:41:41.606Z</time>
</trkpt>
<trkpt lat="-26.9840001" lon="152.7954221">
<ele>143.043</ele>
<time>2016-08-30T23:41:43.444Z</time>
</trkpt>
<trkpt lat="-26.9836746" lon="152.7952714">
<ele>142.650</ele>
<time>2016-08-30T23:41:45.273Z</time>
</trkpt>
<trkpt lat="-26.9831556" lon="152.7950606">
<ele>142.567</ele>
<time>2016-08-30T23:41:48.045Z</time>
</trkpt>
<trkpt lat="-26.9827976" lon="152.7949228">
<ele>142.562</ele>
<time>2016-08-30T23:41:49.880Z</time>
</trkpt>
<trkpt lat="-26.9824360" lon="152.7947817">
<ele>142.348</ele>
<time>2016-08-30T23:41:51.713Z</time>
</trkpt>
<trkpt lat="-26.9820565" lon="152.7946058">
<ele>141.765</ele>
<time>2016-08-30T23:41:53.614Z</time>
</trkpt>
<trkpt lat="-26.9814917" lon="152.7943230">
<ele>140.970</ele>
<time>2016-08-30T23:41:56.336Z</time>
</trkpt>
<trkpt lat="-26.9811061" lon="152.7941056">
<ele>140.159</ele>
<time>2016-08-30T23:41:58.168Z</time>
</trkpt>
<trkpt lat="-26.9807028" lon="152.7938598">
<ele>139.485</ele>
<time>2016-08-30T23:42:00.108Z</time>
</trkpt>
<trkpt lat="-26.9802946" lon="152.7935803">
<ele>139.192</ele>
<time>2016-08-30T23:42:02.209Z</time>
</trkpt>
<trkpt lat="-26.9796778" lon="152.7931610">
<ele>139.721</ele>
<time>2016-08-30T23:42:05.564Z</time>
</trkpt>
<trkpt lat="-26.9793052" lon="152.7929032">
<ele>141.273</ele>
<time>2016-08-30T23:42:07.635Z</time>
</trkpt>
<trkpt lat="-26.9789473" lon="152.7926479">
<ele>143.130</ele>
<time>2016-08-30T23:42:09.648Z</time>
</trkpt>
<trkpt lat="-26.9785829" lon="152.7923900">
<ele>143.937</ele>
<time>2016-08-30T23:42:11.701Z</time>
</trkpt>
<trkpt lat="-26.9782243" lon="152.7921328">
<ele>143.314</ele>
<time>2016-08-30T23:42:13.722Z</time>
</trkpt>
<trkpt lat="-26.9778710" lon="152.7918965">
<ele>142.402</ele>
<time>2016-08-30T23:42:15.664Z</time>
</trkpt>
<trkpt lat="-26.9773386" lon="152.7915288">
<ele>142.200</ele>
<time>2016-08-30T23:42:18.558Z</time>
</trkpt>
<trkpt lat="-26.9768056" lon="152.7911434">
<ele>142.471</ele>
<time>2016-08-30T23:42:21.458Z</time>
</trkpt>
<trkpt lat="-26.9764380" lon="152.7908813">
<ele>142.666</ele>
<time>2016-08-30T23:42:23.440Z</time>
</trkpt>
<trkpt lat="-26.9758878" lon="152.7904884">
<ele>142.536</ele>
<time>2016-08-30T23:42:26.406Z</time>
</trkpt>
<trkpt lat="-26.9753281" lon="152.7900891">
<ele>142.166</ele>
<time>2016-08-30T23:42:29.442Z</time>
</trkpt>
<trkpt lat="-26.9747699" lon="152.7896899">
<ele>141.518</ele>
<time>2016-08-30T23:42:32.501Z</time>
</trkpt>
<trkpt lat="-26.9743978" lon="152.7894349">
<ele>140.460</ele>
<time>2016-08-30T23:42:34.515Z</time>
</trkpt>
<trkpt lat="-26.9738467" lon="152.7890503">
<ele>139.359</ele>
<time>2016-08-30T23:42:37.512Z</time>
</trkpt>
<trkpt lat="-26.9732941" lon="152.7886758">
<ele>138.714</ele>
<time>2016-08-30T23:42:40.518Z</time>
</trkpt>
<trkpt lat="-26.9729263" lon="152.7884213">
<ele>138.523</ele>
<time>2016-08-30T23:42:42.549Z</time>
</trkpt>
<trkpt lat="-26.9723797" lon="152.7880531">
<ele>138.685</ele>
<time>2016-08-30T23:42:45.551Z</time>
</trkpt>
<trkpt lat="-26.9718458" lon="152.7876636">
<ele>139.092</ele>
<time>2016-08-30T23:42:48.520Z</time>
</trkpt>
<trkpt lat="-26.9714889" lon="152.7874096">
<ele>139.481</ele>
<time>2016-08-30T23:42:50.483Z</time>
</trkpt>
<trkpt lat="-26.9711316" lon="152.7871365">
<ele>139.623</ele>
<time>2016-08-30T23:42:52.496Z</time>
</trkpt>
<trkpt lat="-26.9706057" lon="152.7867193">
<ele>139.551</ele>
<time>2016-08-30T23:42:55.517Z</time>
</trkpt>
<trkpt lat="-26.9702676" lon="152.7864366">
<ele>139.458</ele>
<time>2016-08-30T23:42:57.518Z</time>
</trkpt>
<trkpt lat="-26.9697571" lon="152.7859928">
<ele>139.482</ele>
<time>2016-08-30T23:43:00.646Z</time>
</trkpt>
<trkpt lat="-26.9692643" lon="152.7855525">
<ele>139.554</ele>
<time>2016-08-30T23:43:03.760Z</time>
</trkpt>
<trkpt lat="-26.9689626" lon="152.7852551">
<ele>139.577</ele>
<time>2016-08-30T23:43:05.755Z</time>
</trkpt>
<trkpt lat="-26.9686341" lon="152.7849839">
<ele>139.631</ele>
<time>2016-08-30T23:43:07.779Z</time>
</trkpt>
<trkpt lat="-26.9681747" lon="152.7845699">
<ele>139.792</ele>
<time>2016-08-30T23:43:10.652Z</time>
</trkpt>
<trkpt lat="-26.9677053" lon="152.7841509">
<ele>139.968</ele>
<time>2016-08-30T23:43:13.533Z</time>
</trkpt>
<trkpt lat="-26.9672078" lon="152.7837193">
<ele>139.884</ele>
<time>2016-08-30T23:43:16.494Z</time>
</trkpt>
<trkpt lat="-26.9667084" lon="152.7832921">
<ele>139.363</ele>
<time>2016-08-30T23:43:19.440Z</time>
</trkpt>
<trkpt lat="-26.9662123" lon="152.7828639">
<ele>138.166</ele>
<time>2016-08-30T23:43:22.513Z</time>
</trkpt>
<trkpt lat="-26.9656849" lon="152.7824569">
<ele>136.099</ele>
<time>2016-08-30T23:43:25.935Z</time>
</trkpt>
<trkpt lat="-26.9653410" lon="152.7822391">
<ele>133.297</ele>
<time>2016-08-30T23:43:28.311Z</time>
</trkpt>
<trkpt lat="-26.9648470" lon="152.7819399">
<ele>129.802</ele>
<time>2016-08-30T23:43:32.103Z</time>
</trkpt>
<trkpt lat="-26.9645464" lon="152.7817614">
<ele>125.730</ele>
<time>2016-08-30T23:43:34.688Z</time>
</trkpt>
<trkpt lat="-26.9641494" lon="152.7815261">
<ele>122.017</ele>
<time>2016-08-30T23:43:38.110Z</time>
</trkpt>
<trkpt lat="-26.9639126" lon="152.7813923">
<ele>119.331</ele>
<time>2016-08-30T23:43:40.098Z</time>
</trkpt>
<trkpt lat="-26.9635725" lon="152.7811974">
<ele>117.587</ele>
<time>2016-08-30T23:43:42.982Z</time>
</trkpt>
<trkpt lat="-26.9632251" lon="152.7809893">
<ele>116.695</ele>
<time>2016-08-30T23:43:46.033Z</time>
</trkpt>
<trkpt lat="-26.9629883" lon="152.7808551">
<ele>116.770</ele>
<time>2016-08-30T23:43:48.055Z</time>
</trkpt>
<trkpt lat="-26.9627475" lon="152.7807270">
<ele>117.714</ele>
<time>2016-08-30T23:43:50.038Z</time>
</trkpt>
<trkpt lat="-26.9625207" lon="152.7805995">
<ele>119.030</ele>
<time>2016-08-30T23:43:51.886Z</time>
</trkpt>
<trkpt lat="-26.9622792" lon="152.7804688">
<ele>120.082</ele>
<time>2016-08-30T23:43:53.789Z</time>
</trkpt>
<trkpt lat="-26.9619241" lon="152.7802686">
<ele>120.760</ele>
<time>2016-08-30T23:43:56.587Z</time>
</trkpt>
<trkpt lat="-26.9615513" lon="152.7800542">
<ele>121.454</ele>
<time>2016-08-30T23:43:59.535Z</time>
</trkpt>
<trkpt lat="-26.9613054" lon="152.7799089">
<ele>122.601</ele>
<time>2016-08-30T23:44:01.522Z</time>
</trkpt>
<trkpt lat="-26.9609190" lon="152.7797047">
<ele>124.103</ele>
<time>2016-08-30T23:44:04.648Z</time>
</trkpt>
<trkpt lat="-26.9605174" lon="152.7795380">
<ele>125.416</ele>
<time>2016-08-30T23:44:07.779Z</time>
</trkpt>
<trkpt lat="-26.9602606" lon="152.7794477">
<ele>126.267</ele>
<time>2016-08-30T23:44:09.704Z</time>
</trkpt>
<trkpt lat="-26.9600021" lon="152.7793647">
<ele>126.789</ele>
<time>2016-08-30T23:44:11.577Z</time>
</trkpt>
<trkpt lat="-26.9597383" lon="152.7793031">
<ele>127.112</ele>
<time>2016-08-30T23:44:13.413Z</time>
</trkpt>
<trkpt lat="-26.9593370" lon="152.7791833">
<ele>127.331</ele>
<time>2016-08-30T23:44:16.272Z</time>
</trkpt>
<trkpt lat="-26.9589031" lon="152.7790786">
<ele>127.782</ele>
<time>2016-08-30T23:44:19.474Z</time>
</trkpt>
<trkpt lat="-26.9586125" lon="152.7789996">
<ele>128.686</ele>
<time>2016-08-30T23:44:21.698Z</time>
</trkpt>
<trkpt lat="-26.9582054" lon="152.7788821">
<ele>129.653</ele>
<time>2016-08-30T23:44:24.798Z</time>
</trkpt>
<trkpt lat="-26.9579514" lon="152.7788172">
<ele>130.121</ele>
<time>2016-08-30T23:44:26.705Z</time>
</trkpt>
<trkpt lat="-26.9575650" lon="152.7787116">
<ele>130.062</ele>
<time>2016-08-30T23:44:29.632Z</time>
</trkpt>
<trkpt lat="-26.9571681" lon="152.7785927">
<ele>129.805</ele>
<time>2016-08-30T23:44:32.690Z</time>
</trkpt>
<trkpt lat="-26.9569034" lon="152.7785179">
<ele>129.821</ele>
<time>2016-08-30T23:44:34.727Z</time>
</trkpt>
<trkpt lat="-26.9566322" lon="152.7784449">
<ele>130.343</ele>
<time>2016-08-30T23:44:36.795Z</time>
</trkpt>
<trkpt lat="-26.9562451" lon="152.7783562">
<ele>131.062</ele>
<time>2016-08-30T23:44:39.608Z</time>
</trkpt>
<trkpt lat="-26.9559860" lon="152.7782804">
<ele>131.521</ele>
<time>2016-08-30T23:44:41.447Z</time>
</trkpt>
<trkpt lat="-26.9555941" lon="152.7781747">
<ele>131.649</ele>
<time>2016-08-30T23:44:44.236Z</time>
</trkpt>
<trkpt lat="-26.9551731" lon="152.7780469">
<ele>131.608</ele>
<time>2016-08-30T23:44:47.447Z</time>
</trkpt>
<trkpt lat="-26.9548802" lon="152.7779476">
<ele>131.616</ele>
<time>2016-08-30T23:44:49.733Z</time>
</trkpt>
<trkpt lat="-26.9546119" lon="152.7778581">
<ele>131.665</ele>
<time>2016-08-30T23:44:51.814Z</time>
</trkpt>
<trkpt lat="-26.9543534" lon="152.7777711">
<ele>131.521</ele>
<time>2016-08-30T23:44:53.795Z</time>
</trkpt>
<trkpt lat="-26.9541081" lon="152.7776839">
<ele>130.941</ele>
<time>2016-08-30T23:44:55.655Z</time>
</trkpt>
<trkpt lat="-26.9537271" lon="152.7775582">
<ele>130.024</ele>
<time>2016-08-30T23:44:58.481Z</time>
</trkpt>
<trkpt lat="-26.9534706" lon="152.7774796">
<ele>129.340</ele>
<time>2016-08-30T23:45:00.336Z</time>
</trkpt>
<trkpt lat="-26.9532035" lon="152.7774009">
<ele>129.260</ele>
<time>2016-08-30T23:45:02.227Z</time>
</trkpt>
<trkpt lat="-26.9528002" lon="152.7772678">
<ele>129.393</ele>
<time>2016-08-30T23:45:05.039Z</time>
</trkpt>
<trkpt lat="-26.9525328" lon="152.7771725">
<ele>129.201</ele>
<time>2016-08-30T23:45:06.905Z</time>
</trkpt>
<trkpt lat="-26.9522585" lon="152.7770657">
<ele>128.611</ele>
<time>2016-08-30T23:45:08.883Z</time>
</trkpt>
<trkpt lat="-26.9518299" lon="152.7769225">
<ele>127.856</ele>
<time>2016-08-30T23:45:11.988Z</time>
</trkpt>
<trkpt lat="-26.9515366" lon="152.7768373">
<ele>126.996</ele>
<time>2016-08-30T23:45:14.101Z</time>
</trkpt>
<trkpt lat="-26.9512583" lon="152.7767688">
<ele>125.956</ele>
<time>2016-08-30T23:45:16.072Z</time>
</trkpt>
<trkpt lat="-26.9509857" lon="152.7766866">
<ele>124.826</ele>
<time>2016-08-30T23:45:18.011Z</time>
</trkpt>
<trkpt lat="-26.9507037" lon="152.7766035">
<ele>123.807</ele>
<time>2016-08-30T23:45:19.950Z</time>
</trkpt>
<trkpt lat="-26.9504284" lon="152.7764956">
<ele>122.867</ele>
<time>2016-08-30T23:45:21.888Z</time>
</trkpt>
<trkpt lat="-26.9500411" lon="152.7762570">
<ele>121.923</ele>
<time>2016-08-30T23:45:24.866Z</time>
</trkpt>
<trkpt lat="-26.9497084" lon="152.7759090">
<ele>121.115</ele>
<time>2016-08-30T23:45:28.202Z</time>
</trkpt>
<trkpt lat="-26.9494114" lon="152.7755280">
<ele>120.489</ele>
<time>2016-08-30T23:45:31.720Z</time>
</trkpt>
<trkpt lat="-26.9492237" lon="152.7753063">
<ele>119.795</ele>
<time>2016-08-30T23:45:33.753Z</time>
</trkpt>
<trkpt lat="-26.9490487" lon="152.7750798">
<ele>118.758</ele>
<time>2016-08-30T23:45:35.654Z</time>
</trkpt>
<trkpt lat="-26.9487871" lon="152.7747783">
<ele>117.393</ele>
<time>2016-08-30T23:45:38.190Z</time>
</trkpt>
<trkpt lat="-26.9486094" lon="152.7745548">
<ele>116.143</ele>
<time>2016-08-30T23:45:39.945Z</time>
</trkpt>
<trkpt lat="-26.9483224" lon="152.7741832">
<ele>115.431</ele>
<time>2016-08-30T23:45:42.769Z</time>
</trkpt>
<trkpt lat="-26.9481149" lon="152.7739513">
<ele>115.244</ele>
<time>2016-08-30T23:45:44.542Z</time>
</trkpt>
<trkpt lat="-26.9477800" lon="152.7736000">
<ele>115.370</ele>
<time>2016-08-30T23:45:47.116Z</time>
</trkpt>
<trkpt lat="-26.9475394" lon="152.7733669">
<ele>115.638</ele>
<time>2016-08-30T23:45:48.808Z</time>
</trkpt>
<trkpt lat="-26.9472674" lon="152.7731234">
<ele>115.866</ele>
<time>2016-08-30T23:45:50.560Z</time>
</trkpt>
<trkpt lat="-26.9468269" lon="152.7727593">
<ele>116.161</ele>
<time>2016-08-30T23:45:53.235Z</time>
</trkpt>
<trkpt lat="-26.9464890" lon="152.7725094">
<ele>116.896</ele>
<time>2016-08-30T23:45:55.205Z</time>
</trkpt>
<trkpt lat="-26.9459797" lon="152.7721170">
<ele>118.063</ele>
<time>2016-08-30T23:45:58.240Z</time>
</trkpt>
<trkpt lat="-26.9456231" lon="152.7718680">
<ele>119.139</ele>
<time>2016-08-30T23:46:00.351Z</time>
</trkpt>
<trkpt lat="-26.9451205" lon="152.7714813">
<ele>119.717</ele>
<time>2016-08-30T23:46:03.463Z</time>
</trkpt>
<trkpt lat="-26.9446357" lon="152.7711088">
<ele>119.769</ele>
<time>2016-08-30T23:46:06.454Z</time>
</trkpt>
<trkpt lat="-26.9441598" lon="152.7707328">
<ele>119.503</ele>
<time>2016-08-30T23:46:09.372Z</time>
</trkpt>
<trkpt lat="-26.9437101" lon="152.7703214">
<ele>119.209</ele>
<time>2016-08-30T23:46:12.270Z</time>
</trkpt>
<trkpt lat="-26.9432399" lon="152.7698849">
<ele>119.440</ele>
<time>2016-08-30T23:46:15.389Z</time>
</trkpt>
<trkpt lat="-26.9429550" lon="152.7695869">
<ele>120.528</ele>
<time>2016-08-30T23:46:17.430Z</time>
</trkpt>
<trkpt lat="-26.9426742" lon="152.7692813">
<ele>121.889</ele>
<time>2016-08-30T23:46:19.543Z</time>
</trkpt>
<trkpt lat="-26.9422829" lon="152.7688265">
<ele>122.609</ele>
<time>2016-08-30T23:46:22.690Z</time>
</trkpt>
<trkpt lat="-26.9419230" lon="152.7683546">
<ele>122.550</ele>
<time>2016-08-30T23:46:25.939Z</time>
</trkpt>
<trkpt lat="-26.9416968" lon="152.7680486">
<ele>122.143</ele>
<time>2016-08-30T23:46:28.050Z</time>
</trkpt>
<trkpt lat="-26.9415067" lon="152.7677435">
<ele>121.803</ele>
<time>2016-08-30T23:46:29.999Z</time>
</trkpt>
<trkpt lat="-26.9412122" lon="152.7672759">
<ele>121.677</ele>
<time>2016-08-30T23:46:32.836Z</time>
</trkpt>
<trkpt lat="-26.9410435" lon="152.7669674">
<ele>122.005</ele>
<time>2016-08-30T23:46:34.532Z</time>
</trkpt>
<trkpt lat="-26.9408513" lon="152.7666470">
<ele>122.976</ele>
<time>2016-08-30T23:46:36.282Z</time>
</trkpt>
<trkpt lat="-26.9405148" lon="152.7660971">
<ele>124.189</ele>
<time>2016-08-30T23:46:39.286Z</time>
</trkpt>
<trkpt lat="-26.9402974" lon="152.7657411">
<ele>125.201</ele>
<time>2016-08-30T23:46:41.220Z</time>
</trkpt>
<trkpt lat="-26.9400866" lon="152.7653702">
<ele>126.002</ele>
<time>2016-08-30T23:46:43.186Z</time>
</trkpt>
<trkpt lat="-26.9398613" lon="152.7650051">
<ele>126.486</ele>
<time>2016-08-30T23:46:45.131Z</time>
</trkpt>
<trkpt lat="-26.9395291" lon="152.7644573">
<ele>126.512</ele>
<time>2016-08-30T23:46:47.949Z</time>
</trkpt>
<trkpt lat="-26.9391352" lon="152.7639360">
<ele>125.861</ele>
<time>2016-08-30T23:46:50.737Z</time>
</trkpt>
<trkpt lat="-26.9386276" lon="152.7634906">
<ele>124.535</ele>
<time>2016-08-30T23:46:53.585Z</time>
</trkpt>
<trkpt lat="-26.9380371" lon="152.7631143">
<ele>122.964</ele>
<time>2016-08-30T23:46:56.520Z</time>
</trkpt>
<trkpt lat="-26.9376210" lon="152.7628550">
<ele>121.174</ele>
<time>2016-08-30T23:46:58.563Z</time>
</trkpt>
<trkpt lat="-26.9370044" lon="152.7624871">
<ele>119.084</ele>
<time>2016-08-30T23:47:01.591Z</time>
</trkpt>
<trkpt lat="-26.9364002" lon="152.7621032">
<ele>115.253</ele>
<time>2016-08-30T23:47:04.759Z</time>
</trkpt>
<trkpt lat="-26.9360175" lon="152.7618507">
<ele>108.920</ele>
<time>2016-08-30T23:47:06.863Z</time>
</trkpt>
<trkpt lat="-26.9354786" lon="152.7614707">
<ele>103.094</ele>
<time>2016-08-30T23:47:09.933Z</time>
</trkpt>
<trkpt lat="-26.9351318" lon="152.7612030">
<ele>100.551</ele>
<time>2016-08-30T23:47:11.983Z</time>
</trkpt>
<trkpt lat="-26.9346320" lon="152.7608160">
<ele>101.737</ele>
<time>2016-08-30T23:47:15.028Z</time>
</trkpt>
<trkpt lat="-26.9343090" lon="152.7605302">
<ele>105.857</ele>
<time>2016-08-30T23:47:17.145Z</time>
</trkpt>
<trkpt lat="-26.9339997" lon="152.7602467">
<ele>109.957</ele>
<time>2016-08-30T23:47:19.240Z</time>
</trkpt>
<trkpt lat="-26.9335630" lon="152.7598400">
<ele>111.890</ele>
<time>2016-08-30T23:47:22.200Z</time>
</trkpt>
<trkpt lat="-26.9331551" lon="152.7594127">
<ele>112.176</ele>
<time>2016-08-30T23:47:25.094Z</time>
</trkpt>
<trkpt lat="-26.9328645" lon="152.7591194">
<ele>111.880</ele>
<time>2016-08-30T23:47:27.112Z</time>
</trkpt>
<trkpt lat="-26.9325917" lon="152.7588231">
<ele>111.755</ele>
<time>2016-08-30T23:47:29.028Z</time>
</trkpt>
<trkpt lat="-26.9321842" lon="152.7583625">
<ele>111.989</ele>
<time>2016-08-30T23:47:31.853Z</time>
</trkpt>
<trkpt lat="-26.9319147" lon="152.7580326">
<ele>112.464</ele>
<time>2016-08-30T23:47:33.707Z</time>
</trkpt>
<trkpt lat="-26.9316534" lon="152.7576875">
<ele>113.167</ele>
<time>2016-08-30T23:47:35.485Z</time>
</trkpt>
<trkpt lat="-26.9313740" lon="152.7573226">
<ele>114.013</ele>
<time>2016-08-30T23:47:37.238Z</time>
</trkpt>
<trkpt lat="-26.9309303" lon="152.7566956">
<ele>114.766</ele>
<time>2016-08-30T23:47:40.035Z</time>
</trkpt>
<trkpt lat="-26.9306082" lon="152.7562316">
<ele>115.302</ele>
<time>2016-08-30T23:47:42.116Z</time>
</trkpt>
<trkpt lat="-26.9301631" lon="152.7555418">
<ele>114.808</ele>
<time>2016-08-30T23:47:45.209Z</time>
</trkpt>
<trkpt lat="-26.9298869" lon="152.7550863">
<ele>112.855</ele>
<time>2016-08-30T23:47:47.223Z</time>
</trkpt>
<trkpt lat="-26.9295036" lon="152.7543907">
<ele>110.787</ele>
<time>2016-08-30T23:47:50.190Z</time>
</trkpt>
<trkpt lat="-26.9291432" lon="152.7536726">
<ele>109.862</ele>
<time>2016-08-30T23:47:53.143Z</time>
</trkpt>
<trkpt lat="-26.9289097" lon="152.7531711">
<ele>110.048</ele>
<time>2016-08-30T23:47:55.166Z</time>
</trkpt>
<trkpt lat="-26.9285885" lon="152.7524237">
<ele>110.910</ele>
<time>2016-08-30T23:47:58.045Z</time>
</trkpt>
<trkpt lat="-26.9283936" lon="152.7519123">
<ele>111.797</ele>
<time>2016-08-30T23:47:59.893Z</time>
</trkpt>
<trkpt lat="-26.9281856" lon="152.7513580">
<ele>112.299</ele>
<time>2016-08-30T23:48:01.900Z</time>
</trkpt>
<trkpt lat="-26.9279787" lon="152.7507965">
<ele>112.592</ele>
<time>2016-08-30T23:48:03.937Z</time>
</trkpt>
<trkpt lat="-26.9276767" lon="152.7499671">
<ele>112.909</ele>
<time>2016-08-30T23:48:06.950Z</time>
</trkpt>
<trkpt lat="-26.9273643" lon="152.7491615">
<ele>114.634</ele>
<time>2016-08-30T23:48:09.888Z</time>
</trkpt>
<trkpt lat="-26.9271450" lon="152.7486096">
<ele>118.538</ele>
<time>2016-08-30T23:48:11.917Z</time>
</trkpt>
<trkpt lat="-26.9268349" lon="152.7477891">
<ele>122.447</ele>
<time>2016-08-30T23:48:14.911Z</time>
</trkpt>
<trkpt lat="-26.9265385" lon="152.7469866">
<ele>124.134</ele>
<time>2016-08-30T23:48:17.782Z</time>
</trkpt>
<trkpt lat="-26.9262218" lon="152.7461413">
<ele>123.949</ele>
<time>2016-08-30T23:48:20.782Z</time>
</trkpt>
<trkpt lat="-26.9260111" lon="152.7455826">
<ele>123.032</ele>
<time>2016-08-30T23:48:22.757Z</time>
</trkpt>
<trkpt lat="-26.9258020" lon="152.7450211">
<ele>122.267</ele>
<time>2016-08-30T23:48:24.732Z</time>
</trkpt>
<trkpt lat="-26.9254840" lon="152.7441646">
<ele>121.654</ele>
<time>2016-08-30T23:48:27.761Z</time>
</trkpt>
<trkpt lat="-26.9252721" lon="152.7435969">
<ele>120.868</ele>
<time>2016-08-30T23:48:29.818Z</time>
</trkpt>
<trkpt lat="-26.9249602" lon="152.7427586">
<ele>120.097</ele>
<time>2016-08-30T23:48:32.951Z</time>
</trkpt>
<trkpt lat="-26.9246662" lon="152.7419996">
<ele>119.837</ele>
<time>2016-08-30T23:48:35.830Z</time>
</trkpt>
<trkpt lat="-26.9243683" lon="152.7412097">
<ele>120.202</ele>
<time>2016-08-30T23:48:38.776Z</time>
</trkpt>
<trkpt lat="-26.9241022" lon="152.7403906">
<ele>121.245</ele>
<time>2016-08-30T23:48:41.756Z</time>
</trkpt>
<trkpt lat="-26.9239441" lon="152.7398371">
<ele>123.244</ele>
<time>2016-08-30T23:48:43.730Z</time>
</trkpt>
<trkpt lat="-26.9237606" lon="152.7389905">
<ele>125.722</ele>
<time>2016-08-30T23:48:46.641Z</time>
</trkpt>
<trkpt lat="-26.9236494" lon="152.7384145">
<ele>127.474</ele>
<time>2016-08-30T23:48:48.594Z</time>
</trkpt>
<trkpt lat="-26.9235644" lon="152.7378178">
<ele>128.111</ele>
<time>2016-08-30T23:48:50.599Z</time>
</trkpt>
<trkpt lat="-26.9234966" lon="152.7372332">
<ele>128.195</ele>
<time>2016-08-30T23:48:52.546Z</time>
</trkpt>
<trkpt lat="-26.9234603" lon="152.7363291">
<ele>128.233</ele>
<time>2016-08-30T23:48:55.452Z</time>
</trkpt>
<trkpt lat="-26.9234498" lon="152.7357149">
<ele>128.242</ele>
<time>2016-08-30T23:48:57.366Z</time>
</trkpt>
<trkpt lat="-26.9234522" lon="152.7350637">
<ele>128.096</ele>
<time>2016-08-30T23:48:59.390Z</time>
</trkpt>
<trkpt lat="-26.9234062" lon="152.7340911">
<ele>128.204</ele>
<time>2016-08-30T23:49:02.466Z</time>
</trkpt>
<trkpt lat="-26.9233311" lon="152.7334733">
<ele>128.914</ele>
<time>2016-08-30T23:49:04.436Z</time>
</trkpt>
<trkpt lat="-26.9232474" lon="152.7328399">
<ele>129.852</ele>
<time>2016-08-30T23:49:06.456Z</time>
</trkpt>
<trkpt lat="-26.9231438" lon="152.7319017">
<ele>130.621</ele>
<time>2016-08-30T23:49:09.424Z</time>
</trkpt>
<trkpt lat="-26.9230694" lon="152.7312812">
<ele>131.348</ele>
<time>2016-08-30T23:49:11.366Z</time>
</trkpt>
<trkpt lat="-26.9230301" lon="152.7306509">
<ele>132.464</ele>
<time>2016-08-30T23:49:13.307Z</time>
</trkpt>
<trkpt lat="-26.9230297" lon="152.7300084">
<ele>133.987</ele>
<time>2016-08-30T23:49:15.266Z</time>
</trkpt>
<trkpt lat="-26.9230756" lon="152.7290125">
<ele>135.235</ele>
<time>2016-08-30T23:49:18.302Z</time>
</trkpt>
<trkpt lat="-26.9231303" lon="152.7280468">
<ele>135.818</ele>
<time>2016-08-30T23:49:21.319Z</time>
</trkpt>
<trkpt lat="-26.9231987" lon="152.7271047">
<ele>135.980</ele>
<time>2016-08-30T23:49:24.359Z</time>
</trkpt>
<trkpt lat="-26.9232446" lon="152.7264889">
<ele>135.602</ele>
<time>2016-08-30T23:49:26.376Z</time>
</trkpt>
<trkpt lat="-26.9232948" lon="152.7255866">
<ele>134.394</ele>
<time>2016-08-30T23:49:29.397Z</time>
</trkpt>
<trkpt lat="-26.9233367" lon="152.7249900">
<ele>132.563</ele>
<time>2016-08-30T23:49:31.406Z</time>
</trkpt>
<trkpt lat="-26.9234525" lon="152.7241150">
<ele>130.672</ele>
<time>2016-08-30T23:49:34.392Z</time>
</trkpt>
<trkpt lat="-26.9235615" lon="152.7235264">
<ele>129.214</ele>
<time>2016-08-30T23:49:36.432Z</time>
</trkpt>
<trkpt lat="-26.9236846" lon="152.7229569">
<ele>128.185</ele>
<time>2016-08-30T23:49:38.449Z</time>
</trkpt>
<trkpt lat="-26.9238469" lon="152.7223952">
<ele>127.248</ele>
<time>2016-08-30T23:49:40.510Z</time>
</trkpt>
<trkpt lat="-26.9241031" lon="152.7215966">
<ele>126.407</ele>
<time>2016-08-30T23:49:43.604Z</time>
</trkpt>
<trkpt lat="-26.9242907" lon="152.7210973">
<ele>125.605</ele>
<time>2016-08-30T23:49:45.642Z</time>
</trkpt>
<trkpt lat="-26.9245616" lon="152.7203806">
<ele>124.411</ele>
<time>2016-08-30T23:49:48.711Z</time>
</trkpt>
<trkpt lat="-26.9247380" lon="152.7199128">
<ele>122.784</ele>
<time>2016-08-30T23:49:50.754Z</time>
</trkpt>
<trkpt lat="-26.9249148" lon="152.7194567">
<ele>120.973</ele>
<time>2016-08-30T23:49:52.751Z</time>
</trkpt>
<trkpt lat="-26.9251741" lon="152.7187954">
<ele>118.868</ele>
<time>2016-08-30T23:49:55.633Z</time>
</trkpt>
<trkpt lat="-26.9254353" lon="152.7181001">
<ele>116.460</ele>
<time>2016-08-30T23:49:58.609Z</time>
</trkpt>
<trkpt lat="-26.9256131" lon="152.7176440">
<ele>113.846</ele>
<time>2016-08-30T23:50:00.594Z</time>
</trkpt>
<trkpt lat="-26.9257730" lon="152.7171876">
<ele>111.050</ele>
<time>2016-08-30T23:50:02.561Z</time>
</trkpt>
<trkpt lat="-26.9259928" lon="152.7164976">
<ele>108.091</ele>
<time>2016-08-30T23:50:05.533Z</time>
</trkpt>
<trkpt lat="-26.9261163" lon="152.7160209">
<ele>105.004</ele>
<time>2016-08-30T23:50:07.551Z</time>
</trkpt>
<trkpt lat="-26.9262946" lon="152.7153076">
<ele>102.244</ele>
<time>2016-08-30T23:50:10.545Z</time>
</trkpt>
<trkpt lat="-26.9263854" lon="152.7148339">
<ele>100.568</ele>
<time>2016-08-30T23:50:12.468Z</time>
</trkpt>
<trkpt lat="-26.9265460" lon="152.7140960">
<ele>100.093</ele>
<time>2016-08-30T23:50:15.424Z</time>
</trkpt>
<trkpt lat="-26.9267052" lon="152.7133280">
<ele>100.369</ele>
<time>2016-08-30T23:50:18.507Z</time>
</trkpt>
<trkpt lat="-26.9268626" lon="152.7125929">
<ele>100.800</ele>
<time>2016-08-30T23:50:21.502Z</time>
</trkpt>
<trkpt lat="-26.9270183" lon="152.7118629">
<ele>101.016</ele>
<time>2016-08-30T23:50:24.486Z</time>
</trkpt>
<trkpt lat="-26.9271175" lon="152.7113751">
<ele>100.994</ele>
<time>2016-08-30T23:50:26.481Z</time>
</trkpt>
<trkpt lat="-26.9272912" lon="152.7106482">
<ele>100.884</ele>
<time>2016-08-30T23:50:29.481Z</time>
</trkpt>
<trkpt lat="-26.9274206" lon="152.7101603">
<ele>100.925</ele>
<time>2016-08-30T23:50:31.525Z</time>
</trkpt>
<trkpt lat="-26.9275482" lon="152.7096806">
<ele>101.337</ele>
<time>2016-08-30T23:50:33.548Z</time>
</trkpt>
<trkpt lat="-26.9277279" lon="152.7089790">
<ele>102.039</ele>
<time>2016-08-30T23:50:36.539Z</time>
</trkpt>
<trkpt lat="-26.9278655" lon="152.7085152">
<ele>102.918</ele>
<time>2016-08-30T23:50:38.553Z</time>
</trkpt>
<trkpt lat="-26.9280446" lon="152.7078205">
<ele>104.269</ele>
<time>2016-08-30T23:50:41.562Z</time>
</trkpt>
<trkpt lat="-26.9282229" lon="152.7071279">
<ele>106.457</ele>
<time>2016-08-30T23:50:44.588Z</time>
</trkpt>
<trkpt lat="-26.9283352" lon="152.7066860">
<ele>109.407</ele>
<time>2016-08-30T23:50:46.508Z</time>
</trkpt>
<trkpt lat="-26.9285118" lon="152.7059916">
<ele>112.573</ele>
<time>2016-08-30T23:50:49.502Z</time>
</trkpt>
<trkpt lat="-26.9286234" lon="152.7055293">
<ele>115.466</ele>
<time>2016-08-30T23:50:51.497Z</time>
</trkpt>
<trkpt lat="-26.9288025" lon="152.7048455">
<ele>117.923</ele>
<time>2016-08-30T23:50:54.535Z</time>
</trkpt>
<trkpt lat="-26.9289158" lon="152.7043934">
<ele>119.794</ele>
<time>2016-08-30T23:50:56.558Z</time>
</trkpt>
<trkpt lat="-26.9290372" lon="152.7039541">
<ele>121.055</ele>
<time>2016-08-30T23:50:58.544Z</time>
</trkpt>
<trkpt lat="-26.9291617" lon="152.7035212">
<ele>121.897</ele>
<time>2016-08-30T23:51:00.508Z</time>
</trkpt>
<trkpt lat="-26.9293808" lon="152.7028986">
<ele>122.347</ele>
<time>2016-08-30T23:51:03.389Z</time>
</trkpt>
<trkpt lat="-26.9297047" lon="152.7022814">
<ele>122.366</ele>
<time>2016-08-30T23:51:06.469Z</time>
</trkpt>
<trkpt lat="-26.9300715" lon="152.7017155">
<ele>121.955</ele>
<time>2016-08-30T23:51:09.520Z</time>
</trkpt>
<trkpt lat="-26.9303407" lon="152.7013710">
<ele>120.851</ele>
<time>2016-08-30T23:51:11.543Z</time>
</trkpt>
<trkpt lat="-26.9307787" lon="152.7009136">
<ele>118.921</ele>
<time>2016-08-30T23:51:14.488Z</time>
</trkpt>
<trkpt lat="-26.9310668" lon="152.7006131">
<ele>116.415</ele>
<time>2016-08-30T23:51:16.380Z</time>
</trkpt>
<trkpt lat="-26.9315247" lon="152.7001118">
<ele>113.740</ele>
<time>2016-08-30T23:51:19.404Z</time>
</trkpt>
<trkpt lat="-26.9319388" lon="152.6995835">
<ele>111.453</ele>
<time>2016-08-30T23:51:22.399Z</time>
</trkpt>
<trkpt lat="-26.9321701" lon="152.6992049">
<ele>109.723</ele>
<time>2016-08-30T23:51:24.314Z</time>
</trkpt>
<trkpt lat="-26.9324744" lon="152.6985873">
<ele>108.064</ele>
<time>2016-08-30T23:51:27.048Z</time>
</trkpt>
<trkpt lat="-26.9327442" lon="152.6978555">
<ele>106.470</ele>
<time>2016-08-30T23:51:29.723Z</time>
</trkpt>
<trkpt lat="-26.9328912" lon="152.6972844">
<ele>105.613</ele>
<time>2016-08-30T23:51:31.592Z</time>
</trkpt>
<trkpt lat="-26.9331383" lon="152.6963026">
<ele>105.926</ele>
<time>2016-08-30T23:51:34.744Z</time>
</trkpt>
<trkpt lat="-26.9333606" lon="152.6953918">
<ele>106.986</ele>
<time>2016-08-30T23:51:37.953Z</time>
</trkpt>
<trkpt lat="-26.9335811" lon="152.6945928">
<ele>107.579</ele>
<time>2016-08-30T23:51:41.373Z</time>
</trkpt>
<trkpt lat="-26.9336977" lon="152.6941457">
<ele>106.091</ele>
<time>2016-08-30T23:51:43.535Z</time>
</trkpt>
<trkpt lat="-26.9338029" lon="152.6937283">
<ele>102.028</ele>
<time>2016-08-30T23:51:45.662Z</time>
</trkpt>
<trkpt lat="-26.9339285" lon="152.6931631">
<ele>97.250</ele>
<time>2016-08-30T23:51:48.712Z</time>
</trkpt>
<trkpt lat="-26.9340505" lon="152.6926275">
<ele>94.016</ele>
<time>2016-08-30T23:51:51.546Z</time>
</trkpt>
<trkpt lat="-26.9341417" lon="152.6920419">
<ele>92.694</ele>
<time>2016-08-30T23:51:54.339Z</time>
</trkpt>
<trkpt lat="-26.9341862" lon="152.6913608">
<ele>92.755</ele>
<time>2016-08-30T23:51:57.372Z</time>
</trkpt>
<trkpt lat="-26.9341650" lon="152.6906728">
<ele>94.074</ele>
<time>2016-08-30T23:52:00.471Z</time>
</trkpt>
<trkpt lat="-26.9340747" lon="152.6900300">
<ele>96.106</ele>
<time>2016-08-30T23:52:03.415Z</time>
</trkpt>
<trkpt lat="-26.9339540" lon="152.6893937">
<ele>97.470</ele>
<time>2016-08-30T23:52:06.049Z</time>
</trkpt>
<trkpt lat="-26.9338536" lon="152.6889120">
<ele>97.494</ele>
<time>2016-08-30T23:52:07.782Z</time>
</trkpt>
<trkpt lat="-26.9337205" lon="152.6883328">
<ele>97.200</ele>
<time>2016-08-30T23:52:09.733Z</time>
</trkpt>
<trkpt lat="-26.9335109" lon="152.6873119">
<ele>98.381</ele>
<time>2016-08-30T23:52:12.841Z</time>
</trkpt>
<trkpt lat="-26.9333585" lon="152.6865583">
<ele>101.222</ele>
<time>2016-08-30T23:52:14.992Z</time>
</trkpt>
<trkpt lat="-26.9332029" lon="152.6857993">
<ele>102.500</ele>
<time>2016-08-30T23:52:17.142Z</time>
</trkpt>
<trkpt lat="-26.9329998" lon="152.6847414">
<ele>100.117</ele>
<time>2016-08-30T23:52:20.536Z</time>
</trkpt>
<trkpt lat="-26.9329103" lon="152.6841259">
<ele>97.540</ele>
<time>2016-08-30T23:52:22.731Z</time>
</trkpt>
<trkpt lat="-26.9328623" lon="152.6833207">
<ele>98.793</ele>
<time>2016-08-30T23:52:25.850Z</time>
</trkpt>
<trkpt lat="-26.9328795" lon="152.6828119">
<ele>102.929</ele>
<time>2016-08-30T23:52:27.844Z</time>
</trkpt>
<trkpt lat="-26.9329780" lon="152.6820779">
<ele>106.797</ele>
<time>2016-08-30T23:52:30.736Z</time>
</trkpt>
<trkpt lat="-26.9331435" lon="152.6813251">
<ele>109.151</ele>
<time>2016-08-30T23:52:33.753Z</time>
</trkpt>
<trkpt lat="-26.9332613" lon="152.6808238">
<ele>110.847</ele>
<time>2016-08-30T23:52:35.781Z</time>
</trkpt>
<trkpt lat="-26.9334318" lon="152.6800951">
<ele>112.519</ele>
<time>2016-08-30T23:52:38.700Z</time>
</trkpt>
<trkpt lat="-26.9335456" lon="152.6796076">
<ele>113.699</ele>
<time>2016-08-30T23:52:40.605Z</time>
</trkpt>
<trkpt lat="-26.9336537" lon="152.6791026">
<ele>113.971</ele>
<time>2016-08-30T23:52:42.546Z</time>
</trkpt>
<trkpt lat="-26.9338125" lon="152.6783129">
<ele>113.586</ele>
<time>2016-08-30T23:52:45.503Z</time>
</trkpt>
<trkpt lat="-26.9338948" lon="152.6775101">
<ele>112.700</ele>
<time>2016-08-30T23:52:48.321Z</time>
</trkpt>
<trkpt lat="-26.9339316" lon="152.6769447">
<ele>111.219</ele>
<time>2016-08-30T23:52:50.259Z</time>
</trkpt>
<trkpt lat="-26.9339695" lon="152.6760740">
<ele>109.285</ele>
<time>2016-08-30T23:52:53.195Z</time>
</trkpt>
<trkpt lat="-26.9339923" lon="152.6751938">
<ele>106.631</ele>
<time>2016-08-30T23:52:56.179Z</time>
</trkpt>
<trkpt lat="-26.9340085" lon="152.6746080">
<ele>103.018</ele>
<time>2016-08-30T23:52:58.201Z</time>
</trkpt>
<trkpt lat="-26.9340205" lon="152.6740278">
<ele>99.456</ele>
<time>2016-08-30T23:53:00.222Z</time>
</trkpt>
<trkpt lat="-26.9340408" lon="152.6734493">
<ele>97.102</ele>
<time>2016-08-30T23:53:02.249Z</time>
</trkpt>
<trkpt lat="-26.9340662" lon="152.6725831">
<ele>95.901</ele>
<time>2016-08-30T23:53:05.371Z</time>
</trkpt>
<trkpt lat="-26.9340956" lon="152.6720175">
<ele>95.403</ele>
<time>2016-08-30T23:53:07.463Z</time>
</trkpt>
<trkpt lat="-26.9341039" lon="152.6712210">
<ele>95.036</ele>
<time>2016-08-30T23:53:10.480Z</time>
</trkpt>
<trkpt lat="-26.9341307" lon="152.6707061">
<ele>94.418</ele>
<time>2016-08-30T23:53:12.430Z</time>
</trkpt>
<trkpt lat="-26.9341492" lon="152.6699171">
<ele>93.739</ele>
<time>2016-08-30T23:53:15.393Z</time>
</trkpt>
<trkpt lat="-26.9341640" lon="152.6691187">
<ele>93.384</ele>
<time>2016-08-30T23:53:18.334Z</time>
</trkpt>
<trkpt lat="-26.9341775" lon="152.6685914">
<ele>93.484</ele>
<time>2016-08-30T23:53:20.181Z</time>
</trkpt>
<trkpt lat="-26.9341978" lon="152.6680233">
<ele>93.965</ele>
<time>2016-08-30T23:53:22.128Z</time>
</trkpt>
<trkpt lat="-26.9342753" lon="152.6671328">
<ele>94.824</ele>
<time>2016-08-30T23:53:25.054Z</time>
</trkpt>
<trkpt lat="-26.9344380" lon="152.6662251">
<ele>96.137</ele>
<time>2016-08-30T23:53:28.072Z</time>
</trkpt>
<trkpt lat="-26.9346534" lon="152.6653592">
<ele>97.516</ele>
<time>2016-08-30T23:53:31.085Z</time>
</trkpt>
<trkpt lat="-26.9348170" lon="152.6647933">
<ele>98.186</ele>
<time>2016-08-30T23:53:33.142Z</time>
</trkpt>
<trkpt lat="-26.9349818" lon="152.6642279">
<ele>97.989</ele>
<time>2016-08-30T23:53:35.250Z</time>
</trkpt>
<trkpt lat="-26.9351148" lon="152.6636978">
<ele>97.577</ele>
<time>2016-08-30T23:53:37.228Z</time>
</trkpt>
<trkpt lat="-26.9353261" lon="152.6629173">
<ele>97.884</ele>
<time>2016-08-30T23:53:40.279Z</time>
</trkpt>
<trkpt lat="-26.9355173" lon="152.6621661">
<ele>99.844</ele>
<time>2016-08-30T23:53:43.288Z</time>
</trkpt>
<trkpt lat="-26.9356519" lon="152.6616792">
<ele>103.588</ele>
<time>2016-08-30T23:53:45.211Z</time>
</trkpt>
<trkpt lat="-26.9357898" lon="152.6611592">
<ele>107.569</ele>
<time>2016-08-30T23:53:47.234Z</time>
</trkpt>
<trkpt lat="-26.9359210" lon="152.6606463">
<ele>110.452</ele>
<time>2016-08-30T23:53:49.219Z</time>
</trkpt>
<trkpt lat="-26.9361113" lon="152.6598848">
<ele>112.546</ele>
<time>2016-08-30T23:53:52.195Z</time>
</trkpt>
<trkpt lat="-26.9362453" lon="152.6593809">
<ele>114.530</ele>
<time>2016-08-30T23:53:54.205Z</time>
</trkpt>
<trkpt lat="-26.9364217" lon="152.6586567">
<ele>116.607</ele>
<time>2016-08-30T23:53:57.120Z</time>
</trkpt>
<trkpt lat="-26.9366154" lon="152.6579136">
<ele>118.485</ele>
<time>2016-08-30T23:54:00.069Z</time>
</trkpt>
<trkpt lat="-26.9368460" lon="152.6571643">
<ele>119.542</ele>
<time>2016-08-30T23:54:02.979Z</time>
</trkpt>
<trkpt lat="-26.9370174" lon="152.6566430">
<ele>119.559</ele>
<time>2016-08-30T23:54:05.020Z</time>
</trkpt>
<trkpt lat="-26.9372846" lon="152.6558697">
<ele>118.813</ele>
<time>2016-08-30T23:54:08.142Z</time>
</trkpt>
<trkpt lat="-26.9375322" lon="152.6551431">
<ele>117.870</ele>
<time>2016-08-30T23:54:11.064Z</time>
</trkpt>
<trkpt lat="-26.9376976" lon="152.6546463">
<ele>117.313</ele>
<time>2016-08-30T23:54:13.049Z</time>
</trkpt>
<trkpt lat="-26.9378661" lon="152.6541396">
<ele>117.354</ele>
<time>2016-08-30T23:54:15.088Z</time>
</trkpt>
<trkpt lat="-26.9381197" lon="152.6534146">
<ele>118.117</ele>
<time>2016-08-30T23:54:18.130Z</time>
</trkpt>
<trkpt lat="-26.9382751" lon="152.6529460">
<ele>119.638</ele>
<time>2016-08-30T23:54:20.083Z</time>
</trkpt>
<trkpt lat="-26.9385241" lon="152.6522327">
<ele>121.587</ele>
<time>2016-08-30T23:54:23.059Z</time>
</trkpt>
<trkpt lat="-26.9387010" lon="152.6517610">
<ele>123.680</ele>
<time>2016-08-30T23:54:25.088Z</time>
</trkpt>
<trkpt lat="-26.9389260" lon="152.6510718">
<ele>125.607</ele>
<time>2016-08-30T23:54:28.019Z</time>
</trkpt>
<trkpt lat="-26.9390896" lon="152.6506093">
<ele>126.703</ele>
<time>2016-08-30T23:54:29.944Z</time>
</trkpt>
<trkpt lat="-26.9392472" lon="152.6501394">
<ele>126.751</ele>
<time>2016-08-30T23:54:31.847Z</time>
</trkpt>
<trkpt lat="-26.9394140" lon="152.6496331">
<ele>126.223</ele>
<time>2016-08-30T23:54:33.851Z</time>
</trkpt>
<trkpt lat="-26.9396026" lon="152.6488520">
<ele>125.606</ele>
<time>2016-08-30T23:54:36.687Z</time>
</trkpt>
<trkpt lat="-26.9396660" lon="152.6482752">
<ele>124.584</ele>
<time>2016-08-30T23:54:38.620Z</time>
</trkpt>
<trkpt lat="-26.9396804" lon="152.6473439">
<ele>122.783</ele>
<time>2016-08-30T23:54:41.617Z</time>
</trkpt>
<trkpt lat="-26.9396669" lon="152.6467236">
<ele>120.550</ele>
<time>2016-08-30T23:54:43.613Z</time>
</trkpt>
<trkpt lat="-26.9396541" lon="152.6458006">
<ele>118.109</ele>
<time>2016-08-30T23:54:46.658Z</time>
</trkpt>
<trkpt lat="-26.9396102" lon="152.6452144">
<ele>114.784</ele>
<time>2016-08-30T23:54:48.641Z</time>
</trkpt>
<trkpt lat="-26.9395958" lon="152.6446221">
<ele>110.257</ele>
<time>2016-08-30T23:54:50.669Z</time>
</trkpt>
<trkpt lat="-26.9395743" lon="152.6437411">
<ele>105.779</ele>
<time>2016-08-30T23:54:53.722Z</time>
</trkpt>
<trkpt lat="-26.9395739" lon="152.6431633">
<ele>102.998</ele>
<time>2016-08-30T23:54:55.756Z</time>
</trkpt>
<trkpt lat="-26.9395594" lon="152.6423142">
<ele>102.092</ele>
<time>2016-08-30T23:54:58.823Z</time>
</trkpt>
<trkpt lat="-26.9395537" lon="152.6415113">
<ele>102.393</ele>
<time>2016-08-30T23:55:01.774Z</time>
</trkpt>
<trkpt lat="-26.9395432" lon="152.6409610">
<ele>103.981</ele>
<time>2016-08-30T23:55:03.842Z</time>
</trkpt>
<trkpt lat="-26.9395396" lon="152.6401846">
<ele>107.331</ele>
<time>2016-08-30T23:55:06.820Z</time>
</trkpt>
<trkpt lat="-26.9395305" lon="152.6396658">
<ele>111.812</ele>
<time>2016-08-30T23:55:08.785Z</time>
</trkpt>
<trkpt lat="-26.9395223" lon="152.6388763">
<ele>115.750</ele>
<time>2016-08-30T23:55:11.684Z</time>
</trkpt>
<trkpt lat="-26.9394988" lon="152.6383427">
<ele>118.298</ele>
<time>2016-08-30T23:55:13.599Z</time>
</trkpt>
<trkpt lat="-26.9394957" lon="152.6377855">
<ele>119.679</ele>
<time>2016-08-30T23:55:15.556Z</time>
</trkpt>
<trkpt lat="-26.9394835" lon="152.6369375">
<ele>120.161</ele>
<time>2016-08-30T23:55:18.388Z</time>
</trkpt>
<trkpt lat="-26.9394693" lon="152.6363203">
<ele>119.432</ele>
<time>2016-08-30T23:55:20.379Z</time>
</trkpt>
<trkpt lat="-26.9394525" lon="152.6353881">
<ele>117.571</ele>
<time>2016-08-30T23:55:23.458Z</time>
</trkpt>
<trkpt lat="-26.9393997" lon="152.6345111">
<ele>115.067</ele>
<time>2016-08-30T23:55:26.484Z</time>
</trkpt>
<trkpt lat="-26.9393109" lon="152.6339533">
<ele>112.532</ele>
<time>2016-08-30T23:55:28.461Z</time>
</trkpt>
<trkpt lat="-26.9390693" lon="152.6331470">
<ele>110.962</ele>
<time>2016-08-30T23:55:31.405Z</time>
</trkpt>
<trkpt lat="-26.9388104" lon="152.6326467">
<ele>111.482</ele>
<time>2016-08-30T23:55:33.401Z</time>
</trkpt>
<trkpt lat="-26.9384886" lon="152.6321871">
<ele>114.543</ele>
<time>2016-08-30T23:55:35.433Z</time>
</trkpt>
<trkpt lat="-26.9379356" lon="152.6316129">
<ele>119.317</ele>
<time>2016-08-30T23:55:38.435Z</time>
</trkpt>
<trkpt lat="-26.9372974" lon="152.6312033">
<ele>124.125</ele>
<time>2016-08-30T23:55:41.416Z</time>
</trkpt>
<trkpt lat="-26.9368361" lon="152.6310157">
<ele>128.470</ele>
<time>2016-08-30T23:55:43.401Z</time>
</trkpt>
<trkpt lat="-26.9360995" lon="152.6308688">
<ele>132.322</ele>
<time>2016-08-30T23:55:46.382Z</time>
</trkpt>
<trkpt lat="-26.9353402" lon="152.6307871">
<ele>134.815</ele>
<time>2016-08-30T23:55:49.364Z</time>
</trkpt>
<trkpt lat="-26.9345812" lon="152.6305882">
<ele>135.065</ele>
<time>2016-08-30T23:55:52.413Z</time>
</trkpt>
<trkpt lat="-26.9341268" lon="152.6303261">
<ele>133.254</ele>
<time>2016-08-30T23:55:54.404Z</time>
</trkpt>
<trkpt lat="-26.9337302" lon="152.6299557">
<ele>130.833</ele>
<time>2016-08-30T23:55:56.375Z</time>
</trkpt>
<trkpt lat="-26.9331879" lon="152.6292991">
<ele>129.654</ele>
<time>2016-08-30T23:55:59.403Z</time>
</trkpt>
<trkpt lat="-26.9326754" lon="152.6286498">
<ele>130.105</ele>
<time>2016-08-30T23:56:02.368Z</time>
</trkpt>
<trkpt lat="-26.9323497" lon="152.6282096">
<ele>131.030</ele>
<time>2016-08-30T23:56:04.335Z</time>
</trkpt>
<trkpt lat="-26.9319173" lon="152.6274768">
<ele>131.415</ele>
<time>2016-08-30T23:56:07.325Z</time>
</trkpt>
<trkpt lat="-26.9317017" lon="152.6269317">
<ele>132.035</ele>
<time>2016-08-30T23:56:09.343Z</time>
</trkpt>
<trkpt lat="-26.9314325" lon="152.6261117">
<ele>134.118</ele>
<time>2016-08-30T23:56:12.390Z</time>
</trkpt>
<trkpt lat="-26.9312303" lon="152.6255987">
<ele>137.601</ele>
<time>2016-08-30T23:56:14.444Z</time>
</trkpt>
<trkpt lat="-26.9310226" lon="152.6251354">
<ele>141.568</ele>
<time>2016-08-30T23:56:16.367Z</time>
</trkpt>
<trkpt lat="-26.9306578" lon="152.6244344">
<ele>145.098</ele>
<time>2016-08-30T23:56:19.316Z</time>
</trkpt>
<trkpt lat="-26.9303074" lon="152.6236963">
<ele>147.402</ele>
<time>2016-08-30T23:56:22.240Z</time>
</trkpt>
<trkpt lat="-26.9300888" lon="152.6231649">
<ele>148.355</ele>
<time>2016-08-30T23:56:24.202Z</time>
</trkpt>
<trkpt lat="-26.9299395" lon="152.6225783">
<ele>148.289</ele>
<time>2016-08-30T23:56:26.181Z</time>
</trkpt>
<trkpt lat="-26.9298541" lon="152.6219510">
<ele>147.163</ele>
<time>2016-08-30T23:56:28.178Z</time>
</trkpt>
<trkpt lat="-26.9298689" lon="152.6209958">
<ele>144.605</ele>
<time>2016-08-30T23:56:31.173Z</time>
</trkpt>
<trkpt lat="-26.9300086" lon="152.6200701">
<ele>140.811</ele>
<time>2016-08-30T23:56:34.172Z</time>
</trkpt>
<trkpt lat="-26.9302816" lon="152.6192294">
<ele>136.788</ele>
<time>2016-08-30T23:56:37.135Z</time>
</trkpt>
<trkpt lat="-26.9306331" lon="152.6184404">
<ele>133.580</ele>
<time>2016-08-30T23:56:40.179Z</time>
</trkpt>
<trkpt lat="-26.9308542" lon="152.6179421">
<ele>131.358</ele>
<time>2016-08-30T23:56:42.188Z</time>
</trkpt>
<trkpt lat="-26.9311683" lon="152.6172028">
<ele>129.456</ele>
<time>2016-08-30T23:56:45.153Z</time>
</trkpt>
<trkpt lat="-26.9313263" lon="152.6166881">
<ele>126.710</ele>
<time>2016-08-30T23:56:47.084Z</time>
</trkpt>
<trkpt lat="-26.9314375" lon="152.6158399">
<ele>122.711</ele>
<time>2016-08-30T23:56:50.092Z</time>
</trkpt>
<trkpt lat="-26.9314282" lon="152.6149623">
<ele>118.490</ele>
<time>2016-08-30T23:56:53.175Z</time>
</trkpt>
<trkpt lat="-26.9313557" lon="152.6144129">
<ele>114.668</ele>
<time>2016-08-30T23:56:55.161Z</time>
</trkpt>
<trkpt lat="-26.9312128" lon="152.6135986">
<ele>110.707</ele>
<time>2016-08-30T23:56:58.155Z</time>
</trkpt>
<trkpt lat="-26.9311238" lon="152.6130566">
<ele>106.880</ele>
<time>2016-08-30T23:57:00.153Z</time>
</trkpt>
<trkpt lat="-26.9309803" lon="152.6122581">
<ele>104.216</ele>
<time>2016-08-30T23:57:03.129Z</time>
</trkpt>
<trkpt lat="-26.9308327" lon="152.6114797">
<ele>102.866</ele>
<time>2016-08-30T23:57:06.088Z</time>
</trkpt>
<trkpt lat="-26.9307067" lon="152.6106896">
<ele>102.052</ele>
<time>2016-08-30T23:57:09.087Z</time>
</trkpt>
<trkpt lat="-26.9305917" lon="152.6099080">
<ele>101.358</ele>
<time>2016-08-30T23:57:12.019Z</time>
</trkpt>
<trkpt lat="-26.9305160" lon="152.6093594">
<ele>101.080</ele>
<time>2016-08-30T23:57:14.026Z</time>
</trkpt>
<trkpt lat="-26.9303714" lon="152.6085404">
<ele>101.397</ele>
<time>2016-08-30T23:57:17.003Z</time>
</trkpt>
<trkpt lat="-26.9302862" lon="152.6079901">
<ele>102.005</ele>
<time>2016-08-30T23:57:18.933Z</time>
</trkpt>
<trkpt lat="-26.9301431" lon="152.6071356">
<ele>102.599</ele>
<time>2016-08-30T23:57:21.901Z</time>
</trkpt>
<trkpt lat="-26.9300805" lon="152.6062452">
<ele>103.263</ele>
<time>2016-08-30T23:57:24.938Z</time>
</trkpt>
<trkpt lat="-26.9300696" lon="152.6056611">
<ele>104.167</ele>
<time>2016-08-30T23:57:26.942Z</time>
</trkpt>
<trkpt lat="-26.9301251" lon="152.6047986">
<ele>105.359</ele>
<time>2016-08-30T23:57:29.889Z</time>
</trkpt>
<trkpt lat="-26.9302354" lon="152.6039224">
<ele>106.613</ele>
<time>2016-08-30T23:57:32.852Z</time>
</trkpt>
<trkpt lat="-26.9303688" lon="152.6030204">
<ele>107.521</ele>
<time>2016-08-30T23:57:35.864Z</time>
</trkpt>
<trkpt lat="-26.9304435" lon="152.6024117">
<ele>107.584</ele>
<time>2016-08-30T23:57:37.874Z</time>
</trkpt>
<trkpt lat="-26.9305534" lon="152.6015129">
<ele>106.836</ele>
<time>2016-08-30T23:57:40.877Z</time>
</trkpt>
<trkpt lat="-26.9306350" lon="152.6009397">
<ele>106.175</ele>
<time>2016-08-30T23:57:42.871Z</time>
</trkpt>
<trkpt lat="-26.9307212" lon="152.6003737">
<ele>106.417</ele>
<time>2016-08-30T23:57:44.909Z</time>
</trkpt>
<trkpt lat="-26.9308318" lon="152.5995623">
<ele>107.809</ele>
<time>2016-08-30T23:57:47.862Z</time>
</trkpt>
<trkpt lat="-26.9309020" lon="152.5990261">
<ele>110.640</ele>
<time>2016-08-30T23:57:49.812Z</time>
</trkpt>
<trkpt lat="-26.9309728" lon="152.5984735">
<ele>114.471</ele>
<time>2016-08-30T23:57:51.793Z</time>
</trkpt>
<trkpt lat="-26.9310781" lon="152.5976305">
<ele>118.213</ele>
<time>2016-08-30T23:57:54.793Z</time>
</trkpt>
<trkpt lat="-26.9311838" lon="152.5970731">
<ele>121.383</ele>
<time>2016-08-30T23:57:56.756Z</time>
</trkpt>
<trkpt lat="-26.9314436" lon="152.5962391">
<ele>123.789</ele>
<time>2016-08-30T23:57:59.745Z</time>
</trkpt>
<trkpt lat="-26.9318163" lon="152.5954360">
<ele>125.535</ele>
<time>2016-08-30T23:58:02.797Z</time>
</trkpt>
<trkpt lat="-26.9322633" lon="152.5947275">
<ele>127.215</ele>
<time>2016-08-30T23:58:05.858Z</time>
</trkpt>
<trkpt lat="-26.9327547" lon="152.5941401">
<ele>128.787</ele>
<time>2016-08-30T23:58:08.911Z</time>
</trkpt>
<trkpt lat="-26.9330799" lon="152.5938132">
<ele>129.314</ele>
<time>2016-08-30T23:58:10.952Z</time>
</trkpt>
<trkpt lat="-26.9335804" lon="152.5934304">
<ele>128.310</ele>
<time>2016-08-30T23:58:13.902Z</time>
</trkpt>
<trkpt lat="-26.9339217" lon="152.5932144">
<ele>126.071</ele>
<time>2016-08-30T23:58:15.895Z</time>
</trkpt>
<trkpt lat="-26.9344167" lon="152.5928829">
<ele>123.186</ele>
<time>2016-08-30T23:58:18.816Z</time>
</trkpt>
<trkpt lat="-26.9349029" lon="152.5925404">
<ele>120.031</ele>
<time>2016-08-30T23:58:21.695Z</time>
</trkpt>
<trkpt lat="-26.9352435" lon="152.5923100">
<ele>116.574</ele>
<time>2016-08-30T23:58:23.695Z</time>
</trkpt>
<trkpt lat="-26.9355849" lon="152.5920789">
<ele>113.002</ele>
<time>2016-08-30T23:58:25.761Z</time>
</trkpt>
<trkpt lat="-26.9360853" lon="152.5917544">
<ele>110.277</ele>
<time>2016-08-30T23:58:28.857Z</time>
</trkpt>
<trkpt lat="-26.9365416" lon="152.5914335">
<ele>109.076</ele>
<time>2016-08-30T23:58:31.876Z</time>
</trkpt>
<trkpt lat="-26.9368273" lon="152.5912222">
<ele>109.555</ele>
<time>2016-08-30T23:58:33.860Z</time>
</trkpt>
<trkpt lat="-26.9371189" lon="152.5910163">
<ele>111.635</ele>
<time>2016-08-30T23:58:35.823Z</time>
</trkpt>
<trkpt lat="-26.9375525" lon="152.5906818">
<ele>114.717</ele>
<time>2016-08-30T23:58:38.750Z</time>
</trkpt>
<trkpt lat="-26.9378487" lon="152.5904176">
<ele>118.338</ele>
<time>2016-08-30T23:58:40.782Z</time>
</trkpt>
<trkpt lat="-26.9381064" lon="152.5901217">
<ele>122.409</ele>
<time>2016-08-30T23:58:42.716Z</time>
</trkpt>
<trkpt lat="-26.9383609" lon="152.5897783">
<ele>126.302</ele>
<time>2016-08-30T23:58:44.785Z</time>
</trkpt>
<trkpt lat="-26.9386403" lon="152.5892296">
<ele>129.438</ele>
<time>2016-08-30T23:58:47.762Z</time>
</trkpt>
<trkpt lat="-26.9388461" lon="152.5886460">
<ele>131.714</ele>
<time>2016-08-30T23:58:50.823Z</time>
</trkpt>
<trkpt lat="-26.9389433" lon="152.5882545">
<ele>132.773</ele>
<time>2016-08-30T23:58:52.852Z</time>
</trkpt>
<trkpt lat="-26.9389837" lon="152.5876637">
<ele>132.588</ele>
<time>2016-08-30T23:58:55.818Z</time>
</trkpt>
<trkpt lat="-26.9389525" lon="152.5870753">
<ele>131.773</ele>
<time>2016-08-30T23:58:58.761Z</time>
</trkpt>
<trkpt lat="-26.9388259" lon="152.5864845">
<ele>130.702</ele>
<time>2016-08-30T23:59:01.741Z</time>
</trkpt>
<trkpt lat="-26.9387179" lon="152.5860840">
<ele>129.529</ele>
<time>2016-08-30T23:59:03.721Z</time>
</trkpt>
<trkpt lat="-26.9385348" lon="152.5854830">
<ele>128.430</ele>
<time>2016-08-30T23:59:06.693Z</time>
</trkpt>
<trkpt lat="-26.9383556" lon="152.5848746">
<ele>127.318</ele>
<time>2016-08-30T23:59:09.668Z</time>
</trkpt>
<trkpt lat="-26.9382347" lon="152.5844605">
<ele>125.989</ele>
<time>2016-08-30T23:59:11.700Z</time>
</trkpt>
<trkpt lat="-26.9380893" lon="152.5838688">
<ele>124.494</ele>
<time>2016-08-30T23:59:14.551Z</time>
</trkpt>
<trkpt lat="-26.9380453" lon="152.5832201">
<ele>123.040</ele>
<time>2016-08-30T23:59:17.524Z</time>
</trkpt>
<trkpt lat="-26.9380810" lon="152.5827840">
<ele>121.629</ele>
<time>2016-08-30T23:59:19.479Z</time>
</trkpt>
<trkpt lat="-26.9381284" lon="152.5823434">
<ele>120.206</ele>
<time>2016-08-30T23:59:21.426Z</time>
</trkpt>
<trkpt lat="-26.9382851" lon="152.5816720">
<ele>118.806</ele>
<time>2016-08-30T23:59:24.433Z</time>
</trkpt>
<trkpt lat="-26.9384326" lon="152.5812480">
<ele>117.180</ele>
<time>2016-08-30T23:59:26.383Z</time>
</trkpt>
<trkpt lat="-26.9385792" lon="152.5808222">
<ele>115.101</ele>
<time>2016-08-30T23:59:28.352Z</time>
</trkpt>
<trkpt lat="-26.9388292" lon="152.5802015">
<ele>112.662</ele>
<time>2016-08-30T23:59:31.308Z</time>
</trkpt>
<trkpt lat="-26.9390860" lon="152.5795648">
<ele>109.825</ele>
<time>2016-08-30T23:59:34.386Z</time>
</trkpt>
<trkpt lat="-26.9393270" lon="152.5789515">
<ele>106.599</ele>
<time>2016-08-30T23:59:37.417Z</time>
</trkpt>
<trkpt lat="-26.9394828" lon="152.5785646">
<ele>103.398</ele>
<time>2016-08-30T23:59:39.392Z</time>
</trkpt>
<trkpt lat="-26.9397076" lon="152.5779827">
<ele>100.881</ele>
<time>2016-08-30T23:59:42.405Z</time>
</trkpt>
<trkpt lat="-26.9399242" lon="152.5774172">
<ele>99.421</ele>
<time>2016-08-30T23:59:45.427Z</time>
</trkpt>
<trkpt lat="-26.9401374" lon="152.5768713">
<ele>98.572</ele>
<time>2016-08-30T23:59:48.426Z</time>
</trkpt>
<trkpt lat="-26.9402746" lon="152.5765099">
<ele>97.829</ele>
<time>2016-08-30T23:59:50.405Z</time>
</trkpt>
<trkpt lat="-26.9404133" lon="152.5761444">
<ele>97.269</ele>
<time>2016-08-30T23:59:52.356Z</time>
</trkpt>
<trkpt lat="-26.9406395" lon="152.5755710">
<ele>96.997</ele>
<time>2016-08-30T23:59:55.361Z</time>
</trkpt>
<trkpt lat="-26.9407950" lon="152.5751772">
<ele>96.916</ele>
<time>2016-08-30T23:59:57.395Z</time>
</trkpt>
<trkpt lat="-26.9409300" lon="152.5747987">
<ele>96.891</ele>
<time>2016-08-30T23:59:59.352Z</time>
</trkpt>
<trkpt lat="-26.9410649" lon="152.5744262">
<ele>96.773</ele>
<time>2016-08-31T00:00:01.360Z</time>
</trkpt>
<trkpt lat="-26.9412737" lon="152.5738947">
<ele>96.283</ele>
<time>2016-08-31T00:00:04.407Z</time>
</trkpt>
<trkpt lat="-26.9413828" lon="152.5735739">
<ele>95.139</ele>
<time>2016-08-31T00:00:06.373Z</time>
</trkpt>
<trkpt lat="-26.9415417" lon="152.5731069">
<ele>93.529</ele>
<time>2016-08-31T00:00:09.311Z</time>
</trkpt>
<trkpt lat="-26.9417185" lon="152.5726362">
<ele>92.112</ele>
<time>2016-08-31T00:00:12.297Z</time>
</trkpt>
<trkpt lat="-26.9418378" lon="152.5723142">
<ele>91.306</ele>
<time>2016-08-31T00:00:14.282Z</time>
</trkpt>
<trkpt lat="-26.9420230" lon="152.5718381">
<ele>91.009</ele>
<time>2016-08-31T00:00:17.204Z</time>
</trkpt>
<trkpt lat="-26.9421506" lon="152.5715090">
<ele>90.965</ele>
<time>2016-08-31T00:00:19.221Z</time>
</trkpt>
<trkpt lat="-26.9422799" lon="152.5711914">
<ele>90.918</ele>
<time>2016-08-31T00:00:21.245Z</time>
</trkpt>
<trkpt lat="-26.9424363" lon="152.5707242">
<ele>90.524</ele>
<time>2016-08-31T00:00:24.230Z</time>
</trkpt>
<trkpt lat="-26.9425596" lon="152.5702619">
<ele>89.712</ele>
<time>2016-08-31T00:00:27.176Z</time>
</trkpt>
<trkpt lat="-26.9426195" lon="152.5699407">
<ele>88.880</ele>
<time>2016-08-31T00:00:29.171Z</time>
</trkpt>
<trkpt lat="-26.9426604" lon="152.5694600">
<ele>88.379</ele>
<time>2016-08-31T00:00:32.113Z</time>
</trkpt>
<trkpt lat="-26.9426950" lon="152.5689691">
<ele>88.226</ele>
<time>2016-08-31T00:00:35.174Z</time>
</trkpt>
<trkpt lat="-26.9427173" lon="152.5686695">
<ele>88.215</ele>
<time>2016-08-31T00:00:37.160Z</time>
</trkpt>
<trkpt lat="-26.9427619" lon="152.5682436">
<ele>88.094</ele>
<time>2016-08-31T00:00:40.150Z</time>
</trkpt>
<trkpt lat="-26.9427777" lon="152.5679812">
<ele>87.759</ele>
<time>2016-08-31T00:00:42.102Z</time>
</trkpt>
<trkpt lat="-26.9428197" lon="152.5675866">
<ele>87.305</ele>
<time>2016-08-31T00:00:45.137Z</time>
</trkpt>
<trkpt lat="-26.9428493" lon="152.5673315">
<ele>86.909</ele>
<time>2016-08-31T00:00:47.301Z</time>
</trkpt>
<trkpt lat="-26.9428836" lon="152.5670136">
<ele>86.669</ele>
<time>2016-08-31T00:00:50.508Z</time>
</trkpt>
<trkpt lat="-26.9430417" lon="152.5668920">
<ele>86.458</ele>
<time>2016-08-31T00:00:53.101Z</time>
</trkpt>
<trkpt lat="-26.9431853" lon="152.5669833">
<ele>86.203</ele>
<time>2016-08-31T00:00:54.996Z</time>
</trkpt>
<trkpt lat="-26.9434539" lon="152.5671961">
<ele>86.168</ele>
<time>2016-08-31T00:00:57.949Z</time>
</trkpt>
<trkpt lat="-26.9437003" lon="152.5673729">
<ele>86.710</ele>
<time>2016-08-31T00:01:00.038Z</time>
</trkpt>
<trkpt lat="-26.9439605" lon="152.5675447">
<ele>87.887</ele>
<time>2016-08-31T00:01:02.046Z</time>
</trkpt>
<trkpt lat="-26.9442504" lon="152.5676516">
<ele>89.345</ele>
<time>2016-08-31T00:01:04.019Z</time>
</trkpt>
<trkpt lat="-26.9445603" lon="152.5676993">
<ele>90.551</ele>
<time>2016-08-31T00:01:06.018Z</time>
</trkpt>
<trkpt lat="-26.9448838" lon="152.5677268">
<ele>91.204</ele>
<time>2016-08-31T00:01:08.102Z</time>
</trkpt>
<trkpt lat="-26.9451898" lon="152.5677361">
<ele>91.388</ele>
<time>2016-08-31T00:01:10.085Z</time>
</trkpt>
<trkpt lat="-26.9456450" lon="152.5677863">
<ele>91.168</ele>
<time>2016-08-31T00:01:13.108Z</time>
</trkpt>
<trkpt lat="-26.9460616" lon="152.5678413">
<ele>90.550</ele>
<time>2016-08-31T00:01:16.177Z</time>
</trkpt>
<trkpt lat="-26.9463821" lon="152.5678790">
<ele>89.638</ele>
<time>2016-08-31T00:01:19.136Z</time>
</trkpt>
<trkpt lat="-26.9465179" lon="152.5677822">
<ele>88.671</ele>
<time>2016-08-31T00:01:20.905Z</time>
</trkpt>
<trkpt lat="-26.9466510" lon="152.5674935">
<ele>87.962</ele>
<time>2016-08-31T00:01:23.868Z</time>
</trkpt>
<trkpt lat="-26.9467671" lon="152.5672439">
<ele>88.052</ele>
<time>2016-08-31T00:01:25.941Z</time>
</trkpt>
<trkpt lat="-26.9469036" lon="152.5668124">
<ele>89.350</ele>
<time>2016-08-31T00:01:29.032Z</time>
</trkpt>
<trkpt lat="-26.9469598" lon="152.5663795">
<ele>91.607</ele>
<time>2016-08-31T00:01:31.956Z</time>
</trkpt>
<trkpt lat="-26.9470026" lon="152.5660910">
<ele>93.870</ele>
<time>2016-08-31T00:01:34.019Z</time>
</trkpt>
<trkpt lat="-26.9470558" lon="152.5656891">
<ele>95.108</ele>
<time>2016-08-31T00:01:37.030Z</time>
</trkpt>
<trkpt lat="-26.9470919" lon="152.5654566">
<ele>95.016</ele>
<time>2016-08-31T00:01:38.916Z</time>
</trkpt>
<trkpt lat="-26.9471432" lon="152.5652342">
<ele>94.264</ele>
<time>2016-08-31T00:01:40.899Z</time>
</trkpt>
<trkpt lat="-26.9471824" lon="152.5650315">
<ele>93.551</ele>
<time>2016-08-31T00:01:42.884Z</time>
</trkpt>
<trkpt lat="-26.9472075" lon="152.5647590">
<ele>92.961</ele>
<time>2016-08-31T00:01:45.932Z</time>
</trkpt>
<trkpt lat="-26.9472268" lon="152.5645707">
<ele>92.313</ele>
<time>2016-08-31T00:01:48.839Z</time>
</trkpt>
<trkpt lat="-26.9472341" lon="152.5644564">
<ele>91.512</ele>
<time>2016-08-31T00:01:51.356Z</time>
</trkpt>
<trkpt lat="-26.9472787" lon="152.5643341">
<ele>90.675</ele>
<time>2016-08-31T00:01:55.000Z</time>
</trkpt>
<trkpt lat="-26.9472787" lon="152.5643341">
<ele>90.097</ele>
<time>2016-08-31T00:02:02.000Z</time>
</trkpt>
<trkpt lat="-26.9472787" lon="152.5643341">
<ele>89.899</ele>
<time>2016-08-31T00:04:10.694Z</time>
</trkpt>
<trkpt lat="-26.9472961" lon="152.5642843">
<ele>97.836</ele>
<time>2016-08-31T00:04:19.000Z</time>
</trkpt>
<trkpt lat="-26.9472961" lon="152.5642843">
<ele>97.791</ele>
<time>2016-08-31T00:11:18.000Z</time>
</trkpt>
<trkpt lat="-26.9472961" lon="152.5642843">
<ele>97.766</ele>
<time>2016-08-31T00:33:48.964Z</time>
</trkpt>
<trkpt lat="-26.9472022" lon="152.5641360">
<ele>97.744</ele>
<time>2016-08-31T00:33:55.630Z</time>
</trkpt>
<trkpt lat="-26.9471657" lon="152.5639107">
<ele>98.164</ele>
<time>2016-08-31T00:33:58.855Z</time>
</trkpt>
<trkpt lat="-26.9472061" lon="152.5637319">
<ele>99.433</ele>
<time>2016-08-31T00:34:01.009Z</time>
</trkpt>
<trkpt lat="-26.9472321" lon="152.5634776">
<ele>100.961</ele>
<time>2016-08-31T00:34:03.825Z</time>
</trkpt>
<trkpt lat="-26.9472560" lon="152.5631828">
<ele>101.928</ele>
<time>2016-08-31T00:34:06.773Z</time>
</trkpt>
<trkpt lat="-26.9472794" lon="152.5629666">
<ele>102.348</ele>
<time>2016-08-31T00:34:08.728Z</time>
</trkpt>
<trkpt lat="-26.9473208" lon="152.5627503">
<ele>102.634</ele>
<time>2016-08-31T00:34:10.671Z</time>
</trkpt>
<trkpt lat="-26.9473485" lon="152.5625267">
<ele>102.998</ele>
<time>2016-08-31T00:34:12.680Z</time>
</trkpt>
<trkpt lat="-26.9473911" lon="152.5623141">
<ele>103.319</ele>
<time>2016-08-31T00:34:14.638Z</time>
</trkpt>
<trkpt lat="-26.9474726" lon="152.5619885">
<ele>103.478</ele>
<time>2016-08-31T00:34:17.633Z</time>
</trkpt>
<trkpt lat="-26.9475617" lon="152.5616445">
<ele>103.608</ele>
<time>2016-08-31T00:34:20.729Z</time>
</trkpt>
<trkpt lat="-26.9476217" lon="152.5613048">
<ele>103.910</ele>
<time>2016-08-31T00:34:23.686Z</time>
</trkpt>
<trkpt lat="-26.9476852" lon="152.5609510">
<ele>104.383</ele>
<time>2016-08-31T00:34:26.691Z</time>
</trkpt>
<trkpt lat="-26.9477363" lon="152.5605953">
<ele>104.814</ele>
<time>2016-08-31T00:34:29.575Z</time>
</trkpt>
<trkpt lat="-26.9477605" lon="152.5603410">
<ele>104.946</ele>
<time>2016-08-31T00:34:31.487Z</time>
</trkpt>
<trkpt lat="-26.9477934" lon="152.5599261">
<ele>104.681</ele>
<time>2016-08-31T00:34:34.437Z</time>
</trkpt>
<trkpt lat="-26.9478283" lon="152.5596328">
<ele>104.227</ele>
<time>2016-08-31T00:34:36.389Z</time>
</trkpt>
<trkpt lat="-26.9478767" lon="152.5591697">
<ele>104.003</ele>
<time>2016-08-31T00:34:39.415Z</time>
</trkpt>
<trkpt lat="-26.9479100" lon="152.5588648">
<ele>104.186</ele>
<time>2016-08-31T00:34:41.436Z</time>
</trkpt>
<trkpt lat="-26.9479496" lon="152.5585819">
<ele>104.573</ele>
<time>2016-08-31T00:34:43.358Z</time>
</trkpt>
<trkpt lat="-26.9479898" lon="152.5581425">
<ele>104.918</ele>
<time>2016-08-31T00:34:46.314Z</time>
</trkpt>
<trkpt lat="-26.9480265" lon="152.5576816">
<ele>105.160</ele>
<time>2016-08-31T00:34:49.285Z</time>
</trkpt>
<trkpt lat="-26.9480633" lon="152.5571912">
<ele>105.319</ele>
<time>2016-08-31T00:34:52.246Z</time>
</trkpt>
<trkpt lat="-26.9481098" lon="152.5566826">
<ele>105.425</ele>
<time>2016-08-31T00:34:55.155Z</time>
</trkpt>
<trkpt lat="-26.9481359" lon="152.5563176">
<ele>105.492</ele>
<time>2016-08-31T00:34:57.157Z</time>
</trkpt>
<trkpt lat="-26.9481621" lon="152.5559485">
<ele>105.521</ele>
<time>2016-08-31T00:34:59.066Z</time>
</trkpt>
<trkpt lat="-26.9481272" lon="152.5553216">
<ele>105.507</ele>
<time>2016-08-31T00:35:02.046Z</time>
</trkpt>
<trkpt lat="-26.9480593" lon="152.5548470">
<ele>105.455</ele>
<time>2016-08-31T00:35:04.070Z</time>
</trkpt>
<trkpt lat="-26.9478770" lon="152.5541283">
<ele>105.694</ele>
<time>2016-08-31T00:35:07.007Z</time>
</trkpt>
<trkpt lat="-26.9475586" lon="152.5533773">
<ele>106.442</ele>
<time>2016-08-31T00:35:09.992Z</time>
</trkpt>
<trkpt lat="-26.9471624" lon="152.5525482">
<ele>107.239</ele>
<time>2016-08-31T00:35:13.123Z</time>
</trkpt>
<trkpt lat="-26.9469122" lon="152.5520262">
<ele>106.250</ele>
<time>2016-08-31T00:35:15.185Z</time>
</trkpt>
<trkpt lat="-26.9465962" lon="152.5513814">
<ele>102.739</ele>
<time>2016-08-31T00:35:17.990Z</time>
</trkpt>
<trkpt lat="-26.9464063" lon="152.5509684">
<ele>99.924</ele>
<time>2016-08-31T00:35:19.946Z</time>
</trkpt>
<trkpt lat="-26.9461414" lon="152.5503149">
<ele>100.615</ele>
<time>2016-08-31T00:35:23.056Z</time>
</trkpt>
<trkpt lat="-26.9459581" lon="152.5496823">
<ele>103.338</ele>
<time>2016-08-31T00:35:26.039Z</time>
</trkpt>
<trkpt lat="-26.9458906" lon="152.5492628">
<ele>105.875</ele>
<time>2016-08-31T00:35:28.023Z</time>
</trkpt>
<trkpt lat="-26.9458335" lon="152.5488383">
<ele>107.460</ele>
<time>2016-08-31T00:35:30.058Z</time>
</trkpt>
<trkpt lat="-26.9457688" lon="152.5482247">
<ele>108.098</ele>
<time>2016-08-31T00:35:33.038Z</time>
</trkpt>
<trkpt lat="-26.9457011" lon="152.5476268">
<ele>108.066</ele>
<time>2016-08-31T00:35:36.018Z</time>
</trkpt>
<trkpt lat="-26.9456585" lon="152.5472245">
<ele>107.539</ele>
<time>2016-08-31T00:35:38.064Z</time>
</trkpt>
<trkpt lat="-26.9456055" lon="152.5466607">
<ele>106.690</ele>
<time>2016-08-31T00:35:40.969Z</time>
</trkpt>
<trkpt lat="-26.9455369" lon="152.5462789">
<ele>105.639</ele>
<time>2016-08-31T00:35:43.005Z</time>
</trkpt>
<trkpt lat="-26.9454166" lon="152.5457452">
<ele>104.477</ele>
<time>2016-08-31T00:35:45.963Z</time>
</trkpt>
<trkpt lat="-26.9453636" lon="152.5453957">
<ele>103.166</ele>
<time>2016-08-31T00:35:48.011Z</time>
</trkpt>
<trkpt lat="-26.9454514" lon="152.5449343">
<ele>101.676</ele>
<time>2016-08-31T00:35:50.836Z</time>
</trkpt>
<trkpt lat="-26.9457900" lon="152.5445609">
<ele>100.389</ele>
<time>2016-08-31T00:35:53.878Z</time>
</trkpt>
<trkpt lat="-26.9460945" lon="152.5443552">
<ele>100.151</ele>
<time>2016-08-31T00:35:55.924Z</time>
</trkpt>
<trkpt lat="-26.9463957" lon="152.5441350">
<ele>101.302</ele>
<time>2016-08-31T00:35:57.917Z</time>
</trkpt>
<trkpt lat="-26.9468306" lon="152.5437870">
<ele>103.076</ele>
<time>2016-08-31T00:36:00.793Z</time>
</trkpt>
<trkpt lat="-26.9472952" lon="152.5433771">
<ele>104.419</ele>
<time>2016-08-31T00:36:03.774Z</time>
</trkpt>
<trkpt lat="-26.9476387" lon="152.5430646">
<ele>105.083</ele>
<time>2016-08-31T00:36:05.780Z</time>
</trkpt>
<trkpt lat="-26.9482258" lon="152.5425628">
<ele>105.487</ele>
<time>2016-08-31T00:36:08.847Z</time>
</trkpt>
<trkpt lat="-26.9486534" lon="152.5422226">
<ele>106.201</ele>
<time>2016-08-31T00:36:10.894Z</time>
</trkpt>
<trkpt lat="-26.9491034" lon="152.5419339">
<ele>107.386</ele>
<time>2016-08-31T00:36:12.906Z</time>
</trkpt>
<trkpt lat="-26.9497683" lon="152.5415237">
<ele>108.725</ele>
<time>2016-08-31T00:36:15.890Z</time>
</trkpt>
<trkpt lat="-26.9501987" lon="152.5412637">
<ele>110.012</ele>
<time>2016-08-31T00:36:17.868Z</time>
</trkpt>
<trkpt lat="-26.9508297" lon="152.5408816">
<ele>111.148</ele>
<time>2016-08-31T00:36:20.837Z</time>
</trkpt>
<trkpt lat="-26.9514437" lon="152.5404922">
<ele>111.665</ele>
<time>2016-08-31T00:36:23.770Z</time>
</trkpt>
<trkpt lat="-26.9520496" lon="152.5400197">
<ele>111.210</ele>
<time>2016-08-31T00:36:26.788Z</time>
</trkpt>
<trkpt lat="-26.9526427" lon="152.5395093">
<ele>110.170</ele>
<time>2016-08-31T00:36:29.771Z</time>
</trkpt>
<trkpt lat="-26.9532450" lon="152.5389854">
<ele>109.307</ele>
<time>2016-08-31T00:36:32.785Z</time>
</trkpt>
<trkpt lat="-26.9536310" lon="152.5386302">
<ele>109.105</ele>
<time>2016-08-31T00:36:34.769Z</time>
</trkpt>
<trkpt lat="-26.9542059" lon="152.5381135">
<ele>109.527</ele>
<time>2016-08-31T00:36:37.723Z</time>
</trkpt>
<trkpt lat="-26.9545899" lon="152.5377716">
<ele>110.109</ele>
<time>2016-08-31T00:36:39.713Z</time>
</trkpt>
<trkpt lat="-26.9551614" lon="152.5372650">
<ele>110.476</ele>
<time>2016-08-31T00:36:42.701Z</time>
</trkpt>
<trkpt lat="-26.9557423" lon="152.5367595">
<ele>110.806</ele>
<time>2016-08-31T00:36:45.731Z</time>
</trkpt>
<trkpt lat="-26.9562787" lon="152.5362395">
<ele>111.314</ele>
<time>2016-08-31T00:36:48.687Z</time>
</trkpt>
<trkpt lat="-26.9566292" lon="152.5359113">
<ele>111.833</ele>
<time>2016-08-31T00:36:50.641Z</time>
</trkpt>
<trkpt lat="-26.9569980" lon="152.5355974">
<ele>112.199</ele>
<time>2016-08-31T00:36:52.641Z</time>
</trkpt>
<trkpt lat="-26.9575578" lon="152.5351468">
<ele>112.584</ele>
<time>2016-08-31T00:36:55.586Z</time>
</trkpt>
<trkpt lat="-26.9579953" lon="152.5348907">
<ele>113.241</ele>
<time>2016-08-31T00:36:57.620Z</time>
</trkpt>
<trkpt lat="-26.9584530" lon="152.5346746">
<ele>114.350</ele>
<time>2016-08-31T00:36:59.601Z</time>
</trkpt>
<trkpt lat="-26.9591876" lon="152.5344034">
<ele>115.782</ele>
<time>2016-08-31T00:37:02.634Z</time>
</trkpt>
<trkpt lat="-26.9599613" lon="152.5342692">
<ele>117.041</ele>
<time>2016-08-31T00:37:05.675Z</time>
</trkpt>
<trkpt lat="-26.9604743" lon="152.5342498">
<ele>117.720</ele>
<time>2016-08-31T00:37:07.652Z</time>
</trkpt>
<trkpt lat="-26.9609887" lon="152.5342881">
<ele>117.908</ele>
<time>2016-08-31T00:37:09.639Z</time>
</trkpt>
<trkpt lat="-26.9614880" lon="152.5343416">
<ele>117.859</ele>
<time>2016-08-31T00:37:11.594Z</time>
</trkpt>
<trkpt lat="-26.9622545" lon="152.5344449">
<ele>117.769</ele>
<time>2016-08-31T00:37:14.618Z</time>
</trkpt>
<trkpt lat="-26.9627670" lon="152.5345116">
<ele>117.649</ele>
<time>2016-08-31T00:37:16.616Z</time>
</trkpt>
<trkpt lat="-26.9635421" lon="152.5346117">
<ele>117.260</ele>
<time>2016-08-31T00:37:19.593Z</time>
</trkpt>
<trkpt lat="-26.9643371" lon="152.5346974">
<ele>116.532</ele>
<time>2016-08-31T00:37:22.613Z</time>
</trkpt>
<trkpt lat="-26.9648375" lon="152.5347501">
<ele>115.725</ele>
<time>2016-08-31T00:37:24.548Z</time>
</trkpt>
<trkpt lat="-26.9653398" lon="152.5348053">
<ele>114.980</ele>
<time>2016-08-31T00:37:26.527Z</time>
</trkpt>
<trkpt lat="-26.9658408" lon="152.5348844">
<ele>114.341</ele>
<time>2016-08-31T00:37:28.520Z</time>
</trkpt>
<trkpt lat="-26.9666064" lon="152.5349781">
<ele>114.092</ele>
<time>2016-08-31T00:37:31.528Z</time>
</trkpt>
<trkpt lat="-26.9671292" lon="152.5350551">
<ele>114.317</ele>
<time>2016-08-31T00:37:33.543Z</time>
</trkpt>
<trkpt lat="-26.9676585" lon="152.5351144">
<ele>114.567</ele>
<time>2016-08-31T00:37:35.558Z</time>
</trkpt>
<trkpt lat="-26.9681779" lon="152.5351810">
<ele>114.264</ele>
<time>2016-08-31T00:37:37.560Z</time>
</trkpt>
<trkpt lat="-26.9689449" lon="152.5352564">
<ele>113.074</ele>
<time>2016-08-31T00:37:40.594Z</time>
</trkpt>
<trkpt lat="-26.9694208" lon="152.5353237">
<ele>111.244</ele>
<time>2016-08-31T00:37:42.540Z</time>
</trkpt>
<trkpt lat="-26.9701323" lon="152.5354139">
<ele>109.638</ele>
<time>2016-08-31T00:37:45.491Z</time>
</trkpt>
<trkpt lat="-26.9706061" lon="152.5354835">
<ele>109.484</ele>
<time>2016-08-31T00:37:47.460Z</time>
</trkpt>
<trkpt lat="-26.9713115" lon="152.5355878">
<ele>111.108</ele>
<time>2016-08-31T00:37:50.346Z</time>
</trkpt>
<trkpt lat="-26.9718601" lon="152.5356613">
<ele>113.206</ele>
<time>2016-08-31T00:37:52.425Z</time>
</trkpt>
<trkpt lat="-26.9724696" lon="152.5357580">
<ele>114.429</ele>
<time>2016-08-31T00:37:54.529Z</time>
</trkpt>
<trkpt lat="-26.9734340" lon="152.5359316">
<ele>115.119</ele>
<time>2016-08-31T00:37:57.554Z</time>
</trkpt>
<trkpt lat="-26.9740877" lon="152.5360486">
<ele>115.972</ele>
<time>2016-08-31T00:37:59.551Z</time>
</trkpt>
<trkpt lat="-26.9750469" lon="152.5362097">
<ele>117.138</ele>
<time>2016-08-31T00:38:02.523Z</time>
</trkpt>
<trkpt lat="-26.9759716" lon="152.5363883">
<ele>119.021</ele>
<time>2016-08-31T00:38:05.509Z</time>
</trkpt>
<trkpt lat="-26.9768244" lon="152.5365333">
<ele>121.742</ele>
<time>2016-08-31T00:38:08.417Z</time>
</trkpt>
<trkpt lat="-26.9773665" lon="152.5366260">
<ele>124.183</ele>
<time>2016-08-31T00:38:10.377Z</time>
</trkpt>
<trkpt lat="-26.9781854" lon="152.5367545">
<ele>124.775</ele>
<time>2016-08-31T00:38:13.364Z</time>
</trkpt>
<trkpt lat="-26.9790467" lon="152.5369108">
<ele>123.007</ele>
<time>2016-08-31T00:38:16.408Z</time>
</trkpt>
<trkpt lat="-26.9796098" lon="152.5370246">
<ele>120.143</ele>
<time>2016-08-31T00:38:18.374Z</time>
</trkpt>
<trkpt lat="-26.9804764" lon="152.5371945">
<ele>117.806</ele>
<time>2016-08-31T00:38:21.438Z</time>
</trkpt>
<trkpt lat="-26.9810135" lon="152.5373218">
<ele>116.503</ele>
<time>2016-08-31T00:38:23.403Z</time>
</trkpt>
<trkpt lat="-26.9817944" lon="152.5375582">
<ele>116.427</ele>
<time>2016-08-31T00:38:26.381Z</time>
</trkpt>
<trkpt lat="-26.9825266" lon="152.5379282">
<ele>117.406</ele>
<time>2016-08-31T00:38:29.362Z</time>
</trkpt>
<trkpt lat="-26.9829905" lon="152.5382098">
<ele>118.128</ele>
<time>2016-08-31T00:38:31.331Z</time>
</trkpt>
<trkpt lat="-26.9836423" lon="152.5386719">
<ele>117.658</ele>
<time>2016-08-31T00:38:34.286Z</time>
</trkpt>
<trkpt lat="-26.9842601" lon="152.5391797">
<ele>117.164</ele>
<time>2016-08-31T00:38:37.282Z</time>
</trkpt>
<trkpt lat="-26.9846584" lon="152.5395621">
<ele>118.388</ele>
<time>2016-08-31T00:38:39.309Z</time>
</trkpt>
<trkpt lat="-26.9850424" lon="152.5399609">
<ele>121.039</ele>
<time>2016-08-31T00:38:41.291Z</time>
</trkpt>
<trkpt lat="-26.9856337" lon="152.5405649">
<ele>122.919</ele>
<time>2016-08-31T00:38:44.291Z</time>
</trkpt>
<trkpt lat="-26.9860123" lon="152.5409872">
<ele>122.345</ele>
<time>2016-08-31T00:38:46.292Z</time>
</trkpt>
<trkpt lat="-26.9865867" lon="152.5416242">
<ele>119.511</ele>
<time>2016-08-31T00:38:49.300Z</time>
</trkpt>
<trkpt lat="-26.9871621" lon="152.5422474">
<ele>116.050</ele>
<time>2016-08-31T00:38:52.263Z</time>
</trkpt>
<trkpt lat="-26.9877574" lon="152.5428079">
<ele>113.678</ele>
<time>2016-08-31T00:38:55.208Z</time>
</trkpt>
<trkpt lat="-26.9881513" lon="152.5431391">
<ele>113.141</ele>
<time>2016-08-31T00:38:57.141Z</time>
</trkpt>
<trkpt lat="-26.9887841" lon="152.5436097">
<ele>114.151</ele>
<time>2016-08-31T00:39:00.126Z</time>
</trkpt>
<trkpt lat="-26.9892248" lon="152.5439309">
<ele>115.685</ele>
<time>2016-08-31T00:39:02.135Z</time>
</trkpt>
<trkpt lat="-26.9898977" lon="152.5444400">
<ele>116.357</ele>
<time>2016-08-31T00:39:05.140Z</time>
</trkpt>
<trkpt lat="-26.9905884" lon="152.5449852">
<ele>114.822</ele>
<time>2016-08-31T00:39:08.173Z</time>
</trkpt>
<trkpt lat="-26.9910472" lon="152.5453339">
<ele>111.083</ele>
<time>2016-08-31T00:39:10.150Z</time>
</trkpt>
<trkpt lat="-26.9914935" lon="152.5456667">
<ele>107.097</ele>
<time>2016-08-31T00:39:12.097Z</time>
</trkpt>
<trkpt lat="-26.9921641" lon="152.5461714">
<ele>104.645</ele>
<time>2016-08-31T00:39:15.080Z</time>
</trkpt>
<trkpt lat="-26.9928260" lon="152.5466638">
<ele>103.812</ele>
<time>2016-08-31T00:39:18.061Z</time>
</trkpt>
<trkpt lat="-26.9932508" lon="152.5469966">
<ele>103.844</ele>
<time>2016-08-31T00:39:20.030Z</time>
</trkpt>
<trkpt lat="-26.9938811" lon="152.5474984">
<ele>104.021</ele>
<time>2016-08-31T00:39:22.986Z</time>
</trkpt>
<trkpt lat="-26.9943347" lon="152.5477919">
<ele>103.773</ele>
<time>2016-08-31T00:39:24.990Z</time>
</trkpt>
<trkpt lat="-26.9948358" lon="152.5480150">
<ele>102.968</ele>
<time>2016-08-31T00:39:27.005Z</time>
</trkpt>
<trkpt lat="-26.9953799" lon="152.5482123">
<ele>102.146</ele>
<time>2016-08-31T00:39:29.075Z</time>
</trkpt>
<trkpt lat="-26.9958977" lon="152.5484256">
<ele>101.978</ele>
<time>2016-08-31T00:39:31.046Z</time>
</trkpt>
<trkpt lat="-26.9966171" lon="152.5488804">
<ele>102.487</ele>
<time>2016-08-31T00:39:34.023Z</time>
</trkpt>
<trkpt lat="-26.9970697" lon="152.5492420">
<ele>103.052</ele>
<time>2016-08-31T00:39:36.042Z</time>
</trkpt>
<trkpt lat="-26.9977216" lon="152.5497931">
<ele>103.133</ele>
<time>2016-08-31T00:39:39.006Z</time>
</trkpt>
<trkpt lat="-26.9983483" lon="152.5503360">
<ele>102.864</ele>
<time>2016-08-31T00:39:41.932Z</time>
</trkpt>
<trkpt lat="-26.9989887" lon="152.5508807">
<ele>102.638</ele>
<time>2016-08-31T00:39:44.935Z</time>
</trkpt>
<trkpt lat="-26.9994336" lon="152.5512117">
<ele>102.703</ele>
<time>2016-08-31T00:39:46.918Z</time>
</trkpt>
<trkpt lat="-27.0001417" lon="152.5516362">
<ele>103.345</ele>
<time>2016-08-31T00:39:49.893Z</time>
</trkpt>
<trkpt lat="-27.0006383" lon="152.5518818">
<ele>104.835</ele>
<time>2016-08-31T00:39:51.894Z</time>
</trkpt>
<trkpt lat="-27.0014306" lon="152.5521494">
<ele>106.750</ele>
<time>2016-08-31T00:39:54.895Z</time>
</trkpt>
<trkpt lat="-27.0022607" lon="152.5523187">
<ele>108.417</ele>
<time>2016-08-31T00:39:57.922Z</time>
</trkpt>
<trkpt lat="-27.0027838" lon="152.5524092">
<ele>109.961</ele>
<time>2016-08-31T00:39:59.878Z</time>
</trkpt>
<trkpt lat="-27.0035263" lon="152.5525295">
<ele>111.832</ele>
<time>2016-08-31T00:40:02.764Z</time>
</trkpt>
<trkpt lat="-27.0040111" lon="152.5526216">
<ele>114.248</ele>
<time>2016-08-31T00:40:04.714Z</time>
</trkpt>
<trkpt lat="-27.0045037" lon="152.5527037">
<ele>117.020</ele>
<time>2016-08-31T00:40:06.707Z</time>
</trkpt>
<trkpt lat="-27.0049963" lon="152.5527866">
<ele>119.318</ele>
<time>2016-08-31T00:40:08.681Z</time>
</trkpt>
<trkpt lat="-27.0057928" lon="152.5529263">
<ele>120.241</ele>
<time>2016-08-31T00:40:11.773Z</time>
</trkpt>
<trkpt lat="-27.0066380" lon="152.5530738">
<ele>119.501</ele>
<time>2016-08-31T00:40:14.835Z</time>
</trkpt>
<trkpt lat="-27.0072176" lon="152.5531786">
<ele>117.472</ele>
<time>2016-08-31T00:40:16.842Z</time>
</trkpt>
<trkpt lat="-27.0080481" lon="152.5532866">
<ele>114.440</ele>
<time>2016-08-31T00:40:19.748Z</time>
</trkpt>
<trkpt lat="-27.0085740" lon="152.5532998">
<ele>110.610</ele>
<time>2016-08-31T00:40:21.665Z</time>
</trkpt>
<trkpt lat="-27.0093717" lon="152.5531803">
<ele>107.129</ele>
<time>2016-08-31T00:40:24.663Z</time>
</trkpt>
<trkpt lat="-27.0098969" lon="152.5529899">
<ele>105.238</ele>
<time>2016-08-31T00:40:26.696Z</time>
</trkpt>
<trkpt lat="-27.0106460" lon="152.5526040">
<ele>104.882</ele>
<time>2016-08-31T00:40:29.728Z</time>
</trkpt>
<trkpt lat="-27.0112616" lon="152.5520730">
<ele>105.983</ele>
<time>2016-08-31T00:40:32.635Z</time>
</trkpt>
<trkpt lat="-27.0118101" lon="152.5513968">
<ele>108.717</ele>
<time>2016-08-31T00:40:35.677Z</time>
</trkpt>
<trkpt lat="-27.0121146" lon="152.5509060">
<ele>112.830</ele>
<time>2016-08-31T00:40:37.659Z</time>
</trkpt>
<trkpt lat="-27.0126026" lon="152.5502097">
<ele>117.143</ele>
<time>2016-08-31T00:40:40.622Z</time>
</trkpt>
<trkpt lat="-27.0131398" lon="152.5495505">
<ele>119.579</ele>
<time>2016-08-31T00:40:43.629Z</time>
</trkpt>
<trkpt lat="-27.0137498" lon="152.5489510">
<ele>119.130</ele>
<time>2016-08-31T00:40:46.662Z</time>
</trkpt>
<trkpt lat="-27.0141965" lon="152.5486132">
<ele>116.985</ele>
<time>2016-08-31T00:40:48.651Z</time>
</trkpt>
<trkpt lat="-27.0146528" lon="152.5483153">
<ele>114.349</ele>
<time>2016-08-31T00:40:50.620Z</time>
</trkpt>
<trkpt lat="-27.0153571" lon="152.5479872">
<ele>111.357</ele>
<time>2016-08-31T00:40:53.522Z</time>
</trkpt>
<trkpt lat="-27.0158739" lon="152.5478134">
<ele>107.871</ele>
<time>2016-08-31T00:40:55.569Z</time>
</trkpt>
<trkpt lat="-27.0164267" lon="152.5476839">
<ele>104.547</ele>
<time>2016-08-31T00:40:57.646Z</time>
</trkpt>
<trkpt lat="-27.0172975" lon="152.5475989">
<ele>102.568</ele>
<time>2016-08-31T00:41:00.718Z</time>
</trkpt>
<trkpt lat="-27.0178768" lon="152.5475786">
<ele>102.874</ele>
<time>2016-08-31T00:41:02.716Z</time>
</trkpt>
<trkpt lat="-27.0187232" lon="152.5475522">
<ele>105.067</ele>
<time>2016-08-31T00:41:05.658Z</time>
</trkpt>
<trkpt lat="-27.0192744" lon="152.5475347">
<ele>107.218</ele>
<time>2016-08-31T00:41:07.603Z</time>
</trkpt>
<trkpt lat="-27.0197868" lon="152.5475158">
<ele>107.974</ele>
<time>2016-08-31T00:41:09.476Z</time>
</trkpt>
<trkpt lat="-27.0202813" lon="152.5474802">
<ele>107.801</ele>
<time>2016-08-31T00:41:11.401Z</time>
</trkpt>
<trkpt lat="-27.0209676" lon="152.5473402">
<ele>107.506</ele>
<time>2016-08-31T00:41:14.268Z</time>
</trkpt>
<trkpt lat="-27.0216478" lon="152.5470587">
<ele>107.426</ele>
<time>2016-08-31T00:41:17.278Z</time>
</trkpt>
<trkpt lat="-27.0223708" lon="152.5467325">
<ele>107.183</ele>
<time>2016-08-31T00:41:20.382Z</time>
</trkpt>
<trkpt lat="-27.0228763" lon="152.5465048">
<ele>105.897</ele>
<time>2016-08-31T00:41:22.461Z</time>
</trkpt>
<trkpt lat="-27.0236344" lon="152.5461757">
<ele>103.657</ele>
<time>2016-08-31T00:41:25.473Z</time>
</trkpt>
<trkpt lat="-27.0241369" lon="152.5459523">
<ele>101.728</ele>
<time>2016-08-31T00:41:27.467Z</time>
</trkpt>
<trkpt lat="-27.0246276" lon="152.5457451">
<ele>100.840</ele>
<time>2016-08-31T00:41:29.428Z</time>
</trkpt>
<trkpt lat="-27.0253620" lon="152.5454194">
<ele>100.693</ele>
<time>2016-08-31T00:41:32.426Z</time>
</trkpt>
<trkpt lat="-27.0260802" lon="152.5451608">
<ele>100.897</ele>
<time>2016-08-31T00:41:35.344Z</time>
</trkpt>
<trkpt lat="-27.0268075" lon="152.5450135">
<ele>102.049</ele>
<time>2016-08-31T00:41:38.285Z</time>
</trkpt>
<trkpt lat="-27.0275374" lon="152.5449799">
<ele>105.325</ele>
<time>2016-08-31T00:41:41.224Z</time>
</trkpt>
<trkpt lat="-27.0280631" lon="152.5450156">
<ele>110.102</ele>
<time>2016-08-31T00:41:43.314Z</time>
</trkpt>
<trkpt lat="-27.0288567" lon="152.5451631">
<ele>114.037</ele>
<time>2016-08-31T00:41:46.389Z</time>
</trkpt>
<trkpt lat="-27.0296604" lon="152.5452891">
<ele>115.304</ele>
<time>2016-08-31T00:41:49.397Z</time>
</trkpt>
<trkpt lat="-27.0304516" lon="152.5453004">
<ele>113.483</ele>
<time>2016-08-31T00:41:52.332Z</time>
</trkpt>
<trkpt lat="-27.0312237" lon="152.5451993">
<ele>110.061</ele>
<time>2016-08-31T00:41:55.265Z</time>
</trkpt>
<trkpt lat="-27.0319820" lon="152.5450704">
<ele>107.531</ele>
<time>2016-08-31T00:41:58.204Z</time>
</trkpt>
<trkpt lat="-27.0327642" lon="152.5449402">
<ele>106.994</ele>
<time>2016-08-31T00:42:01.236Z</time>
</trkpt>
<trkpt lat="-27.0332792" lon="152.5448703">
<ele>107.981</ele>
<time>2016-08-31T00:42:03.224Z</time>
</trkpt>
<trkpt lat="-27.0340390" lon="152.5448531">
<ele>109.553</ele>
<time>2016-08-31T00:42:06.165Z</time>
</trkpt>
<trkpt lat="-27.0347975" lon="152.5449544">
<ele>110.788</ele>
<time>2016-08-31T00:42:09.143Z</time>
</trkpt>
<trkpt lat="-27.0355208" lon="152.5451750">
<ele>111.207</ele>
<time>2016-08-31T00:42:12.080Z</time>
</trkpt>
<trkpt lat="-27.0359755" lon="152.5453860">
<ele>110.990</ele>
<time>2016-08-31T00:42:14.031Z</time>
</trkpt>
<trkpt lat="-27.0366242" lon="152.5457425">
<ele>110.767</ele>
<time>2016-08-31T00:42:16.956Z</time>
</trkpt>
<trkpt lat="-27.0373031" lon="152.5461526">
<ele>111.123</ele>
<time>2016-08-31T00:42:20.054Z</time>
</trkpt>
<trkpt lat="-27.0377684" lon="152.5464401">
<ele>111.930</ele>
<time>2016-08-31T00:42:22.120Z</time>
</trkpt>
<trkpt lat="-27.0382297" lon="152.5467246">
<ele>112.510</ele>
<time>2016-08-31T00:42:24.111Z</time>
</trkpt>
<trkpt lat="-27.0386780" lon="152.5469910">
<ele>112.534</ele>
<time>2016-08-31T00:42:26.035Z</time>
</trkpt>
<trkpt lat="-27.0391318" lon="152.5472256">
<ele>112.105</ele>
<time>2016-08-31T00:42:27.970Z</time>
</trkpt>
<trkpt lat="-27.0398620" lon="152.5474404">
<ele>111.403</ele>
<time>2016-08-31T00:42:30.950Z</time>
</trkpt>
<trkpt lat="-27.0403914" lon="152.5474582">
<ele>110.554</ele>
<time>2016-08-31T00:42:33.019Z</time>
</trkpt>
<trkpt lat="-27.0409243" lon="152.5474470">
<ele>109.708</ele>
<time>2016-08-31T00:42:35.047Z</time>
</trkpt>
<trkpt lat="-27.0417112" lon="152.5475280">
<ele>109.140</ele>
<time>2016-08-31T00:42:38.028Z</time>
</trkpt>
<trkpt lat="-27.0422033" lon="152.5476899">
<ele>109.322</ele>
<time>2016-08-31T00:42:39.992Z</time>
</trkpt>
<trkpt lat="-27.0428777" lon="152.5481197">
<ele>110.444</ele>
<time>2016-08-31T00:42:42.994Z</time>
</trkpt>
<trkpt lat="-27.0435395" lon="152.5486671">
<ele>112.473</ele>
<time>2016-08-31T00:42:46.103Z</time>
</trkpt>
<trkpt lat="-27.0439718" lon="152.5490163">
<ele>115.223</ele>
<time>2016-08-31T00:42:48.083Z</time>
</trkpt>
<trkpt lat="-27.0445859" lon="152.5495393">
<ele>117.888</ele>
<time>2016-08-31T00:42:50.985Z</time>
</trkpt>
<trkpt lat="-27.0449989" lon="152.5498922">
<ele>119.179</ele>
<time>2016-08-31T00:42:52.973Z</time>
</trkpt>
<trkpt lat="-27.0456203" lon="152.5504294">
<ele>118.875</ele>
<time>2016-08-31T00:42:55.986Z</time>
</trkpt>
<trkpt lat="-27.0460315" lon="152.5507861">
<ele>118.343</ele>
<time>2016-08-31T00:42:57.975Z</time>
</trkpt>
<trkpt lat="-27.0466349" lon="152.5512886">
<ele>118.765</ele>
<time>2016-08-31T00:43:00.898Z</time>
</trkpt>
<trkpt lat="-27.0472030" lon="152.5517710">
<ele>119.935</ele>
<time>2016-08-31T00:43:03.761Z</time>
</trkpt>
<trkpt lat="-27.0475844" lon="152.5520727">
<ele>121.399</ele>
<time>2016-08-31T00:43:05.685Z</time>
</trkpt>
<trkpt lat="-27.0479956" lon="152.5523163">
<ele>123.485</ele>
<time>2016-08-31T00:43:07.648Z</time>
</trkpt>
<trkpt lat="-27.0486412" lon="152.5524793">
<ele>126.433</ele>
<time>2016-08-31T00:43:10.507Z</time>
</trkpt>
<trkpt lat="-27.0490813" lon="152.5524933">
<ele>130.010</ele>
<time>2016-08-31T00:43:12.441Z</time>
</trkpt>
<trkpt lat="-27.0497335" lon="152.5523228">
<ele>133.609</ele>
<time>2016-08-31T00:43:15.456Z</time>
</trkpt>
<trkpt lat="-27.0503004" lon="152.5519843">
<ele>137.138</ele>
<time>2016-08-31T00:43:18.382Z</time>
</trkpt>
<trkpt lat="-27.0505998" lon="152.5516938">
<ele>140.861</ele>
<time>2016-08-31T00:43:20.217Z</time>
</trkpt>
<trkpt lat="-27.0508222" lon="152.5514008">
<ele>144.091</ele>
<time>2016-08-31T00:43:21.898Z</time>
</trkpt>
<trkpt lat="-27.0511284" lon="152.5510939">
<ele>145.689</ele>
<time>2016-08-31T00:43:24.173Z</time>
</trkpt>
<trkpt lat="-27.0515069" lon="152.5511095">
<ele>145.294</ele>
<time>2016-08-31T00:43:26.654Z</time>
</trkpt>
<trkpt lat="-27.0517040" lon="152.5512960">
<ele>143.408</ele>
<time>2016-08-31T00:43:28.599Z</time>
</trkpt>
<trkpt lat="-27.0517555" lon="152.5515845">
<ele>141.459</ele>
<time>2016-08-31T00:43:30.663Z</time>
</trkpt>
<trkpt lat="-27.0516826" lon="152.5518945">
<ele>140.713</ele>
<time>2016-08-31T00:43:32.978Z</time>
</trkpt>
<trkpt lat="-27.0516004" lon="152.5522408">
<ele>141.674</ele>
<time>2016-08-31T00:43:35.450Z</time>
</trkpt>
<trkpt lat="-27.0515769" lon="152.5527842">
<ele>144.497</ele>
<time>2016-08-31T00:43:38.694Z</time>
</trkpt>
<trkpt lat="-27.0517993" lon="152.5533945">
<ele>148.765</ele>
<time>2016-08-31T00:43:42.186Z</time>
</trkpt>
<trkpt lat="-27.0519819" lon="152.5537858">
<ele>154.004</ele>
<time>2016-08-31T00:43:44.331Z</time>
</trkpt>
<trkpt lat="-27.0522720" lon="152.5541181">
<ele>159.632</ele>
<time>2016-08-31T00:43:46.411Z</time>
</trkpt>
<trkpt lat="-27.0527260" lon="152.5546112">
<ele>164.824</ele>
<time>2016-08-31T00:43:49.499Z</time>
</trkpt>
<trkpt lat="-27.0531887" lon="152.5549032">
<ele>169.158</ele>
<time>2016-08-31T00:43:52.164Z</time>
</trkpt>
<trkpt lat="-27.0535974" lon="152.5549654">
<ele>172.596</ele>
<time>2016-08-31T00:43:54.316Z</time>
</trkpt>
<trkpt lat="-27.0542811" lon="152.5549740">
<ele>175.584</ele>
<time>2016-08-31T00:43:57.661Z</time>
</trkpt>
<trkpt lat="-27.0549493" lon="152.5550536">
<ele>179.702</ele>
<time>2016-08-31T00:44:00.680Z</time>
</trkpt>
<trkpt lat="-27.0555761" lon="152.5552135">
<ele>185.374</ele>
<time>2016-08-31T00:44:03.560Z</time>
</trkpt>
<trkpt lat="-27.0562072" lon="152.5554001">
<ele>190.443</ele>
<time>2016-08-31T00:44:06.528Z</time>
</trkpt>
<trkpt lat="-27.0566280" lon="152.5555238">
<ele>192.593</ele>
<time>2016-08-31T00:44:08.507Z</time>
</trkpt>
<trkpt lat="-27.0572089" lon="152.5556745">
<ele>191.279</ele>
<time>2016-08-31T00:44:11.310Z</time>
</trkpt>
<trkpt lat="-27.0575649" lon="152.5556817">
<ele>186.671</ele>
<time>2016-08-31T00:44:13.055Z</time>
</trkpt>
<trkpt lat="-27.0578917" lon="152.5555917">
<ele>179.958</ele>
<time>2016-08-31T00:44:14.884Z</time>
</trkpt>
<trkpt lat="-27.0581712" lon="152.5553981">
<ele>173.438</ele>
<time>2016-08-31T00:44:16.764Z</time>
</trkpt>
<trkpt lat="-27.0584303" lon="152.5548987">
<ele>168.445</ele>
<time>2016-08-31T00:44:19.801Z</time>
</trkpt>
<trkpt lat="-27.0585098" lon="152.5542930">
<ele>164.518</ele>
<time>2016-08-31T00:44:22.946Z</time>
</trkpt>
<trkpt lat="-27.0585967" lon="152.5539173">
<ele>160.638</ele>
<time>2016-08-31T00:44:24.879Z</time>
</trkpt>
<trkpt lat="-27.0587828" lon="152.5536425">
<ele>156.189</ele>
<time>2016-08-31T00:44:26.612Z</time>
</trkpt>
<trkpt lat="-27.0592474" lon="152.5534662">
<ele>151.341</ele>
<time>2016-08-31T00:44:29.605Z</time>
</trkpt>
<trkpt lat="-27.0596438" lon="152.5534799">
<ele>146.817</ele>
<time>2016-08-31T00:44:32.046Z</time>
</trkpt>
<trkpt lat="-27.0602421" lon="152.5535906">
<ele>143.545</ele>
<time>2016-08-31T00:44:35.224Z</time>
</trkpt>
<trkpt lat="-27.0605943" lon="152.5538035">
<ele>140.907</ele>
<time>2016-08-31T00:44:37.218Z</time>
</trkpt>
<trkpt lat="-27.0609117" lon="152.5540683">
<ele>137.232</ele>
<time>2016-08-31T00:44:39.185Z</time>
</trkpt>
<trkpt lat="-27.0613280" lon="152.5546559">
<ele>132.958</ele>
<time>2016-08-31T00:44:42.419Z</time>
</trkpt>
<trkpt lat="-27.0617237" lon="152.5552691">
<ele>129.507</ele>
<time>2016-08-31T00:44:45.503Z</time>
</trkpt>
<trkpt lat="-27.0620544" lon="152.5555784">
<ele>126.050</ele>
<time>2016-08-31T00:44:47.445Z</time>
</trkpt>
<trkpt lat="-27.0624461" lon="152.5557545">
<ele>120.810</ele>
<time>2016-08-31T00:44:49.404Z</time>
</trkpt>
<trkpt lat="-27.0628067" lon="152.5559271">
<ele>113.936</ele>
<time>2016-08-31T00:44:51.280Z</time>
</trkpt>
<trkpt lat="-27.0630914" lon="152.5561902">
<ele>107.680</ele>
<time>2016-08-31T00:44:53.106Z</time>
</trkpt>
<trkpt lat="-27.0632940" lon="152.5565170">
<ele>103.841</ele>
<time>2016-08-31T00:44:54.963Z</time>
</trkpt>
<trkpt lat="-27.0634188" lon="152.5569080">
<ele>102.320</ele>
<time>2016-08-31T00:44:56.980Z</time>
</trkpt>
<trkpt lat="-27.0634414" lon="152.5573588">
<ele>102.370</ele>
<time>2016-08-31T00:44:59.164Z</time>
</trkpt>
<trkpt lat="-27.0634170" lon="152.5580788">
<ele>103.884</ele>
<time>2016-08-31T00:45:02.385Z</time>
</trkpt>
<trkpt lat="-27.0633967" lon="152.5585178">
<ele>106.823</ele>
<time>2016-08-31T00:45:04.272Z</time>
</trkpt>
<trkpt lat="-27.0635035" lon="152.5591337">
<ele>110.213</ele>
<time>2016-08-31T00:45:07.024Z</time>
</trkpt>
<trkpt lat="-27.0637159" lon="152.5595152">
<ele>112.976</ele>
<time>2016-08-31T00:45:09.066Z</time>
</trkpt>
<trkpt lat="-27.0640280" lon="152.5598331">
<ele>115.121</ele>
<time>2016-08-31T00:45:11.207Z</time>
</trkpt>
<trkpt lat="-27.0644625" lon="152.5600596">
<ele>117.031</ele>
<time>2016-08-31T00:45:13.488Z</time>
</trkpt>
<trkpt lat="-27.0652433" lon="152.5604267">
<ele>119.061</ele>
<time>2016-08-31T00:45:16.898Z</time>
</trkpt>
<trkpt lat="-27.0660660" lon="152.5608237">
<ele>121.238</ele>
<time>2016-08-31T00:45:20.066Z</time>
</trkpt>
<trkpt lat="-27.0668192" lon="152.5611840">
<ele>122.696</ele>
<time>2016-08-31T00:45:22.939Z</time>
</trkpt>
<trkpt lat="-27.0672574" lon="152.5614088">
<ele>122.252</ele>
<time>2016-08-31T00:45:24.716Z</time>
</trkpt>
<trkpt lat="-27.0675748" lon="152.5616621">
<ele>119.676</ele>
<time>2016-08-31T00:45:26.282Z</time>
</trkpt>
<trkpt lat="-27.0678908" lon="152.5622382">
<ele>115.544</ele>
<time>2016-08-31T00:45:29.083Z</time>
</trkpt>
<trkpt lat="-27.0681392" lon="152.5628594">
<ele>111.177</ele>
<time>2016-08-31T00:45:32.110Z</time>
</trkpt>
<trkpt lat="-27.0683741" lon="152.5631758">
<ele>108.763</ele>
<time>2016-08-31T00:45:33.939Z</time>
</trkpt>
<trkpt lat="-27.0688636" lon="152.5635339">
<ele>109.489</ele>
<time>2016-08-31T00:45:36.934Z</time>
</trkpt>
<trkpt lat="-27.0692643" lon="152.5636517">
<ele>112.076</ele>
<time>2016-08-31T00:45:39.063Z</time>
</trkpt>
<trkpt lat="-27.0698931" lon="152.5635926">
<ele>114.605</ele>
<time>2016-08-31T00:45:42.156Z</time>
</trkpt>
<trkpt lat="-27.0702669" lon="152.5634292">
<ele>116.232</ele>
<time>2016-08-31T00:45:44.089Z</time>
</trkpt>
<trkpt lat="-27.0707112" lon="152.5630186">
<ele>117.078</ele>
<time>2016-08-31T00:45:46.949Z</time>
</trkpt>
<trkpt lat="-27.0709183" lon="152.5626773">
<ele>116.856</ele>
<time>2016-08-31T00:45:48.841Z</time>
</trkpt>
<trkpt lat="-27.0710714" lon="152.5623067">
<ele>115.247</ele>
<time>2016-08-31T00:45:50.781Z</time>
</trkpt>
<trkpt lat="-27.0712789" lon="152.5618826">
<ele>113.121</ele>
<time>2016-08-31T00:45:53.154Z</time>
</trkpt>
<trkpt lat="-27.0716029" lon="152.5617263">
<ele>110.864</ele>
<time>2016-08-31T00:45:55.368Z</time>
</trkpt>
<trkpt lat="-27.0719582" lon="152.5618572">
<ele>107.786</ele>
<time>2016-08-31T00:45:58.145Z</time>
</trkpt>
<trkpt lat="-27.0719991" lon="152.5621779">
<ele>104.420</ele>
<time>2016-08-31T00:46:00.473Z</time>
</trkpt>
<trkpt lat="-27.0720085" lon="152.5625158">
<ele>102.521</ele>
<time>2016-08-31T00:46:02.906Z</time>
</trkpt>
<trkpt lat="-27.0720301" lon="152.5628544">
<ele>103.357</ele>
<time>2016-08-31T00:46:05.199Z</time>
</trkpt>
<trkpt lat="-27.0721496" lon="152.5632211">
<ele>106.380</ele>
<time>2016-08-31T00:46:07.570Z</time>
</trkpt>
<trkpt lat="-27.0725471" lon="152.5637954">
<ele>109.551</ele>
<time>2016-08-31T00:46:11.257Z</time>
</trkpt>
<trkpt lat="-27.0730087" lon="152.5643120">
<ele>111.514</ele>
<time>2016-08-31T00:46:14.435Z</time>
</trkpt>
<trkpt lat="-27.0733310" lon="152.5645586">
<ele>112.441</ele>
<time>2016-08-31T00:46:16.279Z</time>
</trkpt>
<trkpt lat="-27.0737442" lon="152.5647766">
<ele>112.789</ele>
<time>2016-08-31T00:46:18.498Z</time>
</trkpt>
<trkpt lat="-27.0744555" lon="152.5651693">
<ele>113.389</ele>
<time>2016-08-31T00:46:21.903Z</time>
</trkpt>
<trkpt lat="-27.0748839" lon="152.5654776">
<ele>114.748</ele>
<time>2016-08-31T00:46:23.900Z</time>
</trkpt>
<trkpt lat="-27.0752618" lon="152.5657882">
<ele>116.068</ele>
<time>2016-08-31T00:46:25.742Z</time>
</trkpt>
<trkpt lat="-27.0758363" lon="152.5660715">
<ele>116.339</ele>
<time>2016-08-31T00:46:28.407Z</time>
</trkpt>
<trkpt lat="-27.0762322" lon="152.5662700">
<ele>115.715</ele>
<time>2016-08-31T00:46:30.339Z</time>
</trkpt>
<trkpt lat="-27.0767053" lon="152.5667057">
<ele>114.577</ele>
<time>2016-08-31T00:46:33.219Z</time>
</trkpt>
<trkpt lat="-27.0770060" lon="152.5669441">
<ele>113.201</ele>
<time>2016-08-31T00:46:34.987Z</time>
</trkpt>
<trkpt lat="-27.0775619" lon="152.5671206">
<ele>112.255</ele>
<time>2016-08-31T00:46:37.954Z</time>
</trkpt>
<trkpt lat="-27.0781533" lon="152.5670561">
<ele>113.069</ele>
<time>2016-08-31T00:46:40.996Z</time>
</trkpt>
<trkpt lat="-27.0785166" lon="152.5668509">
<ele>116.030</ele>
<time>2016-08-31T00:46:43.044Z</time>
</trkpt>
<trkpt lat="-27.0789212" lon="152.5663499">
<ele>119.823</ele>
<time>2016-08-31T00:46:46.064Z</time>
</trkpt>
<trkpt lat="-27.0790830" lon="152.5659146">
<ele>122.782</ele>
<time>2016-08-31T00:46:48.150Z</time>
</trkpt>
<trkpt lat="-27.0790904" lon="152.5652159">
<ele>124.246</ele>
<time>2016-08-31T00:46:51.159Z</time>
</trkpt>
<trkpt lat="-27.0788763" lon="152.5644224">
<ele>124.452</ele>
<time>2016-08-31T00:46:54.514Z</time>
</trkpt>
<trkpt lat="-27.0786031" lon="152.5634972">
<ele>124.473</ele>
<time>2016-08-31T00:46:57.911Z</time>
</trkpt>
<trkpt lat="-27.0784230" lon="152.5628921">
<ele>125.012</ele>
<time>2016-08-31T00:46:59.951Z</time>
</trkpt>
<trkpt lat="-27.0782548" lon="152.5621451">
<ele>124.699</ele>
<time>2016-08-31T00:47:02.501Z</time>
</trkpt>
<trkpt lat="-27.0783226" lon="152.5615567">
<ele>120.989</ele>
<time>2016-08-31T00:47:04.792Z</time>
</trkpt>
<trkpt lat="-27.0785167" lon="152.5612362">
<ele>114.443</ele>
<time>2016-08-31T00:47:06.539Z</time>
</trkpt>
<trkpt lat="-27.0788037" lon="152.5609864">
<ele>108.731</ele>
<time>2016-08-31T00:47:08.537Z</time>
</trkpt>
<trkpt lat="-27.0791654" lon="152.5608511">
<ele>105.962</ele>
<time>2016-08-31T00:47:10.670Z</time>
</trkpt>
<trkpt lat="-27.0797247" lon="152.5609081">
<ele>105.459</ele>
<time>2016-08-31T00:47:13.729Z</time>
</trkpt>
<trkpt lat="-27.0800399" lon="152.5611386">
<ele>106.305</ele>
<time>2016-08-31T00:47:15.775Z</time>
</trkpt>
<trkpt lat="-27.0804584" lon="152.5616437">
<ele>107.814</ele>
<time>2016-08-31T00:47:19.044Z</time>
</trkpt>
<trkpt lat="-27.0807177" lon="152.5619466">
<ele>109.982</ele>
<time>2016-08-31T00:47:20.954Z</time>
</trkpt>
<trkpt lat="-27.0812521" lon="152.5621581">
<ele>112.950</ele>
<time>2016-08-31T00:47:23.847Z</time>
</trkpt>
<trkpt lat="-27.0816221" lon="152.5621349">
<ele>116.064</ele>
<time>2016-08-31T00:47:25.801Z</time>
</trkpt>
<trkpt lat="-27.0820643" lon="152.5618515">
<ele>118.866</ele>
<time>2016-08-31T00:47:28.543Z</time>
</trkpt>
<trkpt lat="-27.0824521" lon="152.5614114">
<ele>121.471</ele>
<time>2016-08-31T00:47:31.612Z</time>
</trkpt>
<trkpt lat="-27.0827819" lon="152.5612557">
<ele>123.362</ele>
<time>2016-08-31T00:47:33.620Z</time>
</trkpt>
<trkpt lat="-27.0833579" lon="152.5613405">
<ele>124.118</ele>
<time>2016-08-31T00:47:36.839Z</time>
</trkpt>
<trkpt lat="-27.0837671" lon="152.5615202">
<ele>124.015</ele>
<time>2016-08-31T00:47:39.182Z</time>
</trkpt>
<trkpt lat="-27.0843961" lon="152.5617911">
<ele>123.870</ele>
<time>2016-08-31T00:47:42.303Z</time>
</trkpt>
<trkpt lat="-27.0850029" lon="152.5618799">
<ele>124.196</ele>
<time>2016-08-31T00:47:45.101Z</time>
</trkpt>
<trkpt lat="-27.0854016" lon="152.5617971">
<ele>124.037</ele>
<time>2016-08-31T00:47:47.012Z</time>
</trkpt>
<trkpt lat="-27.0857641" lon="152.5615807">
<ele>122.413</ele>
<time>2016-08-31T00:47:49.072Z</time>
</trkpt>
<trkpt lat="-27.0861592" lon="152.5610513">
<ele>120.170</ele>
<time>2016-08-31T00:47:52.148Z</time>
</trkpt>
<trkpt lat="-27.0863690" lon="152.5606747">
<ele>118.494</ele>
<time>2016-08-31T00:47:54.085Z</time>
</trkpt>
<trkpt lat="-27.0865350" lon="152.5603519">
<ele>117.134</ele>
<time>2016-08-31T00:47:55.699Z</time>
</trkpt>
<trkpt lat="-27.0868285" lon="152.5600804">
<ele>114.640</ele>
<time>2016-08-31T00:47:57.728Z</time>
</trkpt>
<trkpt lat="-27.0870837" lon="152.5600558">
<ele>109.974</ele>
<time>2016-08-31T00:47:59.417Z</time>
</trkpt>
<trkpt lat="-27.0873237" lon="152.5601771">
<ele>104.597</ele>
<time>2016-08-31T00:48:01.261Z</time>
</trkpt>
<trkpt lat="-27.0875234" lon="152.5604480">
<ele>101.048</ele>
<time>2016-08-31T00:48:03.726Z</time>
</trkpt>
<trkpt lat="-27.0876811" lon="152.5607938">
<ele>100.471</ele>
<time>2016-08-31T00:48:06.279Z</time>
</trkpt>
<trkpt lat="-27.0879923" lon="152.5613840">
<ele>102.814</ele>
<time>2016-08-31T00:48:09.991Z</time>
</trkpt>
<trkpt lat="-27.0882411" lon="152.5617580">
<ele>107.249</ele>
<time>2016-08-31T00:48:12.143Z</time>
</trkpt>
<trkpt lat="-27.0885743" lon="152.5622703">
<ele>111.778</ele>
<time>2016-08-31T00:48:14.878Z</time>
</trkpt>
<trkpt lat="-27.0889722" lon="152.5626865">
<ele>113.911</ele>
<time>2016-08-31T00:48:17.661Z</time>
</trkpt>
<trkpt lat="-27.0893170" lon="152.5628660">
<ele>112.781</ele>
<time>2016-08-31T00:48:19.705Z</time>
</trkpt>
<trkpt lat="-27.0899549" lon="152.5629424">
<ele>110.021</ele>
<time>2016-08-31T00:48:23.022Z</time>
</trkpt>
<trkpt lat="-27.0903980" lon="152.5629372">
<ele>107.696</ele>
<time>2016-08-31T00:48:25.167Z</time>
</trkpt>
<trkpt lat="-27.0907619" lon="152.5629290">
<ele>106.634</ele>
<time>2016-08-31T00:48:26.839Z</time>
</trkpt>
<trkpt lat="-27.0912596" lon="152.5627419">
<ele>106.610</ele>
<time>2016-08-31T00:48:29.467Z</time>
</trkpt>
<trkpt lat="-27.0916092" lon="152.5623839">
<ele>106.899</ele>
<time>2016-08-31T00:48:32.107Z</time>
</trkpt>
<trkpt lat="-27.0918467" lon="152.5621436">
<ele>106.962</ele>
<time>2016-08-31T00:48:34.063Z</time>
</trkpt>
<trkpt lat="-27.0921063" lon="152.5619595">
<ele>106.766</ele>
<time>2016-08-31T00:48:35.972Z</time>
</trkpt>
<trkpt lat="-27.0925785" lon="152.5618331">
<ele>106.664</ele>
<time>2016-08-31T00:48:39.006Z</time>
</trkpt>
<trkpt lat="-27.0930770" lon="152.5619139">
<ele>106.891</ele>
<time>2016-08-31T00:48:42.142Z</time>
</trkpt>
<trkpt lat="-27.0935100" lon="152.5620803">
<ele>107.260</ele>
<time>2016-08-31T00:48:44.952Z</time>
</trkpt>
<trkpt lat="-27.0938932" lon="152.5620449">
<ele>107.432</ele>
<time>2016-08-31T00:48:47.375Z</time>
</trkpt>
<trkpt lat="-27.0941513" lon="152.5619970">
<ele>107.261</ele>
<time>2016-08-31T00:48:49.169Z</time>
</trkpt>
<trkpt lat="-27.0944783" lon="152.5620366">
<ele>106.895</ele>
<time>2016-08-31T00:48:51.560Z</time>
</trkpt>
<trkpt lat="-27.0948259" lon="152.5620623">
<ele>106.888</ele>
<time>2016-08-31T00:48:54.042Z</time>
</trkpt>
<trkpt lat="-27.0953108" lon="152.5621031">
<ele>107.511</ele>
<time>2016-08-31T00:48:57.041Z</time>
</trkpt>
<trkpt lat="-27.0955947" lon="152.5622696">
<ele>108.137</ele>
<time>2016-08-31T00:48:58.958Z</time>
</trkpt>
<trkpt lat="-27.0960914" lon="152.5623751">
<ele>108.196</ele>
<time>2016-08-31T00:49:02.077Z</time>
</trkpt>
<trkpt lat="-27.0966078" lon="152.5624373">
<ele>108.169</ele>
<time>2016-08-31T00:49:05.249Z</time>
</trkpt>
<trkpt lat="-27.0969391" lon="152.5626159">
<ele>108.601</ele>
<time>2016-08-31T00:49:07.380Z</time>
</trkpt>
<trkpt lat="-27.0972757" lon="152.5627746">
<ele>109.235</ele>
<time>2016-08-31T00:49:09.458Z</time>
</trkpt>
<trkpt lat="-27.0978087" lon="152.5628255">
<ele>109.647</ele>
<time>2016-08-31T00:49:12.462Z</time>
</trkpt>
<trkpt lat="-27.0981878" lon="152.5627035">
<ele>109.858</ele>
<time>2016-08-31T00:49:14.651Z</time>
</trkpt>
<trkpt lat="-27.0986689" lon="152.5626279">
<ele>110.004</ele>
<time>2016-08-31T00:49:17.267Z</time>
</trkpt>
<trkpt lat="-27.0991610" lon="152.5627701">
<ele>110.262</ele>
<time>2016-08-31T00:49:20.145Z</time>
</trkpt>
<trkpt lat="-27.0996826" lon="152.5628328">
<ele>110.979</ele>
<time>2016-08-31T00:49:23.260Z</time>
</trkpt>
<trkpt lat="-27.0999846" lon="152.5627230">
<ele>112.374</ele>
<time>2016-08-31T00:49:25.104Z</time>
</trkpt>
<trkpt lat="-27.1002227" lon="152.5624876">
<ele>114.231</ele>
<time>2016-08-31T00:49:26.983Z</time>
</trkpt>
<trkpt lat="-27.1004017" lon="152.5619805">
<ele>115.981</ele>
<time>2016-08-31T00:49:29.979Z</time>
</trkpt>
<trkpt lat="-27.1004134" lon="152.5613418">
<ele>117.131</ele>
<time>2016-08-31T00:49:33.437Z</time>
</trkpt>
<trkpt lat="-27.1004661" lon="152.5609188">
<ele>117.586</ele>
<time>2016-08-31T00:49:35.553Z</time>
</trkpt>
<trkpt lat="-27.1006385" lon="152.5602984">
<ele>117.588</ele>
<time>2016-08-31T00:49:38.559Z</time>
</trkpt>
<trkpt lat="-27.1007636" lon="152.5598647">
<ele>117.468</ele>
<time>2016-08-31T00:49:40.632Z</time>
</trkpt>
<trkpt lat="-27.1008903" lon="152.5594272">
<ele>117.409</ele>
<time>2016-08-31T00:49:42.680Z</time>
</trkpt>
<trkpt lat="-27.1010097" lon="152.5590033">
<ele>116.867</ele>
<time>2016-08-31T00:49:44.609Z</time>
</trkpt>
<trkpt lat="-27.1011470" lon="152.5586740">
<ele>114.742</ele>
<time>2016-08-31T00:49:46.204Z</time>
</trkpt>
<trkpt lat="-27.1014638" lon="152.5584005">
<ele>110.683</ele>
<time>2016-08-31T00:49:48.310Z</time>
</trkpt>
<trkpt lat="-27.1018404" lon="152.5584150">
<ele>106.199</ele>
<time>2016-08-31T00:49:50.689Z</time>
</trkpt>
<trkpt lat="-27.1020723" lon="152.5585916">
<ele>103.500</ele>
<time>2016-08-31T00:49:52.658Z</time>
</trkpt>
<trkpt lat="-27.1022482" lon="152.5589448">
<ele>103.206</ele>
<time>2016-08-31T00:49:55.425Z</time>
</trkpt>
<trkpt lat="-27.1024791" lon="152.5592889">
<ele>104.533</ele>
<time>2016-08-31T00:49:58.138Z</time>
</trkpt>
<trkpt lat="-27.1027074" lon="152.5596253">
<ele>106.507</ele>
<time>2016-08-31T00:50:00.387Z</time>
</trkpt>
<trkpt lat="-27.1029257" lon="152.5599509">
<ele>107.924</ele>
<time>2016-08-31T00:50:02.353Z</time>
</trkpt>
<trkpt lat="-27.1033329" lon="152.5603096">
<ele>108.177</ele>
<time>2016-08-31T00:50:05.124Z</time>
</trkpt>
<trkpt lat="-27.1036557" lon="152.5603876">
<ele>107.761</ele>
<time>2016-08-31T00:50:06.976Z</time>
</trkpt>
<trkpt lat="-27.1039820" lon="152.5603519">
<ele>107.339</ele>
<time>2016-08-31T00:50:08.874Z</time>
</trkpt>
<trkpt lat="-27.1042995" lon="152.5602597">
<ele>107.181</ele>
<time>2016-08-31T00:50:10.874Z</time>
</trkpt>
<trkpt lat="-27.1046221" lon="152.5601758">
<ele>107.171</ele>
<time>2016-08-31T00:50:12.915Z</time>
</trkpt>
<trkpt lat="-27.1050531" lon="152.5602267">
<ele>107.110</ele>
<time>2016-08-31T00:50:15.554Z</time>
</trkpt>
<trkpt lat="-27.1053255" lon="152.5602923">
<ele>106.982</ele>
<time>2016-08-31T00:50:17.308Z</time>
</trkpt>
<trkpt lat="-27.1057271" lon="152.5602126">
<ele>107.261</ele>
<time>2016-08-31T00:50:20.038Z</time>
</trkpt>
<trkpt lat="-27.1059505" lon="152.5600279">
<ele>108.387</ele>
<time>2016-08-31T00:50:22.023Z</time>
</trkpt>
<trkpt lat="-27.1062968" lon="152.5597141">
<ele>109.799</ele>
<time>2016-08-31T00:50:25.275Z</time>
</trkpt>
<trkpt lat="-27.1065830" lon="152.5595312">
<ele>110.669</ele>
<time>2016-08-31T00:50:27.606Z</time>
</trkpt>
<trkpt lat="-27.1068647" lon="152.5593450">
<ele>110.982</ele>
<time>2016-08-31T00:50:29.807Z</time>
</trkpt>
<trkpt lat="-27.1073042" lon="152.5590257">
<ele>111.121</ele>
<time>2016-08-31T00:50:33.025Z</time>
</trkpt>
<trkpt lat="-27.1076533" lon="152.5586275">
<ele>111.296</ele>
<time>2016-08-31T00:50:35.957Z</time>
</trkpt>
<trkpt lat="-27.1079068" lon="152.5584108">
<ele>111.472</ele>
<time>2016-08-31T00:50:37.835Z</time>
</trkpt>
<trkpt lat="-27.1083735" lon="152.5582552">
<ele>111.497</ele>
<time>2016-08-31T00:50:40.744Z</time>
</trkpt>
<trkpt lat="-27.1088809" lon="152.5582326">
<ele>111.316</ele>
<time>2016-08-31T00:50:43.850Z</time>
</trkpt>
<trkpt lat="-27.1091883" lon="152.5582209">
<ele>111.092</ele>
<time>2016-08-31T00:50:45.711Z</time>
</trkpt>
<trkpt lat="-27.1096435" lon="152.5581452">
<ele>110.948</ele>
<time>2016-08-31T00:50:48.510Z</time>
</trkpt>
<trkpt lat="-27.1099169" lon="152.5580200">
<ele>110.850</ele>
<time>2016-08-31T00:50:50.401Z</time>
</trkpt>
<trkpt lat="-27.1102391" lon="152.5576771">
<ele>110.855</ele>
<time>2016-08-31T00:50:53.355Z</time>
</trkpt>
<trkpt lat="-27.1103837" lon="152.5572124">
<ele>111.118</ele>
<time>2016-08-31T00:50:56.342Z</time>
</trkpt>
<trkpt lat="-27.1104179" lon="152.5568726">
<ele>111.762</ele>
<time>2016-08-31T00:50:58.402Z</time>
</trkpt>
<trkpt lat="-27.1104824" lon="152.5564274">
<ele>112.605</ele>
<time>2016-08-31T00:51:01.091Z</time>
</trkpt>
<trkpt lat="-27.1105600" lon="152.5562026">
<ele>113.230</ele>
<time>2016-08-31T00:51:02.549Z</time>
</trkpt>
<trkpt lat="-27.1107921" lon="152.5560611">
<ele>113.350</ele>
<time>2016-08-31T00:51:04.417Z</time>
</trkpt>
<trkpt lat="-27.1109392" lon="152.5562119">
<ele>113.063</ele>
<time>2016-08-31T00:51:05.972Z</time>
</trkpt>
<trkpt lat="-27.1110902" lon="152.5564399">
<ele>112.803</ele>
<time>2016-08-31T00:51:08.333Z</time>
</trkpt>
<trkpt lat="-27.1113533" lon="152.5567963">
<ele>113.047</ele>
<time>2016-08-31T00:51:12.678Z</time>
</trkpt>
<trkpt lat="-27.1115472" lon="152.5569448">
<ele>113.727</ele>
<time>2016-08-31T00:51:14.722Z</time>
</trkpt>
<trkpt lat="-27.1118106" lon="152.5569624">
<ele>114.349</ele>
<time>2016-08-31T00:51:16.783Z</time>
</trkpt>
<trkpt lat="-27.1121137" lon="152.5568986">
<ele>114.638</ele>
<time>2016-08-31T00:51:19.182Z</time>
</trkpt>
<trkpt lat="-27.1126295" lon="152.5567228">
<ele>114.875</ele>
<time>2016-08-31T00:51:23.167Z</time>
</trkpt>
<trkpt lat="-27.1129486" lon="152.5565806">
<ele>115.432</ele>
<time>2016-08-31T00:51:25.239Z</time>
</trkpt>
<trkpt lat="-27.1132413" lon="152.5563842">
<ele>116.176</ele>
<time>2016-08-31T00:51:27.211Z</time>
</trkpt>
<trkpt lat="-27.1135151" lon="152.5561638">
<ele>116.668</ele>
<time>2016-08-31T00:51:29.124Z</time>
</trkpt>
<trkpt lat="-27.1139112" lon="152.5558518">
<ele>116.790</ele>
<time>2016-08-31T00:51:31.922Z</time>
</trkpt>
<trkpt lat="-27.1141431" lon="152.5556582">
<ele>116.573</ele>
<time>2016-08-31T00:51:33.666Z</time>
</trkpt>
<trkpt lat="-27.1143952" lon="152.5553178">
<ele>116.040</ele>
<time>2016-08-31T00:51:36.165Z</time>
</trkpt>
<trkpt lat="-27.1144658" lon="152.5548876">
<ele>115.272</ele>
<time>2016-08-31T00:51:38.886Z</time>
</trkpt>
<trkpt lat="-27.1144159" lon="152.5544734">
<ele>114.413</ele>
<time>2016-08-31T00:51:41.672Z</time>
</trkpt>
<trkpt lat="-27.1143185" lon="152.5540463">
<ele>113.589</ele>
<time>2016-08-31T00:51:44.731Z</time>
</trkpt>
<trkpt lat="-27.1141395" lon="152.5536655">
<ele>112.736</ele>
<time>2016-08-31T00:51:47.743Z</time>
</trkpt>
<trkpt lat="-27.1139906" lon="152.5533040">
<ele>111.641</ele>
<time>2016-08-31T00:51:50.522Z</time>
</trkpt>
<trkpt lat="-27.1140599" lon="152.5530075">
<ele>110.084</ele>
<time>2016-08-31T00:51:52.691Z</time>
</trkpt>
<trkpt lat="-27.1142923" lon="152.5529596">
<ele>107.988</ele>
<time>2016-08-31T00:51:54.633Z</time>
</trkpt>
<trkpt lat="-27.1146664" lon="152.5531064">
<ele>105.798</ele>
<time>2016-08-31T00:51:58.447Z</time>
</trkpt>
<trkpt lat="-27.1150475" lon="152.5533560">
<ele>104.170</ele>
<time>2016-08-31T00:52:02.565Z</time>
</trkpt>
<trkpt lat="-27.1153668" lon="152.5536766">
<ele>103.083</ele>
<time>2016-08-31T00:52:05.667Z</time>
</trkpt>
<trkpt lat="-27.1157470" lon="152.5538846">
<ele>101.907</ele>
<time>2016-08-31T00:52:08.531Z</time>
</trkpt>
<trkpt lat="-27.1161581" lon="152.5537718">
<ele>100.320</ele>
<time>2016-08-31T00:52:11.446Z</time>
</trkpt>
<trkpt lat="-27.1164951" lon="152.5534257">
<ele>98.364</ele>
<time>2016-08-31T00:52:14.643Z</time>
</trkpt>
<trkpt lat="-27.1166457" lon="152.5529536">
<ele>96.107</ele>
<time>2016-08-31T00:52:17.685Z</time>
</trkpt>
<trkpt lat="-27.1167695" lon="152.5526639">
<ele>93.737</ele>
<time>2016-08-31T00:52:19.593Z</time>
</trkpt>
<trkpt lat="-27.1170717" lon="152.5523795">
<ele>91.437</ele>
<time>2016-08-31T00:52:22.262Z</time>
</trkpt>
<trkpt lat="-27.1173124" lon="152.5522213">
<ele>89.318</ele>
<time>2016-08-31T00:52:24.255Z</time>
</trkpt>
<trkpt lat="-27.1175690" lon="152.5520729">
<ele>87.571</ele>
<time>2016-08-31T00:52:26.360Z</time>
</trkpt>
<trkpt lat="-27.1179335" lon="152.5518429">
<ele>86.167</ele>
<time>2016-08-31T00:52:29.367Z</time>
</trkpt>
<trkpt lat="-27.1181749" lon="152.5516879">
<ele>84.850</ele>
<time>2016-08-31T00:52:31.336Z</time>
</trkpt>
<trkpt lat="-27.1184351" lon="152.5515379">
<ele>83.362</ele>
<time>2016-08-31T00:52:33.402Z</time>
</trkpt>
<trkpt lat="-27.1186933" lon="152.5513949">
<ele>81.562</ele>
<time>2016-08-31T00:52:35.419Z</time>
</trkpt>
<trkpt lat="-27.1190590" lon="152.5511266">
<ele>79.698</ele>
<time>2016-08-31T00:52:38.458Z</time>
</trkpt>
<trkpt lat="-27.1192691" lon="152.5509090">
<ele>78.152</ele>
<time>2016-08-31T00:52:40.432Z</time>
</trkpt>
<trkpt lat="-27.1195529" lon="152.5505884">
<ele>76.813</ele>
<time>2016-08-31T00:52:43.209Z</time>
</trkpt>
<trkpt lat="-27.1198488" lon="152.5503313">
<ele>75.296</ele>
<time>2016-08-31T00:52:45.871Z</time>
</trkpt>
<trkpt lat="-27.1200894" lon="152.5502192">
<ele>73.732</ele>
<time>2016-08-31T00:52:47.805Z</time>
</trkpt>
<trkpt lat="-27.1205528" lon="152.5502224">
<ele>72.656</ele>
<time>2016-08-31T00:52:51.383Z</time>
</trkpt>
<trkpt lat="-27.1210538" lon="152.5503119">
<ele>72.664</ele>
<time>2016-08-31T00:52:54.961Z</time>
</trkpt>
<trkpt lat="-27.1215753" lon="152.5503955">
<ele>73.974</ele>
<time>2016-08-31T00:52:58.232Z</time>
</trkpt>
<trkpt lat="-27.1221410" lon="152.5505179">
<ele>75.846</ele>
<time>2016-08-31T00:53:01.516Z</time>
</trkpt>
<trkpt lat="-27.1227299" lon="152.5506142">
<ele>77.181</ele>
<time>2016-08-31T00:53:04.726Z</time>
</trkpt>
<trkpt lat="-27.1232874" lon="152.5506276">
<ele>77.610</ele>
<time>2016-08-31T00:53:07.669Z</time>
</trkpt>
<trkpt lat="-27.1236630" lon="152.5506203">
<ele>77.280</ele>
<time>2016-08-31T00:53:09.640Z</time>
</trkpt>
<trkpt lat="-27.1242374" lon="152.5505991">
<ele>76.577</ele>
<time>2016-08-31T00:53:12.639Z</time>
</trkpt>
<trkpt lat="-27.1246249" lon="152.5506121">
<ele>76.025</ele>
<time>2016-08-31T00:53:14.638Z</time>
</trkpt>
<trkpt lat="-27.1252338" lon="152.5506845">
<ele>75.921</ele>
<time>2016-08-31T00:53:17.733Z</time>
</trkpt>
<trkpt lat="-27.1256258" lon="152.5507899">
<ele>76.158</ele>
<time>2016-08-31T00:53:19.746Z</time>
</trkpt>
<trkpt lat="-27.1261913" lon="152.5510484">
<ele>76.494</ele>
<time>2016-08-31T00:53:22.743Z</time>
</trkpt>
<trkpt lat="-27.1267259" lon="152.5514295">
<ele>76.763</ele>
<time>2016-08-31T00:53:25.797Z</time>
</trkpt>
<trkpt lat="-27.1270203" lon="152.5517272">
<ele>76.930</ele>
<time>2016-08-31T00:53:27.690Z</time>
</trkpt>
<trkpt lat="-27.1273337" lon="152.5520357">
<ele>77.022</ele>
<time>2016-08-31T00:53:29.690Z</time>
</trkpt>
<trkpt lat="-27.1278249" lon="152.5524917">
<ele>77.135</ele>
<time>2016-08-31T00:53:32.749Z</time>
</trkpt>
<trkpt lat="-27.1281891" lon="152.5527751">
<ele>77.370</ele>
<time>2016-08-31T00:53:34.842Z</time>
</trkpt>
<trkpt lat="-27.1288270" lon="152.5531329">
<ele>77.743</ele>
<time>2016-08-31T00:53:38.015Z</time>
</trkpt>
<trkpt lat="-27.1293752" lon="152.5533293">
<ele>78.404</ele>
<time>2016-08-31T00:53:40.392Z</time>
</trkpt>
<trkpt lat="-27.1303111" lon="152.5536451">
<ele>80.309</ele>
<time>2016-08-31T00:53:43.837Z</time>
</trkpt>
<trkpt lat="-27.1309550" lon="152.5538834">
<ele>84.827</ele>
<time>2016-08-31T00:53:46.044Z</time>
</trkpt>
<trkpt lat="-27.1318647" lon="152.5541961">
<ele>90.948</ele>
<time>2016-08-31T00:53:49.021Z</time>
</trkpt>
<trkpt lat="-27.1324641" lon="152.5543702">
<ele>95.360</ele>
<time>2016-08-31T00:53:50.978Z</time>
</trkpt>
<trkpt lat="-27.1330498" lon="152.5544995">
<ele>96.515</ele>
<time>2016-08-31T00:53:52.898Z</time>
</trkpt>
<trkpt lat="-27.1336503" lon="152.5546024">
<ele>95.610</ele>
<time>2016-08-31T00:53:54.871Z</time>
</trkpt>
<trkpt lat="-27.1345849" lon="152.5546666">
<ele>94.246</ele>
<time>2016-08-31T00:53:57.907Z</time>
</trkpt>
<trkpt lat="-27.1355498" lon="152.5546425">
<ele>93.285</ele>
<time>2016-08-31T00:54:00.970Z</time>
</trkpt>
<trkpt lat="-27.1361604" lon="152.5545731">
<ele>92.821</ele>
<time>2016-08-31T00:54:02.922Z</time>
</trkpt>
<trkpt lat="-27.1369257" lon="152.5544492">
<ele>92.048</ele>
<time>2016-08-31T00:54:05.583Z</time>
</trkpt>
<trkpt lat="-27.1375181" lon="152.5543107">
<ele>89.359</ele>
<time>2016-08-31T00:54:07.948Z</time>
</trkpt>
<trkpt lat="-27.1379599" lon="152.5541728">
<ele>83.834</ele>
<time>2016-08-31T00:54:09.991Z</time>
</trkpt>
<trkpt lat="-27.1382310" lon="152.5541642">
<ele>76.805</ele>
<time>2016-08-31T00:54:11.562Z</time>
</trkpt>
<trkpt lat="-27.1382901" lon="152.5543813">
<ele>70.455</ele>
<time>2016-08-31T00:54:12.735Z</time>
</trkpt>
<trkpt lat="-27.1382658" lon="152.5546025">
<ele>66.116</ele>
<time>2016-08-31T00:54:14.331Z</time>
</trkpt>
<trkpt lat="-27.1382258" lon="152.5550758">
<ele>64.257</ele>
<time>2016-08-31T00:54:19.056Z</time>
</trkpt>
<trkpt lat="-27.1382080" lon="152.5554807">
<ele>64.765</ele>
<time>2016-08-31T00:54:22.592Z</time>
</trkpt>
<trkpt lat="-27.1381599" lon="152.5559843">
<ele>67.038</ele>
<time>2016-08-31T00:54:25.683Z</time>
</trkpt>
<trkpt lat="-27.1381207" lon="152.5565786">
<ele>70.654</ele>
<time>2016-08-31T00:54:28.375Z</time>
</trkpt>
<trkpt lat="-27.1380643" lon="152.5572147">
<ele>75.286</ele>
<time>2016-08-31T00:54:30.966Z</time>
</trkpt>
<trkpt lat="-27.1380100" lon="152.5578474">
<ele>79.742</ele>
<time>2016-08-31T00:54:33.332Z</time>
</trkpt>
<trkpt lat="-27.1379249" lon="152.5587894">
<ele>82.253</ele>
<time>2016-08-31T00:54:36.474Z</time>
</trkpt>
<trkpt lat="-27.1378690" lon="152.5594008">
<ele>82.504</ele>
<time>2016-08-31T00:54:38.437Z</time>
</trkpt>
<trkpt lat="-27.1378303" lon="152.5599962">
<ele>81.718</ele>
<time>2016-08-31T00:54:40.372Z</time>
</trkpt>
<trkpt lat="-27.1378253" lon="152.5608480">
<ele>80.909</ele>
<time>2016-08-31T00:54:43.277Z</time>
</trkpt>
<trkpt lat="-27.1379659" lon="152.5616527">
<ele>79.931</ele>
<time>2016-08-31T00:54:46.190Z</time>
</trkpt>
<trkpt lat="-27.1382253" lon="152.5624049">
<ele>78.382</ele>
<time>2016-08-31T00:54:49.120Z</time>
</trkpt>
<trkpt lat="-27.1384893" lon="152.5628752">
<ele>76.764</ele>
<time>2016-08-31T00:54:51.144Z</time>
</trkpt>
<trkpt lat="-27.1388113" lon="152.5632999">
<ele>76.007</ele>
<time>2016-08-31T00:54:53.143Z</time>
</trkpt>
<trkpt lat="-27.1392079" lon="152.5636774">
<ele>76.205</ele>
<time>2016-08-31T00:54:55.185Z</time>
</trkpt>
<trkpt lat="-27.1399420" lon="152.5641788">
<ele>76.923</ele>
<time>2016-08-31T00:54:58.353Z</time>
</trkpt>
<trkpt lat="-27.1404937" lon="152.5644805">
<ele>78.236</ele>
<time>2016-08-31T00:55:00.455Z</time>
</trkpt>
<trkpt lat="-27.1410706" lon="152.5647793">
<ele>80.235</ele>
<time>2016-08-31T00:55:02.516Z</time>
</trkpt>
<trkpt lat="-27.1419129" lon="152.5652214">
<ele>82.267</ele>
<time>2016-08-31T00:55:05.511Z</time>
</trkpt>
<trkpt lat="-27.1426979" lon="152.5656297">
<ele>83.669</ele>
<time>2016-08-31T00:55:08.406Z</time>
</trkpt>
<trkpt lat="-27.1434735" lon="152.5660334">
<ele>83.735</ele>
<time>2016-08-31T00:55:11.354Z</time>
</trkpt>
<trkpt lat="-27.1439878" lon="152.5663104">
<ele>82.321</ele>
<time>2016-08-31T00:55:13.331Z</time>
</trkpt>
<trkpt lat="-27.1445107" lon="152.5665899">
<ele>80.699</ele>
<time>2016-08-31T00:55:15.346Z</time>
</trkpt>
<trkpt lat="-27.1452773" lon="152.5669998">
<ele>79.943</ele>
<time>2016-08-31T00:55:18.309Z</time>
</trkpt>
<trkpt lat="-27.1457837" lon="152.5673089">
<ele>79.870</ele>
<time>2016-08-31T00:55:20.320Z</time>
</trkpt>
<trkpt lat="-27.1464869" lon="152.5678343">
<ele>79.929</ele>
<time>2016-08-31T00:55:23.274Z</time>
</trkpt>
<trkpt lat="-27.1471666" lon="152.5683974">
<ele>79.950</ele>
<time>2016-08-31T00:55:26.247Z</time>
</trkpt>
<trkpt lat="-27.1478134" lon="152.5689359">
<ele>80.200</ele>
<time>2016-08-31T00:55:29.140Z</time>
</trkpt>
<trkpt lat="-27.1484978" lon="152.5693693">
<ele>80.684</ele>
<time>2016-08-31T00:55:32.045Z</time>
</trkpt>
<trkpt lat="-27.1492329" lon="152.5696923">
<ele>81.018</ele>
<time>2016-08-31T00:55:35.012Z</time>
</trkpt>
<trkpt lat="-27.1497493" lon="152.5698419">
<ele>80.771</ele>
<time>2016-08-31T00:55:37.023Z</time>
</trkpt>
<trkpt lat="-27.1505498" lon="152.5699850">
<ele>79.923</ele>
<time>2016-08-31T00:55:40.044Z</time>
</trkpt>
<trkpt lat="-27.1511068" lon="152.5700049">
<ele>79.084</ele>
<time>2016-08-31T00:55:42.084Z</time>
</trkpt>
<trkpt lat="-27.1516705" lon="152.5699641">
<ele>78.827</ele>
<time>2016-08-31T00:55:44.109Z</time>
</trkpt>
<trkpt lat="-27.1522511" lon="152.5698770">
<ele>79.110</ele>
<time>2016-08-31T00:55:46.166Z</time>
</trkpt>
<trkpt lat="-27.1531226" lon="152.5697195">
<ele>79.915</ele>
<time>2016-08-31T00:55:49.184Z</time>
</trkpt>
<trkpt lat="-27.1536980" lon="152.5696158">
<ele>81.546</ele>
<time>2016-08-31T00:55:51.162Z</time>
</trkpt>
<trkpt lat="-27.1542500" lon="152.5695167">
<ele>83.839</ele>
<time>2016-08-31T00:55:53.081Z</time>
</trkpt>
<trkpt lat="-27.1550553" lon="152.5693715">
<ele>85.932</ele>
<time>2016-08-31T00:55:55.974Z</time>
</trkpt>
<trkpt lat="-27.1555916" lon="152.5693004">
<ele>87.587</ele>
<time>2016-08-31T00:55:57.931Z</time>
</trkpt>
<trkpt lat="-27.1563898" lon="152.5693093">
<ele>89.135</ele>
<time>2016-08-31T00:56:00.890Z</time>
</trkpt>
<trkpt lat="-27.1571712" lon="152.5695017">
<ele>90.978</ele>
<time>2016-08-31T00:56:03.906Z</time>
</trkpt>
<trkpt lat="-27.1579019" lon="152.5698091">
<ele>93.377</ele>
<time>2016-08-31T00:56:06.873Z</time>
</trkpt>
<trkpt lat="-27.1583848" lon="152.5700868">
<ele>95.877</ele>
<time>2016-08-31T00:56:08.919Z</time>
</trkpt>
<trkpt lat="-27.1590976" lon="152.5705114">
<ele>97.892</ele>
<time>2016-08-31T00:56:11.918Z</time>
</trkpt>
<trkpt lat="-27.1595531" lon="152.5707843">
<ele>99.514</ele>
<time>2016-08-31T00:56:13.851Z</time>
</trkpt>
<trkpt lat="-27.1599864" lon="152.5710580">
<ele>100.866</ele>
<time>2016-08-31T00:56:15.761Z</time>
</trkpt>
<trkpt lat="-27.1604442" lon="152.5713307">
<ele>102.129</ele>
<time>2016-08-31T00:56:17.784Z</time>
</trkpt>
<trkpt lat="-27.1611855" lon="152.5717750">
<ele>103.934</ele>
<time>2016-08-31T00:56:20.937Z</time>
</trkpt>
<trkpt lat="-27.1616431" lon="152.5720697">
<ele>106.412</ele>
<time>2016-08-31T00:56:22.870Z</time>
</trkpt>
<trkpt lat="-27.1622839" lon="152.5724596">
<ele>108.619</ele>
<time>2016-08-31T00:56:25.629Z</time>
</trkpt>
<trkpt lat="-27.1627410" lon="152.5727300">
<ele>109.729</ele>
<time>2016-08-31T00:56:27.644Z</time>
</trkpt>
<trkpt lat="-27.1632007" lon="152.5730001">
<ele>110.266</ele>
<time>2016-08-31T00:56:29.684Z</time>
</trkpt>
<trkpt lat="-27.1638703" lon="152.5733942">
<ele>111.684</ele>
<time>2016-08-31T00:56:32.660Z</time>
</trkpt>
<trkpt lat="-27.1645227" lon="152.5737227">
<ele>115.262</ele>
<time>2016-08-31T00:56:35.537Z</time>
</trkpt>
<trkpt lat="-27.1649801" lon="152.5738620">
<ele>121.059</ele>
<time>2016-08-31T00:56:37.478Z</time>
</trkpt>
<trkpt lat="-27.1656822" lon="152.5739242">
<ele>127.963</ele>
<time>2016-08-31T00:56:40.424Z</time>
</trkpt>
<trkpt lat="-27.1663681" lon="152.5738860">
<ele>134.621</ele>
<time>2016-08-31T00:56:43.329Z</time>
</trkpt>
<trkpt lat="-27.1668440" lon="152.5738444">
<ele>139.867</ele>
<time>2016-08-31T00:56:45.365Z</time>
</trkpt>
<trkpt lat="-27.1673353" lon="152.5738108">
<ele>143.179</ele>
<time>2016-08-31T00:56:47.443Z</time>
</trkpt>
<trkpt lat="-27.1680832" lon="152.5737351">
<ele>144.877</ele>
<time>2016-08-31T00:56:50.506Z</time>
</trkpt>
<trkpt lat="-27.1685728" lon="152.5736692">
<ele>145.241</ele>
<time>2016-08-31T00:56:52.487Z</time>
</trkpt>
<trkpt lat="-27.1690416" lon="152.5735222">
<ele>144.401</ele>
<time>2016-08-31T00:56:54.427Z</time>
</trkpt>
<trkpt lat="-27.1697218" lon="152.5731767">
<ele>143.102</ele>
<time>2016-08-31T00:56:57.446Z</time>
</trkpt>
<trkpt lat="-27.1703314" lon="152.5726480">
<ele>142.268</ele>
<time>2016-08-31T00:57:00.547Z</time>
</trkpt>
<trkpt lat="-27.1708349" lon="152.5719997">
<ele>142.633</ele>
<time>2016-08-31T00:57:03.582Z</time>
</trkpt>
<trkpt lat="-27.1711603" lon="152.5712571">
<ele>144.381</ele>
<time>2016-08-31T00:57:06.492Z</time>
</trkpt>
<trkpt lat="-27.1713678" lon="152.5704710">
<ele>146.767</ele>
<time>2016-08-31T00:57:09.417Z</time>
</trkpt>
<trkpt lat="-27.1714751" lon="152.5699373">
<ele>149.011</ele>
<time>2016-08-31T00:57:11.392Z</time>
</trkpt>
<trkpt lat="-27.1715918" lon="152.5694263">
<ele>150.781</ele>
<time>2016-08-31T00:57:13.312Z</time>
</trkpt>
<trkpt lat="-27.1718517" lon="152.5686843">
<ele>151.706</ele>
<time>2016-08-31T00:57:16.275Z</time>
</trkpt>
<trkpt lat="-27.1720736" lon="152.5681979">
<ele>151.680</ele>
<time>2016-08-31T00:57:18.321Z</time>
</trkpt>
<trkpt lat="-27.1725162" lon="152.5674976">
<ele>151.147</ele>
<time>2016-08-31T00:57:21.460Z</time>
</trkpt>
<trkpt lat="-27.1728774" lon="152.5670661">
<ele>150.659</ele>
<time>2016-08-31T00:57:23.563Z</time>
</trkpt>
<trkpt lat="-27.1732591" lon="152.5666972">
<ele>150.454</ele>
<time>2016-08-31T00:57:25.512Z</time>
</trkpt>
<trkpt lat="-27.1738917" lon="152.5662180">
<ele>149.903</ele>
<time>2016-08-31T00:57:28.471Z</time>
</trkpt>
<trkpt lat="-27.1743622" lon="152.5659575">
<ele>148.543</ele>
<time>2016-08-31T00:57:30.505Z</time>
</trkpt>
<trkpt lat="-27.1750951" lon="152.5656692">
<ele>147.387</ele>
<time>2016-08-31T00:57:33.493Z</time>
</trkpt>
<trkpt lat="-27.1758157" lon="152.5654380">
<ele>147.537</ele>
<time>2016-08-31T00:57:36.408Z</time>
</trkpt>
<trkpt lat="-27.1762903" lon="152.5652865">
<ele>148.603</ele>
<time>2016-08-31T00:57:38.355Z</time>
</trkpt>
<trkpt lat="-27.1770280" lon="152.5650563">
<ele>149.645</ele>
<time>2016-08-31T00:57:41.412Z</time>
</trkpt>
<trkpt lat="-27.1777522" lon="152.5648359">
<ele>150.651</ele>
<time>2016-08-31T00:57:44.375Z</time>
</trkpt>
<trkpt lat="-27.1782309" lon="152.5646849">
<ele>152.037</ele>
<time>2016-08-31T00:57:46.324Z</time>
</trkpt>
<trkpt lat="-27.1789187" lon="152.5644517">
<ele>153.384</ele>
<time>2016-08-31T00:57:49.175Z</time>
</trkpt>
<trkpt lat="-27.1793791" lon="152.5642388">
<ele>153.756</ele>
<time>2016-08-31T00:57:51.182Z</time>
</trkpt>
<trkpt lat="-27.1800078" lon="152.5637517">
<ele>152.839</ele>
<time>2016-08-31T00:57:54.269Z</time>
</trkpt>
<trkpt lat="-27.1804062" lon="152.5633534">
<ele>151.032</ele>
<time>2016-08-31T00:57:56.375Z</time>
</trkpt>
<trkpt lat="-27.1807518" lon="152.5628330">
<ele>149.205</ele>
<time>2016-08-31T00:57:58.546Z</time>
</trkpt>
<trkpt lat="-27.1812918" lon="152.5618985">
<ele>148.290</ele>
<time>2016-08-31T00:58:01.859Z</time>
</trkpt>
<trkpt lat="-27.1817013" lon="152.5612359">
<ele>149.457</ele>
<time>2016-08-31T00:58:04.038Z</time>
</trkpt>
<trkpt lat="-27.1822752" lon="152.5603194">
<ele>152.548</ele>
<time>2016-08-31T00:58:06.960Z</time>
</trkpt>
<trkpt lat="-27.1828785" lon="152.5595427">
<ele>154.675</ele>
<time>2016-08-31T00:58:09.764Z</time>
</trkpt>
<trkpt lat="-27.1836387" lon="152.5587962">
<ele>153.799</ele>
<time>2016-08-31T00:58:12.880Z</time>
</trkpt>
<trkpt lat="-27.1844511" lon="152.5580629">
<ele>149.508</ele>
<time>2016-08-31T00:58:15.958Z</time>
</trkpt>
<trkpt lat="-27.1849873" lon="152.5575709">
<ele>142.673</ele>
<time>2016-08-31T00:58:17.950Z</time>
</trkpt>
<trkpt lat="-27.1855287" lon="152.5570648">
<ele>137.175</ele>
<time>2016-08-31T00:58:19.954Z</time>
</trkpt>
<trkpt lat="-27.1863088" lon="152.5563336">
<ele>136.035</ele>
<time>2016-08-31T00:58:22.873Z</time>
</trkpt>
<trkpt lat="-27.1869962" lon="152.5556643">
<ele>137.755</ele>
<time>2016-08-31T00:58:25.639Z</time>
</trkpt>
<trkpt lat="-27.1876925" lon="152.5551688">
<ele>139.883</ele>
<time>2016-08-31T00:58:28.372Z</time>
</trkpt>
<trkpt lat="-27.1884116" lon="152.5549127">
<ele>140.300</ele>
<time>2016-08-31T00:58:31.114Z</time>
</trkpt>
<trkpt lat="-27.1888972" lon="152.5548971">
<ele>138.031</ele>
<time>2016-08-31T00:58:32.983Z</time>
</trkpt>
<trkpt lat="-27.1896433" lon="152.5550444">
<ele>134.284</ele>
<time>2016-08-31T00:58:36.000Z</time>
</trkpt>
<trkpt lat="-27.1901416" lon="152.5552631">
<ele>131.103</ele>
<time>2016-08-31T00:58:38.107Z</time>
</trkpt>
<trkpt lat="-27.1909792" lon="152.5556977">
<ele>129.620</ele>
<time>2016-08-31T00:58:41.435Z</time>
</trkpt>
<trkpt lat="-27.1918857" lon="152.5561326">
<ele>130.596</ele>
<time>2016-08-31T00:58:44.647Z</time>
</trkpt>
<trkpt lat="-27.1928034" lon="152.5564828">
<ele>133.542</ele>
<time>2016-08-31T00:58:47.648Z</time>
</trkpt>
<trkpt lat="-27.1934641" lon="152.5566703">
<ele>135.803</ele>
<time>2016-08-31T00:58:49.722Z</time>
</trkpt>
<trkpt lat="-27.1944457" lon="152.5568773">
<ele>135.518</ele>
<time>2016-08-31T00:58:52.690Z</time>
</trkpt>
<trkpt lat="-27.1951349" lon="152.5569560">
<ele>133.420</ele>
<time>2016-08-31T00:58:54.720Z</time>
</trkpt>
<trkpt lat="-27.1958748" lon="152.5569920">
<ele>130.940</ele>
<time>2016-08-31T00:58:56.826Z</time>
</trkpt>
<trkpt lat="-27.1970652" lon="152.5570204">
<ele>128.680</ele>
<time>2016-08-31T00:58:59.988Z</time>
</trkpt>
<trkpt lat="-27.1982918" lon="152.5570659">
<ele>123.344</ele>
<time>2016-08-31T00:59:03.053Z</time>
</trkpt>
<trkpt lat="-27.1994742" lon="152.5570860">
<ele>112.912</ele>
<time>2016-08-31T00:59:05.987Z</time>
</trkpt>
<trkpt lat="-27.2003941" lon="152.5571153">
<ele>102.636</ele>
<time>2016-08-31T00:59:08.495Z</time>
</trkpt>
<trkpt lat="-27.2009425" lon="152.5571405">
<ele>97.035</ele>
<time>2016-08-31T00:59:10.108Z</time>
</trkpt>
<trkpt lat="-27.2017516" lon="152.5571790">
<ele>94.814</ele>
<time>2016-08-31T00:59:12.953Z</time>
</trkpt>
<trkpt lat="-27.2023141" lon="152.5571827">
<ele>94.369</ele>
<time>2016-08-31T00:59:15.003Z</time>
</trkpt>
<trkpt lat="-27.2028740" lon="152.5571621">
<ele>94.874</ele>
<time>2016-08-31T00:59:17.026Z</time>
</trkpt>
<trkpt lat="-27.2037602" lon="152.5570796">
<ele>95.214</ele>
<time>2016-08-31T00:59:20.138Z</time>
</trkpt>
<trkpt lat="-27.2043534" lon="152.5569992">
<ele>94.814</ele>
<time>2016-08-31T00:59:22.189Z</time>
</trkpt>
<trkpt lat="-27.2049345" lon="152.5569258">
<ele>94.368</ele>
<time>2016-08-31T00:59:24.153Z</time>
</trkpt>
<trkpt lat="-27.2054618" lon="152.5568542">
<ele>94.645</ele>
<time>2016-08-31T00:59:25.958Z</time>
</trkpt>
<trkpt lat="-27.2062353" lon="152.5566714">
<ele>95.422</ele>
<time>2016-08-31T00:59:28.817Z</time>
</trkpt>
<trkpt lat="-27.2067774" lon="152.5565054">
<ele>96.387</ele>
<time>2016-08-31T00:59:30.904Z</time>
</trkpt>
<trkpt lat="-27.2076394" lon="152.5562104">
<ele>97.486</ele>
<time>2016-08-31T00:59:34.109Z</time>
</trkpt>
<trkpt lat="-27.2082143" lon="152.5560163">
<ele>98.396</ele>
<time>2016-08-31T00:59:36.142Z</time>
</trkpt>
<trkpt lat="-27.2088007" lon="152.5558489">
<ele>98.823</ele>
<time>2016-08-31T00:59:38.138Z</time>
</trkpt>
<trkpt lat="-27.2096755" lon="152.5556111">
<ele>98.723</ele>
<time>2016-08-31T00:59:41.108Z</time>
</trkpt>
<trkpt lat="-27.2105656" lon="152.5553974">
<ele>97.926</ele>
<time>2016-08-31T00:59:44.110Z</time>
</trkpt>
<trkpt lat="-27.2111676" lon="152.5552514">
<ele>96.205</ele>
<time>2016-08-31T00:59:46.139Z</time>
</trkpt>
<trkpt lat="-27.2117758" lon="152.5550930">
<ele>94.035</ele>
<time>2016-08-31T00:59:48.178Z</time>
</trkpt>
<trkpt lat="-27.2126501" lon="152.5548991">
<ele>92.670</ele>
<time>2016-08-31T00:59:51.086Z</time>
</trkpt>
<trkpt lat="-27.2132119" lon="152.5548480">
<ele>92.740</ele>
<time>2016-08-31T00:59:52.954Z</time>
</trkpt>
<trkpt lat="-27.2137922" lon="152.5549037">
<ele>93.577</ele>
<time>2016-08-31T00:59:54.971Z</time>
</trkpt>
<trkpt lat="-27.2146626" lon="152.5550396">
<ele>94.900</ele>
<time>2016-08-31T00:59:58.046Z</time>
</trkpt>
<trkpt lat="-27.2152463" lon="152.5551519">
<ele>97.537</ele>
<time>2016-08-31T01:00:00.092Z</time>
</trkpt>
<trkpt lat="-27.2161130" lon="152.5553059">
<ele>101.265</ele>
<time>2016-08-31T01:00:03.053Z</time>
</trkpt>
<trkpt lat="-27.2167213" lon="152.5554245">
<ele>104.662</ele>
<time>2016-08-31T01:00:05.117Z</time>
</trkpt>
<trkpt lat="-27.2173250" lon="152.5555443">
<ele>107.363</ele>
<time>2016-08-31T01:00:07.129Z</time>
</trkpt>
<trkpt lat="-27.2182157" lon="152.5557292">
<ele>109.540</ele>
<time>2016-08-31T01:00:10.093Z</time>
</trkpt>
<trkpt lat="-27.2187900" lon="152.5558130">
<ele>110.675</ele>
<time>2016-08-31T01:00:12.008Z</time>
</trkpt>
<trkpt lat="-27.2193600" lon="152.5559163">
<ele>110.666</ele>
<time>2016-08-31T01:00:13.959Z</time>
</trkpt>
<trkpt lat="-27.2199266" lon="152.5560239">
<ele>110.050</ele>
<time>2016-08-31T01:00:15.924Z</time>
</trkpt>
<trkpt lat="-27.2208286" lon="152.5561531">
<ele>108.859</ele>
<time>2016-08-31T01:00:19.042Z</time>
</trkpt>
<trkpt lat="-27.2214667" lon="152.5562297">
<ele>106.635</ele>
<time>2016-08-31T01:00:21.170Z</time>
</trkpt>
<trkpt lat="-27.2220840" lon="152.5562715">
<ele>103.457</ele>
<time>2016-08-31T01:00:23.127Z</time>
</trkpt>
<trkpt lat="-27.2229624" lon="152.5562942">
<ele>99.270</ele>
<time>2016-08-31T01:00:25.941Z</time>
</trkpt>
<trkpt lat="-27.2235193" lon="152.5562942">
<ele>92.951</ele>
<time>2016-08-31T01:00:27.778Z</time>
</trkpt>
<trkpt lat="-27.2240447" lon="152.5562709">
<ele>84.896</ele>
<time>2016-08-31T01:00:29.612Z</time>
</trkpt>
<trkpt lat="-27.2247880" lon="152.5562191">
<ele>77.684</ele>
<time>2016-08-31T01:00:32.378Z</time>
</trkpt>
<trkpt lat="-27.2252400" lon="152.5561913">
<ele>72.796</ele>
<time>2016-08-31T01:00:34.157Z</time>
</trkpt>
<trkpt lat="-27.2258811" lon="152.5562346">
<ele>69.891</ele>
<time>2016-08-31T01:00:36.795Z</time>
</trkpt>
<trkpt lat="-27.2262918" lon="152.5563928">
<ele>68.493</ele>
<time>2016-08-31T01:00:38.741Z</time>
</trkpt>
<trkpt lat="-27.2266531" lon="152.5566853">
<ele>68.395</ele>
<time>2016-08-31T01:00:40.781Z</time>
</trkpt>
<trkpt lat="-27.2269543" lon="152.5571021">
<ele>69.496</ele>
<time>2016-08-31T01:00:42.995Z</time>
</trkpt>
<trkpt lat="-27.2272758" lon="152.5579084">
<ele>71.146</ele>
<time>2016-08-31T01:00:46.432Z</time>
</trkpt>
<trkpt lat="-27.2275056" lon="152.5585038">
<ele>73.504</ele>
<time>2016-08-31T01:00:48.718Z</time>
</trkpt>
<trkpt lat="-27.2277157" lon="152.5590678">
<ele>77.374</ele>
<time>2016-08-31T01:00:50.704Z</time>
</trkpt>
<trkpt lat="-27.2280295" lon="152.5598193">
<ele>81.909</ele>
<time>2016-08-31T01:00:53.373Z</time>
</trkpt>
<trkpt lat="-27.2282864" lon="152.5602829">
<ele>85.297</ele>
<time>2016-08-31T01:00:55.240Z</time>
</trkpt>
<trkpt lat="-27.2286077" lon="152.5607749">
<ele>87.097</ele>
<time>2016-08-31T01:00:57.400Z</time>
</trkpt>
<trkpt lat="-27.2291564" lon="152.5615715">
<ele>88.263</ele>
<time>2016-08-31T01:01:00.786Z</time>
</trkpt>
<trkpt lat="-27.2295863" lon="152.5621145">
<ele>90.124</ele>
<time>2016-08-31T01:01:03.016Z</time>
</trkpt>
<trkpt lat="-27.2302590" lon="152.5629333">
<ele>92.646</ele>
<time>2016-08-31T01:01:06.119Z</time>
</trkpt>
<trkpt lat="-27.2306872" lon="152.5634419">
<ele>94.625</ele>
<time>2016-08-31T01:01:08.027Z</time>
</trkpt>
<trkpt lat="-27.2310891" lon="152.5639290">
<ele>94.934</ele>
<time>2016-08-31T01:01:09.865Z</time>
</trkpt>
<trkpt lat="-27.2317000" lon="152.5645316">
<ele>93.597</ele>
<time>2016-08-31T01:01:12.557Z</time>
</trkpt>
<trkpt lat="-27.2321814" lon="152.5648852">
<ele>91.876</ele>
<time>2016-08-31T01:01:14.584Z</time>
</trkpt>
<trkpt lat="-27.2330127" lon="152.5653649">
<ele>91.282</ele>
<time>2016-08-31T01:01:17.861Z</time>
</trkpt>
<trkpt lat="-27.2335641" lon="152.5657001">
<ele>92.033</ele>
<time>2016-08-31T01:01:19.940Z</time>
</trkpt>
<trkpt lat="-27.2343295" lon="152.5662763">
<ele>93.067</ele>
<time>2016-08-31T01:01:22.863Z</time>
</trkpt>
<trkpt lat="-27.2350847" lon="152.5669638">
<ele>93.033</ele>
<time>2016-08-31T01:01:25.941Z</time>
</trkpt>
<trkpt lat="-27.2355706" lon="152.5674662">
<ele>91.665</ele>
<time>2016-08-31T01:01:27.999Z</time>
</trkpt>
<trkpt lat="-27.2363040" lon="152.5681891">
<ele>89.377</ele>
<time>2016-08-31T01:01:30.956Z</time>
</trkpt>
<trkpt lat="-27.2367554" lon="152.5686498">
<ele>86.094</ele>
<time>2016-08-31T01:01:32.814Z</time>
</trkpt>
<trkpt lat="-27.2373726" lon="152.5692702">
<ele>82.118</ele>
<time>2016-08-31T01:01:35.457Z</time>
</trkpt>
<trkpt lat="-27.2380010" lon="152.5697542">
<ele>78.358</ele>
<time>2016-08-31T01:01:38.090Z</time>
</trkpt>
<trkpt lat="-27.2387265" lon="152.5700113">
<ele>74.899</ele>
<time>2016-08-31T01:01:41.011Z</time>
</trkpt>
<trkpt lat="-27.2392966" lon="152.5701150">
<ele>71.926</ele>
<time>2016-08-31T01:01:43.280Z</time>
</trkpt>
<trkpt lat="-27.2402546" lon="152.5703209">
<ele>70.531</ele>
<time>2016-08-31T01:01:46.798Z</time>
</trkpt>
<trkpt lat="-27.2409178" lon="152.5705109">
<ele>71.759</ele>
<time>2016-08-31T01:01:49.023Z</time>
</trkpt>
<trkpt lat="-27.2415700" lon="152.5707642">
<ele>75.442</ele>
<time>2016-08-31T01:01:51.081Z</time>
</trkpt>
<trkpt lat="-27.2422203" lon="152.5710719">
<ele>80.038</ele>
<time>2016-08-31T01:01:53.120Z</time>
</trkpt>
<trkpt lat="-27.2431991" lon="152.5715974">
<ele>84.190</ele>
<time>2016-08-31T01:01:56.166Z</time>
</trkpt>
<trkpt lat="-27.2441778" lon="152.5721226">
<ele>87.922</ele>
<time>2016-08-31T01:01:59.160Z</time>
</trkpt>
<trkpt lat="-27.2451329" lon="152.5726364">
<ele>91.333</ele>
<time>2016-08-31T01:02:02.091Z</time>
</trkpt>
<trkpt lat="-27.2457634" lon="152.5729866">
<ele>94.673</ele>
<time>2016-08-31T01:02:04.058Z</time>
</trkpt>
<trkpt lat="-27.2466967" lon="152.5735620">
<ele>98.641</ele>
<time>2016-08-31T01:02:07.062Z</time>
</trkpt>
<trkpt lat="-27.2475587" lon="152.5740843">
<ele>102.677</ele>
<time>2016-08-31T01:02:09.858Z</time>
</trkpt>
<trkpt lat="-27.2483458" lon="152.5745639">
<ele>104.405</ele>
<time>2016-08-31T01:02:12.529Z</time>
</trkpt>
<trkpt lat="-27.2488706" lon="152.5748656">
<ele>103.056</ele>
<time>2016-08-31T01:02:14.414Z</time>
</trkpt>
<trkpt lat="-27.2497291" lon="152.5752369">
<ele>100.251</ele>
<time>2016-08-31T01:02:17.470Z</time>
</trkpt>
<trkpt lat="-27.2505767" lon="152.5754553">
<ele>97.239</ele>
<time>2016-08-31T01:02:20.386Z</time>
</trkpt>
<trkpt lat="-27.2514996" lon="152.5755637">
<ele>93.310</ele>
<time>2016-08-31T01:02:23.503Z</time>
</trkpt>
<trkpt lat="-27.2521388" lon="152.5756312">
<ele>88.344</ele>
<time>2016-08-31T01:02:25.615Z</time>
</trkpt>
<trkpt lat="-27.2530623" lon="152.5757457">
<ele>83.328</ele>
<time>2016-08-31T01:02:28.561Z</time>
</trkpt>
<trkpt lat="-27.2539520" lon="152.5759615">
<ele>78.266</ele>
<time>2016-08-31T01:02:31.466Z</time>
</trkpt>
<trkpt lat="-27.2547861" lon="152.5763288">
<ele>72.873</ele>
<time>2016-08-31T01:02:34.403Z</time>
</trkpt>
<trkpt lat="-27.2553195" lon="152.5765909">
<ele>68.269</ele>
<time>2016-08-31T01:02:36.331Z</time>
</trkpt>
<trkpt lat="-27.2561003" lon="152.5769965">
<ele>65.471</ele>
<time>2016-08-31T01:02:39.226Z</time>
</trkpt>
<trkpt lat="-27.2566182" lon="152.5772485">
<ele>64.345</ele>
<time>2016-08-31T01:02:41.179Z</time>
</trkpt>
<trkpt lat="-27.2571604" lon="152.5774621">
<ele>64.127</ele>
<time>2016-08-31T01:02:43.182Z</time>
</trkpt>
<trkpt lat="-27.2577453" lon="152.5776342">
<ele>64.495</ele>
<time>2016-08-31T01:02:45.288Z</time>
</trkpt>
<trkpt lat="-27.2586239" lon="152.5778654">
<ele>65.656</ele>
<time>2016-08-31T01:02:48.348Z</time>
</trkpt>
<trkpt lat="-27.2591593" lon="152.5780377">
<ele>67.275</ele>
<time>2016-08-31T01:02:50.204Z</time>
</trkpt>
<trkpt lat="-27.2599681" lon="152.5782485">
<ele>68.515</ele>
<time>2016-08-31T01:02:53.014Z</time>
</trkpt>
<trkpt lat="-27.2604999" lon="152.5783965">
<ele>68.962</ele>
<time>2016-08-31T01:02:54.949Z</time>
</trkpt>
<trkpt lat="-27.2613066" lon="152.5786459">
<ele>68.823</ele>
<time>2016-08-31T01:02:57.948Z</time>
</trkpt>
<trkpt lat="-27.2620739" lon="152.5790151">
<ele>68.882</ele>
<time>2016-08-31T01:03:00.931Z</time>
</trkpt>
<trkpt lat="-27.2628197" lon="152.5795290">
<ele>69.626</ele>
<time>2016-08-31T01:03:04.021Z</time>
</trkpt>
<trkpt lat="-27.2634835" lon="152.5802030">
<ele>70.736</ele>
<time>2016-08-31T01:03:07.126Z</time>
</trkpt>
<trkpt lat="-27.2640837" lon="152.5809356">
<ele>71.837</ele>
<time>2016-08-31T01:03:10.120Z</time>
</trkpt>
<trkpt lat="-27.2644648" lon="152.5813939">
<ele>72.729</ele>
<time>2016-08-31T01:03:12.000Z</time>
</trkpt>
<trkpt lat="-27.2650004" lon="152.5820622">
<ele>73.081</ele>
<time>2016-08-31T01:03:14.747Z</time>
</trkpt>
<trkpt lat="-27.2653543" lon="152.5825024">
<ele>72.813</ele>
<time>2016-08-31T01:03:16.655Z</time>
</trkpt>
<trkpt lat="-27.2657027" lon="152.5829417">
<ele>72.133</ele>
<time>2016-08-31T01:03:18.577Z</time>
</trkpt>
<trkpt lat="-27.2660594" lon="152.5833681">
<ele>71.408</ele>
<time>2016-08-31T01:03:20.530Z</time>
</trkpt>
<trkpt lat="-27.2664366" lon="152.5837522">
<ele>70.841</ele>
<time>2016-08-31T01:03:22.448Z</time>
</trkpt>
<trkpt lat="-27.2671369" lon="152.5842150">
<ele>70.596</ele>
<time>2016-08-31T01:03:25.575Z</time>
</trkpt>
<trkpt lat="-27.2676510" lon="152.5845132">
<ele>71.198</ele>
<time>2016-08-31T01:03:27.773Z</time>
</trkpt>
<trkpt lat="-27.2681978" lon="152.5848110">
<ele>73.115</ele>
<time>2016-08-31T01:03:30.005Z</time>
</trkpt>
<trkpt lat="-27.2690013" lon="152.5852592">
<ele>76.080</ele>
<time>2016-08-31T01:03:33.075Z</time>
</trkpt>
<trkpt lat="-27.2695205" lon="152.5855561">
<ele>79.051</ele>
<time>2016-08-31T01:03:35.002Z</time>
</trkpt>
<trkpt lat="-27.2703250" lon="152.5860137">
<ele>81.083</ele>
<time>2016-08-31T01:03:38.004Z</time>
</trkpt>
<trkpt lat="-27.2710721" lon="152.5865028">
<ele>82.248</ele>
<time>2016-08-31T01:03:40.895Z</time>
</trkpt>
<trkpt lat="-27.2718013" lon="152.5869968">
<ele>83.086</ele>
<time>2016-08-31T01:03:43.784Z</time>
</trkpt>
<trkpt lat="-27.2723113" lon="152.5873168">
<ele>84.010</ele>
<time>2016-08-31T01:03:45.798Z</time>
</trkpt>
<trkpt lat="-27.2730673" lon="152.5877559">
<ele>85.182</ele>
<time>2016-08-31T01:03:48.751Z</time>
</trkpt>
<trkpt lat="-27.2737917" lon="152.5881615">
<ele>86.268</ele>
<time>2016-08-31T01:03:51.581Z</time>
</trkpt>
<trkpt lat="-27.2742080" lon="152.5884257">
<ele>86.891</ele>
<time>2016-08-31T01:03:53.293Z</time>
</trkpt>
<trkpt lat="-27.2745657" lon="152.5887821">
<ele>87.101</ele>
<time>2016-08-31T01:03:55.019Z</time>
</trkpt>
<trkpt lat="-27.2748724" lon="152.5892146">
<ele>87.157</ele>
<time>2016-08-31T01:03:56.929Z</time>
</trkpt>
<trkpt lat="-27.2751785" lon="152.5900107">
<ele>87.310</ele>
<time>2016-08-31T01:04:00.068Z</time>
</trkpt>
<trkpt lat="-27.2754469" lon="152.5908768">
<ele>88.438</ele>
<time>2016-08-31T01:04:03.297Z</time>
</trkpt>
<trkpt lat="-27.2756151" lon="152.5914464">
<ele>91.395</ele>
<time>2016-08-31T01:04:05.322Z</time>
</trkpt>
<trkpt lat="-27.2757793" lon="152.5919879">
<ele>95.106</ele>
<time>2016-08-31T01:04:07.218Z</time>
</trkpt>
<trkpt lat="-27.2760445" lon="152.5927421">
<ele>97.579</ele>
<time>2016-08-31T01:04:09.907Z</time>
</trkpt>
<trkpt lat="-27.2762918" lon="152.5932157">
<ele>98.391</ele>
<time>2016-08-31T01:04:11.800Z</time>
</trkpt>
<trkpt lat="-27.2766069" lon="152.5936775">
<ele>98.518</ele>
<time>2016-08-31T01:04:13.862Z</time>
</trkpt>
<trkpt lat="-27.2771503" lon="152.5943660">
<ele>99.150</ele>
<time>2016-08-31T01:04:17.175Z</time>
</trkpt>
<trkpt lat="-27.2775218" lon="152.5947976">
<ele>100.958</ele>
<time>2016-08-31T01:04:19.235Z</time>
</trkpt>
<trkpt lat="-27.2778944" lon="152.5952218">
<ele>104.191</ele>
<time>2016-08-31T01:04:21.233Z</time>
</trkpt>
<trkpt lat="-27.2784278" lon="152.5958870">
<ele>108.413</ele>
<time>2016-08-31T01:04:24.178Z</time>
</trkpt>
<trkpt lat="-27.2787944" lon="152.5963225">
<ele>112.116</ele>
<time>2016-08-31T01:04:26.164Z</time>
</trkpt>
<trkpt lat="-27.2793371" lon="152.5969313">
<ele>113.805</ele>
<time>2016-08-31T01:04:29.026Z</time>
</trkpt>
<trkpt lat="-27.2799478" lon="152.5973801">
<ele>113.565</ele>
<time>2016-08-31T01:04:31.807Z</time>
</trkpt>
<trkpt lat="-27.2804508" lon="152.5975770">
<ele>113.122</ele>
<time>2016-08-31T01:04:33.893Z</time>
</trkpt>
<trkpt lat="-27.2812037" lon="152.5978331">
<ele>114.160</ele>
<time>2016-08-31T01:04:37.004Z</time>
</trkpt>
<trkpt lat="-27.2816318" lon="152.5980528">
<ele>116.350</ele>
<time>2016-08-31T01:04:38.814Z</time>
</trkpt>
<trkpt lat="-27.2821384" lon="152.5985645">
<ele>118.141</ele>
<time>2016-08-31T01:04:41.446Z</time>
</trkpt>
<trkpt lat="-27.2824335" lon="152.5989959">
<ele>119.362</ele>
<time>2016-08-31T01:04:43.448Z</time>
</trkpt>
<trkpt lat="-27.2828140" lon="152.5997007">
<ele>121.368</ele>
<time>2016-08-31T01:04:46.595Z</time>
</trkpt>
<trkpt lat="-27.2830683" lon="152.6001355">
<ele>124.847</ele>
<time>2016-08-31T01:04:48.534Z</time>
</trkpt>
<trkpt lat="-27.2833494" lon="152.6005033">
<ele>128.727</ele>
<time>2016-08-31T01:04:50.289Z</time>
</trkpt>
<trkpt lat="-27.2837001" lon="152.6007922">
<ele>131.824</ele>
<time>2016-08-31T01:04:52.089Z</time>
</trkpt>
<trkpt lat="-27.2841335" lon="152.6009987">
<ele>134.207</ele>
<time>2016-08-31T01:04:54.121Z</time>
</trkpt>
<trkpt lat="-27.2848252" lon="152.6012029">
<ele>136.553</ele>
<time>2016-08-31T01:04:57.343Z</time>
</trkpt>
<trkpt lat="-27.2854626" lon="152.6014159">
<ele>139.885</ele>
<time>2016-08-31T01:05:00.239Z</time>
</trkpt>
<trkpt lat="-27.2858694" lon="152.6016578">
<ele>144.471</ele>
<time>2016-08-31T01:05:02.197Z</time>
</trkpt>
<trkpt lat="-27.2864415" lon="152.6021326">
<ele>148.577</ele>
<time>2016-08-31T01:05:05.259Z</time>
</trkpt>
<trkpt lat="-27.2867803" lon="152.6025738">
<ele>150.639</ele>
<time>2016-08-31T01:05:07.499Z</time>
</trkpt>
<trkpt lat="-27.2872421" lon="152.6033796">
<ele>150.830</ele>
<time>2016-08-31T01:05:11.032Z</time>
</trkpt>
<trkpt lat="-27.2874442" lon="152.6039496">
<ele>149.575</ele>
<time>2016-08-31T01:05:13.115Z</time>
</trkpt>
<trkpt lat="-27.2875855" lon="152.6045169">
<ele>146.746</ele>
<time>2016-08-31T01:05:15.046Z</time>
</trkpt>
<trkpt lat="-27.2876095" lon="152.6054208">
<ele>142.308</ele>
<time>2016-08-31T01:05:17.980Z</time>
</trkpt>
<trkpt lat="-27.2875758" lon="152.6064244">
<ele>137.591</ele>
<time>2016-08-31T01:05:21.293Z</time>
</trkpt>
<trkpt lat="-27.2875459" lon="152.6074049">
<ele>134.390</ele>
<time>2016-08-31T01:05:24.343Z</time>
</trkpt>
<trkpt lat="-27.2875417" lon="152.6080253">
<ele>131.976</ele>
<time>2016-08-31T01:05:26.219Z</time>
</trkpt>
<trkpt lat="-27.2875969" lon="152.6088874">
<ele>127.981</ele>
<time>2016-08-31T01:05:28.856Z</time>
</trkpt>
<trkpt lat="-27.2877508" lon="152.6094811">
<ele>122.300</ele>
<time>2016-08-31T01:05:30.852Z</time>
</trkpt>
<trkpt lat="-27.2881342" lon="152.6102763">
<ele>117.148</ele>
<time>2016-08-31T01:05:33.861Z</time>
</trkpt>
<trkpt lat="-27.2884494" lon="152.6107219">
<ele>113.717</ele>
<time>2016-08-31T01:05:35.746Z</time>
</trkpt>
<trkpt lat="-27.2890762" lon="152.6112936">
<ele>111.630</ele>
<time>2016-08-31T01:05:38.756Z</time>
</trkpt>
<trkpt lat="-27.2895633" lon="152.6116627">
<ele>110.922</ele>
<time>2016-08-31T01:05:40.985Z</time>
</trkpt>
<trkpt lat="-27.2900619" lon="152.6120506">
<ele>112.570</ele>
<time>2016-08-31T01:05:43.246Z</time>
</trkpt>
<trkpt lat="-27.2908686" lon="152.6126864">
<ele>116.522</ele>
<time>2016-08-31T01:05:46.604Z</time>
</trkpt>
<trkpt lat="-27.2914242" lon="152.6131272">
<ele>120.772</ele>
<time>2016-08-31T01:05:48.762Z</time>
</trkpt>
<trkpt lat="-27.2922321" lon="152.6137610">
<ele>123.291</ele>
<time>2016-08-31T01:05:51.770Z</time>
</trkpt>
<trkpt lat="-27.2930019" lon="152.6143529">
<ele>123.701</ele>
<time>2016-08-31T01:05:54.564Z</time>
</trkpt>
<trkpt lat="-27.2935160" lon="152.6147461">
<ele>122.144</ele>
<time>2016-08-31T01:05:56.486Z</time>
</trkpt>
<trkpt lat="-27.2942898" lon="152.6153444">
<ele>119.281</ele>
<time>2016-08-31T01:05:59.447Z</time>
</trkpt>
<trkpt lat="-27.2950245" lon="152.6159177">
<ele>115.553</ele>
<time>2016-08-31T01:06:02.304Z</time>
</trkpt>
<trkpt lat="-27.2954651" lon="152.6162233">
<ele>109.934</ele>
<time>2016-08-31T01:06:03.987Z</time>
</trkpt>
<trkpt lat="-27.2961191" lon="152.6165104">
<ele>101.921</ele>
<time>2016-08-31T01:06:06.327Z</time>
</trkpt>
<trkpt lat="-27.2968234" lon="152.6165903">
<ele>93.121</ele>
<time>2016-08-31T01:06:08.974Z</time>
</trkpt>
<trkpt lat="-27.2973154" lon="152.6165145">
<ele>86.044</ele>
<time>2016-08-31T01:06:11.017Z</time>
</trkpt>
<trkpt lat="-27.2978812" lon="152.6164057">
<ele>82.568</ele>
<time>2016-08-31T01:06:13.448Z</time>
</trkpt>
<trkpt lat="-27.2984610" lon="152.6162913">
<ele>82.802</ele>
<time>2016-08-31T01:06:15.857Z</time>
</trkpt>
<trkpt lat="-27.2989644" lon="152.6161766">
<ele>85.037</ele>
<time>2016-08-31T01:06:17.783Z</time>
</trkpt>
<trkpt lat="-27.2994412" lon="152.6160804">
<ele>86.914</ele>
<time>2016-08-31T01:06:19.503Z</time>
</trkpt>
<trkpt lat="-27.2999105" lon="152.6159801">
<ele>87.062</ele>
<time>2016-08-31T01:06:21.216Z</time>
</trkpt>
<trkpt lat="-27.3005780" lon="152.6158477">
<ele>85.756</ele>
<time>2016-08-31T01:06:23.786Z</time>
</trkpt>
<trkpt lat="-27.3009861" lon="152.6157773">
<ele>83.714</ele>
<time>2016-08-31T01:06:25.468Z</time>
</trkpt>
<trkpt lat="-27.3013950" lon="152.6157025">
<ele>81.665</ele>
<time>2016-08-31T01:06:27.234Z</time>
</trkpt>
<trkpt lat="-27.3019621" lon="152.6156455">
<ele>80.445</ele>
<time>2016-08-31T01:06:29.746Z</time>
</trkpt>
<trkpt lat="-27.3025286" lon="152.6156936">
<ele>80.687</ele>
<time>2016-08-31T01:06:32.429Z</time>
</trkpt>
<trkpt lat="-27.3030734" lon="152.6158424">
<ele>82.833</ele>
<time>2016-08-31T01:06:35.237Z</time>
</trkpt>
<trkpt lat="-27.3034189" lon="152.6159938">
<ele>86.842</ele>
<time>2016-08-31T01:06:37.162Z</time>
</trkpt>
<trkpt lat="-27.3039718" lon="152.6162536">
<ele>91.419</ele>
<time>2016-08-31T01:06:40.338Z</time>
</trkpt>
<trkpt lat="-27.3043877" lon="152.6164905">
<ele>94.885</ele>
<time>2016-08-31T01:06:42.818Z</time>
</trkpt>
<trkpt lat="-27.3050176" lon="152.6169203">
<ele>96.607</ele>
<time>2016-08-31T01:06:46.628Z</time>
</trkpt>
<trkpt lat="-27.3053938" lon="152.6172143">
<ele>96.308</ele>
<time>2016-08-31T01:06:48.726Z</time>
</trkpt>
<trkpt lat="-27.3057757" lon="152.6174914">
<ele>93.778</ele>
<time>2016-08-31T01:06:50.623Z</time>
</trkpt>
<trkpt lat="-27.3063276" lon="152.6178248">
<ele>89.890</ele>
<time>2016-08-31T01:06:53.241Z</time>
</trkpt>
<trkpt lat="-27.3068349" lon="152.6181322">
<ele>85.735</ele>
<time>2016-08-31T01:06:55.742Z</time>
</trkpt>
<trkpt lat="-27.3071685" lon="152.6183048">
<ele>81.670</ele>
<time>2016-08-31T01:06:57.421Z</time>
</trkpt>
<trkpt lat="-27.3076561" lon="152.6185045">
<ele>78.212</ele>
<time>2016-08-31T01:06:59.886Z</time>
</trkpt>
<trkpt lat="-27.3082019" lon="152.6186037">
<ele>75.732</ele>
<time>2016-08-31T01:07:02.715Z</time>
</trkpt>
<trkpt lat="-27.3085598" lon="152.6186539">
<ele>74.049</ele>
<time>2016-08-31T01:07:04.686Z</time>
</trkpt>
<trkpt lat="-27.3089043" lon="152.6187082">
<ele>72.977</ele>
<time>2016-08-31T01:07:06.642Z</time>
</trkpt>
<trkpt lat="-27.3094140" lon="152.6188276">
<ele>72.350</ele>
<time>2016-08-31T01:07:09.548Z</time>
</trkpt>
<trkpt lat="-27.3097325" lon="152.6189388">
<ele>71.823</ele>
<time>2016-08-31T01:07:11.377Z</time>
</trkpt>
<trkpt lat="-27.3099742" lon="152.6190586">
<ele>71.206</ele>
<time>2016-08-31T01:07:12.831Z</time>
</trkpt>
<trkpt lat="-27.3102883" lon="152.6192283">
<ele>70.459</ele>
<time>2016-08-31T01:07:14.781Z</time>
</trkpt>
<trkpt lat="-27.3104739" lon="152.6193577">
<ele>69.456</ele>
<time>2016-08-31T01:07:16.019Z</time>
</trkpt>
<trkpt lat="-27.3107065" lon="152.6195216">
<ele>68.209</ele>
<time>2016-08-31T01:07:17.595Z</time>
</trkpt>
<trkpt lat="-27.3107762" lon="152.6196570">
<ele>67.146</ele>
<time>2016-08-31T01:07:18.410Z</time>
</trkpt>
<trkpt lat="-27.3107172" lon="152.6198934">
<ele>66.609</ele>
<time>2016-08-31T01:07:19.788Z</time>
</trkpt>
<trkpt lat="-27.3105108" lon="152.6201886">
<ele>66.609</ele>
<time>2016-08-31T01:07:22.104Z</time>
</trkpt>
<trkpt lat="-27.3102020" lon="152.6205341">
<ele>67.377</ele>
<time>2016-08-31T01:07:25.821Z</time>
</trkpt>
<trkpt lat="-27.3099188" lon="152.6208015">
<ele>69.523</ele>
<time>2016-08-31T01:07:29.771Z</time>
</trkpt>
<trkpt lat="-27.3094688" lon="152.6213567">
<ele>73.231</ele>
<time>2016-08-31T01:07:37.404Z</time>
</trkpt>
<trkpt lat="-27.3092076" lon="152.6218329">
<ele>78.417</ele>
<time>2016-08-31T01:07:40.828Z</time>
</trkpt>
<trkpt lat="-27.3088324" lon="152.6225591">
<ele>84.921</ele>
<time>2016-08-31T01:07:44.876Z</time>
</trkpt>
<trkpt lat="-27.3085074" lon="152.6230208">
<ele>92.038</ele>
<time>2016-08-31T01:07:47.408Z</time>
</trkpt>
<trkpt lat="-27.3079363" lon="152.6236173">
<ele>98.739</ele>
<time>2016-08-31T01:07:50.801Z</time>
</trkpt>
<trkpt lat="-27.3072495" lon="152.6241319">
<ele>105.289</ele>
<time>2016-08-31T01:07:54.046Z</time>
</trkpt>
<trkpt lat="-27.3068203" lon="152.6244669">
<ele>112.398</ele>
<time>2016-08-31T01:07:56.024Z</time>
</trkpt>
<trkpt lat="-27.3064066" lon="152.6247679">
<ele>118.740</ele>
<time>2016-08-31T01:07:57.856Z</time>
</trkpt>
<trkpt lat="-27.3057779" lon="152.6251610">
<ele>122.135</ele>
<time>2016-08-31T01:08:00.532Z</time>
</trkpt>
<trkpt lat="-27.3050800" lon="152.6254595">
<ele>122.678</ele>
<time>2016-08-31T01:08:03.488Z</time>
</trkpt>
<trkpt lat="-27.3045477" lon="152.6255953">
<ele>121.950</ele>
<time>2016-08-31T01:08:05.692Z</time>
</trkpt>
<trkpt lat="-27.3039841" lon="152.6256932">
<ele>121.112</ele>
<time>2016-08-31T01:08:07.976Z</time>
</trkpt>
<trkpt lat="-27.3034494" lon="152.6257876">
<ele>120.061</ele>
<time>2016-08-31T01:08:10.020Z</time>
</trkpt>
<trkpt lat="-27.3027335" lon="152.6259844">
<ele>117.825</ele>
<time>2016-08-31T01:08:12.681Z</time>
</trkpt>
<trkpt lat="-27.3020569" lon="152.6264046">
<ele>114.190</ele>
<time>2016-08-31T01:08:15.570Z</time>
</trkpt>
<trkpt lat="-27.3014631" lon="152.6268888">
<ele>110.474</ele>
<time>2016-08-31T01:08:18.416Z</time>
</trkpt>
<trkpt lat="-27.3008622" lon="152.6274183">
<ele>108.090</ele>
<time>2016-08-31T01:08:21.425Z</time>
</trkpt>
<trkpt lat="-27.3004314" lon="152.6277857">
<ele>107.244</ele>
<time>2016-08-31T01:08:23.564Z</time>
</trkpt>
<trkpt lat="-27.2997997" lon="152.6282952">
<ele>106.740</ele>
<time>2016-08-31T01:08:26.593Z</time>
</trkpt>
<trkpt lat="-27.2994237" lon="152.6286207">
<ele>105.059</ele>
<time>2016-08-31T01:08:28.378Z</time>
</trkpt>
<trkpt lat="-27.2991111" lon="152.6290032">
<ele>102.261</ele>
<time>2016-08-31T01:08:30.136Z</time>
</trkpt>
<trkpt lat="-27.2987657" lon="152.6297057">
<ele>99.472</ele>
<time>2016-08-31T01:08:32.950Z</time>
</trkpt>
<trkpt lat="-27.2984900" lon="152.6305263">
<ele>97.324</ele>
<time>2016-08-31T01:08:36.230Z</time>
</trkpt>
<trkpt lat="-27.2983175" lon="152.6310566">
<ele>96.649</ele>
<time>2016-08-31T01:08:38.311Z</time>
</trkpt>
<trkpt lat="-27.2980455" lon="152.6318430">
<ele>97.766</ele>
<time>2016-08-31T01:08:41.267Z</time>
</trkpt>
<trkpt lat="-27.2978759" lon="152.6323394">
<ele>99.183</ele>
<time>2016-08-31T01:08:43.107Z</time>
</trkpt>
<trkpt lat="-27.2976934" lon="152.6330451">
<ele>99.432</ele>
<time>2016-08-31T01:08:45.702Z</time>
</trkpt>
<trkpt lat="-27.2976826" lon="152.6335184">
<ele>98.689</ele>
<time>2016-08-31T01:08:47.417Z</time>
</trkpt>
<trkpt lat="-27.2978728" lon="152.6342100">
<ele>97.876</ele>
<time>2016-08-31T01:08:50.199Z</time>
</trkpt>
<trkpt lat="-27.2981325" lon="152.6346313">
<ele>97.528</ele>
<time>2016-08-31T01:08:52.269Z</time>
</trkpt>
<trkpt lat="-27.2984010" lon="152.6350512">
<ele>97.877</ele>
<time>2016-08-31T01:08:54.414Z</time>
</trkpt>
<trkpt lat="-27.2987751" lon="152.6356404">
<ele>98.890</ele>
<time>2016-08-31T01:08:57.379Z</time>
</trkpt>
<trkpt lat="-27.2990397" lon="152.6363090">
<ele>99.933</ele>
<time>2016-08-31T01:09:00.251Z</time>
</trkpt>
<trkpt lat="-27.2991324" lon="152.6367898">
<ele>100.460</ele>
<time>2016-08-31T01:09:02.212Z</time>
</trkpt>
<trkpt lat="-27.2991393" lon="152.6375496">
<ele>100.770</ele>
<time>2016-08-31T01:09:05.320Z</time>
</trkpt>
<trkpt lat="-27.2990987" lon="152.6380703">
<ele>101.439</ele>
<time>2016-08-31T01:09:07.457Z</time>
</trkpt>
<trkpt lat="-27.2989699" lon="152.6388467">
<ele>102.433</ele>
<time>2016-08-31T01:09:10.587Z</time>
</trkpt>
<trkpt lat="-27.2987626" lon="152.6396210">
<ele>103.428</ele>
<time>2016-08-31T01:09:13.709Z</time>
</trkpt>
<trkpt lat="-27.2985782" lon="152.6401170">
<ele>104.430</ele>
<time>2016-08-31T01:09:15.750Z</time>
</trkpt>
<trkpt lat="-27.2982195" lon="152.6408392">
<ele>105.318</ele>
<time>2016-08-31T01:09:18.821Z</time>
</trkpt>
<trkpt lat="-27.2979835" lon="152.6413031">
<ele>105.985</ele>
<time>2016-08-31T01:09:20.782Z</time>
</trkpt>
<trkpt lat="-27.2978115" lon="152.6417631">
<ele>106.577</ele>
<time>2016-08-31T01:09:22.592Z</time>
</trkpt>
<trkpt lat="-27.2977404" lon="152.6425254">
<ele>107.020</ele>
<time>2016-08-31T01:09:25.374Z</time>
</trkpt>
<trkpt lat="-27.2978355" lon="152.6433857">
<ele>107.554</ele>
<time>2016-08-31T01:09:28.645Z</time>
</trkpt>
<trkpt lat="-27.2979272" lon="152.6441954">
<ele>108.510</ele>
<time>2016-08-31T01:09:31.742Z</time>
</trkpt>
<trkpt lat="-27.2979109" lon="152.6446761">
<ele>109.445</ele>
<time>2016-08-31T01:09:33.485Z</time>
</trkpt>
<trkpt lat="-27.2977776" lon="152.6451116">
<ele>109.786</ele>
<time>2016-08-31T01:09:35.138Z</time>
</trkpt>
<trkpt lat="-27.2975402" lon="152.6455153">
<ele>109.518</ele>
<time>2016-08-31T01:09:36.869Z</time>
</trkpt>
<trkpt lat="-27.2970399" lon="152.6460976">
<ele>108.969</ele>
<time>2016-08-31T01:09:40.058Z</time>
</trkpt>
<trkpt lat="-27.2965358" lon="152.6466895">
<ele>109.018</ele>
<time>2016-08-31T01:09:43.426Z</time>
</trkpt>
<trkpt lat="-27.2961630" lon="152.6472771">
<ele>110.085</ele>
<time>2016-08-31T01:09:46.168Z</time>
</trkpt>
<trkpt lat="-27.2960144" lon="152.6477339">
<ele>111.113</ele>
<time>2016-08-31T01:09:47.939Z</time>
</trkpt>
<trkpt lat="-27.2959302" lon="152.6482532">
<ele>111.153</ele>
<time>2016-08-31T01:09:49.928Z</time>
</trkpt>
<trkpt lat="-27.2959017" lon="152.6487476">
<ele>110.539</ele>
<time>2016-08-31T01:09:51.870Z</time>
</trkpt>
<trkpt lat="-27.2960163" lon="152.6495244">
<ele>110.112</ele>
<time>2016-08-31T01:09:55.058Z</time>
</trkpt>
<trkpt lat="-27.2961142" lon="152.6500786">
<ele>110.647</ele>
<time>2016-08-31T01:09:57.271Z</time>
</trkpt>
<trkpt lat="-27.2962109" lon="152.6506218">
<ele>112.047</ele>
<time>2016-08-31T01:09:59.393Z</time>
</trkpt>
<trkpt lat="-27.2963652" lon="152.6513852">
<ele>113.328</ele>
<time>2016-08-31T01:10:02.293Z</time>
</trkpt>
<trkpt lat="-27.2965686" lon="152.6520184">
<ele>113.825</ele>
<time>2016-08-31T01:10:04.709Z</time>
</trkpt>
<trkpt lat="-27.2969905" lon="152.6524881">
<ele>113.638</ele>
<time>2016-08-31T01:10:07.189Z</time>
</trkpt>
<trkpt lat="-27.2973305" lon="152.6527771">
<ele>114.149</ele>
<time>2016-08-31T01:10:09.090Z</time>
</trkpt>
<trkpt lat="-27.2976678" lon="152.6530637">
<ele>116.536</ele>
<time>2016-08-31T01:10:11.064Z</time>
</trkpt>
<trkpt lat="-27.2980941" lon="152.6535033">
<ele>119.615</ele>
<time>2016-08-31T01:10:13.950Z</time>
</trkpt>
<trkpt lat="-27.2984109" lon="152.6539270">
<ele>120.885</ele>
<time>2016-08-31T01:10:16.318Z</time>
</trkpt>
<trkpt lat="-27.2985569" lon="152.6542542">
<ele>119.171</ele>
<time>2016-08-31T01:10:17.856Z</time>
</trkpt>
<trkpt lat="-27.2986316" lon="152.6546329">
<ele>115.782</ele>
<time>2016-08-31T01:10:19.570Z</time>
</trkpt>
<trkpt lat="-27.2986532" lon="152.6552777">
<ele>113.122</ele>
<time>2016-08-31T01:10:22.606Z</time>
</trkpt>
<trkpt lat="-27.2988634" lon="152.6557708">
<ele>111.928</ele>
<time>2016-08-31T01:10:25.427Z</time>
</trkpt>
<trkpt lat="-27.2992795" lon="152.6560568">
<ele>111.518</ele>
<time>2016-08-31T01:10:28.304Z</time>
</trkpt>
<trkpt lat="-27.2995438" lon="152.6565038">
<ele>111.419</ele>
<time>2016-08-31T01:10:30.936Z</time>
</trkpt>
<trkpt lat="-27.2995577" lon="152.6568867">
<ele>111.668</ele>
<time>2016-08-31T01:10:32.873Z</time>
</trkpt>
<trkpt lat="-27.2994438" lon="152.6575282">
<ele>112.623</ele>
<time>2016-08-31T01:10:36.345Z</time>
</trkpt>
<trkpt lat="-27.2993999" lon="152.6580337">
<ele>115.271</ele>
<time>2016-08-31T01:10:39.127Z</time>
</trkpt>
<trkpt lat="-27.2994251" lon="152.6585312">
<ele>119.844</ele>
<time>2016-08-31T01:10:41.845Z</time>
</trkpt>
<trkpt lat="-27.2993397" lon="152.6591912">
<ele>124.483</ele>
<time>2016-08-31T01:10:45.051Z</time>
</trkpt>
<trkpt lat="-27.2991158" lon="152.6596020">
<ele>127.224</ele>
<time>2016-08-31T01:10:47.036Z</time>
</trkpt>
<trkpt lat="-27.2987020" lon="152.6601718">
<ele>128.354</ele>
<time>2016-08-31T01:10:50.037Z</time>
</trkpt>
<trkpt lat="-27.2985141" lon="152.6605353">
<ele>128.990</ele>
<time>2016-08-31T01:10:51.818Z</time>
</trkpt>
<trkpt lat="-27.2984429" lon="152.6611516">
<ele>128.875</ele>
<time>2016-08-31T01:10:54.462Z</time>
</trkpt>
<trkpt lat="-27.2985062" lon="152.6617901">
<ele>127.197</ele>
<time>2016-08-31T01:10:57.093Z</time>
</trkpt>
<trkpt lat="-27.2984287" lon="152.6622131">
<ele>124.744</ele>
<time>2016-08-31T01:10:58.970Z</time>
</trkpt>
<trkpt lat="-27.2982837" lon="152.6629256">
<ele>123.099</ele>
<time>2016-08-31T01:11:02.381Z</time>
</trkpt>
<trkpt lat="-27.2982049" lon="152.6637311">
<ele>123.070</ele>
<time>2016-08-31T01:11:06.171Z</time>
</trkpt>
<trkpt lat="-27.2981009" lon="152.6642296">
<ele>124.505</ele>
<time>2016-08-31T01:11:08.434Z</time>
</trkpt>
<trkpt lat="-27.2977973" lon="152.6648764">
<ele>126.454</ele>
<time>2016-08-31T01:11:11.416Z</time>
</trkpt>
<trkpt lat="-27.2976987" lon="152.6654913">
<ele>127.941</ele>
<time>2016-08-31T01:11:13.811Z</time>
</trkpt>
<trkpt lat="-27.2978149" lon="152.6659031">
<ele>128.827</ele>
<time>2016-08-31T01:11:15.468Z</time>
</trkpt>
<trkpt lat="-27.2980706" lon="152.6665361">
<ele>129.302</ele>
<time>2016-08-31T01:11:18.286Z</time>
</trkpt>
<trkpt lat="-27.2981509" lon="152.6670212">
<ele>129.472</ele>
<time>2016-08-31T01:11:20.513Z</time>
</trkpt>
<trkpt lat="-27.2982732" lon="152.6678479">
<ele>129.940</ele>
<time>2016-08-31T01:11:24.353Z</time>
</trkpt>
<trkpt lat="-27.2984020" lon="152.6683917">
<ele>131.280</ele>
<time>2016-08-31T01:11:26.789Z</time>
</trkpt>
<trkpt lat="-27.2985487" lon="152.6689661">
<ele>133.186</ele>
<time>2016-08-31T01:11:29.135Z</time>
</trkpt>
<trkpt lat="-27.2987635" lon="152.6698104">
<ele>134.952</ele>
<time>2016-08-31T01:11:32.339Z</time>
</trkpt>
<trkpt lat="-27.2988370" lon="152.6704918">
<ele>136.099</ele>
<time>2016-08-31T01:11:34.700Z</time>
</trkpt>
<trkpt lat="-27.2987158" lon="152.6709055">
<ele>135.884</ele>
<time>2016-08-31T01:11:36.187Z</time>
</trkpt>
<trkpt lat="-27.2985865" lon="152.6713144">
<ele>134.223</ele>
<time>2016-08-31T01:11:37.672Z</time>
</trkpt>
<trkpt lat="-27.2986629" lon="152.6719245">
<ele>132.452</ele>
<time>2016-08-31T01:11:40.027Z</time>
</trkpt>
<trkpt lat="-27.2990816" lon="152.6724726">
<ele>131.929</ele>
<time>2016-08-31T01:11:43.102Z</time>
</trkpt>
<trkpt lat="-27.2996422" lon="152.6730511">
<ele>133.179</ele>
<time>2016-08-31T01:11:47.082Z</time>
</trkpt>
<trkpt lat="-27.3001737" lon="152.6735923">
<ele>136.148</ele>
<time>2016-08-31T01:11:50.675Z</time>
</trkpt>
<trkpt lat="-27.3004875" lon="152.6739373">
<ele>139.508</ele>
<time>2016-08-31T01:11:52.579Z</time>
</trkpt>
<trkpt lat="-27.3009687" lon="152.6743190">
<ele>141.157</ele>
<time>2016-08-31T01:11:55.028Z</time>
</trkpt>
<trkpt lat="-27.3013255" lon="152.6744099">
<ele>140.291</ele>
<time>2016-08-31T01:11:56.519Z</time>
</trkpt>
<trkpt lat="-27.3017142" lon="152.6743657">
<ele>138.228</ele>
<time>2016-08-31T01:11:58.208Z</time>
</trkpt>
<trkpt lat="-27.3023710" lon="152.6742634">
<ele>137.297</ele>
<time>2016-08-31T01:12:01.358Z</time>
</trkpt>
<trkpt lat="-27.3028377" lon="152.6743047">
<ele>138.573</ele>
<time>2016-08-31T01:12:03.827Z</time>
</trkpt>
<trkpt lat="-27.3034948" lon="152.6745896">
<ele>141.043</ele>
<time>2016-08-31T01:12:07.421Z</time>
</trkpt>
<trkpt lat="-27.3041671" lon="152.6748266">
<ele>143.265</ele>
<time>2016-08-31T01:12:10.644Z</time>
</trkpt>
<trkpt lat="-27.3049076" lon="152.6749040">
<ele>145.265</ele>
<time>2016-08-31T01:12:13.820Z</time>
</trkpt>
<trkpt lat="-27.3056091" lon="152.6749485">
<ele>147.337</ele>
<time>2016-08-31T01:12:16.780Z</time>
</trkpt>
<trkpt lat="-27.3061833" lon="152.6750163">
<ele>148.663</ele>
<time>2016-08-31T01:12:19.174Z</time>
</trkpt>
<trkpt lat="-27.3064713" lon="152.6751517">
<ele>147.887</ele>
<time>2016-08-31T01:12:20.471Z</time>
</trkpt>
<trkpt lat="-27.3066575" lon="152.6754144">
<ele>145.276</ele>
<time>2016-08-31T01:12:21.722Z</time>
</trkpt>
<trkpt lat="-27.3067910" lon="152.6760302">
<ele>142.845</ele>
<time>2016-08-31T01:12:24.224Z</time>
</trkpt>
<trkpt lat="-27.3069130" lon="152.6768227">
<ele>142.601</ele>
<time>2016-08-31T01:12:27.953Z</time>
</trkpt>
<trkpt lat="-27.3069958" lon="152.6774019">
<ele>145.481</ele>
<time>2016-08-31T01:12:31.103Z</time>
</trkpt>
<trkpt lat="-27.3071187" lon="152.6782102">
<ele>150.390</ele>
<time>2016-08-31T01:12:34.823Z</time>
</trkpt>
<trkpt lat="-27.3072324" lon="152.6789644">
<ele>154.565</ele>
<time>2016-08-31T01:12:37.687Z</time>
</trkpt>
<trkpt lat="-27.3073015" lon="152.6794459">
<ele>156.493</ele>
<time>2016-08-31T01:12:39.422Z</time>
</trkpt>
<trkpt lat="-27.3072969" lon="152.6800129">
<ele>156.533</ele>
<time>2016-08-31T01:12:41.466Z</time>
</trkpt>
<trkpt lat="-27.3071464" lon="152.6803171">
<ele>154.613</ele>
<time>2016-08-31T01:12:42.784Z</time>
</trkpt>
<trkpt lat="-27.3068193" lon="152.6807213">
<ele>150.906</ele>
<time>2016-08-31T01:12:44.897Z</time>
</trkpt>
<trkpt lat="-27.3067125" lon="152.6810730">
<ele>147.302</ele>
<time>2016-08-31T01:12:46.429Z</time>
</trkpt>
<trkpt lat="-27.3067222" lon="152.6816901">
<ele>145.938</ele>
<time>2016-08-31T01:12:49.330Z</time>
</trkpt>
<trkpt lat="-27.3067276" lon="152.6821148">
<ele>147.150</ele>
<time>2016-08-31T01:12:51.649Z</time>
</trkpt>
<trkpt lat="-27.3066475" lon="152.6824886">
<ele>149.580</ele>
<time>2016-08-31T01:12:53.766Z</time>
</trkpt>
<trkpt lat="-27.3064843" lon="152.6828083">
<ele>151.240</ele>
<time>2016-08-31T01:12:55.753Z</time>
</trkpt>
<trkpt lat="-27.3060327" lon="152.6830326">
<ele>151.453</ele>
<time>2016-08-31T01:12:58.558Z</time>
</trkpt>
<trkpt lat="-27.3056678" lon="152.6829838">
<ele>150.968</ele>
<time>2016-08-31T01:13:00.550Z</time>
</trkpt>
<trkpt lat="-27.3053558" lon="152.6829197">
<ele>150.567</ele>
<time>2016-08-31T01:13:02.299Z</time>
</trkpt>
<trkpt lat="-27.3049669" lon="152.6831299">
<ele>150.418</ele>
<time>2016-08-31T01:13:04.803Z</time>
</trkpt>
<trkpt lat="-27.3047480" lon="152.6835616">
<ele>150.635</ele>
<time>2016-08-31T01:13:07.514Z</time>
</trkpt>
<trkpt lat="-27.3048023" lon="152.6839217">
<ele>151.871</ele>
<time>2016-08-31T01:13:09.548Z</time>
</trkpt>
<trkpt lat="-27.3050780" lon="152.6845225">
<ele>154.382</ele>
<time>2016-08-31T01:13:13.428Z</time>
</trkpt>
<trkpt lat="-27.3053103" lon="152.6850238">
<ele>157.508</ele>
<time>2016-08-31T01:13:16.810Z</time>
</trkpt>
<trkpt lat="-27.3057148" lon="152.6858455">
<ele>160.780</ele>
<time>2016-08-31T01:13:21.985Z</time>
</trkpt>
<trkpt lat="-27.3059774" lon="152.6863656">
<ele>164.300</ele>
<time>2016-08-31T01:13:24.529Z</time>
</trkpt>
<trkpt lat="-27.3062010" lon="152.6868185">
<ele>167.545</ele>
<time>2016-08-31T01:13:26.422Z</time>
</trkpt>
<trkpt lat="-27.3063484" lon="152.6872848">
<ele>169.394</ele>
<time>2016-08-31T01:13:28.178Z</time>
</trkpt>
<trkpt lat="-27.3064164" lon="152.6880245">
<ele>169.586</ele>
<time>2016-08-31T01:13:30.735Z</time>
</trkpt>
<trkpt lat="-27.3062599" lon="152.6887994">
<ele>169.136</ele>
<time>2016-08-31T01:13:33.701Z</time>
</trkpt>
<trkpt lat="-27.3060428" lon="152.6893301">
<ele>168.910</ele>
<time>2016-08-31T01:13:36.058Z</time>
</trkpt>
<trkpt lat="-27.3056588" lon="152.6900418">
<ele>168.965</ele>
<time>2016-08-31T01:13:39.313Z</time>
</trkpt>
<trkpt lat="-27.3052290" lon="152.6904236">
<ele>168.754</ele>
<time>2016-08-31T01:13:41.556Z</time>
</trkpt>
<trkpt lat="-27.3048677" lon="152.6905699">
<ele>167.570</ele>
<time>2016-08-31T01:13:43.111Z</time>
</trkpt>
<trkpt lat="-27.3042645" lon="152.6907429">
<ele>165.635</ele>
<time>2016-08-31T01:13:45.759Z</time>
</trkpt>
<trkpt lat="-27.3039279" lon="152.6909489">
<ele>164.202</ele>
<time>2016-08-31T01:13:47.606Z</time>
</trkpt>
<trkpt lat="-27.3036791" lon="152.6914526">
<ele>164.041</ele>
<time>2016-08-31T01:13:50.270Z</time>
</trkpt>
<trkpt lat="-27.3036390" lon="152.6918966">
<ele>165.082</ele>
<time>2016-08-31T01:13:52.285Z</time>
</trkpt>
<trkpt lat="-27.3038834" lon="152.6923233">
<ele>166.968</ele>
<time>2016-08-31T01:13:54.558Z</time>
</trkpt>
<trkpt lat="-27.3043111" lon="152.6927723">
<ele>169.231</ele>
<time>2016-08-31T01:13:57.798Z</time>
</trkpt>
<trkpt lat="-27.3044748" lon="152.6930147">
<ele>171.270</ele>
<time>2016-08-31T01:13:59.602Z</time>
</trkpt>
<trkpt lat="-27.3045012" lon="152.6932960">
<ele>172.044</ele>
<time>2016-08-31T01:14:01.330Z</time>
</trkpt>
<trkpt lat="-27.3044578" lon="152.6937891">
<ele>171.191</ele>
<time>2016-08-31T01:14:04.283Z</time>
</trkpt>
<trkpt lat="-27.3047019" lon="152.6942373">
<ele>170.161</ele>
<time>2016-08-31T01:14:07.001Z</time>
</trkpt>
<trkpt lat="-27.3050339" lon="152.6944860">
<ele>170.495</ele>
<time>2016-08-31T01:14:09.500Z</time>
</trkpt>
<trkpt lat="-27.3054234" lon="152.6947123">
<ele>172.508</ele>
<time>2016-08-31T01:14:12.625Z</time>
</trkpt>
<trkpt lat="-27.3057669" lon="152.6949709">
<ele>175.428</ele>
<time>2016-08-31T01:14:15.418Z</time>
</trkpt>
<trkpt lat="-27.3060929" lon="152.6954063">
<ele>177.829</ele>
<time>2016-08-31T01:14:18.480Z</time>
</trkpt>
<trkpt lat="-27.3061610" lon="152.6959646">
<ele>178.510</ele>
<time>2016-08-31T01:14:21.024Z</time>
</trkpt>
<trkpt lat="-27.3059656" lon="152.6963165">
<ele>177.593</ele>
<time>2016-08-31T01:14:22.779Z</time>
</trkpt>
<trkpt lat="-27.3055388" lon="152.6968591">
<ele>176.844</ele>
<time>2016-08-31T01:14:26.210Z</time>
</trkpt>
<trkpt lat="-27.3051425" lon="152.6973984">
<ele>177.765</ele>
<time>2016-08-31T01:14:29.945Z</time>
</trkpt>
<trkpt lat="-27.3049189" lon="152.6977648">
<ele>179.629</ele>
<time>2016-08-31T01:14:32.081Z</time>
</trkpt>
<trkpt lat="-27.3049250" lon="152.6984846">
<ele>180.996</ele>
<time>2016-08-31T01:14:35.218Z</time>
</trkpt>
<trkpt lat="-27.3051490" lon="152.6991685">
<ele>181.642</ele>
<time>2016-08-31T01:14:38.327Z</time>
</trkpt>
<trkpt lat="-27.3053509" lon="152.6995618">
<ele>182.629</ele>
<time>2016-08-31T01:14:40.317Z</time>
</trkpt>
<trkpt lat="-27.3054896" lon="152.7001594">
<ele>184.611</ele>
<time>2016-08-31T01:14:43.000Z</time>
</trkpt>
<trkpt lat="-27.3054569" lon="152.7005939">
<ele>186.803</ele>
<time>2016-08-31T01:14:44.859Z</time>
</trkpt>
<trkpt lat="-27.3052623" lon="152.7012534">
<ele>188.519</ele>
<time>2016-08-31T01:14:47.858Z</time>
</trkpt>
<trkpt lat="-27.3051917" lon="152.7017337">
<ele>190.640</ele>
<time>2016-08-31T01:14:50.066Z</time>
</trkpt>
<trkpt lat="-27.3052058" lon="152.7024452">
<ele>193.926</ele>
<time>2016-08-31T01:14:53.297Z</time>
</trkpt>
<trkpt lat="-27.3051228" lon="152.7029058">
<ele>197.512</ele>
<time>2016-08-31T01:14:55.335Z</time>
</trkpt>
<trkpt lat="-27.3049534" lon="152.7033821">
<ele>200.169</ele>
<time>2016-08-31T01:14:57.452Z</time>
</trkpt>
<trkpt lat="-27.3048530" lon="152.7038875">
<ele>201.636</ele>
<time>2016-08-31T01:14:59.595Z</time>
</trkpt>
<trkpt lat="-27.3049011" lon="152.7046299">
<ele>201.781</ele>
<time>2016-08-31T01:15:02.691Z</time>
</trkpt>
<trkpt lat="-27.3049517" lon="152.7051534">
<ele>200.804</ele>
<time>2016-08-31T01:15:04.799Z</time>
</trkpt>
<trkpt lat="-27.3048636" lon="152.7059300">
<ele>200.326</ele>
<time>2016-08-31T01:15:07.895Z</time>
</trkpt>
<trkpt lat="-27.3047889" lon="152.7063692">
<ele>202.197</ele>
<time>2016-08-31T01:15:09.666Z</time>
</trkpt>
<trkpt lat="-27.3046467" lon="152.7068007">
<ele>205.894</ele>
<time>2016-08-31T01:15:11.472Z</time>
</trkpt>
<trkpt lat="-27.3043725" lon="152.7074079">
<ele>209.495</ele>
<time>2016-08-31T01:15:14.121Z</time>
</trkpt>
<trkpt lat="-27.3042618" lon="152.7078742">
<ele>212.419</ele>
<time>2016-08-31T01:15:16.112Z</time>
</trkpt>
<trkpt lat="-27.3042024" lon="152.7085669">
<ele>214.807</ele>
<time>2016-08-31T01:15:19.130Z</time>
</trkpt>
<trkpt lat="-27.3042862" lon="152.7089953">
<ele>215.561</ele>
<time>2016-08-31T01:15:21.018Z</time>
</trkpt>
<trkpt lat="-27.3044938" lon="152.7096200">
<ele>213.592</ele>
<time>2016-08-31T01:15:23.827Z</time>
</trkpt>
<trkpt lat="-27.3045400" lon="152.7103167">
<ele>209.780</ele>
<time>2016-08-31T01:15:26.799Z</time>
</trkpt>
<trkpt lat="-27.3046561" lon="152.7109188">
<ele>206.203</ele>
<time>2016-08-31T01:15:29.525Z</time>
</trkpt>
<trkpt lat="-27.3047586" lon="152.7112222">
<ele>204.218</ele>
<time>2016-08-31T01:15:30.972Z</time>
</trkpt>
<trkpt lat="-27.3047818" lon="152.7116918">
<ele>204.121</ele>
<time>2016-08-31T01:15:33.017Z</time>
</trkpt>
<trkpt lat="-27.3048255" lon="152.7119911">
<ele>206.168</ele>
<time>2016-08-31T01:15:34.354Z</time>
</trkpt>
<trkpt lat="-27.3049628" lon="152.7122589">
<ele>210.188</ele>
<time>2016-08-31T01:15:35.799Z</time>
</trkpt>
<trkpt lat="-27.3050392" lon="152.7125268">
<ele>214.813</ele>
<time>2016-08-31T01:15:37.120Z</time>
</trkpt>
<trkpt lat="-27.3047475" lon="152.7126775">
<ele>218.671</ele>
<time>2016-08-31T01:15:39.085Z</time>
</trkpt>
<trkpt lat="-27.3045025" lon="152.7126695">
<ele>221.801</ele>
<time>2016-08-31T01:15:40.727Z</time>
</trkpt>
<trkpt lat="-27.3041529" lon="152.7128299">
<ele>224.688</ele>
<time>2016-08-31T01:15:43.345Z</time>
</trkpt>
<trkpt lat="-27.3043167" lon="152.7132139">
<ele>227.574</ele>
<time>2016-08-31T01:15:46.148Z</time>
</trkpt>
<trkpt lat="-27.3045286" lon="152.7133445">
<ele>230.839</ele>
<time>2016-08-31T01:15:47.992Z</time>
</trkpt>
<trkpt lat="-27.3047896" lon="152.7134180">
<ele>234.656</ele>
<time>2016-08-31T01:15:50.498Z</time>
</trkpt>
<trkpt lat="-27.3051021" lon="152.7134443">
<ele>238.566</ele>
<time>2016-08-31T01:15:53.504Z</time>
</trkpt>
<trkpt lat="-27.3056191" lon="152.7133734">
<ele>242.423</ele>
<time>2016-08-31T01:15:58.007Z</time>
</trkpt>
<trkpt lat="-27.3059495" lon="152.7132561">
<ele>246.801</ele>
<time>2016-08-31T01:16:01.164Z</time>
</trkpt>
<trkpt lat="-27.3061606" lon="152.7133689">
<ele>251.809</ele>
<time>2016-08-31T01:16:03.017Z</time>
</trkpt>
<trkpt lat="-27.3065205" lon="152.7136627">
<ele>256.554</ele>
<time>2016-08-31T01:16:05.976Z</time>
</trkpt>
<trkpt lat="-27.3069213" lon="152.7139081">
<ele>260.909</ele>
<time>2016-08-31T01:16:08.784Z</time>
</trkpt>
<trkpt lat="-27.3072341" lon="152.7138956">
<ele>265.742</ele>
<time>2016-08-31T01:16:10.792Z</time>
</trkpt>
<trkpt lat="-27.3073677" lon="152.7136760">
<ele>270.816</ele>
<time>2016-08-31T01:16:12.529Z</time>
</trkpt>
<trkpt lat="-27.3076167" lon="152.7134901">
<ele>274.893</ele>
<time>2016-08-31T01:16:14.670Z</time>
</trkpt>
<trkpt lat="-27.3077621" lon="152.7135898">
<ele>277.341</ele>
<time>2016-08-31T01:16:15.869Z</time>
</trkpt>
<trkpt lat="-27.3077663" lon="152.7139234">
<ele>278.487</ele>
<time>2016-08-31T01:16:17.786Z</time>
</trkpt>
<trkpt lat="-27.3076077" lon="152.7141073">
<ele>279.233</ele>
<time>2016-08-31T01:16:19.245Z</time>
</trkpt>
<trkpt lat="-27.3072848" lon="152.7143133">
<ele>280.436</ele>
<time>2016-08-31T01:16:21.730Z</time>
</trkpt>
<trkpt lat="-27.3069976" lon="152.7143016">
<ele>282.787</ele>
<time>2016-08-31T01:16:24.064Z</time>
</trkpt>
<trkpt lat="-27.3065401" lon="152.7142362">
<ele>286.653</ele>
<time>2016-08-31T01:16:28.778Z</time>
</trkpt>
<trkpt lat="-27.3062265" lon="152.7142720">
<ele>291.969</ele>
<time>2016-08-31T01:16:32.065Z</time>
</trkpt>
<trkpt lat="-27.3059835" lon="152.7144650">
<ele>297.870</ele>
<time>2016-08-31T01:16:34.609Z</time>
</trkpt>
<trkpt lat="-27.3057858" lon="152.7149338">
<ele>302.981</ele>
<time>2016-08-31T01:16:38.178Z</time>
</trkpt>
<trkpt lat="-27.3057463" lon="152.7153040">
<ele>307.202</ele>
<time>2016-08-31T01:16:40.456Z</time>
</trkpt>
<trkpt lat="-27.3056603" lon="152.7159282">
<ele>311.971</ele>
<time>2016-08-31T01:16:44.076Z</time>
</trkpt>
<trkpt lat="-27.3054120" lon="152.7164087">
<ele>318.614</ele>
<time>2016-08-31T01:16:47.263Z</time>
</trkpt>
<trkpt lat="-27.3050710" lon="152.7165914">
<ele>326.406</ele>
<time>2016-08-31T01:16:49.647Z</time>
</trkpt>
<trkpt lat="-27.3048907" lon="152.7167546">
<ele>333.184</ele>
<time>2016-08-31T01:16:50.988Z</time>
</trkpt>
<trkpt lat="-27.3048296" lon="152.7170729">
<ele>338.189</ele>
<time>2016-08-31T01:16:52.610Z</time>
</trkpt>
<trkpt lat="-27.3049913" lon="152.7176477">
<ele>342.472</ele>
<time>2016-08-31T01:16:55.663Z</time>
</trkpt>
<trkpt lat="-27.3050412" lon="152.7180656">
<ele>348.123</ele>
<time>2016-08-31T01:16:58.221Z</time>
</trkpt>
<trkpt lat="-27.3048663" lon="152.7185953">
<ele>356.169</ele>
<time>2016-08-31T01:17:02.454Z</time>
</trkpt>
<trkpt lat="-27.3046433" lon="152.7188743">
<ele>364.697</ele>
<time>2016-08-31T01:17:05.857Z</time>
</trkpt>
<trkpt lat="-27.3043655" lon="152.7191192">
<ele>371.969</ele>
<time>2016-08-31T01:17:09.669Z</time>
</trkpt>
<trkpt lat="-27.3042330" lon="152.7192582">
<ele>377.510</ele>
<time>2016-08-31T01:17:11.626Z</time>
</trkpt>
<trkpt lat="-27.3043506" lon="152.7194406">
<ele>380.742</ele>
<time>2016-08-31T01:17:13.789Z</time>
</trkpt>
<trkpt lat="-27.3045557" lon="152.7194405">
<ele>382.510</ele>
<time>2016-08-31T01:17:16.004Z</time>
</trkpt>
<trkpt lat="-27.3048242" lon="152.7196107">
<ele>384.489</ele>
<time>2016-08-31T01:17:19.335Z</time>
</trkpt>
<trkpt lat="-27.3048327" lon="152.7199662">
<ele>387.380</ele>
<time>2016-08-31T01:17:22.748Z</time>
</trkpt>
<trkpt lat="-27.3049130" lon="152.7202645">
<ele>391.679</ele>
<time>2016-08-31T01:17:25.926Z</time>
</trkpt>
<trkpt lat="-27.3049910" lon="152.7206349">
<ele>397.737</ele>
<time>2016-08-31T01:17:29.694Z</time>
</trkpt>
<trkpt lat="-27.3048257" lon="152.7211789">
<ele>404.891</ele>
<time>2016-08-31T01:17:33.637Z</time>
</trkpt>
<trkpt lat="-27.3045658" lon="152.7214532">
<ele>412.585</ele>
<time>2016-08-31T01:17:35.885Z</time>
</trkpt>
<trkpt lat="-27.3042424" lon="152.7216662">
<ele>420.541</ele>
<time>2016-08-31T01:17:38.159Z</time>
</trkpt>
<trkpt lat="-27.3038980" lon="152.7218261">
<ele>428.043</ele>
<time>2016-08-31T01:17:40.287Z</time>
</trkpt>
<trkpt lat="-27.3035035" lon="152.7218994">
<ele>434.579</ele>
<time>2016-08-31T01:17:42.474Z</time>
</trkpt>
<trkpt lat="-27.3034450" lon="152.7220751">
<ele>439.543</ele>
<time>2016-08-31T01:17:43.447Z</time>
</trkpt>
<trkpt lat="-27.3035174" lon="152.7224916">
<ele>442.301</ele>
<time>2016-08-31T01:17:45.874Z</time>
</trkpt>
<trkpt lat="-27.3035235" lon="152.7228474">
<ele>444.311</ele>
<time>2016-08-31T01:17:48.794Z</time>
</trkpt>
<trkpt lat="-27.3034589" lon="152.7232468">
<ele>447.988</ele>
<time>2016-08-31T01:17:51.859Z</time>
</trkpt>
<trkpt lat="-27.3033178" lon="152.7236631">
<ele>453.983</ele>
<time>2016-08-31T01:17:54.351Z</time>
</trkpt>
<trkpt lat="-27.3031729" lon="152.7241088">
<ele>461.341</ele>
<time>2016-08-31T01:17:56.645Z</time>
</trkpt>
<trkpt lat="-27.3031321" lon="152.7247743">
<ele>468.630</ele>
<time>2016-08-31T01:17:59.618Z</time>
</trkpt>
<trkpt lat="-27.3030223" lon="152.7253644">
<ele>475.282</ele>
<time>2016-08-31T01:18:02.292Z</time>
</trkpt>
<trkpt lat="-27.3027129" lon="152.7256778">
<ele>481.416</ele>
<time>2016-08-31T01:18:04.489Z</time>
</trkpt>
<trkpt lat="-27.3023207" lon="152.7257653">
<ele>486.163</ele>
<time>2016-08-31T01:18:06.985Z</time>
</trkpt>
<trkpt lat="-27.3019828" lon="152.7258381">
<ele>489.093</ele>
<time>2016-08-31T01:18:09.436Z</time>
</trkpt>
<trkpt lat="-27.3015796" lon="152.7258789">
<ele>491.513</ele>
<time>2016-08-31T01:18:12.286Z</time>
</trkpt>
<trkpt lat="-27.3009368" lon="152.7258222">
<ele>494.918</ele>
<time>2016-08-31T01:18:15.818Z</time>
</trkpt>
<trkpt lat="-27.3002160" lon="152.7259452">
<ele>500.123</ele>
<time>2016-08-31T01:18:19.210Z</time>
</trkpt>
<trkpt lat="-27.2997882" lon="152.7261073">
<ele>506.985</ele>
<time>2016-08-31T01:18:21.163Z</time>
</trkpt>
<trkpt lat="-27.2993880" lon="152.7265100">
<ele>513.901</ele>
<time>2016-08-31T01:18:23.502Z</time>
</trkpt>
<trkpt lat="-27.2992073" lon="152.7268200">
<ele>518.754</ele>
<time>2016-08-31T01:18:25.090Z</time>
</trkpt>
<trkpt lat="-27.2989225" lon="152.7270355">
<ele>521.226</ele>
<time>2016-08-31T01:18:26.864Z</time>
</trkpt>
<trkpt lat="-27.2985101" lon="152.7273010">
<ele>523.224</ele>
<time>2016-08-31T01:18:29.582Z</time>
</trkpt>
<trkpt lat="-27.2982576" lon="152.7274880">
<ele>526.646</ele>
<time>2016-08-31T01:18:31.373Z</time>
</trkpt>
<trkpt lat="-27.2977915" lon="152.7277105">
<ele>531.122</ele>
<time>2016-08-31T01:18:34.470Z</time>
</trkpt>
<trkpt lat="-27.2974600" lon="152.7278594">
<ele>535.519</ele>
<time>2016-08-31T01:18:36.701Z</time>
</trkpt>
<trkpt lat="-27.2969166" lon="152.7280731">
<ele>540.044</ele>
<time>2016-08-31T01:18:40.117Z</time>
</trkpt>
<trkpt lat="-27.2962244" lon="152.7281808">
<ele>546.118</ele>
<time>2016-08-31T01:18:43.795Z</time>
</trkpt>
<trkpt lat="-27.2958804" lon="152.7282446">
<ele>554.216</ele>
<time>2016-08-31T01:18:45.514Z</time>
</trkpt>
<trkpt lat="-27.2958117" lon="152.7284979">
<ele>562.089</ele>
<time>2016-08-31T01:18:46.699Z</time>
</trkpt>
<trkpt lat="-27.2958933" lon="152.7288637">
<ele>566.837</ele>
<time>2016-08-31T01:18:48.544Z</time>
</trkpt>
<trkpt lat="-27.2960657" lon="152.7293177">
<ele>568.908</ele>
<time>2016-08-31T01:18:51.887Z</time>
</trkpt>
<trkpt lat="-27.2961750" lon="152.7296596">
<ele>571.031</ele>
<time>2016-08-31T01:18:54.583Z</time>
</trkpt>
<trkpt lat="-27.2963298" lon="152.7299504">
<ele>574.895</ele>
<time>2016-08-31T01:18:56.771Z</time>
</trkpt>
<trkpt lat="-27.2964227" lon="152.7302596">
<ele>579.844</ele>
<time>2016-08-31T01:18:58.603Z</time>
</trkpt>
<trkpt lat="-27.2964889" lon="152.7308523">
<ele>584.565</ele>
<time>2016-08-31T01:19:01.995Z</time>
</trkpt>
<trkpt lat="-27.2966291" lon="152.7312484">
<ele>589.212</ele>
<time>2016-08-31T01:19:04.278Z</time>
</trkpt>
<trkpt lat="-27.2969356" lon="152.7318059">
<ele>593.771</ele>
<time>2016-08-31T01:19:07.540Z</time>
</trkpt>
<trkpt lat="-27.2970680" lon="152.7321062">
<ele>596.738</ele>
<time>2016-08-31T01:19:09.144Z</time>
</trkpt>
<trkpt lat="-27.2970568" lon="152.7323902">
<ele>597.137</ele>
<time>2016-08-31T01:19:10.539Z</time>
</trkpt>
<trkpt lat="-27.2968609" lon="152.7328706">
<ele>595.883</ele>
<time>2016-08-31T01:19:13.426Z</time>
</trkpt>
<trkpt lat="-27.2966890" lon="152.7332519">
<ele>595.131</ele>
<time>2016-08-31T01:19:15.875Z</time>
</trkpt>
<trkpt lat="-27.2965575" lon="152.7336101">
<ele>596.896</ele>
<time>2016-08-31T01:19:17.939Z</time>
</trkpt>
<trkpt lat="-27.2965648" lon="152.7339793">
<ele>600.845</ele>
<time>2016-08-31T01:19:19.762Z</time>
</trkpt>
<trkpt lat="-27.2964991" lon="152.7345533">
<ele>605.354</ele>
<time>2016-08-31T01:19:22.722Z</time>
</trkpt>
<trkpt lat="-27.2963980" lon="152.7349998">
<ele>610.457</ele>
<time>2016-08-31T01:19:25.119Z</time>
</trkpt>
<trkpt lat="-27.2962690" lon="152.7356316">
<ele>616.954</ele>
<time>2016-08-31T01:19:28.261Z</time>
</trkpt>
<trkpt lat="-27.2961706" lon="152.7359993">
<ele>624.097</ele>
<time>2016-08-31T01:19:30.034Z</time>
</trkpt>
<trkpt lat="-27.2960324" lon="152.7363150">
<ele>630.098</ele>
<time>2016-08-31T01:19:31.700Z</time>
</trkpt>
<trkpt lat="-27.2957059" lon="152.7366829">
<ele>634.245</ele>
<time>2016-08-31T01:19:34.379Z</time>
</trkpt>
<trkpt lat="-27.2953669" lon="152.7368484">
<ele>638.243</ele>
<time>2016-08-31T01:19:36.733Z</time>
</trkpt>
<trkpt lat="-27.2948948" lon="152.7370632">
<ele>643.589</ele>
<time>2016-08-31T01:19:39.915Z</time>
</trkpt>
<trkpt lat="-27.2943405" lon="152.7371197">
<ele>649.853</ele>
<time>2016-08-31T01:19:43.182Z</time>
</trkpt>
<trkpt lat="-27.2939802" lon="152.7369932">
<ele>656.582</ele>
<time>2016-08-31T01:19:45.392Z</time>
</trkpt>
<trkpt lat="-27.2937175" lon="152.7368309">
<ele>663.088</ele>
<time>2016-08-31T01:19:47.157Z</time>
</trkpt>
<trkpt lat="-27.2934570" lon="152.7367287">
<ele>667.806</ele>
<time>2016-08-31T01:19:48.849Z</time>
</trkpt>
<trkpt lat="-27.2933668" lon="152.7368363">
<ele>670.089</ele>
<time>2016-08-31T01:19:49.686Z</time>
</trkpt>
<trkpt lat="-27.2933308" lon="152.7370491">
<ele>670.579</ele>
<time>2016-08-31T01:19:51.145Z</time>
</trkpt>
<trkpt lat="-27.2934290" lon="152.7375407">
<ele>670.238</ele>
<time>2016-08-31T01:19:55.482Z</time>
</trkpt>
<trkpt lat="-27.2935455" lon="152.7378495">
<ele>669.667</ele>
<time>2016-08-31T01:19:58.503Z</time>
</trkpt>
<trkpt lat="-27.2937458" lon="152.7381752">
<ele>668.787</ele>
<time>2016-08-31T01:20:01.178Z</time>
</trkpt>
<trkpt lat="-27.2939218" lon="152.7385385">
<ele>667.003</ele>
<time>2016-08-31T01:20:03.442Z</time>
</trkpt>
<trkpt lat="-27.2939380" lon="152.7390372">
<ele>663.826</ele>
<time>2016-08-31T01:20:05.931Z</time>
</trkpt>
<trkpt lat="-27.2939884" lon="152.7395467">
<ele>659.649</ele>
<time>2016-08-31T01:20:08.229Z</time>
</trkpt>
<trkpt lat="-27.2940768" lon="152.7400029">
<ele>655.636</ele>
<time>2016-08-31T01:20:10.136Z</time>
</trkpt>
<trkpt lat="-27.2941214" lon="152.7406388">
<ele>652.751</ele>
<time>2016-08-31T01:20:12.770Z</time>
</trkpt>
<trkpt lat="-27.2939526" lon="152.7410446">
<ele>651.221</ele>
<time>2016-08-31T01:20:14.728Z</time>
</trkpt>
<trkpt lat="-27.2937924" lon="152.7414532">
<ele>651.729</ele>
<time>2016-08-31T01:20:16.759Z</time>
</trkpt>
<trkpt lat="-27.2935758" lon="152.7418689">
<ele>654.882</ele>
<time>2016-08-31T01:20:19.016Z</time>
</trkpt>
<trkpt lat="-27.2936431" lon="152.7421466">
<ele>659.400</ele>
<time>2016-08-31T01:20:20.606Z</time>
</trkpt>
<trkpt lat="-27.2938172" lon="152.7423180">
<ele>663.524</ele>
<time>2016-08-31T01:20:22.060Z</time>
</trkpt>
<trkpt lat="-27.2940156" lon="152.7424894">
<ele>667.202</ele>
<time>2016-08-31T01:20:24.234Z</time>
</trkpt>
<trkpt lat="-27.2942530" lon="152.7428580">
<ele>670.979</ele>
<time>2016-08-31T01:20:28.064Z</time>
</trkpt>
<trkpt lat="-27.2943810" lon="152.7434261">
<ele>675.341</ele>
<time>2016-08-31T01:20:32.245Z</time>
</trkpt>
<trkpt lat="-27.2942594" lon="152.7439366">
<ele>680.793</ele>
<time>2016-08-31T01:20:35.416Z</time>
</trkpt>
<trkpt lat="-27.2940178" lon="152.7442391">
<ele>687.072</ele>
<time>2016-08-31T01:20:37.658Z</time>
</trkpt>
<trkpt lat="-27.2937199" lon="152.7445803">
<ele>692.991</ele>
<time>2016-08-31T01:20:40.172Z</time>
</trkpt>
<trkpt lat="-27.2933570" lon="152.7450851">
<ele>697.672</ele>
<time>2016-08-31T01:20:43.195Z</time>
</trkpt>
<trkpt lat="-27.2932057" lon="152.7454085">
<ele>700.883</ele>
<time>2016-08-31T01:20:44.868Z</time>
</trkpt>
<trkpt lat="-27.2932444" lon="152.7459964">
<ele>703.109</ele>
<time>2016-08-31T01:20:47.827Z</time>
</trkpt>
<trkpt lat="-27.2933681" lon="152.7464527">
<ele>705.932</ele>
<time>2016-08-31T01:20:50.253Z</time>
</trkpt>
<trkpt lat="-27.2934970" lon="152.7469252">
<ele>710.470</ele>
<time>2016-08-31T01:20:52.483Z</time>
</trkpt>
<trkpt lat="-27.2936926" lon="152.7475653">
<ele>716.070</ele>
<time>2016-08-31T01:20:55.337Z</time>
</trkpt>
<trkpt lat="-27.2938431" lon="152.7479894">
<ele>721.441</ele>
<time>2016-08-31T01:20:57.280Z</time>
</trkpt>
<trkpt lat="-27.2939866" lon="152.7487159">
<ele>725.796</ele>
<time>2016-08-31T01:21:00.445Z</time>
</trkpt>
<trkpt lat="-27.2940157" lon="152.7491897">
<ele>728.922</ele>
<time>2016-08-31T01:21:02.422Z</time>
</trkpt>
<trkpt lat="-27.2941129" lon="152.7496252">
<ele>730.815</ele>
<time>2016-08-31T01:21:04.276Z</time>
</trkpt>
<trkpt lat="-27.2943370" lon="152.7501548">
<ele>731.549</ele>
<time>2016-08-31T01:21:06.812Z</time>
</trkpt>
<trkpt lat="-27.2949626" lon="152.7503067">
<ele>731.484</ele>
<time>2016-08-31T01:21:10.209Z</time>
</trkpt>
<trkpt lat="-27.2953884" lon="152.7502967">
<ele>731.036</ele>
<time>2016-08-31T01:21:12.581Z</time>
</trkpt>
<trkpt lat="-27.2959473" lon="152.7503380">
<ele>730.245</ele>
<time>2016-08-31T01:21:15.517Z</time>
</trkpt>
<trkpt lat="-27.2962384" lon="152.7503647">
<ele>728.018</ele>
<time>2016-08-31T01:21:17.007Z</time>
</trkpt>
<trkpt lat="-27.2966929" lon="152.7506165">
<ele>724.055</ele>
<time>2016-08-31T01:21:19.821Z</time>
</trkpt>
<trkpt lat="-27.2968523" lon="152.7510132">
<ele>719.017</ele>
<time>2016-08-31T01:21:22.107Z</time>
</trkpt>
<trkpt lat="-27.2970273" lon="152.7513706">
<ele>713.265</ele>
<time>2016-08-31T01:21:24.275Z</time>
</trkpt>
<trkpt lat="-27.2972781" lon="152.7519026">
<ele>708.172</ele>
<time>2016-08-31T01:21:27.298Z</time>
</trkpt>
<trkpt lat="-27.2976838" lon="152.7521385">
<ele>704.508</ele>
<time>2016-08-31T01:21:29.897Z</time>
</trkpt>
<trkpt lat="-27.2979546" lon="152.7522176">
<ele>700.512</ele>
<time>2016-08-31T01:21:31.575Z</time>
</trkpt>
<trkpt lat="-27.2981632" lon="152.7523895">
<ele>695.251</ele>
<time>2016-08-31T01:21:33.258Z</time>
</trkpt>
<trkpt lat="-27.2982271" lon="152.7526643">
<ele>689.693</ele>
<time>2016-08-31T01:21:34.998Z</time>
</trkpt>
<trkpt lat="-27.2981606" lon="152.7529545">
<ele>685.033</ele>
<time>2016-08-31T01:21:36.940Z</time>
</trkpt>
<trkpt lat="-27.2979236" lon="152.7532863">
<ele>681.735</ele>
<time>2016-08-31T01:21:39.972Z</time>
</trkpt>
<trkpt lat="-27.2978138" lon="152.7538220">
<ele>679.234</ele>
<time>2016-08-31T01:21:43.508Z</time>
</trkpt>
<trkpt lat="-27.2978594" lon="152.7541205">
<ele>676.596</ele>
<time>2016-08-31T01:21:45.275Z</time>
</trkpt>
<trkpt lat="-27.2980984" lon="152.7544728">
<ele>673.868</ele>
<time>2016-08-31T01:21:47.685Z</time>
</trkpt>
<trkpt lat="-27.2985654" lon="152.7551001">
<ele>672.266</ele>
<time>2016-08-31T01:21:51.416Z</time>
</trkpt>
<trkpt lat="-27.2988495" lon="152.7554873">
<ele>672.723</ele>
<time>2016-08-31T01:21:53.417Z</time>
</trkpt>
<trkpt lat="-27.2991230" lon="152.7558348">
<ele>674.650</ele>
<time>2016-08-31T01:21:55.264Z</time>
</trkpt>
<trkpt lat="-27.2995998" lon="152.7562219">
<ele>676.471</ele>
<time>2016-08-31T01:21:58.097Z</time>
</trkpt>
<trkpt lat="-27.2999428" lon="152.7565263">
<ele>677.303</ele>
<time>2016-08-31T01:22:00.249Z</time>
</trkpt>
<trkpt lat="-27.3002638" lon="152.7567997">
<ele>677.401</ele>
<time>2016-08-31T01:22:02.213Z</time>
</trkpt>
<trkpt lat="-27.3007741" lon="152.7570867">
<ele>676.877</ele>
<time>2016-08-31T01:22:05.042Z</time>
</trkpt>
<trkpt lat="-27.3013482" lon="152.7571572">
<ele>675.598</ele>
<time>2016-08-31T01:22:08.004Z</time>
</trkpt>
<trkpt lat="-27.3018015" lon="152.7571759">
<ele>673.695</ele>
<time>2016-08-31T01:22:10.463Z</time>
</trkpt>
<trkpt lat="-27.3021036" lon="152.7570478">
<ele>670.650</ele>
<time>2016-08-31T01:22:12.281Z</time>
</trkpt>
<trkpt lat="-27.3026336" lon="152.7568342">
<ele>666.085</ele>
<time>2016-08-31T01:22:15.528Z</time>
</trkpt>
<trkpt lat="-27.3029108" lon="152.7566253">
<ele>660.910</ele>
<time>2016-08-31T01:22:17.400Z</time>
</trkpt>
<trkpt lat="-27.3032125" lon="152.7564768">
<ele>656.010</ele>
<time>2016-08-31T01:22:19.225Z</time>
</trkpt>
<trkpt lat="-27.3038546" lon="152.7564957">
<ele>651.545</ele>
<time>2016-08-31T01:22:22.635Z</time>
</trkpt>
<trkpt lat="-27.3042829" lon="152.7565560">
<ele>647.968</ele>
<time>2016-08-31T01:22:24.721Z</time>
</trkpt>
<trkpt lat="-27.3049169" lon="152.7566899">
<ele>645.831</ele>
<time>2016-08-31T01:22:27.648Z</time>
</trkpt>
<trkpt lat="-27.3053017" lon="152.7567320">
<ele>645.532</ele>
<time>2016-08-31T01:22:29.424Z</time>
</trkpt>
<trkpt lat="-27.3056991" lon="152.7566631">
<ele>646.676</ele>
<time>2016-08-31T01:22:31.328Z</time>
</trkpt>
<trkpt lat="-27.3063452" lon="152.7565972">
<ele>648.579</ele>
<time>2016-08-31T01:22:34.408Z</time>
</trkpt>
<trkpt lat="-27.3068915" lon="152.7564890">
<ele>651.167</ele>
<time>2016-08-31T01:22:37.075Z</time>
</trkpt>
<trkpt lat="-27.3074936" lon="152.7562601">
<ele>654.192</ele>
<time>2016-08-31T01:22:40.214Z</time>
</trkpt>
<trkpt lat="-27.3078026" lon="152.7560813">
<ele>656.825</ele>
<time>2016-08-31T01:22:41.945Z</time>
</trkpt>
<trkpt lat="-27.3082011" lon="152.7560749">
<ele>658.655</ele>
<time>2016-08-31T01:22:43.986Z</time>
</trkpt>
<trkpt lat="-27.3086425" lon="152.7562492">
<ele>659.619</ele>
<time>2016-08-31T01:22:46.887Z</time>
</trkpt>
<trkpt lat="-27.3091801" lon="152.7562694">
<ele>660.449</ele>
<time>2016-08-31T01:22:50.659Z</time>
</trkpt>
<trkpt lat="-27.3095444" lon="152.7562695">
<ele>661.869</ele>
<time>2016-08-31T01:22:52.977Z</time>
</trkpt>
<trkpt lat="-27.3097863" lon="152.7558707">
<ele>663.164</ele>
<time>2016-08-31T01:22:55.360Z</time>
</trkpt>
<trkpt lat="-27.3101639" lon="152.7553737">
<ele>663.523</ele>
<time>2016-08-31T01:22:58.495Z</time>
</trkpt>
<trkpt lat="-27.3103872" lon="152.7546387">
<ele>664.385</ele>
<time>2016-08-31T01:23:02.012Z</time>
</trkpt>
<trkpt lat="-27.3105280" lon="152.7543535">
<ele>667.288</ele>
<time>2016-08-31T01:23:03.462Z</time>
</trkpt>
<trkpt lat="-27.3108625" lon="152.7543648">
<ele>671.198</ele>
<time>2016-08-31T01:23:05.239Z</time>
</trkpt>
<trkpt lat="-27.3111734" lon="152.7541508">
<ele>674.183</ele>
<time>2016-08-31T01:23:07.675Z</time>
</trkpt>
<trkpt lat="-27.3112928" lon="152.7536926">
<ele>675.774</ele>
<time>2016-08-31T01:23:11.072Z</time>
</trkpt>
<trkpt lat="-27.3113124" lon="152.7531368">
<ele>676.321</ele>
<time>2016-08-31T01:23:14.840Z</time>
</trkpt>
<trkpt lat="-27.3113515" lon="152.7528520">
<ele>676.280</ele>
<time>2016-08-31T01:23:16.686Z</time>
</trkpt>
<trkpt lat="-27.3114390" lon="152.7525190">
<ele>675.839</ele>
<time>2016-08-31T01:23:18.786Z</time>
</trkpt>
<trkpt lat="-27.3114340" lon="152.7522121">
<ele>674.856</ele>
<time>2016-08-31T01:23:20.592Z</time>
</trkpt>
<trkpt lat="-27.3116295" lon="152.7518259">
<ele>673.062</ele>
<time>2016-08-31T01:23:23.306Z</time>
</trkpt>
<trkpt lat="-27.3117200" lon="152.7515086">
<ele>670.874</ele>
<time>2016-08-31T01:23:25.444Z</time>
</trkpt>
<trkpt lat="-27.3123565" lon="152.7514275">
<ele>669.568</ele>
<time>2016-08-31T01:23:29.848Z</time>
</trkpt>
<trkpt lat="-27.3126859" lon="152.7509694">
<ele>670.205</ele>
<time>2016-08-31T01:23:32.976Z</time>
</trkpt>
<trkpt lat="-27.3127077" lon="152.7504703">
<ele>672.585</ele>
<time>2016-08-31T01:23:35.673Z</time>
</trkpt>
<trkpt lat="-27.3125740" lon="152.7502177">
<ele>675.741</ele>
<time>2016-08-31T01:23:37.361Z</time>
</trkpt>
<trkpt lat="-27.3123768" lon="152.7498195">
<ele>678.580</ele>
<time>2016-08-31T01:23:40.379Z</time>
</trkpt>
<trkpt lat="-27.3120862" lon="152.7496757">
<ele>680.484</ele>
<time>2016-08-31T01:23:42.899Z</time>
</trkpt>
<trkpt lat="-27.3121543" lon="152.7493649">
<ele>681.686</ele>
<time>2016-08-31T01:23:45.354Z</time>
</trkpt>
<trkpt lat="-27.3123517" lon="152.7488104">
<ele>683.051</ele>
<time>2016-08-31T01:23:49.526Z</time>
</trkpt>
<trkpt lat="-27.3125895" lon="152.7484454">
<ele>685.762</ele>
<time>2016-08-31T01:23:51.841Z</time>
</trkpt>
<trkpt lat="-27.3129050" lon="152.7478962">
<ele>690.521</ele>
<time>2016-08-31T01:23:54.813Z</time>
</trkpt>
<trkpt lat="-27.3131665" lon="152.7473715">
<ele>696.112</ele>
<time>2016-08-31T01:23:57.638Z</time>
</trkpt>
<trkpt lat="-27.3135690" lon="152.7469604">
<ele>700.556</ele>
<time>2016-08-31T01:24:00.626Z</time>
</trkpt>
<trkpt lat="-27.3143044" lon="152.7468857">
<ele>703.759</ele>
<time>2016-08-31T01:24:04.433Z</time>
</trkpt>
<trkpt lat="-27.3147410" lon="152.7467612">
<ele>707.547</ele>
<time>2016-08-31T01:24:06.568Z</time>
</trkpt>
<trkpt lat="-27.3152646" lon="152.7465857">
<ele>712.192</ele>
<time>2016-08-31T01:24:09.222Z</time>
</trkpt>
<trkpt lat="-27.3155669" lon="152.7466006">
<ele>714.967</ele>
<time>2016-08-31T01:24:11.011Z</time>
</trkpt>
<trkpt lat="-27.3159787" lon="152.7471778">
<ele>714.320</ele>
<time>2016-08-31T01:24:15.281Z</time>
</trkpt>
<trkpt lat="-27.3164161" lon="152.7475668">
<ele>712.152</ele>
<time>2016-08-31T01:24:18.584Z</time>
</trkpt>
<trkpt lat="-27.3167929" lon="152.7478113">
<ele>709.852</ele>
<time>2016-08-31T01:24:21.173Z</time>
</trkpt>
<trkpt lat="-27.3172870" lon="152.7477579">
<ele>706.678</ele>
<time>2016-08-31T01:24:24.341Z</time>
</trkpt>
<trkpt lat="-27.3175460" lon="152.7477026">
<ele>702.546</ele>
<time>2016-08-31T01:24:26.107Z</time>
</trkpt>
<trkpt lat="-27.3177824" lon="152.7477318">
<ele>698.749</ele>
<time>2016-08-31T01:24:27.842Z</time>
</trkpt>
<trkpt lat="-27.3180492" lon="152.7479326">
<ele>696.323</ele>
<time>2016-08-31T01:24:30.161Z</time>
</trkpt>
<trkpt lat="-27.3184069" lon="152.7485581">
<ele>695.347</ele>
<time>2016-08-31T01:24:33.969Z</time>
</trkpt>
<trkpt lat="-27.3187670" lon="152.7490142">
<ele>695.265</ele>
<time>2016-08-31T01:24:36.453Z</time>
</trkpt>
<trkpt lat="-27.3193896" lon="152.7494353">
<ele>694.889</ele>
<time>2016-08-31T01:24:39.739Z</time>
</trkpt>
<trkpt lat="-27.3196508" lon="152.7497254">
<ele>693.130</ele>
<time>2016-08-31T01:24:41.637Z</time>
</trkpt>
<trkpt lat="-27.3198595" lon="152.7500854">
<ele>690.498</ele>
<time>2016-08-31T01:24:43.601Z</time>
</trkpt>
<trkpt lat="-27.3200733" lon="152.7504651">
<ele>688.469</ele>
<time>2016-08-31T01:24:45.482Z</time>
</trkpt>
<trkpt lat="-27.3204470" lon="152.7512508">
<ele>687.609</ele>
<time>2016-08-31T01:24:49.009Z</time>
</trkpt>
<trkpt lat="-27.3207054" lon="152.7516462">
<ele>687.493</ele>
<time>2016-08-31T01:24:51.008Z</time>
</trkpt>
<trkpt lat="-27.3211559" lon="152.7521248">
<ele>687.043</ele>
<time>2016-08-31T01:24:53.980Z</time>
</trkpt>
<trkpt lat="-27.3215921" lon="152.7525299">
<ele>685.160</ele>
<time>2016-08-31T01:24:56.894Z</time>
</trkpt>
<trkpt lat="-27.3217383" lon="152.7529000">
<ele>681.832</ele>
<time>2016-08-31T01:24:58.843Z</time>
</trkpt>
<trkpt lat="-27.3220256" lon="152.7534519">
<ele>678.315</ele>
<time>2016-08-31T01:25:01.915Z</time>
</trkpt>
<trkpt lat="-27.3222781" lon="152.7537522">
<ele>675.853</ele>
<time>2016-08-31T01:25:03.963Z</time>
</trkpt>
<trkpt lat="-27.3225499" lon="152.7540297">
<ele>674.719</ele>
<time>2016-08-31T01:25:06.123Z</time>
</trkpt>
<trkpt lat="-27.3228628" lon="152.7544098">
<ele>674.317</ele>
<time>2016-08-31T01:25:08.998Z</time>
</trkpt>
<trkpt lat="-27.3231076" lon="152.7546094">
<ele>673.801</ele>
<time>2016-08-31T01:25:10.931Z</time>
</trkpt>
<trkpt lat="-27.3233683" lon="152.7548162">
<ele>672.852</ele>
<time>2016-08-31T01:25:12.727Z</time>
</trkpt>
<trkpt lat="-27.3239182" lon="152.7551293">
<ele>671.933</ele>
<time>2016-08-31T01:25:16.166Z</time>
</trkpt>
<trkpt lat="-27.3243322" lon="152.7554401">
<ele>671.798</ele>
<time>2016-08-31T01:25:19.132Z</time>
</trkpt>
<trkpt lat="-27.3246149" lon="152.7555585">
<ele>673.166</ele>
<time>2016-08-31T01:25:20.996Z</time>
</trkpt>
<trkpt lat="-27.3249378" lon="152.7556363">
<ele>676.053</ele>
<time>2016-08-31T01:25:22.963Z</time>
</trkpt>
<trkpt lat="-27.3254519" lon="152.7556355">
<ele>679.608</ele>
<time>2016-08-31T01:25:26.024Z</time>
</trkpt>
<trkpt lat="-27.3258100" lon="152.7556100">
<ele>683.146</ele>
<time>2016-08-31T01:25:28.276Z</time>
</trkpt>
<trkpt lat="-27.3261106" lon="152.7556225">
<ele>686.077</ele>
<time>2016-08-31T01:25:30.221Z</time>
</trkpt>
<trkpt lat="-27.3265822" lon="152.7556348">
<ele>687.431</ele>
<time>2016-08-31T01:25:33.276Z</time>
</trkpt>
<trkpt lat="-27.3268937" lon="152.7556277">
<ele>686.968</ele>
<time>2016-08-31T01:25:35.286Z</time>
</trkpt>
<trkpt lat="-27.3271915" lon="152.7556289">
<ele>685.712</ele>
<time>2016-08-31T01:25:37.176Z</time>
</trkpt>
<trkpt lat="-27.3275097" lon="152.7556254">
<ele>684.630</ele>
<time>2016-08-31T01:25:39.275Z</time>
</trkpt>
<trkpt lat="-27.3279241" lon="152.7556359">
<ele>683.918</ele>
<time>2016-08-31T01:25:42.148Z</time>
</trkpt>
<trkpt lat="-27.3283224" lon="152.7558315">
<ele>683.419</ele>
<time>2016-08-31T01:25:45.055Z</time>
</trkpt>
<trkpt lat="-27.3286293" lon="152.7563215">
<ele>682.992</ele>
<time>2016-08-31T01:25:48.294Z</time>
</trkpt>
<trkpt lat="-27.3287881" lon="152.7566555">
<ele>682.539</ele>
<time>2016-08-31T01:25:50.210Z</time>
</trkpt>
<trkpt lat="-27.3290614" lon="152.7571431">
<ele>681.570</ele>
<time>2016-08-31T01:25:53.090Z</time>
</trkpt>
<trkpt lat="-27.3293440" lon="152.7576450">
<ele>679.129</ele>
<time>2016-08-31T01:25:56.061Z</time>
</trkpt>
<trkpt lat="-27.3295899" lon="152.7581519">
<ele>675.346</ele>
<time>2016-08-31T01:25:58.984Z</time>
</trkpt>
<trkpt lat="-27.3297674" lon="152.7584988">
<ele>671.928</ele>
<time>2016-08-31T01:26:01.118Z</time>
</trkpt>
<trkpt lat="-27.3299269" lon="152.7588072">
<ele>670.412</ele>
<time>2016-08-31T01:26:03.127Z</time>
</trkpt>
<trkpt lat="-27.3300771" lon="152.7591137">
<ele>670.818</ele>
<time>2016-08-31T01:26:05.199Z</time>
</trkpt>
<trkpt lat="-27.3303123" lon="152.7595077">
<ele>672.101</ele>
<time>2016-08-31T01:26:08.053Z</time>
</trkpt>
<trkpt lat="-27.3306241" lon="152.7598622">
<ele>673.510</ele>
<time>2016-08-31T01:26:11.020Z</time>
</trkpt>
<trkpt lat="-27.3308749" lon="152.7600502">
<ele>674.844</ele>
<time>2016-08-31T01:26:13.019Z</time>
</trkpt>
<trkpt lat="-27.3312571" lon="152.7603110">
<ele>675.760</ele>
<time>2016-08-31T01:26:16.017Z</time>
</trkpt>
<trkpt lat="-27.3314952" lon="152.7604917">
<ele>675.973</ele>
<time>2016-08-31T01:26:17.976Z</time>
</trkpt>
<trkpt lat="-27.3318392" lon="152.7607889">
<ele>675.412</ele>
<time>2016-08-31T01:26:20.953Z</time>
</trkpt>
<trkpt lat="-27.3320869" lon="152.7609647">
<ele>673.921</ele>
<time>2016-08-31T01:26:22.964Z</time>
</trkpt>
<trkpt lat="-27.3323210" lon="152.7611715">
<ele>671.601</ele>
<time>2016-08-31T01:26:24.974Z</time>
</trkpt>
<trkpt lat="-27.3326928" lon="152.7614816">
<ele>669.173</ele>
<time>2016-08-31T01:26:28.068Z</time>
</trkpt>
<trkpt lat="-27.3330232" lon="152.7617961">
<ele>667.520</ele>
<time>2016-08-31T01:26:30.918Z</time>
</trkpt>
<trkpt lat="-27.3332775" lon="152.7619898">
<ele>666.879</ele>
<time>2016-08-31T01:26:32.979Z</time>
</trkpt>
<trkpt lat="-27.3336149" lon="152.7622618">
<ele>666.826</ele>
<time>2016-08-31T01:26:35.822Z</time>
</trkpt>
<trkpt lat="-27.3339353" lon="152.7625802">
<ele>666.659</ele>
<time>2016-08-31T01:26:38.702Z</time>
</trkpt>
<trkpt lat="-27.3342782" lon="152.7629315">
<ele>665.803</ele>
<time>2016-08-31T01:26:41.665Z</time>
</trkpt>
<trkpt lat="-27.3345261" lon="152.7631714">
<ele>663.904</ele>
<time>2016-08-31T01:26:43.639Z</time>
</trkpt>
<trkpt lat="-27.3348917" lon="152.7635594">
<ele>660.777</ele>
<time>2016-08-31T01:26:46.610Z</time>
</trkpt>
<trkpt lat="-27.3351943" lon="152.7639958">
<ele>656.401</ele>
<time>2016-08-31T01:26:49.614Z</time>
</trkpt>
<trkpt lat="-27.3354064" lon="152.7644606">
<ele>650.987</ele>
<time>2016-08-31T01:26:52.714Z</time>
</trkpt>
<trkpt lat="-27.3354751" lon="152.7647444">
<ele>645.026</ele>
<time>2016-08-31T01:26:54.763Z</time>
</trkpt>
<trkpt lat="-27.3355460" lon="152.7651245">
<ele>639.807</ele>
<time>2016-08-31T01:26:57.739Z</time>
</trkpt>
<trkpt lat="-27.3355582" lon="152.7653472">
<ele>636.725</ele>
<time>2016-08-31T01:26:59.658Z</time>
</trkpt>
<trkpt lat="-27.3355554" lon="152.7655794">
<ele>635.918</ele>
<time>2016-08-31T01:27:01.666Z</time>
</trkpt>
<trkpt lat="-27.3355510" lon="152.7659295">
<ele>636.502</ele>
<time>2016-08-31T01:27:04.550Z</time>
</trkpt>
<trkpt lat="-27.3354919" lon="152.7662982">
<ele>637.772</ele>
<time>2016-08-31T01:27:07.380Z</time>
</trkpt>
<trkpt lat="-27.3354019" lon="152.7665795">
<ele>639.115</ele>
<time>2016-08-31T01:27:09.466Z</time>
</trkpt>
<trkpt lat="-27.3352318" lon="152.7669912">
<ele>640.023</ele>
<time>2016-08-31T01:27:12.582Z</time>
</trkpt>
<trkpt lat="-27.3350024" lon="152.7673549">
<ele>640.519</ele>
<time>2016-08-31T01:27:15.764Z</time>
</trkpt>
<trkpt lat="-27.3347887" lon="152.7676346">
<ele>641.217</ele>
<time>2016-08-31T01:27:18.648Z</time>
</trkpt>
<trkpt lat="-27.3346678" lon="152.7678096">
<ele>642.372</ele>
<time>2016-08-31T01:27:20.452Z</time>
</trkpt>
<trkpt lat="-27.3344405" lon="152.7680852">
<ele>643.439</ele>
<time>2016-08-31T01:27:23.398Z</time>
</trkpt>
<trkpt lat="-27.3342322" lon="152.7684219">
<ele>643.923</ele>
<time>2016-08-31T01:27:26.387Z</time>
</trkpt>
<trkpt lat="-27.3340885" lon="152.7686594">
<ele>643.760</ele>
<time>2016-08-31T01:27:28.347Z</time>
</trkpt>
<trkpt lat="-27.3339749" lon="152.7689332">
<ele>642.960</ele>
<time>2016-08-31T01:27:30.347Z</time>
</trkpt>
<trkpt lat="-27.3338680" lon="152.7692128">
<ele>641.657</ele>
<time>2016-08-31T01:27:32.314Z</time>
</trkpt>
<trkpt lat="-27.3336968" lon="152.7696215">
<ele>640.021</ele>
<time>2016-08-31T01:27:35.202Z</time>
</trkpt>
<trkpt lat="-27.3335828" lon="152.7699077">
<ele>638.026</ele>
<time>2016-08-31T01:27:37.232Z</time>
</trkpt>
<trkpt lat="-27.3334560" lon="152.7701826">
<ele>635.767</ele>
<time>2016-08-31T01:27:39.381Z</time>
</trkpt>
<trkpt lat="-27.3333531" lon="152.7705632">
<ele>633.762</ele>
<time>2016-08-31T01:27:42.409Z</time>
</trkpt>
<trkpt lat="-27.3334198" lon="152.7707710">
<ele>632.452</ele>
<time>2016-08-31T01:27:44.285Z</time>
</trkpt>
<trkpt lat="-27.3337112" lon="152.7709053">
<ele>631.597</ele>
<time>2016-08-31T01:27:47.261Z</time>
</trkpt>
<trkpt lat="-27.3339889" lon="152.7706957">
<ele>630.550</ele>
<time>2016-08-31T01:27:50.055Z</time>
</trkpt>
<trkpt lat="-27.3342811" lon="152.7703094">
<ele>629.001</ele>
<time>2016-08-31T01:27:53.172Z</time>
</trkpt>
<trkpt lat="-27.3344740" lon="152.7700136">
<ele>627.166</ele>
<time>2016-08-31T01:27:55.216Z</time>
</trkpt>
<trkpt lat="-27.3347705" lon="152.7696087">
<ele>625.301</ele>
<time>2016-08-31T01:27:58.180Z</time>
</trkpt>
<trkpt lat="-27.3350418" lon="152.7694635">
<ele>623.063</ele>
<time>2016-08-31T01:28:00.115Z</time>
</trkpt>
<trkpt lat="-27.3353780" lon="152.7694076">
<ele>620.381</ele>
<time>2016-08-31T01:28:02.224Z</time>
</trkpt>
<trkpt lat="-27.3358701" lon="152.7693202">
<ele>617.882</ele>
<time>2016-08-31T01:28:05.203Z</time>
</trkpt>
<trkpt lat="-27.3362152" lon="152.7692544">
<ele>615.472</ele>
<time>2016-08-31T01:28:07.215Z</time>
</trkpt>
<trkpt lat="-27.3367392" lon="152.7691319">
<ele>612.323</ele>
<time>2016-08-31T01:28:10.226Z</time>
</trkpt>
<trkpt lat="-27.3370775" lon="152.7690034">
<ele>607.937</ele>
<time>2016-08-31T01:28:12.266Z</time>
</trkpt>
<trkpt lat="-27.3375670" lon="152.7688127">
<ele>602.455</ele>
<time>2016-08-31T01:28:15.395Z</time>
</trkpt>
<trkpt lat="-27.3378533" lon="152.7687113">
<ele>595.970</ele>
<time>2016-08-31T01:28:17.313Z</time>
</trkpt>
<trkpt lat="-27.3382854" lon="152.7688790">
<ele>588.749</ele>
<time>2016-08-31T01:28:20.154Z</time>
</trkpt>
<trkpt lat="-27.3385884" lon="152.7691180">
<ele>582.328</ele>
<time>2016-08-31T01:28:22.336Z</time>
</trkpt>
<trkpt lat="-27.3389951" lon="152.7693782">
<ele>578.417</ele>
<time>2016-08-31T01:28:25.127Z</time>
</trkpt>
<trkpt lat="-27.3392938" lon="152.7695185">
<ele>576.983</ele>
<time>2016-08-31T01:28:27.086Z</time>
</trkpt>
<trkpt lat="-27.3396226" lon="152.7696107">
<ele>577.154</ele>
<time>2016-08-31T01:28:29.045Z</time>
</trkpt>
<trkpt lat="-27.3401640" lon="152.7696896">
<ele>578.001</ele>
<time>2016-08-31T01:28:32.024Z</time>
</trkpt>
<trkpt lat="-27.3405391" lon="152.7698568">
<ele>578.273</ele>
<time>2016-08-31T01:28:34.057Z</time>
</trkpt>
<trkpt lat="-27.3411711" lon="152.7701627">
<ele>576.874</ele>
<time>2016-08-31T01:28:37.384Z</time>
</trkpt>
<trkpt lat="-27.3415264" lon="152.7703782">
<ele>573.828</ele>
<time>2016-08-31T01:28:39.366Z</time>
</trkpt>
<trkpt lat="-27.3418456" lon="152.7708368">
<ele>569.913</ele>
<time>2016-08-31T01:28:42.037Z</time>
</trkpt>
<trkpt lat="-27.3420804" lon="152.7711561">
<ele>566.321</ele>
<time>2016-08-31T01:28:44.103Z</time>
</trkpt>
<trkpt lat="-27.3423427" lon="152.7714150">
<ele>564.301</ele>
<time>2016-08-31T01:28:46.099Z</time>
</trkpt>
<trkpt lat="-27.3428348" lon="152.7716792">
<ele>564.118</ele>
<time>2016-08-31T01:28:49.145Z</time>
</trkpt>
<trkpt lat="-27.3433374" lon="152.7720060">
<ele>565.108</ele>
<time>2016-08-31T01:28:52.238Z</time>
</trkpt>
<trkpt lat="-27.3437141" lon="152.7721781">
<ele>566.559</ele>
<time>2016-08-31T01:28:54.266Z</time>
</trkpt>
<trkpt lat="-27.3443209" lon="152.7722228">
<ele>568.142</ele>
<time>2016-08-31T01:28:57.160Z</time>
</trkpt>
<trkpt lat="-27.3447432" lon="152.7722050">
<ele>570.477</ele>
<time>2016-08-31T01:28:59.124Z</time>
</trkpt>
<trkpt lat="-27.3454086" lon="152.7721794">
<ele>574.501</ele>
<time>2016-08-31T01:29:02.299Z</time>
</trkpt>
<trkpt lat="-27.3457855" lon="152.7720951">
<ele>579.582</ele>
<time>2016-08-31T01:29:04.196Z</time>
</trkpt>
<trkpt lat="-27.3463278" lon="152.7718164">
<ele>583.655</ele>
<time>2016-08-31T01:29:07.159Z</time>
</trkpt>
<trkpt lat="-27.3468186" lon="152.7714215">
<ele>585.413</ele>
<time>2016-08-31T01:29:10.172Z</time>
</trkpt>
<trkpt lat="-27.3473457" lon="152.7711383">
<ele>584.446</ele>
<time>2016-08-31T01:29:13.162Z</time>
</trkpt>
<trkpt lat="-27.3477160" lon="152.7710855">
<ele>580.612</ele>
<time>2016-08-31T01:29:15.097Z</time>
</trkpt>
<trkpt lat="-27.3480785" lon="152.7711909">
<ele>574.920</ele>
<time>2016-08-31T01:29:17.047Z</time>
</trkpt>
<trkpt lat="-27.3484109" lon="152.7714264">
<ele>569.335</ele>
<time>2016-08-31T01:29:19.117Z</time>
</trkpt>
<trkpt lat="-27.3486836" lon="152.7717255">
<ele>565.087</ele>
<time>2016-08-31T01:29:21.169Z</time>
</trkpt>
<trkpt lat="-27.3491137" lon="152.7721304">
<ele>561.921</ele>
<time>2016-08-31T01:29:24.265Z</time>
</trkpt>
<trkpt lat="-27.3496118" lon="152.7721853">
<ele>558.315</ele>
<time>2016-08-31T01:29:27.056Z</time>
</trkpt>
<trkpt lat="-27.3500107" lon="152.7720882">
<ele>553.102</ele>
<time>2016-08-31T01:29:29.294Z</time>
</trkpt>
<trkpt lat="-27.3502293" lon="152.7717345">
<ele>546.935</ele>
<time>2016-08-31T01:29:31.438Z</time>
</trkpt>
<trkpt lat="-27.3504365" lon="152.7714212">
<ele>541.190</ele>
<time>2016-08-31T01:29:33.436Z</time>
</trkpt>
<trkpt lat="-27.3505324" lon="152.7710385">
<ele>536.670</ele>
<time>2016-08-31T01:29:35.505Z</time>
</trkpt>
<trkpt lat="-27.3507232" lon="152.7704619">
<ele>533.671</ele>
<time>2016-08-31T01:29:38.766Z</time>
</trkpt>
<trkpt lat="-27.3509581" lon="152.7699582">
<ele>531.452</ele>
<time>2016-08-31T01:29:42.085Z</time>
</trkpt>
<trkpt lat="-27.3510543" lon="152.7696825">
<ele>528.327</ele>
<time>2016-08-31T01:29:44.392Z</time>
</trkpt>
<trkpt lat="-27.3511480" lon="152.7694854">
<ele>523.527</ele>
<time>2016-08-31T01:29:46.339Z</time>
</trkpt>
<trkpt lat="-27.3513335" lon="152.7694494">
<ele>517.787</ele>
<time>2016-08-31T01:29:47.884Z</time>
</trkpt>
<trkpt lat="-27.3518059" lon="152.7694916">
<ele>512.577</ele>
<time>2016-08-31T01:29:50.917Z</time>
</trkpt>
<trkpt lat="-27.3523943" lon="152.7694875">
<ele>508.920</ele>
<time>2016-08-31T01:29:53.981Z</time>
</trkpt>
<trkpt lat="-27.3530147" lon="152.7694285">
<ele>506.006</ele>
<time>2016-08-31T01:29:57.202Z</time>
</trkpt>
<trkpt lat="-27.3533526" lon="152.7694072">
<ele>501.868</ele>
<time>2016-08-31T01:29:59.036Z</time>
</trkpt>
<trkpt lat="-27.3538937" lon="152.7696905">
<ele>495.941</ele>
<time>2016-08-31T01:30:02.181Z</time>
</trkpt>
<trkpt lat="-27.3542401" lon="152.7699796">
<ele>489.213</ele>
<time>2016-08-31T01:30:04.361Z</time>
</trkpt>
<trkpt lat="-27.3544896" lon="152.7703423">
<ele>482.898</ele>
<time>2016-08-31T01:30:06.429Z</time>
</trkpt>
<trkpt lat="-27.3547200" lon="152.7706984">
<ele>477.565</ele>
<time>2016-08-31T01:30:08.489Z</time>
</trkpt>
<trkpt lat="-27.3549016" lon="152.7712791">
<ele>472.553</ele>
<time>2016-08-31T01:30:11.585Z</time>
</trkpt>
<trkpt lat="-27.3552433" lon="152.7716787">
<ele>466.064</ele>
<time>2016-08-31T01:30:14.619Z</time>
</trkpt>
<trkpt lat="-27.3555517" lon="152.7718387">
<ele>457.505</ele>
<time>2016-08-31T01:30:16.956Z</time>
</trkpt>
<trkpt lat="-27.3559093" lon="152.7720233">
<ele>448.672</ele>
<time>2016-08-31T01:30:20.211Z</time>
</trkpt>
<trkpt lat="-27.3560408" lon="152.7722218">
<ele>440.550</ele>
<time>2016-08-31T01:30:22.046Z</time>
</trkpt>
<trkpt lat="-27.3562427" lon="152.7725673">
<ele>432.749</ele>
<time>2016-08-31T01:30:25.306Z</time>
</trkpt>
<trkpt lat="-27.3563978" lon="152.7728561">
<ele>425.754</ele>
<time>2016-08-31T01:30:27.936Z</time>
</trkpt>
<trkpt lat="-27.3563284" lon="152.7730676">
<ele>419.652</ele>
<time>2016-08-31T01:30:29.492Z</time>
</trkpt>
<trkpt lat="-27.3562672" lon="152.7735558">
<ele>414.106</ele>
<time>2016-08-31T01:30:32.144Z</time>
</trkpt>
<trkpt lat="-27.3564809" lon="152.7741618">
<ele>409.565</ele>
<time>2016-08-31T01:30:35.186Z</time>
</trkpt>
<trkpt lat="-27.3567363" lon="152.7747474">
<ele>405.712</ele>
<time>2016-08-31T01:30:38.366Z</time>
</trkpt>
<trkpt lat="-27.3568430" lon="152.7752757">
<ele>400.947</ele>
<time>2016-08-31T01:30:41.190Z</time>
</trkpt>
<trkpt lat="-27.3566371" lon="152.7757900">
<ele>393.929</ele>
<time>2016-08-31T01:30:44.102Z</time>
</trkpt>
<trkpt lat="-27.3564077" lon="152.7763223">
<ele>385.509</ele>
<time>2016-08-31T01:30:47.205Z</time>
</trkpt>
<trkpt lat="-27.3564609" lon="152.7768440">
<ele>377.332</ele>
<time>2016-08-31T01:30:49.839Z</time>
</trkpt>
<trkpt lat="-27.3567391" lon="152.7774189">
<ele>369.809</ele>
<time>2016-08-31T01:30:53.026Z</time>
</trkpt>
<trkpt lat="-27.3569090" lon="152.7777364">
<ele>363.196</ele>
<time>2016-08-31T01:30:55.314Z</time>
</trkpt>
<trkpt lat="-27.3570379" lon="152.7779414">
<ele>357.052</ele>
<time>2016-08-31T01:30:57.390Z</time>
</trkpt>
<trkpt lat="-27.3571817" lon="152.7780452">
<ele>349.975</ele>
<time>2016-08-31T01:30:59.368Z</time>
</trkpt>
<trkpt lat="-27.3573474" lon="152.7778620">
<ele>342.263</ele>
<time>2016-08-31T01:31:02.364Z</time>
</trkpt>
<trkpt lat="-27.3573485" lon="152.7776957">
<ele>335.744</ele>
<time>2016-08-31T01:31:04.159Z</time>
</trkpt>
<trkpt lat="-27.3572698" lon="152.7774431">
<ele>331.476</ele>
<time>2016-08-31T01:31:06.281Z</time>
</trkpt>
<trkpt lat="-27.3570628" lon="152.7769793">
<ele>329.264</ele>
<time>2016-08-31T01:31:09.934Z</time>
</trkpt>
<trkpt lat="-27.3570798" lon="152.7765850">
<ele>327.970</ele>
<time>2016-08-31T01:31:12.937Z</time>
</trkpt>
<trkpt lat="-27.3574270" lon="152.7764423">
<ele>325.834</ele>
<time>2016-08-31T01:31:15.476Z</time>
</trkpt>
<trkpt lat="-27.3580865" lon="152.7763077">
<ele>322.231</ele>
<time>2016-08-31T01:31:19.163Z</time>
</trkpt>
<trkpt lat="-27.3585160" lon="152.7762931">
<ele>318.178</ele>
<time>2016-08-31T01:31:21.948Z</time>
</trkpt>
<trkpt lat="-27.3588693" lon="152.7763361">
<ele>313.785</ele>
<time>2016-08-31T01:31:25.145Z</time>
</trkpt>
<trkpt lat="-27.3591576" lon="152.7762585">
<ele>307.898</ele>
<time>2016-08-31T01:31:28.041Z</time>
</trkpt>
<trkpt lat="-27.3592498" lon="152.7761163">
<ele>300.281</ele>
<time>2016-08-31T01:31:29.491Z</time>
</trkpt>
<trkpt lat="-27.3594008" lon="152.7757594">
<ele>292.640</ele>
<time>2016-08-31T01:31:33.132Z</time>
</trkpt>
<trkpt lat="-27.3594668" lon="152.7754339">
<ele>287.175</ele>
<time>2016-08-31T01:31:37.188Z</time>
</trkpt>
<trkpt lat="-27.3594640" lon="152.7751867">
<ele>283.949</ele>
<time>2016-08-31T01:31:40.135Z</time>
</trkpt>
<trkpt lat="-27.3595861" lon="152.7750986">
<ele>281.072</ele>
<time>2016-08-31T01:31:41.542Z</time>
</trkpt>
<trkpt lat="-27.3597783" lon="152.7751850">
<ele>278.029</ele>
<time>2016-08-31T01:31:43.150Z</time>
</trkpt>
<trkpt lat="-27.3598632" lon="152.7755969">
<ele>276.565</ele>
<time>2016-08-31T01:31:45.569Z</time>
</trkpt>
<trkpt lat="-27.3598321" lon="152.7759610">
<ele>278.323</ele>
<time>2016-08-31T01:31:47.648Z</time>
</trkpt>
<trkpt lat="-27.3599124" lon="152.7763174">
<ele>282.829</ele>
<time>2016-08-31T01:31:49.853Z</time>
</trkpt>
<trkpt lat="-27.3599492" lon="152.7766285">
<ele>287.899</ele>
<time>2016-08-31T01:31:51.828Z</time>
</trkpt>
<trkpt lat="-27.3598175" lon="152.7770711">
<ele>291.415</ele>
<time>2016-08-31T01:31:54.972Z</time>
</trkpt>
<trkpt lat="-27.3596276" lon="152.7773353">
<ele>292.795</ele>
<time>2016-08-31T01:31:57.675Z</time>
</trkpt>
<trkpt lat="-27.3592289" lon="152.7774469">
<ele>292.816</ele>
<time>2016-08-31T01:32:01.236Z</time>
</trkpt>
<trkpt lat="-27.3590102" lon="152.7776663">
<ele>291.865</ele>
<time>2016-08-31T01:32:03.435Z</time>
</trkpt>
<trkpt lat="-27.3592704" lon="152.7781374">
<ele>290.052</ele>
<time>2016-08-31T01:32:06.867Z</time>
</trkpt>
<trkpt lat="-27.3596433" lon="152.7783513">
<ele>287.591</ele>
<time>2016-08-31T01:32:09.641Z</time>
</trkpt>
<trkpt lat="-27.3599286" lon="152.7787386">
<ele>284.672</ele>
<time>2016-08-31T01:32:12.686Z</time>
</trkpt>
<trkpt lat="-27.3600135" lon="152.7790665">
<ele>281.585</ele>
<time>2016-08-31T01:32:14.927Z</time>
</trkpt>
<trkpt lat="-27.3599864" lon="152.7795637">
<ele>278.594</ele>
<time>2016-08-31T01:32:18.348Z</time>
</trkpt>
<trkpt lat="-27.3599981" lon="152.7799365">
<ele>275.287</ele>
<time>2016-08-31T01:32:20.871Z</time>
</trkpt>
<trkpt lat="-27.3602014" lon="152.7801817">
<ele>271.022</ele>
<time>2016-08-31T01:32:23.160Z</time>
</trkpt>
<trkpt lat="-27.3603428" lon="152.7804461">
<ele>266.023</ele>
<time>2016-08-31T01:32:25.235Z</time>
</trkpt>
<trkpt lat="-27.3601816" lon="152.7808122">
<ele>261.578</ele>
<time>2016-08-31T01:32:27.651Z</time>
</trkpt>
<trkpt lat="-27.3600061" lon="152.7812212">
<ele>258.674</ele>
<time>2016-08-31T01:32:29.972Z</time>
</trkpt>
<trkpt lat="-27.3601106" lon="152.7817701">
<ele>257.561</ele>
<time>2016-08-31T01:32:32.616Z</time>
</trkpt>
<trkpt lat="-27.3602988" lon="152.7821627">
<ele>257.946</ele>
<time>2016-08-31T01:32:34.694Z</time>
</trkpt>
<trkpt lat="-27.3605002" lon="152.7827459">
<ele>258.967</ele>
<time>2016-08-31T01:32:37.586Z</time>
</trkpt>
<trkpt lat="-27.3605581" lon="152.7831836">
<ele>259.299</ele>
<time>2016-08-31T01:32:39.584Z</time>
</trkpt>
<trkpt lat="-27.3607001" lon="152.7835704">
<ele>258.333</ele>
<time>2016-08-31T01:32:41.434Z</time>
</trkpt>
<trkpt lat="-27.3611027" lon="152.7840142">
<ele>257.001</ele>
<time>2016-08-31T01:32:44.459Z</time>
</trkpt>
<trkpt lat="-27.3615874" lon="152.7843897">
<ele>256.338</ele>
<time>2016-08-31T01:32:48.494Z</time>
</trkpt>
<trkpt lat="-27.3618260" lon="152.7848045">
<ele>256.426</ele>
<time>2016-08-31T01:32:51.994Z</time>
</trkpt>
<trkpt lat="-27.3618022" lon="152.7850870">
<ele>256.918</ele>
<time>2016-08-31T01:32:54.053Z</time>
</trkpt>
<trkpt lat="-27.3616177" lon="152.7854631">
<ele>257.443</ele>
<time>2016-08-31T01:32:57.097Z</time>
</trkpt>
<trkpt lat="-27.3615129" lon="152.7858414">
<ele>257.829</ele>
<time>2016-08-31T01:32:59.779Z</time>
</trkpt>
<trkpt lat="-27.3614577" lon="152.7862757">
<ele>257.899</ele>
<time>2016-08-31T01:33:02.744Z</time>
</trkpt>
<trkpt lat="-27.3613276" lon="152.7865271">
<ele>257.179</ele>
<time>2016-08-31T01:33:04.639Z</time>
</trkpt>
<trkpt lat="-27.3609646" lon="152.7867360">
<ele>255.396</ele>
<time>2016-08-31T01:33:07.829Z</time>
</trkpt>
<trkpt lat="-27.3604944" lon="152.7866942">
<ele>252.897</ele>
<time>2016-08-31T01:33:12.114Z</time>
</trkpt>
<trkpt lat="-27.3602672" lon="152.7867662">
<ele>250.044</ele>
<time>2016-08-31T01:33:13.782Z</time>
</trkpt>
<trkpt lat="-27.3602273" lon="152.7870985">
<ele>246.706</ele>
<time>2016-08-31T01:33:15.844Z</time>
</trkpt>
<trkpt lat="-27.3603450" lon="152.7873632">
<ele>243.033</ele>
<time>2016-08-31T01:33:17.679Z</time>
</trkpt>
<trkpt lat="-27.3606178" lon="152.7877870">
<ele>239.993</ele>
<time>2016-08-31T01:33:21.239Z</time>
</trkpt>
<trkpt lat="-27.3607501" lon="152.7880740">
<ele>237.907</ele>
<time>2016-08-31T01:33:23.569Z</time>
</trkpt>
<trkpt lat="-27.3608370" lon="152.7884779">
<ele>235.999</ele>
<time>2016-08-31T01:33:26.188Z</time>
</trkpt>
<trkpt lat="-27.3610055" lon="152.7887044">
<ele>233.643</ele>
<time>2016-08-31T01:33:27.737Z</time>
</trkpt>
<trkpt lat="-27.3612428" lon="152.7888195">
<ele>230.878</ele>
<time>2016-08-31T01:33:29.253Z</time>
</trkpt>
<trkpt lat="-27.3616130" lon="152.7887838">
<ele>228.187</ele>
<time>2016-08-31T01:33:31.367Z</time>
</trkpt>
<trkpt lat="-27.3621585" lon="152.7886642">
<ele>226.188</ele>
<time>2016-08-31T01:33:34.690Z</time>
</trkpt>
<trkpt lat="-27.3626835" lon="152.7887189">
<ele>224.664</ele>
<time>2016-08-31T01:33:38.857Z</time>
</trkpt>
<trkpt lat="-27.3631476" lon="152.7885972">
<ele>222.241</ele>
<time>2016-08-31T01:33:42.652Z</time>
</trkpt>
<trkpt lat="-27.3633503" lon="152.7885053">
<ele>217.813</ele>
<time>2016-08-31T01:33:44.067Z</time>
</trkpt>
<trkpt lat="-27.3635236" lon="152.7885746">
<ele>211.878</ele>
<time>2016-08-31T01:33:45.161Z</time>
</trkpt>
<trkpt lat="-27.3637913" lon="152.7889452">
<ele>206.367</ele>
<time>2016-08-31T01:33:47.561Z</time>
</trkpt>
<trkpt lat="-27.3639848" lon="152.7892734">
<ele>203.145</ele>
<time>2016-08-31T01:33:49.430Z</time>
</trkpt>
<trkpt lat="-27.3641770" lon="152.7895749">
<ele>202.361</ele>
<time>2016-08-31T01:33:51.030Z</time>
</trkpt>
<trkpt lat="-27.3643509" lon="152.7901846">
<ele>202.340</ele>
<time>2016-08-31T01:33:53.611Z</time>
</trkpt>
<trkpt lat="-27.3644266" lon="152.7906674">
<ele>201.833</ele>
<time>2016-08-31T01:33:55.569Z</time>
</trkpt>
<trkpt lat="-27.3645224" lon="152.7913983">
<ele>201.600</ele>
<time>2016-08-31T01:33:58.737Z</time>
</trkpt>
<trkpt lat="-27.3645685" lon="152.7918969">
<ele>202.551</ele>
<time>2016-08-31T01:34:01.196Z</time>
</trkpt>
<trkpt lat="-27.3645246" lon="152.7925353">
<ele>203.667</ele>
<time>2016-08-31T01:34:04.437Z</time>
</trkpt>
<trkpt lat="-27.3645225" lon="152.7928873">
<ele>202.578</ele>
<time>2016-08-31T01:34:06.237Z</time>
</trkpt>
<trkpt lat="-27.3646447" lon="152.7933051">
<ele>198.340</ele>
<time>2016-08-31T01:34:08.728Z</time>
</trkpt>
<trkpt lat="-27.3648089" lon="152.7938580">
<ele>193.162</ele>
<time>2016-08-31T01:34:12.965Z</time>
</trkpt>
<trkpt lat="-27.3649745" lon="152.7942876">
<ele>188.628</ele>
<time>2016-08-31T01:34:16.044Z</time>
</trkpt>
<trkpt lat="-27.3648359" lon="152.7944899">
<ele>183.532</ele>
<time>2016-08-31T01:34:17.564Z</time>
</trkpt>
<trkpt lat="-27.3647532" lon="152.7947198">
<ele>177.957</ele>
<time>2016-08-31T01:34:18.980Z</time>
</trkpt>
<trkpt lat="-27.3647832" lon="152.7952504">
<ele>173.846</ele>
<time>2016-08-31T01:34:21.810Z</time>
</trkpt>
<trkpt lat="-27.3648462" lon="152.7955584">
<ele>171.703</ele>
<time>2016-08-31T01:34:23.275Z</time>
</trkpt>
<trkpt lat="-27.3651889" lon="152.7959272">
<ele>170.220</ele>
<time>2016-08-31T01:34:25.591Z</time>
</trkpt>
<trkpt lat="-27.3655161" lon="152.7962362">
<ele>168.551</ele>
<time>2016-08-31T01:34:27.751Z</time>
</trkpt>
<trkpt lat="-27.3658155" lon="152.7965864">
<ele>166.983</ele>
<time>2016-08-31T01:34:30.137Z</time>
</trkpt>
<trkpt lat="-27.3661945" lon="152.7970279">
<ele>165.632</ele>
<time>2016-08-31T01:34:33.224Z</time>
</trkpt>
<trkpt lat="-27.3666657" lon="152.7972116">
<ele>163.814</ele>
<time>2016-08-31T01:34:35.982Z</time>
</trkpt>
<trkpt lat="-27.3670122" lon="152.7971662">
<ele>161.290</ele>
<time>2016-08-31T01:34:37.872Z</time>
</trkpt>
<trkpt lat="-27.3673735" lon="152.7971339">
<ele>158.974</ele>
<time>2016-08-31T01:34:39.762Z</time>
</trkpt>
<trkpt lat="-27.3679532" lon="152.7972263">
<ele>157.785</ele>
<time>2016-08-31T01:34:42.789Z</time>
</trkpt>
<trkpt lat="-27.3683099" lon="152.7972550">
<ele>157.993</ele>
<time>2016-08-31T01:34:44.685Z</time>
</trkpt>
<trkpt lat="-27.3686970" lon="152.7975355">
<ele>159.581</ele>
<time>2016-08-31T01:34:47.235Z</time>
</trkpt>
<trkpt lat="-27.3689943" lon="152.7980816">
<ele>161.674</ele>
<time>2016-08-31T01:34:50.651Z</time>
</trkpt>
<trkpt lat="-27.3690708" lon="152.7984331">
<ele>162.988</ele>
<time>2016-08-31T01:34:52.553Z</time>
</trkpt>
<trkpt lat="-27.3689410" lon="152.7989501">
<ele>162.638</ele>
<time>2016-08-31T01:34:55.148Z</time>
</trkpt>
<trkpt lat="-27.3688917" lon="152.7993305">
<ele>160.866</ele>
<time>2016-08-31T01:34:56.787Z</time>
</trkpt>
<trkpt lat="-27.3689709" lon="152.7997573">
<ele>159.070</ele>
<time>2016-08-31T01:34:58.617Z</time>
</trkpt>
<trkpt lat="-27.3691128" lon="152.8005023">
<ele>158.668</ele>
<time>2016-08-31T01:35:01.680Z</time>
</trkpt>
<trkpt lat="-27.3692480" lon="152.8009553">
<ele>159.707</ele>
<time>2016-08-31T01:35:03.457Z</time>
</trkpt>
<trkpt lat="-27.3694909" lon="152.8013892">
<ele>160.339</ele>
<time>2016-08-31T01:35:05.321Z</time>
</trkpt>
<trkpt lat="-27.3700701" lon="152.8019242">
<ele>158.790</ele>
<time>2016-08-31T01:35:08.288Z</time>
</trkpt>
<trkpt lat="-27.3707742" lon="152.8022858">
<ele>155.813</ele>
<time>2016-08-31T01:35:11.455Z</time>
</trkpt>
<trkpt lat="-27.3714602" lon="152.8024047">
<ele>153.306</ele>
<time>2016-08-31T01:35:14.244Z</time>
</trkpt>
<trkpt lat="-27.3719334" lon="152.8022925">
<ele>152.445</ele>
<time>2016-08-31T01:35:16.128Z</time>
</trkpt>
<trkpt lat="-27.3726998" lon="152.8020953">
<ele>153.853</ele>
<time>2016-08-31T01:35:19.070Z</time>
</trkpt>
<trkpt lat="-27.3735022" lon="152.8021275">
<ele>157.605</ele>
<time>2016-08-31T01:35:22.121Z</time>
</trkpt>
<trkpt lat="-27.3740281" lon="152.8021595">
<ele>162.869</ele>
<time>2016-08-31T01:35:24.174Z</time>
</trkpt>
<trkpt lat="-27.3747755" lon="152.8020691">
<ele>167.876</ele>
<time>2016-08-31T01:35:27.274Z</time>
</trkpt>
<trkpt lat="-27.3752480" lon="152.8019531">
<ele>170.886</ele>
<time>2016-08-31T01:35:29.393Z</time>
</trkpt>
<trkpt lat="-27.3759118" lon="152.8018271">
<ele>171.352</ele>
<time>2016-08-31T01:35:32.703Z</time>
</trkpt>
<trkpt lat="-27.3765020" lon="152.8019227">
<ele>166.794</ele>
<time>2016-08-31T01:35:35.945Z</time>
</trkpt>
<trkpt lat="-27.3769991" lon="152.8021827">
<ele>156.613</ele>
<time>2016-08-31T01:35:39.007Z</time>
</trkpt>
<trkpt lat="-27.3774020" lon="152.8025786">
<ele>147.201</ele>
<time>2016-08-31T01:35:41.787Z</time>
</trkpt>
<trkpt lat="-27.3776037" lon="152.8029179">
<ele>144.011</ele>
<time>2016-08-31T01:35:43.488Z</time>
</trkpt>
<trkpt lat="-27.3777558" lon="152.8033430">
<ele>145.243</ele>
<time>2016-08-31T01:35:45.341Z</time>
</trkpt>
<trkpt lat="-27.3779000" lon="152.8038211">
<ele>147.178</ele>
<time>2016-08-31T01:35:47.371Z</time>
</trkpt>
<trkpt lat="-27.3780965" lon="152.8045314">
<ele>147.875</ele>
<time>2016-08-31T01:35:50.398Z</time>
</trkpt>
<trkpt lat="-27.3782239" lon="152.8049828">
<ele>147.741</ele>
<time>2016-08-31T01:35:52.317Z</time>
</trkpt>
<trkpt lat="-27.3783372" lon="152.8054596">
<ele>147.651</ele>
<time>2016-08-31T01:35:54.327Z</time>
</trkpt>
<trkpt lat="-27.3784814" lon="152.8059160">
<ele>147.446</ele>
<time>2016-08-31T01:35:56.314Z</time>
</trkpt>
<trkpt lat="-27.3786881" lon="152.8065922">
<ele>146.558</ele>
<time>2016-08-31T01:35:59.277Z</time>
</trkpt>
<trkpt lat="-27.3788221" lon="152.8070421">
<ele>144.647</ele>
<time>2016-08-31T01:36:01.221Z</time>
</trkpt>
<trkpt lat="-27.3790008" lon="152.8077354">
<ele>141.856</ele>
<time>2016-08-31T01:36:04.121Z</time>
</trkpt>
<trkpt lat="-27.3791175" lon="152.8084768">
<ele>138.845</ele>
<time>2016-08-31T01:36:07.166Z</time>
</trkpt>
<trkpt lat="-27.3791495" lon="152.8091872">
<ele>135.942</ele>
<time>2016-08-31T01:36:10.052Z</time>
</trkpt>
<trkpt lat="-27.3791003" lon="152.8099163">
<ele>132.584</ele>
<time>2016-08-31T01:36:13.002Z</time>
</trkpt>
<trkpt lat="-27.3789600" lon="152.8106490">
<ele>128.714</ele>
<time>2016-08-31T01:36:16.030Z</time>
</trkpt>
<trkpt lat="-27.3788148" lon="152.8113793">
<ele>125.006</ele>
<time>2016-08-31T01:36:19.131Z</time>
</trkpt>
<trkpt lat="-27.3787288" lon="152.8118509">
<ele>121.819</ele>
<time>2016-08-31T01:36:21.203Z</time>
</trkpt>
<trkpt lat="-27.3786693" lon="152.8123227">
<ele>118.947</ele>
<time>2016-08-31T01:36:23.289Z</time>
</trkpt>
<trkpt lat="-27.3785937" lon="152.8129801">
<ele>116.097</ele>
<time>2016-08-31T01:36:26.292Z</time>
</trkpt>
<trkpt lat="-27.3785388" lon="152.8134220">
<ele>113.020</ele>
<time>2016-08-31T01:36:28.344Z</time>
</trkpt>
<trkpt lat="-27.3784932" lon="152.8138462">
<ele>109.917</ele>
<time>2016-08-31T01:36:30.326Z</time>
</trkpt>
<trkpt lat="-27.3784513" lon="152.8142718">
<ele>107.389</ele>
<time>2016-08-31T01:36:32.321Z</time>
</trkpt>
<trkpt lat="-27.3783758" lon="152.8148894">
<ele>105.724</ele>
<time>2016-08-31T01:36:35.240Z</time>
</trkpt>
<trkpt lat="-27.3783002" lon="152.8155313">
<ele>104.397</ele>
<time>2016-08-31T01:36:38.281Z</time>
</trkpt>
<trkpt lat="-27.3782561" lon="152.8159433">
<ele>102.876</ele>
<time>2016-08-31T01:36:40.237Z</time>
</trkpt>
<trkpt lat="-27.3781787" lon="152.8165708">
<ele>101.306</ele>
<time>2016-08-31T01:36:43.198Z</time>
</trkpt>
<trkpt lat="-27.3781257" lon="152.8172174">
<ele>100.079</ele>
<time>2016-08-31T01:36:46.191Z</time>
</trkpt>
<trkpt lat="-27.3780883" lon="152.8176294">
<ele>99.354</ele>
<time>2016-08-31T01:36:48.086Z</time>
</trkpt>
<trkpt lat="-27.3780436" lon="152.8182794">
<ele>98.839</ele>
<time>2016-08-31T01:36:51.003Z</time>
</trkpt>
<trkpt lat="-27.3779741" lon="152.8189445">
<ele>98.200</ele>
<time>2016-08-31T01:36:53.948Z</time>
</trkpt>
<trkpt lat="-27.3778601" lon="152.8196171">
<ele>97.180</ele>
<time>2016-08-31T01:36:56.948Z</time>
</trkpt>
<trkpt lat="-27.3776872" lon="152.8202649">
<ele>95.640</ele>
<time>2016-08-31T01:36:59.902Z</time>
</trkpt>
<trkpt lat="-27.3775226" lon="152.8206803">
<ele>93.924</ele>
<time>2016-08-31T01:37:01.890Z</time>
</trkpt>
<trkpt lat="-27.3773273" lon="152.8213138">
<ele>92.636</ele>
<time>2016-08-31T01:37:04.789Z</time>
</trkpt>
<trkpt lat="-27.3772273" lon="152.8217661">
<ele>91.757</ele>
<time>2016-08-31T01:37:06.766Z</time>
</trkpt>
<trkpt lat="-27.3772187" lon="152.8224717">
<ele>90.863</ele>
<time>2016-08-31T01:37:09.705Z</time>
</trkpt>
<trkpt lat="-27.3773585" lon="152.8231851">
<ele>89.759</ele>
<time>2016-08-31T01:37:12.764Z</time>
</trkpt>
<trkpt lat="-27.3775186" lon="152.8236226">
<ele>88.570</ele>
<time>2016-08-31T01:37:14.763Z</time>
</trkpt>
<trkpt lat="-27.3778669" lon="152.8242255">
<ele>87.506</ele>
<time>2016-08-31T01:37:17.850Z</time>
</trkpt>
<trkpt lat="-27.3782063" lon="152.8247830">
<ele>86.842</ele>
<time>2016-08-31T01:37:20.809Z</time>
</trkpt>
<trkpt lat="-27.3784325" lon="152.8251418">
<ele>86.628</ele>
<time>2016-08-31T01:37:22.751Z</time>
</trkpt>
<trkpt lat="-27.3786999" lon="152.8257423">
<ele>86.645</ele>
<time>2016-08-31T01:37:25.664Z</time>
</trkpt>
<trkpt lat="-27.3788640" lon="152.8264230">
<ele>86.696</ele>
<time>2016-08-31T01:37:28.607Z</time>
</trkpt>
<trkpt lat="-27.3789598" lon="152.8268958">
<ele>86.620</ele>
<time>2016-08-31T01:37:30.592Z</time>
</trkpt>
<trkpt lat="-27.3790815" lon="152.8276201">
<ele>86.362</ele>
<time>2016-08-31T01:37:33.580Z</time>
</trkpt>
<trkpt lat="-27.3791649" lon="152.8280990">
<ele>85.915</ele>
<time>2016-08-31T01:37:35.556Z</time>
</trkpt>
<trkpt lat="-27.3792657" lon="152.8288286">
<ele>85.314</ele>
<time>2016-08-31T01:37:38.562Z</time>
</trkpt>
<trkpt lat="-27.3792508" lon="152.8293145">
<ele>84.667</ele>
<time>2016-08-31T01:37:40.538Z</time>
</trkpt>
<trkpt lat="-27.3790885" lon="152.8300258">
<ele>83.995</ele>
<time>2016-08-31T01:37:43.527Z</time>
</trkpt>
<trkpt lat="-27.3789061" lon="152.8304671">
<ele>83.299</ele>
<time>2016-08-31T01:37:45.526Z</time>
</trkpt>
<trkpt lat="-27.3786734" lon="152.8308753">
<ele>82.667</ele>
<time>2016-08-31T01:37:47.534Z</time>
</trkpt>
<trkpt lat="-27.3782402" lon="152.8313858">
<ele>82.145</ele>
<time>2016-08-31T01:37:50.474Z</time>
</trkpt>
<trkpt lat="-27.3779388" lon="152.8317145">
<ele>81.679</ele>
<time>2016-08-31T01:37:52.449Z</time>
</trkpt>
<trkpt lat="-27.3776337" lon="152.8320569">
<ele>80.868</ele>
<time>2016-08-31T01:37:54.492Z</time>
</trkpt>
<trkpt lat="-27.3773624" lon="152.8324114">
<ele>79.475</ele>
<time>2016-08-31T01:37:56.474Z</time>
</trkpt>
<trkpt lat="-27.3770341" lon="152.8330076">
<ele>77.864</ele>
<time>2016-08-31T01:37:59.417Z</time>
</trkpt>
<trkpt lat="-27.3769241" lon="152.8334576">
<ele>76.508</ele>
<time>2016-08-31T01:38:01.334Z</time>
</trkpt>
<trkpt lat="-27.3768722" lon="152.8341938">
<ele>75.694</ele>
<time>2016-08-31T01:38:04.353Z</time>
</trkpt>
<trkpt lat="-27.3768886" lon="152.8346878">
<ele>75.588</ele>
<time>2016-08-31T01:38:06.400Z</time>
</trkpt>
<trkpt lat="-27.3768864" lon="152.8351548">
<ele>76.151</ele>
<time>2016-08-31T01:38:08.362Z</time>
</trkpt>
<trkpt lat="-27.3768535" lon="152.8356207">
<ele>77.014</ele>
<time>2016-08-31T01:38:10.329Z</time>
</trkpt>
<trkpt lat="-27.3767299" lon="152.8363184">
<ele>77.785</ele>
<time>2016-08-31T01:38:13.301Z</time>
</trkpt>
<trkpt lat="-27.3765744" lon="152.8367578">
<ele>78.729</ele>
<time>2016-08-31T01:38:15.289Z</time>
</trkpt>
<trkpt lat="-27.3763828" lon="152.8371824">
<ele>80.231</ele>
<time>2016-08-31T01:38:17.326Z</time>
</trkpt>
<trkpt lat="-27.3760839" lon="152.8377817">
<ele>82.048</ele>
<time>2016-08-31T01:38:20.313Z</time>
</trkpt>
<trkpt lat="-27.3758811" lon="152.8381761">
<ele>83.568</ele>
<time>2016-08-31T01:38:22.308Z</time>
</trkpt>
<trkpt lat="-27.3756765" lon="152.8385642">
<ele>84.147</ele>
<time>2016-08-31T01:38:24.271Z</time>
</trkpt>
<trkpt lat="-27.3753855" lon="152.8391772">
<ele>83.638</ele>
<time>2016-08-31T01:38:27.274Z</time>
</trkpt>
<trkpt lat="-27.3752112" lon="152.8395946">
<ele>82.571</ele>
<time>2016-08-31T01:38:29.250Z</time>
</trkpt>
<trkpt lat="-27.3750656" lon="152.8402717">
<ele>81.178</ele>
<time>2016-08-31T01:38:32.235Z</time>
</trkpt>
<trkpt lat="-27.3750695" lon="152.8409583">
<ele>79.230</ele>
<time>2016-08-31T01:38:35.160Z</time>
</trkpt>
<trkpt lat="-27.3751560" lon="152.8416571">
<ele>76.477</ele>
<time>2016-08-31T01:38:38.112Z</time>
</trkpt>
<trkpt lat="-27.3751044" lon="152.8423521">
<ele>73.171</ele>
<time>2016-08-31T01:38:40.959Z</time>
</trkpt>
<trkpt lat="-27.3749956" lon="152.8428358">
<ele>70.235</ele>
<time>2016-08-31T01:38:42.912Z</time>
</trkpt>
<trkpt lat="-27.3748440" lon="152.8433326">
<ele>68.178</ele>
<time>2016-08-31T01:38:44.944Z</time>
</trkpt>
<trkpt lat="-27.3746366" lon="152.8440588">
<ele>66.648</ele>
<time>2016-08-31T01:38:47.948Z</time>
</trkpt>
<trkpt lat="-27.3745238" lon="152.8445318">
<ele>65.434</ele>
<time>2016-08-31T01:38:50.003Z</time>
</trkpt>
<trkpt lat="-27.3744002" lon="152.8452092">
<ele>64.402</ele>
<time>2016-08-31T01:38:52.969Z</time>
</trkpt>
<trkpt lat="-27.3743499" lon="152.8456562">
<ele>63.223</ele>
<time>2016-08-31T01:38:54.882Z</time>
</trkpt>
<trkpt lat="-27.3743090" lon="152.8461467">
<ele>61.972</ele>
<time>2016-08-31T01:38:56.935Z</time>
</trkpt>
<trkpt lat="-27.3742611" lon="152.8466170">
<ele>61.219</ele>
<time>2016-08-31T01:38:58.933Z</time>
</trkpt>
<trkpt lat="-27.3740781" lon="152.8472870">
<ele>61.176</ele>
<time>2016-08-31T01:39:01.917Z</time>
</trkpt>
<trkpt lat="-27.3737198" lon="152.8478596">
<ele>61.548</ele>
<time>2016-08-31T01:39:04.886Z</time>
</trkpt>
<trkpt lat="-27.3732026" lon="152.8482845">
<ele>62.343</ele>
<time>2016-08-31T01:39:07.908Z</time>
</trkpt>
<trkpt lat="-27.3726672" lon="152.8486601">
<ele>63.555</ele>
<time>2016-08-31T01:39:10.853Z</time>
</trkpt>
<trkpt lat="-27.3722014" lon="152.8491574">
<ele>64.304</ele>
<time>2016-08-31T01:39:13.798Z</time>
</trkpt>
<trkpt lat="-27.3719142" lon="152.8498178">
<ele>63.983</ele>
<time>2016-08-31T01:39:16.769Z</time>
</trkpt>
<trkpt lat="-27.3718397" lon="152.8502974">
<ele>63.370</ele>
<time>2016-08-31T01:39:18.778Z</time>
</trkpt>
<trkpt lat="-27.3717723" lon="152.8510104">
<ele>63.246</ele>
<time>2016-08-31T01:39:21.767Z</time>
</trkpt>
<trkpt lat="-27.3715417" lon="152.8516872">
<ele>63.158</ele>
<time>2016-08-31T01:39:24.799Z</time>
</trkpt>
<trkpt lat="-27.3713042" lon="152.8520804">
<ele>62.310</ele>
<time>2016-08-31T01:39:26.797Z</time>
</trkpt>
<trkpt lat="-27.3709316" lon="152.8526611">
<ele>60.598</ele>
<time>2016-08-31T01:39:29.882Z</time>
</trkpt>
<trkpt lat="-27.3706183" lon="152.8532402">
<ele>58.627</ele>
<time>2016-08-31T01:39:32.978Z</time>
</trkpt>
<trkpt lat="-27.3704626" lon="152.8536173">
<ele>57.056</ele>
<time>2016-08-31T01:39:35.197Z</time>
</trkpt>
<trkpt lat="-27.3703023" lon="152.8541054">
<ele>56.059</ele>
<time>2016-08-31T01:39:38.596Z</time>
</trkpt>
<trkpt lat="-27.3702177" lon="152.8543580">
<ele>55.163</ele>
<time>2016-08-31T01:39:41.018Z</time>
</trkpt>
<trkpt lat="-27.3701313" lon="152.8546222">
<ele>53.852</ele>
<time>2016-08-31T01:39:44.859Z</time>
</trkpt>
<trkpt lat="-27.3699864" lon="152.8546126">
<ele>52.027</ele>
<time>2016-08-31T01:39:46.604Z</time>
</trkpt>
<trkpt lat="-27.3698790" lon="152.8544162">
<ele>50.191</ele>
<time>2016-08-31T01:39:48.370Z</time>
</trkpt>
<trkpt lat="-27.3697663" lon="152.8541428">
<ele>49.034</ele>
<time>2016-08-31T01:39:50.220Z</time>
</trkpt>
<trkpt lat="-27.3696350" lon="152.8538214">
<ele>48.864</ele>
<time>2016-08-31T01:39:52.167Z</time>
</trkpt>
<trkpt lat="-27.3694538" lon="152.8535005">
<ele>49.573</ele>
<time>2016-08-31T01:39:54.303Z</time>
</trkpt>
<trkpt lat="-27.3691794" lon="152.8530915">
<ele>50.764</ele>
<time>2016-08-31T01:39:57.744Z</time>
</trkpt>
<trkpt lat="-27.3689739" lon="152.8528013">
<ele>51.769</ele>
<time>2016-08-31T01:40:01.532Z</time>
</trkpt>
<trkpt lat="-27.3688107" lon="152.8527576">
<ele>52.225</ele>
<time>2016-08-31T01:40:03.592Z</time>
</trkpt>
<trkpt lat="-27.3685628" lon="152.8529168">
<ele>52.320</ele>
<time>2016-08-31T01:40:06.373Z</time>
</trkpt>
<trkpt lat="-27.3683243" lon="152.8531781">
<ele>52.742</ele>
<time>2016-08-31T01:40:09.097Z</time>
</trkpt>
<trkpt lat="-27.3681697" lon="152.8535857">
<ele>54.667</ele>
<time>2016-08-31T01:40:11.748Z</time>
</trkpt>
<trkpt lat="-27.3680266" lon="152.8541439">
<ele>58.841</ele>
<time>2016-08-31T01:40:14.693Z</time>
</trkpt>
<trkpt lat="-27.3678685" lon="152.8547639">
<ele>64.775</ele>
<time>2016-08-31T01:40:17.740Z</time>
</trkpt>
<trkpt lat="-27.3677274" lon="152.8551415">
<ele>70.532</ele>
<time>2016-08-31T01:40:19.732Z</time>
</trkpt>
<trkpt lat="-27.3673964" lon="152.8556175">
<ele>73.559</ele>
<time>2016-08-31T01:40:22.722Z</time>
</trkpt>
<trkpt lat="-27.3671617" lon="152.8559085">
<ele>72.157</ele>
<time>2016-08-31T01:40:24.686Z</time>
</trkpt>
<trkpt lat="-27.3668104" lon="152.8563654">
<ele>67.514</ele>
<time>2016-08-31T01:40:27.749Z</time>
</trkpt>
<trkpt lat="-27.3665809" lon="152.8566439">
<ele>63.081</ele>
<time>2016-08-31T01:40:29.760Z</time>
</trkpt>
<trkpt lat="-27.3663659" lon="152.8569135">
<ele>61.036</ele>
<time>2016-08-31T01:40:31.751Z</time>
</trkpt>
<trkpt lat="-27.3661063" lon="152.8573492">
<ele>60.976</ele>
<time>2016-08-31T01:40:34.692Z</time>
</trkpt>
<trkpt lat="-27.3660022" lon="152.8576768">
<ele>62.356</ele>
<time>2016-08-31T01:40:36.659Z</time>
</trkpt>
<trkpt lat="-27.3658477" lon="152.8581689">
<ele>65.198</ele>
<time>2016-08-31T01:40:39.591Z</time>
</trkpt>
<trkpt lat="-27.3657437" lon="152.8585158">
<ele>69.582</ele>
<time>2016-08-31T01:40:41.622Z</time>
</trkpt>
<trkpt lat="-27.3655621" lon="152.8590204">
<ele>74.426</ele>
<time>2016-08-31T01:40:44.613Z</time>
</trkpt>
<trkpt lat="-27.3654343" lon="152.8593545">
<ele>77.740</ele>
<time>2016-08-31T01:40:46.602Z</time>
</trkpt>
<trkpt lat="-27.3653039" lon="152.8596887">
<ele>78.639</ele>
<time>2016-08-31T01:40:48.643Z</time>
</trkpt>
<trkpt lat="-27.3651848" lon="152.8600049">
<ele>78.058</ele>
<time>2016-08-31T01:40:50.643Z</time>
</trkpt>
<trkpt lat="-27.3650044" lon="152.8604639">
<ele>77.184</ele>
<time>2016-08-31T01:40:53.662Z</time>
</trkpt>
<trkpt lat="-27.3649347" lon="152.8607697">
<ele>76.634</ele>
<time>2016-08-31T01:40:55.645Z</time>
</trkpt>
<trkpt lat="-27.3649047" lon="152.8610815">
<ele>76.388</ele>
<time>2016-08-31T01:40:57.584Z</time>
</trkpt>
<trkpt lat="-27.3649346" lon="152.8613995">
<ele>76.274</ele>
<time>2016-08-31T01:40:59.447Z</time>
</trkpt>
<trkpt lat="-27.3651109" lon="152.8618994">
<ele>76.242</ele>
<time>2016-08-31T01:41:02.418Z</time>
</trkpt>
<trkpt lat="-27.3653024" lon="152.8624154">
<ele>76.381</ele>
<time>2016-08-31T01:41:05.358Z</time>
</trkpt>
<trkpt lat="-27.3654398" lon="152.8627622">
<ele>76.665</ele>
<time>2016-08-31T01:41:07.371Z</time>
</trkpt>
<trkpt lat="-27.3655889" lon="152.8631017">
<ele>76.916</ele>
<time>2016-08-31T01:41:09.389Z</time>
</trkpt>
<trkpt lat="-27.3658034" lon="152.8636102">
<ele>77.028</ele>
<time>2016-08-31T01:41:12.325Z</time>
</trkpt>
<trkpt lat="-27.3659412" lon="152.8639761">
<ele>77.050</ele>
<time>2016-08-31T01:41:14.318Z</time>
</trkpt>
<trkpt lat="-27.3660755" lon="152.8643474">
<ele>77.029</ele>
<time>2016-08-31T01:41:16.301Z</time>
</trkpt>
<trkpt lat="-27.3662749" lon="152.8649087">
<ele>76.936</ele>
<time>2016-08-31T01:41:19.281Z</time>
</trkpt>
<trkpt lat="-27.3664960" lon="152.8654612">
<ele>76.737</ele>
<time>2016-08-31T01:41:22.293Z</time>
</trkpt>
<trkpt lat="-27.3666439" lon="152.8658094">
<ele>76.504</ele>
<time>2016-08-31T01:41:24.261Z</time>
</trkpt>
<trkpt lat="-27.3668051" lon="152.8661502">
<ele>76.352</ele>
<time>2016-08-31T01:41:26.268Z</time>
</trkpt>
<trkpt lat="-27.3670466" lon="152.8666394">
<ele>76.279</ele>
<time>2016-08-31T01:41:29.203Z</time>
</trkpt>
<trkpt lat="-27.3672097" lon="152.8669786">
<ele>76.045</ele>
<time>2016-08-31T01:41:31.223Z</time>
</trkpt>
<trkpt lat="-27.3673492" lon="152.8673033">
<ele>75.489</ele>
<time>2016-08-31T01:41:33.106Z</time>
</trkpt>
<trkpt lat="-27.3675214" lon="152.8676477">
<ele>74.800</ele>
<time>2016-08-31T01:41:35.169Z</time>
</trkpt>
<trkpt lat="-27.3676959" lon="152.8679686">
<ele>74.267</ele>
<time>2016-08-31T01:41:37.129Z</time>
</trkpt>
<trkpt lat="-27.3679698" lon="152.8684574">
<ele>74.121</ele>
<time>2016-08-31T01:41:40.136Z</time>
</trkpt>
<trkpt lat="-27.3681530" lon="152.8687856">
<ele>74.552</ele>
<time>2016-08-31T01:41:42.199Z</time>
</trkpt>
<trkpt lat="-27.3683049" lon="152.8690823">
<ele>75.341</ele>
<time>2016-08-31T01:41:44.071Z</time>
</trkpt>
<trkpt lat="-27.3683740" lon="152.8694498">
<ele>75.943</ele>
<time>2016-08-31T01:41:46.103Z</time>
</trkpt>
<trkpt lat="-27.3684001" lon="152.8698267">
<ele>75.915</ele>
<time>2016-08-31T01:41:48.075Z</time>
</trkpt>
<trkpt lat="-27.3684501" lon="152.8702145">
<ele>75.123</ele>
<time>2016-08-31T01:41:50.073Z</time>
</trkpt>
<trkpt lat="-27.3684878" lon="152.8707998">
<ele>73.669</ele>
<time>2016-08-31T01:41:53.094Z</time>
</trkpt>
<trkpt lat="-27.3684880" lon="152.8713373">
<ele>71.948</ele>
<time>2016-08-31T01:41:55.959Z</time>
</trkpt>
<trkpt lat="-27.3683450" lon="152.8716668">
<ele>70.435</ele>
<time>2016-08-31T01:41:57.908Z</time>
</trkpt>
<trkpt lat="-27.3680678" lon="152.8721888">
<ele>69.108</ele>
<time>2016-08-31T01:42:01.036Z</time>
</trkpt>
<trkpt lat="-27.3677401" lon="152.8726485">
<ele>67.607</ele>
<time>2016-08-31T01:42:03.989Z</time>
</trkpt>
<trkpt lat="-27.3673717" lon="152.8730955">
<ele>66.088</ele>
<time>2016-08-31T01:42:06.976Z</time>
</trkpt>
<trkpt lat="-27.3670891" lon="152.8733825">
<ele>64.520</ele>
<time>2016-08-31T01:42:08.939Z</time>
</trkpt>
<trkpt lat="-27.3665898" lon="152.8737855">
<ele>62.499</ele>
<time>2016-08-31T01:42:11.912Z</time>
</trkpt>
<trkpt lat="-27.3660564" lon="152.8742207">
<ele>60.336</ele>
<time>2016-08-31T01:42:14.999Z</time>
</trkpt>
<trkpt lat="-27.3655618" lon="152.8746290">
<ele>58.301</ele>
<time>2016-08-31T01:42:17.992Z</time>
</trkpt>
<trkpt lat="-27.3652422" lon="152.8748617">
<ele>55.840</ele>
<time>2016-08-31T01:42:19.972Z</time>
</trkpt>
<trkpt lat="-27.3649370" lon="152.8750830">
<ele>53.199</ele>
<time>2016-08-31T01:42:21.944Z</time>
</trkpt>
<trkpt lat="-27.3646486" lon="152.8753041">
<ele>51.473</ele>
<time>2016-08-31T01:42:23.893Z</time>
</trkpt>
<trkpt lat="-27.3643626" lon="152.8755423">
<ele>51.037</ele>
<time>2016-08-31T01:42:25.872Z</time>
</trkpt>
<trkpt lat="-27.3639763" lon="152.8759741">
<ele>51.717</ele>
<time>2016-08-31T01:42:28.716Z</time>
</trkpt>
<trkpt lat="-27.3636539" lon="152.8766743">
<ele>53.177</ele>
<time>2016-08-31T01:42:31.801Z</time>
</trkpt>
<trkpt lat="-27.3632592" lon="152.8774621">
<ele>55.280</ele>
<time>2016-08-31T01:42:34.968Z</time>
</trkpt>
<trkpt lat="-27.3628993" lon="152.8781499">
<ele>57.802</ele>
<time>2016-08-31T01:42:37.963Z</time>
</trkpt>
<trkpt lat="-27.3625358" lon="152.8786484">
<ele>58.748</ele>
<time>2016-08-31T01:42:40.746Z</time>
</trkpt>
<trkpt lat="-27.3622072" lon="152.8788720">
<ele>56.238</ele>
<time>2016-08-31T01:42:42.697Z</time>
</trkpt>
<trkpt lat="-27.3616214" lon="152.8791995">
<ele>51.977</ele>
<time>2016-08-31T01:42:45.844Z</time>
</trkpt>
<trkpt lat="-27.3610658" lon="152.8794919">
<ele>49.890</ele>
<time>2016-08-31T01:42:48.809Z</time>
</trkpt>
<trkpt lat="-27.3607158" lon="152.8796335">
<ele>51.614</ele>
<time>2016-08-31T01:42:50.728Z</time>
</trkpt>
<trkpt lat="-27.3603391" lon="152.8797121">
<ele>54.982</ele>
<time>2016-08-31T01:42:52.704Z</time>
</trkpt>
<trkpt lat="-27.3597299" lon="152.8797718">
<ele>56.896</ele>
<time>2016-08-31T01:42:55.791Z</time>
</trkpt>
<trkpt lat="-27.3591494" lon="152.8797839">
<ele>56.534</ele>
<time>2016-08-31T01:42:58.803Z</time>
</trkpt>
<trkpt lat="-27.3588001" lon="152.8797967">
<ele>54.984</ele>
<time>2016-08-31T01:43:00.739Z</time>
</trkpt>
<trkpt lat="-27.3584679" lon="152.8797890">
<ele>53.491</ele>
<time>2016-08-31T01:43:02.671Z</time>
</trkpt>
<trkpt lat="-27.3580076" lon="152.8796136">
<ele>52.159</ele>
<time>2016-08-31T01:43:05.691Z</time>
</trkpt>
<trkpt lat="-27.3577366" lon="152.8795499">
<ele>50.538</ele>
<time>2016-08-31T01:43:07.654Z</time>
</trkpt>
<trkpt lat="-27.3574993" lon="152.8796119">
<ele>48.751</ele>
<time>2016-08-31T01:43:09.576Z</time>
</trkpt>
<trkpt lat="-27.3573404" lon="152.8798200">
<ele>47.458</ele>
<time>2016-08-31T01:43:11.518Z</time>
</trkpt>
<trkpt lat="-27.3571842" lon="152.8800800">
<ele>47.130</ele>
<time>2016-08-31T01:43:13.496Z</time>
</trkpt>
<trkpt lat="-27.3568208" lon="152.8804976">
<ele>47.793</ele>
<time>2016-08-31T01:43:16.685Z</time>
</trkpt>
<trkpt lat="-27.3565480" lon="152.8807691">
<ele>48.854</ele>
<time>2016-08-31T01:43:18.738Z</time>
</trkpt>
<trkpt lat="-27.3561480" lon="152.8811588">
<ele>49.420</ele>
<time>2016-08-31T01:43:21.758Z</time>
</trkpt>
<trkpt lat="-27.3557732" lon="152.8815135">
<ele>49.146</ele>
<time>2016-08-31T01:43:24.882Z</time>
</trkpt>
<trkpt lat="-27.3554839" lon="152.8817286">
<ele>47.911</ele>
<time>2016-08-31T01:43:27.689Z</time>
</trkpt>
<trkpt lat="-27.3553108" lon="152.8817299">
<ele>44.931</ele>
<time>2016-08-31T01:43:29.527Z</time>
</trkpt>
<trkpt lat="-27.3551670" lon="152.8816131">
<ele>40.406</ele>
<time>2016-08-31T01:43:31.515Z</time>
</trkpt>
<trkpt lat="-27.3549826" lon="152.8813663">
<ele>36.480</ele>
<time>2016-08-31T01:43:34.887Z</time>
</trkpt>
<trkpt lat="-27.3548244" lon="152.8812999">
<ele>34.623</ele>
<time>2016-08-31T01:43:37.516Z</time>
</trkpt>
<trkpt lat="-27.3547370" lon="152.8813431">
<ele>34.270</ele>
<time>2016-08-31T01:43:39.999Z</time>
</trkpt>
<trkpt lat="-27.3547370" lon="152.8813431">
<ele>34.381</ele>
<time>2016-08-31T01:43:42.999Z</time>
</trkpt>
<trkpt lat="-27.3547370" lon="152.8813431">
<ele>34.448</ele>
<time>2016-08-31T01:43:51.980Z</time>
</trkpt>
<trkpt lat="-27.3545454" lon="152.8813945">
<ele>34.424</ele>
<time>2016-08-31T01:43:56.020Z</time>
</trkpt>
<trkpt lat="-27.3541890" lon="152.8812284">
<ele>34.629</ele>
<time>2016-08-31T01:43:59.504Z</time>
</trkpt>
<trkpt lat="-27.3538687" lon="152.8811053">
<ele>35.676</ele>
<time>2016-08-31T01:44:01.971Z</time>
</trkpt>
<trkpt lat="-27.3533021" lon="152.8809978">
<ele>37.763</ele>
<time>2016-08-31T01:44:05.685Z</time>
</trkpt>
<trkpt lat="-27.3529014" lon="152.8809900">
<ele>40.444</ele>
<time>2016-08-31T01:44:07.880Z</time>
</trkpt>
<trkpt lat="-27.3525088" lon="152.8810297">
<ele>43.085</ele>
<time>2016-08-31T01:44:09.950Z</time>
</trkpt>
<trkpt lat="-27.3519567" lon="152.8811849">
<ele>45.426</ele>
<time>2016-08-31T01:44:13.124Z</time>
</trkpt>
<trkpt lat="-27.3516144" lon="152.8813096">
<ele>47.648</ele>
<time>2016-08-31T01:44:15.293Z</time>
</trkpt>
<trkpt lat="-27.3511704" lon="152.8814983">
<ele>49.851</ele>
<time>2016-08-31T01:44:18.498Z</time>
</trkpt>
<trkpt lat="-27.3508954" lon="152.8816201">
<ele>52.038</ele>
<time>2016-08-31T01:44:20.595Z</time>
</trkpt>
<trkpt lat="-27.3505000" lon="152.8817838">
<ele>54.419</ele>
<time>2016-08-31T01:44:24.021Z</time>
</trkpt>
<trkpt lat="-27.3502602" lon="152.8818783">
<ele>57.155</ele>
<time>2016-08-31T01:44:27.223Z</time>
</trkpt>
<trkpt lat="-27.3500599" lon="152.8819557">
<ele>60.214</ele>
<time>2016-08-31T01:44:30.936Z</time>
</trkpt>
<trkpt lat="-27.3499185" lon="152.8820064">
<ele>63.087</ele>
<time>2016-08-31T01:44:33.630Z</time>
</trkpt>
<trkpt lat="-27.3497720" lon="152.8820205">
<ele>65.044</ele>
<time>2016-08-31T01:44:36.166Z</time>
</trkpt>
<trkpt lat="-27.3496180" lon="152.8820279">
<ele>66.029</ele>
<time>2016-08-31T01:44:38.557Z</time>
</trkpt>
<trkpt lat="-27.3494455" lon="152.8820335">
<ele>66.715</ele>
<time>2016-08-31T01:44:40.677Z</time>
</trkpt>
<trkpt lat="-27.3493794" lon="152.8822346">
<ele>67.695</ele>
<time>2016-08-31T01:44:42.433Z</time>
</trkpt>
<trkpt lat="-27.3495249" lon="152.8825300">
<ele>69.079</ele>
<time>2016-08-31T01:44:44.727Z</time>
</trkpt>
<trkpt lat="-27.3496540" lon="152.8827602">
<ele>70.848</ele>
<time>2016-08-31T01:44:46.476Z</time>
</trkpt>
<trkpt lat="-27.3498023" lon="152.8832183">
<ele>73.129</ele>
<time>2016-08-31T01:44:49.502Z</time>
</trkpt>
<trkpt lat="-27.3498657" lon="152.8837076">
<ele>76.206</ele>
<time>2016-08-31T01:44:52.632Z</time>
</trkpt>
<trkpt lat="-27.3498757" lon="152.8841775">
<ele>79.986</ele>
<time>2016-08-31T01:44:55.614Z</time>
</trkpt>
<trkpt lat="-27.3498291" lon="152.8844773">
<ele>83.851</ele>
<time>2016-08-31T01:44:57.486Z</time>
</trkpt>
<trkpt lat="-27.3497022" lon="152.8849533">
<ele>87.096</ele>
<time>2016-08-31T01:45:00.251Z</time>
</trkpt>
<trkpt lat="-27.3495614" lon="152.8852763">
<ele>89.342</ele>
<time>2016-08-31T01:45:02.054Z</time>
</trkpt>
<trkpt lat="-27.3493841" lon="152.8856268">
<ele>90.727</ele>
<time>2016-08-31T01:45:04.003Z</time>
</trkpt>
<trkpt lat="-27.3490754" lon="152.8861557">
<ele>91.858</ele>
<time>2016-08-31T01:45:06.952Z</time>
</trkpt>
<trkpt lat="-27.3488569" lon="152.8865022">
<ele>92.913</ele>
<time>2016-08-31T01:45:08.934Z</time>
</trkpt>
<trkpt lat="-27.3485385" lon="152.8870267">
<ele>93.476</ele>
<time>2016-08-31T01:45:11.924Z</time>
</trkpt>
<trkpt lat="-27.3481846" lon="152.8875206">
<ele>92.827</ele>
<time>2016-08-31T01:45:14.975Z</time>
</trkpt>
<trkpt lat="-27.3477920" lon="152.8879484">
<ele>90.521</ele>
<time>2016-08-31T01:45:18.025Z</time>
</trkpt>
<trkpt lat="-27.3475167" lon="152.8882002">
<ele>86.940</ele>
<time>2016-08-31T01:45:19.987Z</time>
</trkpt>
<trkpt lat="-27.3472547" lon="152.8884698">
<ele>83.441</ele>
<time>2016-08-31T01:45:21.926Z</time>
</trkpt>
<trkpt lat="-27.3469139" lon="152.8889554">
<ele>81.309</ele>
<time>2016-08-31T01:45:24.843Z</time>
</trkpt>
<trkpt lat="-27.3467228" lon="152.8893224">
<ele>80.790</ele>
<time>2016-08-31T01:45:26.845Z</time>
</trkpt>
<trkpt lat="-27.3465148" lon="152.8899156">
<ele>81.350</ele>
<time>2016-08-31T01:45:29.898Z</time>
</trkpt>
<trkpt lat="-27.3464390" lon="152.8903069">
<ele>82.695</ele>
<time>2016-08-31T01:45:31.827Z</time>
</trkpt>
<trkpt lat="-27.3464044" lon="152.8909387">
<ele>84.448</ele>
<time>2016-08-31T01:45:34.844Z</time>
</trkpt>
<trkpt lat="-27.3464777" lon="152.8915705">
<ele>85.729</ele>
<time>2016-08-31T01:45:37.861Z</time>
</trkpt>
<trkpt lat="-27.3465833" lon="152.8919880">
<ele>86.025</ele>
<time>2016-08-31T01:45:39.988Z</time>
</trkpt>
<trkpt lat="-27.3467026" lon="152.8923610">
<ele>85.733</ele>
<time>2016-08-31T01:45:41.975Z</time>
</trkpt>
<trkpt lat="-27.3468469" lon="152.8929111">
<ele>85.463</ele>
<time>2016-08-31T01:45:44.885Z</time>
</trkpt>
<trkpt lat="-27.3469059" lon="152.8934978">
<ele>85.734</ele>
<time>2016-08-31T01:45:47.889Z</time>
</trkpt>
<trkpt lat="-27.3469088" lon="152.8938700">
<ele>87.053</ele>
<time>2016-08-31T01:45:49.778Z</time>
</trkpt>
<trkpt lat="-27.3469116" lon="152.8942557">
<ele>89.324</ele>
<time>2016-08-31T01:45:51.712Z</time>
</trkpt>
<trkpt lat="-27.3469426" lon="152.8946496">
<ele>91.734</ele>
<time>2016-08-31T01:45:53.665Z</time>
</trkpt>
<trkpt lat="-27.3470095" lon="152.8950461">
<ele>93.670</ele>
<time>2016-08-31T01:45:55.652Z</time>
</trkpt>
<trkpt lat="-27.3471265" lon="152.8954491">
<ele>95.065</ele>
<time>2016-08-31T01:45:57.774Z</time>
</trkpt>
<trkpt lat="-27.3473013" lon="152.8960070">
<ele>96.081</ele>
<time>2016-08-31T01:46:00.916Z</time>
</trkpt>
<trkpt lat="-27.3474049" lon="152.8963508">
<ele>97.150</ele>
<time>2016-08-31T01:46:02.902Z</time>
</trkpt>
<trkpt lat="-27.3475584" lon="152.8968580">
<ele>98.618</ele>
<time>2016-08-31T01:46:05.736Z</time>
</trkpt>
<trkpt lat="-27.3477018" lon="152.8974115">
<ele>100.696</ele>
<time>2016-08-31T01:46:08.647Z</time>
</trkpt>
<trkpt lat="-27.3477645" lon="152.8978135">
<ele>103.420</ele>
<time>2016-08-31T01:46:10.666Z</time>
</trkpt>
<trkpt lat="-27.3478271" lon="152.8984275">
<ele>106.193</ele>
<time>2016-08-31T01:46:13.706Z</time>
</trkpt>
<trkpt lat="-27.3478289" lon="152.8990455">
<ele>108.078</ele>
<time>2016-08-31T01:46:16.838Z</time>
</trkpt>
<trkpt lat="-27.3478278" lon="152.8996129">
<ele>108.472</ele>
<time>2016-08-31T01:46:19.830Z</time>
</trkpt>
<trkpt lat="-27.3478808" lon="152.9001664">
<ele>107.536</ele>
<time>2016-08-31T01:46:22.938Z</time>
</trkpt>
<trkpt lat="-27.3479253" lon="152.9005129">
<ele>106.257</ele>
<time>2016-08-31T01:46:24.992Z</time>
</trkpt>
<trkpt lat="-27.3479858" lon="152.9009998">
<ele>105.835</ele>
<time>2016-08-31T01:46:28.030Z</time>
</trkpt>
<trkpt lat="-27.3480270" lon="152.9013116">
<ele>106.603</ele>
<time>2016-08-31T01:46:29.980Z</time>
</trkpt>
<trkpt lat="-27.3480809" lon="152.9017864">
<ele>107.957</ele>
<time>2016-08-31T01:46:32.750Z</time>
</trkpt>
<trkpt lat="-27.3481314" lon="152.9021318">
<ele>109.400</ele>
<time>2016-08-31T01:46:34.630Z</time>
</trkpt>
<trkpt lat="-27.3481652" lon="152.9027207">
<ele>110.885</ele>
<time>2016-08-31T01:46:37.560Z</time>
</trkpt>
<trkpt lat="-27.3481386" lon="152.9031285">
<ele>112.117</ele>
<time>2016-08-31T01:46:39.504Z</time>
</trkpt>
<trkpt lat="-27.3480486" lon="152.9035391">
<ele>112.773</ele>
<time>2016-08-31T01:46:41.479Z</time>
</trkpt>
<trkpt lat="-27.3479001" lon="152.9039173">
<ele>112.756</ele>
<time>2016-08-31T01:46:43.391Z</time>
</trkpt>
<trkpt lat="-27.3477126" lon="152.9043014">
<ele>112.038</ele>
<time>2016-08-31T01:46:45.413Z</time>
</trkpt>
<trkpt lat="-27.3474250" lon="152.9048504">
<ele>110.529</ele>
<time>2016-08-31T01:46:48.391Z</time>
</trkpt>
<trkpt lat="-27.3472315" lon="152.9052208">
<ele>107.954</ele>
<time>2016-08-31T01:46:50.424Z</time>
</trkpt>
<trkpt lat="-27.3470345" lon="152.9055857">
<ele>104.317</ele>
<time>2016-08-31T01:46:52.487Z</time>
</trkpt>
<trkpt lat="-27.3468452" lon="152.9059358">
<ele>100.180</ele>
<time>2016-08-31T01:46:54.528Z</time>
</trkpt>
<trkpt lat="-27.3465048" lon="152.9063795">
<ele>96.110</ele>
<time>2016-08-31T01:46:57.592Z</time>
</trkpt>
<trkpt lat="-27.3461950" lon="152.9067892">
<ele>92.429</ele>
<time>2016-08-31T01:47:00.485Z</time>
</trkpt>
<trkpt lat="-27.3459582" lon="152.9070503">
<ele>88.764</ele>
<time>2016-08-31T01:47:02.450Z</time>
</trkpt>
<trkpt lat="-27.3457257" lon="152.9073228">
<ele>84.665</ele>
<time>2016-08-31T01:47:04.349Z</time>
</trkpt>
<trkpt lat="-27.3454671" lon="152.9076269">
<ele>80.617</ele>
<time>2016-08-31T01:47:06.346Z</time>
</trkpt>
<trkpt lat="-27.3452025" lon="152.9079303">
<ele>77.228</ele>
<time>2016-08-31T01:47:08.272Z</time>
</trkpt>
<trkpt lat="-27.3449196" lon="152.9082466">
<ele>74.422</ele>
<time>2016-08-31T01:47:10.261Z</time>
</trkpt>
<trkpt lat="-27.3444996" lon="152.9087295">
<ele>71.820</ele>
<time>2016-08-31T01:47:13.245Z</time>
</trkpt>
<trkpt lat="-27.3440660" lon="152.9092433">
<ele>68.598</ele>
<time>2016-08-31T01:47:16.379Z</time>
</trkpt>
<trkpt lat="-27.3438066" lon="152.9095771">
<ele>63.874</ele>
<time>2016-08-31T01:47:18.335Z</time>
</trkpt>
<trkpt lat="-27.3434919" lon="152.9101437">
<ele>57.941</ele>
<time>2016-08-31T01:47:21.259Z</time>
</trkpt>
<trkpt lat="-27.3432838" lon="152.9107959">
<ele>51.858</ele>
<time>2016-08-31T01:47:24.305Z</time>
</trkpt>
<trkpt lat="-27.3432105" lon="152.9114631">
<ele>46.148</ele>
<time>2016-08-31T01:47:27.318Z</time>
</trkpt>
<trkpt lat="-27.3432765" lon="152.9121114">
<ele>41.031</ele>
<time>2016-08-31T01:47:30.299Z</time>
</trkpt>
<trkpt lat="-27.3433675" lon="152.9127572">
<ele>37.194</ele>
<time>2016-08-31T01:47:33.320Z</time>
</trkpt>
<trkpt lat="-27.3434292" lon="152.9131737">
<ele>35.583</ele>
<time>2016-08-31T01:47:35.286Z</time>
</trkpt>
<trkpt lat="-27.3435050" lon="152.9138099">
<ele>36.665</ele>
<time>2016-08-31T01:47:38.329Z</time>
</trkpt>
<trkpt lat="-27.3434843" lon="152.9142200">
<ele>40.195</ele>
<time>2016-08-31T01:47:40.350Z</time>
</trkpt>
<trkpt lat="-27.3434048" lon="152.9146063">
<ele>45.115</ele>
<time>2016-08-31T01:47:42.357Z</time>
</trkpt>
<trkpt lat="-27.3432660" lon="152.9149593">
<ele>49.836</ele>
<time>2016-08-31T01:47:44.365Z</time>
</trkpt>
<trkpt lat="-27.3430712" lon="152.9152610">
<ele>53.464</ele>
<time>2016-08-31T01:47:46.343Z</time>
</trkpt>
<trkpt lat="-27.3426952" lon="152.9156383">
<ele>56.179</ele>
<time>2016-08-31T01:47:49.361Z</time>
</trkpt>
<trkpt lat="-27.3423914" lon="152.9158080">
<ele>58.585</ele>
<time>2016-08-31T01:47:51.370Z</time>
</trkpt>
<trkpt lat="-27.3420621" lon="152.9159296">
<ele>61.127</ele>
<time>2016-08-31T01:47:53.391Z</time>
</trkpt>
<trkpt lat="-27.3415375" lon="152.9159702">
<ele>63.676</ele>
<time>2016-08-31T01:47:56.274Z</time>
</trkpt>
<trkpt lat="-27.3409772" lon="152.9158474">
<ele>66.246</ele>
<time>2016-08-31T01:47:59.208Z</time>
</trkpt>
<trkpt lat="-27.3405899" lon="152.9157250">
<ele>69.342</ele>
<time>2016-08-31T01:48:01.294Z</time>
</trkpt>
<trkpt lat="-27.3402272" lon="152.9156061">
<ele>72.873</ele>
<time>2016-08-31T01:48:03.351Z</time>
</trkpt>
<trkpt lat="-27.3398934" lon="152.9155169">
<ele>75.943</ele>
<time>2016-08-31T01:48:05.287Z</time>
</trkpt>
<trkpt lat="-27.3395478" lon="152.9153948">
<ele>77.941</ele>
<time>2016-08-31T01:48:07.360Z</time>
</trkpt>
<trkpt lat="-27.3390360" lon="152.9152402">
<ele>79.086</ele>
<time>2016-08-31T01:48:10.378Z</time>
</trkpt>
<trkpt lat="-27.3386979" lon="152.9151415">
<ele>79.943</ele>
<time>2016-08-31T01:48:12.355Z</time>
</trkpt>
<trkpt lat="-27.3381979" lon="152.9149979">
<ele>80.717</ele>
<time>2016-08-31T01:48:15.264Z</time>
</trkpt>
<trkpt lat="-27.3378408" lon="152.9149457">
<ele>81.309</ele>
<time>2016-08-31T01:48:17.296Z</time>
</trkpt>
<trkpt lat="-27.3373282" lon="152.9150147">
<ele>81.748</ele>
<time>2016-08-31T01:48:20.232Z</time>
</trkpt>
<trkpt lat="-27.3369903" lon="152.9151301">
<ele>82.026</ele>
<time>2016-08-31T01:48:22.273Z</time>
</trkpt>
<trkpt lat="-27.3365356" lon="152.9154112">
<ele>82.119</ele>
<time>2016-08-31T01:48:25.416Z</time>
</trkpt>
<trkpt lat="-27.3361871" lon="152.9157582">
<ele>82.137</ele>
<time>2016-08-31T01:48:28.418Z</time>
</trkpt>
<trkpt lat="-27.3359835" lon="152.9160054">
<ele>82.183</ele>
<time>2016-08-31T01:48:30.370Z</time>
</trkpt>
<trkpt lat="-27.3356813" lon="152.9163931">
<ele>82.271</ele>
<time>2016-08-31T01:48:33.269Z</time>
</trkpt>
<trkpt lat="-27.3353242" lon="152.9167532">
<ele>82.679</ele>
<time>2016-08-31T01:48:36.215Z</time>
</trkpt>
<trkpt lat="-27.3348686" lon="152.9169551">
<ele>84.207</ele>
<time>2016-08-31T01:48:39.219Z</time>
</trkpt>
<trkpt lat="-27.3343820" lon="152.9169825">
<ele>87.402</ele>
<time>2016-08-31T01:48:42.219Z</time>
</trkpt>
<trkpt lat="-27.3338887" lon="152.9168836">
<ele>92.003</ele>
<time>2016-08-31T01:48:45.307Z</time>
</trkpt>
<trkpt lat="-27.3335717" lon="152.9168217">
<ele>97.395</ele>
<time>2016-08-31T01:48:47.433Z</time>
</trkpt>
<trkpt lat="-27.3331468" lon="152.9168484">
<ele>102.683</ele>
<time>2016-08-31T01:48:50.471Z</time>
</trkpt>
<trkpt lat="-27.3328213" lon="152.9170999">
<ele>106.759</ele>
<time>2016-08-31T01:48:53.241Z</time>
</trkpt>
<trkpt lat="-27.3326863" lon="152.9173981">
<ele>109.181</ele>
<time>2016-08-31T01:48:55.157Z</time>
</trkpt>
<trkpt lat="-27.3326217" lon="152.9177508">
<ele>110.413</ele>
<time>2016-08-31T01:48:57.136Z</time>
</trkpt>
<trkpt lat="-27.3325722" lon="152.9183071">
<ele>111.016</ele>
<time>2016-08-31T01:49:00.253Z</time>
</trkpt>
<trkpt lat="-27.3324822" lon="152.9188093">
<ele>111.014</ele>
<time>2016-08-31T01:49:03.146Z</time>
</trkpt>
<trkpt lat="-27.3322712" lon="152.9192738">
<ele>110.379</ele>
<time>2016-08-31T01:49:06.029Z</time>
</trkpt>
<trkpt lat="-27.3319198" lon="152.9196598">
<ele>109.518</ele>
<time>2016-08-31T01:49:08.977Z</time>
</trkpt>
<trkpt lat="-27.3316268" lon="152.9198693">
<ele>108.693</ele>
<time>2016-08-31T01:49:11.008Z</time>
</trkpt>
<trkpt lat="-27.3313351" lon="152.9200539">
<ele>107.852</ele>
<time>2016-08-31T01:49:13.019Z</time>
</trkpt>
<trkpt lat="-27.3310622" lon="152.9202553">
<ele>106.822</ele>
<time>2016-08-31T01:49:15.037Z</time>
</trkpt>
<trkpt lat="-27.3308016" lon="152.9204546">
<ele>105.310</ele>
<time>2016-08-31T01:49:16.975Z</time>
</trkpt>
<trkpt lat="-27.3304838" lon="152.9208745">
<ele>103.480</ele>
<time>2016-08-31T01:49:19.960Z</time>
</trkpt>
<trkpt lat="-27.3303053" lon="152.9213862">
<ele>102.041</ele>
<time>2016-08-31T01:49:22.894Z</time>
</trkpt>
<trkpt lat="-27.3303172" lon="152.9219448">
<ele>101.369</ele>
<time>2016-08-31T01:49:25.781Z</time>
</trkpt>
<trkpt lat="-27.3304787" lon="152.9225036">
<ele>101.190</ele>
<time>2016-08-31T01:49:28.669Z</time>
</trkpt>
<trkpt lat="-27.3305793" lon="152.9229094">
<ele>100.947</ele>
<time>2016-08-31T01:49:30.643Z</time>
</trkpt>
<trkpt lat="-27.3307162" lon="152.9235442">
<ele>100.142</ele>
<time>2016-08-31T01:49:33.685Z</time>
</trkpt>
<trkpt lat="-27.3307800" lon="152.9239757">
<ele>98.534</ele>
<time>2016-08-31T01:49:35.792Z</time>
</trkpt>
<trkpt lat="-27.3308079" lon="152.9245761">
<ele>96.523</ele>
<time>2016-08-31T01:49:38.790Z</time>
</trkpt>
<trkpt lat="-27.3307945" lon="152.9249573">
<ele>94.959</ele>
<time>2016-08-31T01:49:40.763Z</time>
</trkpt>
<trkpt lat="-27.3307952" lon="152.9253469">
<ele>94.331</ele>
<time>2016-08-31T01:49:42.796Z</time>
</trkpt>
<trkpt lat="-27.3308528" lon="152.9257206">
<ele>94.449</ele>
<time>2016-08-31T01:49:44.787Z</time>
</trkpt>
<trkpt lat="-27.3309492" lon="152.9260853">
<ele>94.803</ele>
<time>2016-08-31T01:49:46.787Z</time>
</trkpt>
<trkpt lat="-27.3311520" lon="152.9266181">
<ele>95.043</ele>
<time>2016-08-31T01:49:49.839Z</time>
</trkpt>
<trkpt lat="-27.3312509" lon="152.9269717">
<ele>95.115</ele>
<time>2016-08-31T01:49:51.776Z</time>
</trkpt>
<trkpt lat="-27.3312689" lon="152.9275420">
<ele>94.909</ele>
<time>2016-08-31T01:49:54.701Z</time>
</trkpt>
<trkpt lat="-27.3312251" lon="152.9279475">
<ele>94.297</ele>
<time>2016-08-31T01:49:56.725Z</time>
</trkpt>
<trkpt lat="-27.3311202" lon="152.9285505">
<ele>93.521</ele>
<time>2016-08-31T01:49:59.759Z</time>
</trkpt>
<trkpt lat="-27.3309167" lon="152.9291111">
<ele>92.992</ele>
<time>2016-08-31T01:50:02.762Z</time>
</trkpt>
<trkpt lat="-27.3306173" lon="152.9296030">
<ele>92.911</ele>
<time>2016-08-31T01:50:05.717Z</time>
</trkpt>
<trkpt lat="-27.3302316" lon="152.9300137">
<ele>93.530</ele>
<time>2016-08-31T01:50:08.642Z</time>
</trkpt>
<trkpt lat="-27.3298040" lon="152.9304019">
<ele>94.735</ele>
<time>2016-08-31T01:50:11.637Z</time>
</trkpt>
<trkpt lat="-27.3294275" lon="152.9308750">
<ele>95.616</ele>
<time>2016-08-31T01:50:14.684Z</time>
</trkpt>
<trkpt lat="-27.3291429" lon="152.9314339">
<ele>95.111</ele>
<time>2016-08-31T01:50:17.706Z</time>
</trkpt>
<trkpt lat="-27.3289442" lon="152.9318162">
<ele>93.164</ele>
<time>2016-08-31T01:50:19.747Z</time>
</trkpt>
<trkpt lat="-27.3286564" lon="152.9323788">
<ele>90.757</ele>
<time>2016-08-31T01:50:22.810Z</time>
</trkpt>
<trkpt lat="-27.3283987" lon="152.9329161">
<ele>88.462</ele>
<time>2016-08-31T01:50:25.824Z</time>
</trkpt>
<trkpt lat="-27.3281438" lon="152.9334316">
<ele>86.359</ele>
<time>2016-08-31T01:50:28.843Z</time>
</trkpt>
<trkpt lat="-27.3279777" lon="152.9337520">
<ele>84.949</ele>
<time>2016-08-31T01:50:30.849Z</time>
</trkpt>
<trkpt lat="-27.3278346" lon="152.9340749">
<ele>84.433</ele>
<time>2016-08-31T01:50:32.887Z</time>
</trkpt>
<trkpt lat="-27.3277423" lon="152.9345573">
<ele>84.111</ele>
<time>2016-08-31T01:50:35.703Z</time>
</trkpt>
<trkpt lat="-27.3278313" lon="152.9350770">
<ele>83.050</ele>
<time>2016-08-31T01:50:38.704Z</time>
</trkpt>
<trkpt lat="-27.3280655" lon="152.9355180">
<ele>80.816</ele>
<time>2016-08-31T01:50:41.524Z</time>
</trkpt>
<trkpt lat="-27.3284495" lon="152.9358845">
<ele>78.173</ele>
<time>2016-08-31T01:50:44.506Z</time>
</trkpt>
<trkpt lat="-27.3287410" lon="152.9361200">
<ele>76.403</ele>
<time>2016-08-31T01:50:46.523Z</time>
</trkpt>
<trkpt lat="-27.3291644" lon="152.9365076">
<ele>75.876</ele>
<time>2016-08-31T01:50:49.518Z</time>
</trkpt>
<trkpt lat="-27.3294075" lon="152.9368232">
<ele>75.987</ele>
<time>2016-08-31T01:50:51.504Z</time>
</trkpt>
<trkpt lat="-27.3295896" lon="152.9371942">
<ele>76.092</ele>
<time>2016-08-31T01:50:53.505Z</time>
</trkpt>
<trkpt lat="-27.3296955" lon="152.9375957">
<ele>75.771</ele>
<time>2016-08-31T01:50:55.445Z</time>
</trkpt>
<trkpt lat="-27.3297130" lon="152.9382694">
<ele>74.762</ele>
<time>2016-08-31T01:50:58.497Z</time>
</trkpt>
<trkpt lat="-27.3297039" lon="152.9387058">
<ele>72.939</ele>
<time>2016-08-31T01:51:00.425Z</time>
</trkpt>
<trkpt lat="-27.3296726" lon="152.9391563">
<ele>70.530</ele>
<time>2016-08-31T01:51:02.420Z</time>
</trkpt>
<trkpt lat="-27.3296299" lon="152.9398522">
<ele>67.792</ele>
<time>2016-08-31T01:51:05.487Z</time>
</trkpt>
<trkpt lat="-27.3295848" lon="152.9405348">
<ele>64.316</ele>
<time>2016-08-31T01:51:08.451Z</time>
</trkpt>
<trkpt lat="-27.3295473" lon="152.9409776">
<ele>59.550</ele>
<time>2016-08-31T01:51:10.343Z</time>
</trkpt>
<trkpt lat="-27.3295165" lon="152.9414514">
<ele>54.376</ele>
<time>2016-08-31T01:51:12.339Z</time>
</trkpt>
<trkpt lat="-27.3294523" lon="152.9421511">
<ele>50.403</ele>
<time>2016-08-31T01:51:15.267Z</time>
</trkpt>
<trkpt lat="-27.3294141" lon="152.9426308">
<ele>48.186</ele>
<time>2016-08-31T01:51:17.262Z</time>
</trkpt>
<trkpt lat="-27.3293738" lon="152.9431011">
<ele>47.202</ele>
<time>2016-08-31T01:51:19.228Z</time>
</trkpt>
<trkpt lat="-27.3293313" lon="152.9435803">
<ele>46.779</ele>
<time>2016-08-31T01:51:21.282Z</time>
</trkpt>
<trkpt lat="-27.3292793" lon="152.9440465">
<ele>46.390</ele>
<time>2016-08-31T01:51:23.358Z</time>
</trkpt>
<trkpt lat="-27.3292263" lon="152.9446878">
<ele>45.922</ele>
<time>2016-08-31T01:51:26.320Z</time>
</trkpt>
<trkpt lat="-27.3291718" lon="152.9453158">
<ele>45.625</ele>
<time>2016-08-31T01:51:29.312Z</time>
</trkpt>
<trkpt lat="-27.3291427" lon="152.9457197">
<ele>45.939</ele>
<time>2016-08-31T01:51:31.296Z</time>
</trkpt>
<trkpt lat="-27.3291531" lon="152.9463072">
<ele>46.833</ele>
<time>2016-08-31T01:51:34.171Z</time>
</trkpt>
<trkpt lat="-27.3291612" lon="152.9467355">
<ele>47.587</ele>
<time>2016-08-31T01:51:36.187Z</time>
</trkpt>
<trkpt lat="-27.3291995" lon="152.9471680">
<ele>47.379</ele>
<time>2016-08-31T01:51:38.178Z</time>
</trkpt>
<trkpt lat="-27.3293206" lon="152.9478052">
<ele>46.249</ele>
<time>2016-08-31T01:51:41.144Z</time>
</trkpt>
<trkpt lat="-27.3294185" lon="152.9482170">
<ele>45.059</ele>
<time>2016-08-31T01:51:43.079Z</time>
</trkpt>
<trkpt lat="-27.3295994" lon="152.9488478">
<ele>44.764</ele>
<time>2016-08-31T01:51:46.099Z</time>
</trkpt>
<trkpt lat="-27.3297426" lon="152.9492362">
<ele>45.454</ele>
<time>2016-08-31T01:51:48.089Z</time>
</trkpt>
<trkpt lat="-27.3298891" lon="152.9496006">
<ele>46.270</ele>
<time>2016-08-31T01:51:50.035Z</time>
</trkpt>
<trkpt lat="-27.3301031" lon="152.9501590">
<ele>46.236</ele>
<time>2016-08-31T01:51:53.008Z</time>
</trkpt>
<trkpt lat="-27.3302616" lon="152.9505603">
<ele>44.744</ele>
<time>2016-08-31T01:51:55.130Z</time>
</trkpt>
<trkpt lat="-27.3304736" lon="152.9511405">
<ele>42.067</ele>
<time>2016-08-31T01:51:58.139Z</time>
</trkpt>
<trkpt lat="-27.3306227" lon="152.9515326">
<ele>39.152</ele>
<time>2016-08-31T01:52:00.181Z</time>
</trkpt>
<trkpt lat="-27.3308865" lon="152.9520741">
<ele>36.590</ele>
<time>2016-08-31T01:52:03.149Z</time>
</trkpt>
<trkpt lat="-27.3310898" lon="152.9524163">
<ele>34.648</ele>
<time>2016-08-31T01:52:05.154Z</time>
</trkpt>
<trkpt lat="-27.3312991" lon="152.9527353">
<ele>33.500</ele>
<time>2016-08-31T01:52:07.148Z</time>
</trkpt>
<trkpt lat="-27.3315671" lon="152.9532213">
<ele>32.731</ele>
<time>2016-08-31T01:52:10.138Z</time>
</trkpt>
<trkpt lat="-27.3317443" lon="152.9535109">
<ele>31.676</ele>
<time>2016-08-31T01:52:12.052Z</time>
</trkpt>
<trkpt lat="-27.3319172" lon="152.9538070">
<ele>30.197</ele>
<time>2016-08-31T01:52:13.985Z</time>
</trkpt>
<trkpt lat="-27.3321933" lon="152.9542606">
<ele>28.799</ele>
<time>2016-08-31T01:52:16.989Z</time>
</trkpt>
<trkpt lat="-27.3323800" lon="152.9545565">
<ele>27.669</ele>
<time>2016-08-31T01:52:19.071Z</time>
</trkpt>
<trkpt lat="-27.3326223" lon="152.9549340">
<ele>26.604</ele>
<time>2016-08-31T01:52:21.948Z</time>
</trkpt>
<trkpt lat="-27.3327612" lon="152.9551649">
<ele>25.360</ele>
<time>2016-08-31T01:52:23.911Z</time>
</trkpt>
<trkpt lat="-27.3329437" lon="152.9554749">
<ele>23.736</ele>
<time>2016-08-31T01:52:26.855Z</time>
</trkpt>
<trkpt lat="-27.3330467" lon="152.9556555">
<ele>21.878</ele>
<time>2016-08-31T01:52:28.841Z</time>
</trkpt>
<trkpt lat="-27.3331267" lon="152.9557979">
<ele>20.239</ele>
<time>2016-08-31T01:52:30.747Z</time>
</trkpt>
<trkpt lat="-27.3332125" lon="152.9559321">
<ele>19.120</ele>
<time>2016-08-31T01:52:33.198Z</time>
</trkpt>
<trkpt lat="-27.3332681" lon="152.9560372">
<ele>18.442</ele>
<time>2016-08-31T01:52:35.872Z</time>
</trkpt>
<trkpt lat="-27.3334035" lon="152.9562295">
<ele>17.956</ele>
<time>2016-08-31T01:52:39.398Z</time>
</trkpt>
<trkpt lat="-27.3335333" lon="152.9564075">
<ele>17.867</ele>
<time>2016-08-31T01:52:41.459Z</time>
</trkpt>
<trkpt lat="-27.3336902" lon="152.9566359">
<ele>18.466</ele>
<time>2016-08-31T01:52:43.586Z</time>
</trkpt>
<trkpt lat="-27.3339535" lon="152.9569777">
<ele>19.390</ele>
<time>2016-08-31T01:52:46.554Z</time>
</trkpt>
<trkpt lat="-27.3341593" lon="152.9572221">
<ele>20.105</ele>
<time>2016-08-31T01:52:48.561Z</time>
</trkpt>
<trkpt lat="-27.3344933" lon="152.9576057">
<ele>20.498</ele>
<time>2016-08-31T01:52:51.642Z</time>
</trkpt>
<trkpt lat="-27.3348146" lon="152.9579777">
<ele>20.830</ele>
<time>2016-08-31T01:52:54.601Z</time>
</trkpt>
<trkpt lat="-27.3351405" lon="152.9583546">
<ele>21.295</ele>
<time>2016-08-31T01:52:57.633Z</time>
</trkpt>
<trkpt lat="-27.3353666" lon="152.9586101">
<ele>21.983</ele>
<time>2016-08-31T01:52:59.748Z</time>
</trkpt>
<trkpt lat="-27.3356532" lon="152.9589631">
<ele>22.890</ele>
<time>2016-08-31T01:53:02.624Z</time>
</trkpt>
<trkpt lat="-27.3358691" lon="152.9593657">
<ele>23.874</ele>
<time>2016-08-31T01:53:05.563Z</time>
</trkpt>
<trkpt lat="-27.3359448" lon="152.9596582">
<ele>24.861</ele>
<time>2016-08-31T01:53:07.571Z</time>
</trkpt>
<trkpt lat="-27.3359847" lon="152.9599212">
<ele>25.785</ele>
<time>2016-08-31T01:53:09.529Z</time>
</trkpt>
<trkpt lat="-27.3360207" lon="152.9602322">
<ele>26.262</ele>
<time>2016-08-31T01:53:12.402Z</time>
</trkpt>
<trkpt lat="-27.3360396" lon="152.9603609">
<ele>26.059</ele>
<time>2016-08-31T01:53:14.077Z</time>
</trkpt>
<trkpt lat="-27.3360396" lon="152.9603609">
<ele>25.457</ele>
<time>2016-08-31T01:53:19.055Z</time>
</trkpt>
<trkpt lat="-27.3360396" lon="152.9603609">
<ele>25.031</ele>
<time>2016-08-31T01:53:51.611Z</time>
</trkpt>
<trkpt lat="-27.3360599" lon="152.9606513">
<ele>25.120</ele>
<time>2016-08-31T01:53:58.892Z</time>
</trkpt>
<trkpt lat="-27.3361492" lon="152.9608649">
<ele>25.608</ele>
<time>2016-08-31T01:54:01.921Z</time>
</trkpt>
<trkpt lat="-27.3362776" lon="152.9608966">
<ele>26.244</ele>
<time>2016-08-31T01:54:03.521Z</time>
</trkpt>
<trkpt lat="-27.3364495" lon="152.9608618">
<ele>26.838</ele>
<time>2016-08-31T01:54:05.299Z</time>
</trkpt>
<trkpt lat="-27.3367608" lon="152.9608208">
<ele>27.293</ele>
<time>2016-08-31T01:54:08.162Z</time>
</trkpt>
<trkpt lat="-27.3369728" lon="152.9607998">
<ele>27.647</ele>
<time>2016-08-31T01:54:10.043Z</time>
</trkpt>
<trkpt lat="-27.3371673" lon="152.9607805">
<ele>27.933</ele>
<time>2016-08-31T01:54:11.907Z</time>
</trkpt>
<trkpt lat="-27.3373991" lon="152.9607457">
<ele>28.054</ele>
<time>2016-08-31T01:54:14.653Z</time>
</trkpt>
<trkpt lat="-27.3374894" lon="152.9607251">
<ele>27.973</ele>
<time>2016-08-31T01:54:16.090Z</time>
</trkpt>
<trkpt lat="-27.3374894" lon="152.9607251">
<ele>27.792</ele>
<time>2016-08-31T01:54:23.071Z</time>
</trkpt>
<trkpt lat="-27.3374894" lon="152.9607251">
<ele>27.670</ele>
<time>2016-08-31T01:55:02.466Z</time>
</trkpt>
<trkpt lat="-27.3377102" lon="152.9607003">
<ele>27.665</ele>
<time>2016-08-31T01:55:09.999Z</time>
</trkpt>
<trkpt lat="-27.3378585" lon="152.9606734">
<ele>27.714</ele>
<time>2016-08-31T01:55:11.628Z</time>
</trkpt>
<trkpt lat="-27.3381666" lon="152.9606305">
<ele>27.863</ele>
<time>2016-08-31T01:55:14.470Z</time>
</trkpt>
<trkpt lat="-27.3384351" lon="152.9606182">
<ele>28.415</ele>
<time>2016-08-31T01:55:16.498Z</time>
</trkpt>
<trkpt lat="-27.3387214" lon="152.9606535">
<ele>29.361</ele>
<time>2016-08-31T01:55:18.497Z</time>
</trkpt>
<trkpt lat="-27.3391612" lon="152.9608202">
<ele>30.156</ele>
<time>2016-08-31T01:55:21.537Z</time>
</trkpt>
<trkpt lat="-27.3396151" lon="152.9609654">
<ele>30.244</ele>
<time>2016-08-31T01:55:24.525Z</time>
</trkpt>
<trkpt lat="-27.3398978" lon="152.9610298">
<ele>29.282</ele>
<time>2016-08-31T01:55:26.347Z</time>
</trkpt>
<trkpt lat="-27.3402189" lon="152.9610771">
<ele>27.399</ele>
<time>2016-08-31T01:55:28.325Z</time>
</trkpt>
<trkpt lat="-27.3407371" lon="152.9611287">
<ele>25.105</ele>
<time>2016-08-31T01:55:31.375Z</time>
</trkpt>
<trkpt lat="-27.3410823" lon="152.9611598">
<ele>22.709</ele>
<time>2016-08-31T01:55:33.328Z</time>
</trkpt>
<trkpt lat="-27.3416087" lon="152.9612022">
<ele>20.559</ele>
<time>2016-08-31T01:55:36.253Z</time>
</trkpt>
<trkpt lat="-27.3419753" lon="152.9612334">
<ele>18.992</ele>
<time>2016-08-31T01:55:38.241Z</time>
</trkpt>
<trkpt lat="-27.3425399" lon="152.9612971">
<ele>17.966</ele>
<time>2016-08-31T01:55:41.291Z</time>
</trkpt>
<trkpt lat="-27.3430845" lon="152.9613613">
<ele>17.231</ele>
<time>2016-08-31T01:55:44.288Z</time>
</trkpt>
<trkpt lat="-27.3434151" lon="152.9614416">
<ele>16.394</ele>
<time>2016-08-31T01:55:46.238Z</time>
</trkpt>
<trkpt lat="-27.3438760" lon="152.9616247">
<ele>15.380</ele>
<time>2016-08-31T01:55:49.156Z</time>
</trkpt>
<trkpt lat="-27.3441595" lon="152.9617832">
<ele>14.711</ele>
<time>2016-08-31T01:55:51.112Z</time>
</trkpt>
<trkpt lat="-27.3445640" lon="152.9620676">
<ele>14.921</ele>
<time>2016-08-31T01:55:54.138Z</time>
</trkpt>
<trkpt lat="-27.3449092" lon="152.9623693">
<ele>16.028</ele>
<time>2016-08-31T01:55:57.020Z</time>
</trkpt>
<trkpt lat="-27.3451136" lon="152.9626030">
<ele>17.604</ele>
<time>2016-08-31T01:55:59.088Z</time>
</trkpt>
<trkpt lat="-27.3452764" lon="152.9628166">
<ele>19.130</ele>
<time>2016-08-31T01:56:01.066Z</time>
</trkpt>
<trkpt lat="-27.3454623" lon="152.9630871">
<ele>20.325</ele>
<time>2016-08-31T01:56:04.313Z</time>
</trkpt>
<trkpt lat="-27.3455306" lon="152.9631954">
<ele>20.979</ele>
<time>2016-08-31T01:56:06.082Z</time>
</trkpt>
<trkpt lat="-27.3455306" lon="152.9631954">
<ele>21.091</ele>
<time>2016-08-31T01:56:10.093Z</time>
</trkpt>
<trkpt lat="-27.3455306" lon="152.9631954">
<ele>20.985</ele>
<time>2016-08-31T01:56:54.373Z</time>
</trkpt>
<trkpt lat="-27.3457077" lon="152.9632952">
<ele>20.954</ele>
<time>2016-08-31T01:56:59.488Z</time>
</trkpt>
<trkpt lat="-27.3459249" lon="152.9631798">
<ele>21.519</ele>
<time>2016-08-31T01:57:02.342Z</time>
</trkpt>
<trkpt lat="-27.3460838" lon="152.9630111">
<ele>23.292</ele>
<time>2016-08-31T01:57:04.287Z</time>
</trkpt>
<trkpt lat="-27.3463762" lon="152.9627281">
<ele>25.890</ele>
<time>2016-08-31T01:57:07.318Z</time>
</trkpt>
<trkpt lat="-27.3465822" lon="152.9625334">
<ele>28.378</ele>
<time>2016-08-31T01:57:09.269Z</time>
</trkpt>
<trkpt lat="-27.3468920" lon="152.9622355">
<ele>30.171</ele>
<time>2016-08-31T01:57:12.193Z</time>
</trkpt>
<trkpt lat="-27.3470940" lon="152.9620360">
<ele>30.958</ele>
<time>2016-08-31T01:57:14.132Z</time>
</trkpt>
<trkpt lat="-27.3474052" lon="152.9617563">
<ele>30.728</ele>
<time>2016-08-31T01:57:17.052Z</time>
</trkpt>
<trkpt lat="-27.3475866" lon="152.9615757">
<ele>29.689</ele>
<time>2016-08-31T01:57:18.927Z</time>
</trkpt>
<trkpt lat="-27.3478002" lon="152.9612290">
<ele>28.111</ele>
<time>2016-08-31T01:57:22.011Z</time>
</trkpt>
<trkpt lat="-27.3479065" lon="152.9610060">
<ele>26.300</ele>
<time>2016-08-31T01:57:23.952Z</time>
</trkpt>
<trkpt lat="-27.3479823" lon="152.9607671">
<ele>24.541</ele>
<time>2016-08-31T01:57:25.931Z</time>
</trkpt>
<trkpt lat="-27.3480292" lon="152.9605259">
<ele>23.041</ele>
<time>2016-08-31T01:57:27.909Z</time>
</trkpt>
<trkpt lat="-27.3480349" lon="152.9601671">
<ele>21.704</ele>
<time>2016-08-31T01:57:30.851Z</time>
</trkpt>
<trkpt lat="-27.3480026" lon="152.9599415">
<ele>20.139</ele>
<time>2016-08-31T01:57:32.755Z</time>
</trkpt>
<trkpt lat="-27.3479418" lon="152.9595883">
<ele>18.198</ele>
<time>2016-08-31T01:57:35.721Z</time>
</trkpt>
<trkpt lat="-27.3478850" lon="152.9592292">
<ele>16.317</ele>
<time>2016-08-31T01:57:38.666Z</time>
</trkpt>
<trkpt lat="-27.3478549" lon="152.9590038">
<ele>15.072</ele>
<time>2016-08-31T01:57:40.510Z</time>
</trkpt>
<trkpt lat="-27.3478217" lon="152.9587632">
<ele>14.628</ele>
<time>2016-08-31T01:57:42.485Z</time>
</trkpt>
<trkpt lat="-27.3477687" lon="152.9583877">
<ele>14.838</ele>
<time>2016-08-31T01:57:45.471Z</time>
</trkpt>
<trkpt lat="-27.3477319" lon="152.9580101">
<ele>15.910</ele>
<time>2016-08-31T01:57:48.452Z</time>
</trkpt>
<trkpt lat="-27.3477399" lon="152.9577795">
<ele>18.157</ele>
<time>2016-08-31T01:57:50.286Z</time>
</trkpt>
<trkpt lat="-27.3478273" lon="152.9573314">
<ele>21.079</ele>
<time>2016-08-31T01:57:53.968Z</time>
</trkpt>
<trkpt lat="-27.3479571" lon="152.9570303">
<ele>23.930</ele>
<time>2016-08-31T01:57:56.779Z</time>
</trkpt>
<trkpt lat="-27.3480659" lon="152.9568460">
<ele>26.401</ele>
<time>2016-08-31T01:57:58.690Z</time>
</trkpt>
<trkpt lat="-27.3482765" lon="152.9565958">
<ele>28.239</ele>
<time>2016-08-31T01:58:01.643Z</time>
</trkpt>
<trkpt lat="-27.3485055" lon="152.9563481">
<ele>29.276</ele>
<time>2016-08-31T01:58:04.570Z</time>
</trkpt>
<trkpt lat="-27.3486631" lon="152.9561770">
<ele>29.737</ele>
<time>2016-08-31T01:58:06.523Z</time>
</trkpt>
<trkpt lat="-27.3487933" lon="152.9560326">
<ele>29.920</ele>
<time>2016-08-31T01:58:08.235Z</time>
</trkpt>
<trkpt lat="-27.3489728" lon="152.9558371">
<ele>29.772</ele>
<time>2016-08-31T01:58:10.894Z</time>
</trkpt>
<trkpt lat="-27.3491352" lon="152.9557096">
<ele>28.887</ele>
<time>2016-08-31T01:58:13.000Z</time>
</trkpt>
<trkpt lat="-27.3494858" lon="152.9555487">
<ele>27.391</ele>
<time>2016-08-31T01:58:16.240Z</time>
</trkpt>
<trkpt lat="-27.3498590" lon="152.9553992">
<ele>25.811</ele>
<time>2016-08-31T01:58:19.191Z</time>
</trkpt>
<trkpt lat="-27.3501169" lon="152.9552961">
<ele>24.483</ele>
<time>2016-08-31T01:58:21.173Z</time>
</trkpt>
<trkpt lat="-27.3505113" lon="152.9551386">
<ele>23.875</ele>
<time>2016-08-31T01:58:24.128Z</time>
</trkpt>
<trkpt lat="-27.3508964" lon="152.9549848">
<ele>24.460</ele>
<time>2016-08-31T01:58:26.978Z</time>
</trkpt>
<trkpt lat="-27.3511580" lon="152.9548803">
<ele>25.980</ele>
<time>2016-08-31T01:58:28.930Z</time>
</trkpt>
<trkpt lat="-27.3514083" lon="152.9547804">
<ele>27.940</ele>
<time>2016-08-31T01:58:30.840Z</time>
</trkpt>
<trkpt lat="-27.3516602" lon="152.9546797">
<ele>29.824</ele>
<time>2016-08-31T01:58:32.787Z</time>
</trkpt>
<trkpt lat="-27.3520439" lon="152.9545307">
<ele>30.948</ele>
<time>2016-08-31T01:58:35.723Z</time>
</trkpt>
<trkpt lat="-27.3523055" lon="152.9544319">
<ele>30.677</ele>
<time>2016-08-31T01:58:37.708Z</time>
</trkpt>
<trkpt lat="-27.3526607" lon="152.9543059">
<ele>29.163</ele>
<time>2016-08-31T01:58:40.524Z</time>
</trkpt>
<trkpt lat="-27.3529135" lon="152.9542286">
<ele>27.379</ele>
<time>2016-08-31T01:58:42.788Z</time>
</trkpt>
<trkpt lat="-27.3531581" lon="152.9542470">
<ele>26.206</ele>
<time>2016-08-31T01:58:45.095Z</time>
</trkpt>
<trkpt lat="-27.3534969" lon="152.9543103">
<ele>25.970</ele>
<time>2016-08-31T01:58:48.265Z</time>
</trkpt>
<trkpt lat="-27.3538412" lon="152.9544588">
<ele>27.102</ele>
<time>2016-08-31T01:58:51.337Z</time>
</trkpt>
<trkpt lat="-27.3540490" lon="152.9545979">
<ele>29.340</ele>
<time>2016-08-31T01:58:53.274Z</time>
</trkpt>
<trkpt lat="-27.3542451" lon="152.9547622">
<ele>31.356</ele>
<time>2016-08-31T01:58:55.223Z</time>
</trkpt>
<trkpt lat="-27.3544825" lon="152.9550214">
<ele>32.186</ele>
<time>2016-08-31T01:58:57.986Z</time>
</trkpt>
<trkpt lat="-27.3546486" lon="152.9553097">
<ele>32.040</ele>
<time>2016-08-31T01:59:00.752Z</time>
</trkpt>
<trkpt lat="-27.3547476" lon="152.9555275">
<ele>31.428</ele>
<time>2016-08-31T01:59:02.800Z</time>
</trkpt>
<trkpt lat="-27.3548169" lon="152.9557773">
<ele>30.553</ele>
<time>2016-08-31T01:59:04.935Z</time>
</trkpt>
<trkpt lat="-27.3548537" lon="152.9561846">
<ele>29.200</ele>
<time>2016-08-31T01:59:08.082Z</time>
</trkpt>
<trkpt lat="-27.3548762" lon="152.9565402">
<ele>26.804</ele>
<time>2016-08-31T01:59:10.795Z</time>
</trkpt>
<trkpt lat="-27.3548895" lon="152.9567947">
<ele>23.320</ele>
<time>2016-08-31T01:59:12.753Z</time>
</trkpt>
<trkpt lat="-27.3548967" lon="152.9569980">
<ele>19.937</ele>
<time>2016-08-31T01:59:14.359Z</time>
</trkpt>
<trkpt lat="-27.3549054" lon="152.9572255">
<ele>17.779</ele>
<time>2016-08-31T01:59:16.322Z</time>
</trkpt>
<trkpt lat="-27.3548376" lon="152.9573572">
<ele>16.700</ele>
<time>2016-08-31T01:59:17.940Z</time>
</trkpt>
<trkpt lat="-27.3549348" lon="152.9574144">
<ele>16.146</ele>
<time>2016-08-31T01:59:19.307Z</time>
</trkpt>
<trkpt lat="-27.3550027" lon="152.9573444">
<ele>16.032</ele>
<time>2016-08-31T01:59:20.784Z</time>
</trkpt>
<trkpt lat="-27.3552481" lon="152.9573193">
<ele>16.446</ele>
<time>2016-08-31T01:59:25.744Z</time>
</trkpt>
<trkpt lat="-27.3558229" lon="152.9571742">
<ele>17.640</ele>
<time>2016-08-31T01:59:33.224Z</time>
</trkpt>
<trkpt lat="-27.3560417" lon="152.9570154">
<ele>18.019</ele>
<time>2016-08-31T01:59:35.780Z</time>
</trkpt>
<trkpt lat="-27.3563978" lon="152.9567816">
<ele>18.280</ele>
<time>2016-08-31T01:59:39.618Z</time>
</trkpt>
<trkpt lat="-27.3565928" lon="152.9566296">
<ele>18.460</ele>
<time>2016-08-31T01:59:42.124Z</time>
</trkpt>
<trkpt lat="-27.3565928" lon="152.9566296">
<ele>18.551</ele>
<time>2016-08-31T01:59:47.078Z</time>
</trkpt>
<trkpt lat="-27.3565928" lon="152.9566296">
<ele>18.535</ele>
<time>2016-08-31T02:00:08.911Z</time>
</trkpt>
<trkpt lat="-27.3568104" lon="152.9566360">
<ele>18.492</ele>
<time>2016-08-31T02:00:17.059Z</time>
</trkpt>
<trkpt lat="-27.3568104" lon="152.9566360">
<ele>18.487</ele>
<time>2016-08-31T02:00:25.999Z</time>
</trkpt>
</trkseg>
</trk>
<extensions>
<fpdata xmlns="http://www.motionx.com/GPX-Extensions/1/1" sfv="10" origin="MotionXGPSFull 24.1 Build 5049R64">
<bin enc="base64">
RgIAAAACAAAA1IDWAILx1UEBAAAAeJfOQ5Hx1UEAAKTpv/vEQF4QAABhGEwBeLtpT2Sp
P0BpE1vhrXwyQAAAAAALAAAATkcgMzEtOC0xNgAVAAAAMzEgQXVnIDIwMTYgIDg6MjYg
YW0AAAAAAKaXzkOR8dVBhgAWUJHx1UF7IaQASOkCWjSnn0AsAAAAAgAAAJQTyGUJH2NA
BBygYeFbO8B4u2lPZKk/QAAAAAAAACRAAAAAAAAAKEAAAAAAAPyxQAAAAAAAAAAAAAAA
AFK4HoXr4WdA5t27PA9yMEABAAAAtkPJMzL6lr8BAAAAAQAAAMoXY74PGsI/zq1nBNVb
xL8BAAAAAQAAAAAAAAAAAAAAAAAAAAAAAAAAAAAAAQAAAA8AAABOR18zMS04LTE2Lmdw
eAABAAAAADqZTZHx1UEKAAAAAQAAAAsAAABORyAzMS04LTE2AAAAAAAMAAAAAAAAAAAA
AADVGwAAjP9/jo7x1UEAAAAAAAAAAAAAAAAAAAAA/yVEvAIAAAAAAAAAAAAAAAEAAAAn
AAAAMjQuMSBCdWlsZCA1MDQ5UjY0LCBNWEFFIDguMSBiLiA2MjZSNjQAAAAAACVlAAAB
AAAAAQ0AAAADCMZXOjrGVwTkgdYAgvHVQeSB1gCC8dVBAAAAAACcEj8AAAAAAuCA1gCC
8dVBQnzFSYLx1UEAAIDYvjtyQAAAAAACVBrETILx1UHLMElbgvHVQQAAQHYE3XVAAAAA
AAKWfMlcgvHVQRYuhgiD8dVBAACQNQwzkEAAAAAAAnAmhwqD8dVBajSGnofx1UEAAExF
v1y2QAAAAAADSS7Mvofx1UFJLsy+h/HVQQAATEW/XLZAAAAAAASxNcbAh/HVQbE1xsCH
8dVBAABMRb9ctkAAAAAAAu+Rh3yJ8dVB63HGk43x1UEAAJ5i3VzDQAAAAAACeQbHlo3x
1UE+rcYjjvHVQQAAKLDcdsRAAAAAAAKPxUotjvHVQZxQxzOO8dVBAABCxtWDxEAAAAAA
AjqVCj+O8dVBti+ITo7x1UEAADr70KLEQAAAAAACWFiMWo7x1UGCqceEjvHVQQAAjp1H
98RAAAAAAALeIUeMjvHVQelHg46O8dVBAACk6b/7xEAAAAAAAAAAAA==
</bin>
</fpdata>
</extensions>
</gpx>